<?xml version="1.0" encoding="UTF-8" standalone="no" ?>
<gpx xmlns="http://www.topografix.com/GPX/1/1" xmlns:xsi="http://www.w3.org/2001/XMLSchema-instance" xsi:schemaLocation="http://www.topografix.com/GPX/1/1 http://www.topografix.com/GPX/1/1/gpx.xsd" version="1.1" creator="VisuGPX - https://www.visugpx.com">
  <metadata>
    <name>Arlay,Ruffey sur Seille,Le Château</name>
    <desc><![CDATA[
]]></desc>
  </metadata>
  <trk>
    <name><![CDATA[Arlay,Ruffey sur Seille,Le Château_1]]></name>
    <trkseg>
      <trkpt lat="46.76075" lon="5.52972">
        <ele>221.7</ele>
        <time>2020-02-18T08:04:10Z</time>
      </trkpt>
      <trkpt lat="46.7608" lon="5.5295">
        <ele>220.5</ele>
        <time>2020-02-18T08:06:03Z</time>
      </trkpt>
      <trkpt lat="46.76081" lon="5.52943">
        <ele>220.6</ele>
        <time>2020-02-18T08:06:06Z</time>
      </trkpt>
      <trkpt lat="46.76085" lon="5.52933">
        <ele>221.2</ele>
        <time>2020-02-18T08:06:15Z</time>
      </trkpt>
      <trkpt lat="46.76088" lon="5.52926">
        <ele>221.3</ele>
        <time>2020-02-18T08:06:17Z</time>
      </trkpt>
      <trkpt lat="46.76091" lon="5.52919">
        <ele>221.3</ele>
        <time>2020-02-18T08:06:20Z</time>
      </trkpt>
      <trkpt lat="46.76094" lon="5.52912">
        <ele>221.4</ele>
        <time>2020-02-18T08:06:24Z</time>
      </trkpt>
      <trkpt lat="46.76094" lon="5.52905">
        <ele>221.5</ele>
        <time>2020-02-18T08:06:28Z</time>
      </trkpt>
      <trkpt lat="46.76095" lon="5.52898">
        <ele>221.7</ele>
        <time>2020-02-18T08:06:33Z</time>
      </trkpt>
      <trkpt lat="46.76097" lon="5.52891">
        <ele>221.7</ele>
        <time>2020-02-18T08:06:38Z</time>
      </trkpt>
      <trkpt lat="46.76098" lon="5.52884">
        <ele>221.9</ele>
        <time>2020-02-18T08:06:45Z</time>
      </trkpt>
      <trkpt lat="46.76101" lon="5.52879">
        <ele>222</ele>
        <time>2020-02-18T08:06:49Z</time>
      </trkpt>
      <trkpt lat="46.76101" lon="5.52862">
        <ele>221.9</ele>
        <time>2020-02-18T08:07:01Z</time>
      </trkpt>
      <trkpt lat="46.76102" lon="5.52854">
        <ele>221.9</ele>
        <time>2020-02-18T08:07:06Z</time>
      </trkpt>
      <trkpt lat="46.76103" lon="5.52847">
        <ele>222.1</ele>
        <time>2020-02-18T08:07:10Z</time>
      </trkpt>
      <trkpt lat="46.76104" lon="5.5284">
        <ele>222.3</ele>
        <time>2020-02-18T08:07:14Z</time>
      </trkpt>
      <trkpt lat="46.76118" lon="5.52823">
        <ele>225.7</ele>
        <time>2020-02-18T08:07:33Z</time>
      </trkpt>
      <trkpt lat="46.76121" lon="5.52816">
        <ele>225.8</ele>
        <time>2020-02-18T08:07:38Z</time>
      </trkpt>
      <trkpt lat="46.76123" lon="5.52809">
        <ele>225.7</ele>
        <time>2020-02-18T08:07:42Z</time>
      </trkpt>
      <trkpt lat="46.76127" lon="5.52804">
        <ele>225.6</ele>
        <time>2020-02-18T08:07:47Z</time>
      </trkpt>
      <trkpt lat="46.7613" lon="5.52799">
        <ele>224.6</ele>
        <time>2020-02-18T08:07:57Z</time>
      </trkpt>
      <trkpt lat="46.76134" lon="5.52794">
        <ele>223.7</ele>
        <time>2020-02-18T08:08:10Z</time>
      </trkpt>
      <trkpt lat="46.76138" lon="5.5279">
        <ele>223.5</ele>
        <time>2020-02-18T08:08:19Z</time>
      </trkpt>
      <trkpt lat="46.76142" lon="5.52781">
        <ele>216.7</ele>
        <time>2020-02-18T08:11:18Z</time>
      </trkpt>
      <trkpt lat="46.76141" lon="5.52774">
        <ele>214.8</ele>
        <time>2020-02-18T08:11:25Z</time>
      </trkpt>
      <trkpt lat="46.7614" lon="5.52765">
        <ele>212.4</ele>
        <time>2020-02-18T08:11:32Z</time>
      </trkpt>
      <trkpt lat="46.76138" lon="5.52758">
        <ele>211.1</ele>
        <time>2020-02-18T08:11:35Z</time>
      </trkpt>
      <trkpt lat="46.76138" lon="5.52751">
        <ele>209.1</ele>
        <time>2020-02-18T08:11:40Z</time>
      </trkpt>
      <trkpt lat="46.76139" lon="5.52743">
        <ele>207.4</ele>
        <time>2020-02-18T08:11:47Z</time>
      </trkpt>
      <trkpt lat="46.76136" lon="5.52737">
        <ele>207.2</ele>
        <time>2020-02-18T08:11:50Z</time>
      </trkpt>
      <trkpt lat="46.76134" lon="5.5273">
        <ele>207</ele>
        <time>2020-02-18T08:11:55Z</time>
      </trkpt>
      <trkpt lat="46.76133" lon="5.52724">
        <ele>206.9</ele>
        <time>2020-02-18T08:11:58Z</time>
      </trkpt>
      <trkpt lat="46.76129" lon="5.52717">
        <ele>206.9</ele>
        <time>2020-02-18T08:12:02Z</time>
      </trkpt>
      <trkpt lat="46.76126" lon="5.52711">
        <ele>207.1</ele>
        <time>2020-02-18T08:12:08Z</time>
      </trkpt>
      <trkpt lat="46.76122" lon="5.52708">
        <ele>207.4</ele>
        <time>2020-02-18T08:12:15Z</time>
      </trkpt>
      <trkpt lat="46.76118" lon="5.52704">
        <ele>207.7</ele>
        <time>2020-02-18T08:12:19Z</time>
      </trkpt>
      <trkpt lat="46.76112" lon="5.52701">
        <ele>207.7</ele>
        <time>2020-02-18T08:12:22Z</time>
      </trkpt>
      <trkpt lat="46.76108" lon="5.52698">
        <ele>207.6</ele>
        <time>2020-02-18T08:12:24Z</time>
      </trkpt>
      <trkpt lat="46.76102" lon="5.52695">
        <ele>207.3</ele>
        <time>2020-02-18T08:12:27Z</time>
      </trkpt>
      <trkpt lat="46.76098" lon="5.52692">
        <ele>206.8</ele>
        <time>2020-02-18T08:12:30Z</time>
      </trkpt>
      <trkpt lat="46.76093" lon="5.5269">
        <ele>206.2</ele>
        <time>2020-02-18T08:12:34Z</time>
      </trkpt>
      <trkpt lat="46.76088" lon="5.52688">
        <ele>206.1</ele>
        <time>2020-02-18T08:12:38Z</time>
      </trkpt>
      <trkpt lat="46.76084" lon="5.52687">
        <ele>206.3</ele>
        <time>2020-02-18T08:12:43Z</time>
      </trkpt>
      <trkpt lat="46.76079" lon="5.52682">
        <ele>206.7</ele>
        <time>2020-02-18T08:12:48Z</time>
      </trkpt>
      <trkpt lat="46.76078" lon="5.52675">
        <ele>207.1</ele>
        <time>2020-02-18T08:12:53Z</time>
      </trkpt>
      <trkpt lat="46.76077" lon="5.52668">
        <ele>207.5</ele>
        <time>2020-02-18T08:12:57Z</time>
      </trkpt>
      <trkpt lat="46.76075" lon="5.5266">
        <ele>208</ele>
        <time>2020-02-18T08:13:01Z</time>
      </trkpt>
      <trkpt lat="46.76074" lon="5.52653">
        <ele>208.4</ele>
        <time>2020-02-18T08:13:06Z</time>
      </trkpt>
      <trkpt lat="46.76072" lon="5.52646">
        <ele>208.5</ele>
        <time>2020-02-18T08:13:11Z</time>
      </trkpt>
      <trkpt lat="46.7607" lon="5.52639">
        <ele>208.6</ele>
        <time>2020-02-18T08:13:16Z</time>
      </trkpt>
      <trkpt lat="46.76068" lon="5.52632">
        <ele>208.8</ele>
        <time>2020-02-18T08:13:21Z</time>
      </trkpt>
      <trkpt lat="46.76067" lon="5.52625">
        <ele>209</ele>
        <time>2020-02-18T08:13:26Z</time>
      </trkpt>
      <trkpt lat="46.76066" lon="5.52617">
        <ele>209.1</ele>
        <time>2020-02-18T08:13:31Z</time>
      </trkpt>
      <trkpt lat="46.76067" lon="5.5261">
        <ele>209.3</ele>
        <time>2020-02-18T08:13:34Z</time>
      </trkpt>
      <trkpt lat="46.7607" lon="5.52605">
        <ele>209.7</ele>
        <time>2020-02-18T08:13:38Z</time>
      </trkpt>
      <trkpt lat="46.76071" lon="5.52599">
        <ele>209.9</ele>
        <time>2020-02-18T08:13:40Z</time>
      </trkpt>
      <trkpt lat="46.76071" lon="5.52591">
        <ele>210.3</ele>
        <time>2020-02-18T08:13:43Z</time>
      </trkpt>
      <trkpt lat="46.76071" lon="5.52584">
        <ele>211.2</ele>
        <time>2020-02-18T08:13:48Z</time>
      </trkpt>
      <trkpt lat="46.7607" lon="5.52578">
        <ele>212.6</ele>
        <time>2020-02-18T08:13:54Z</time>
      </trkpt>
      <trkpt lat="46.7607" lon="5.5257">
        <ele>213.9</ele>
        <time>2020-02-18T08:13:59Z</time>
      </trkpt>
      <trkpt lat="46.76071" lon="5.52563">
        <ele>215</ele>
        <time>2020-02-18T08:14:04Z</time>
      </trkpt>
      <trkpt lat="46.76073" lon="5.52556">
        <ele>215.6</ele>
        <time>2020-02-18T08:14:08Z</time>
      </trkpt>
      <trkpt lat="46.76074" lon="5.52549">
        <ele>216.1</ele>
        <time>2020-02-18T08:14:14Z</time>
      </trkpt>
      <trkpt lat="46.76073" lon="5.52542">
        <ele>216.4</ele>
        <time>2020-02-18T08:14:19Z</time>
      </trkpt>
      <trkpt lat="46.76072" lon="5.52534">
        <ele>216.7</ele>
        <time>2020-02-18T08:14:25Z</time>
      </trkpt>
      <trkpt lat="46.76072" lon="5.52526">
        <ele>216.8</ele>
        <time>2020-02-18T08:14:30Z</time>
      </trkpt>
      <trkpt lat="46.76071" lon="5.52518">
        <ele>217</ele>
        <time>2020-02-18T08:14:35Z</time>
      </trkpt>
      <trkpt lat="46.76071" lon="5.5251">
        <ele>217.1</ele>
        <time>2020-02-18T08:14:39Z</time>
      </trkpt>
      <trkpt lat="46.76072" lon="5.52502">
        <ele>217.1</ele>
        <time>2020-02-18T08:14:44Z</time>
      </trkpt>
      <trkpt lat="46.76072" lon="5.52495">
        <ele>217.1</ele>
        <time>2020-02-18T08:14:48Z</time>
      </trkpt>
      <trkpt lat="46.76072" lon="5.52487">
        <ele>217.2</ele>
        <time>2020-02-18T08:14:53Z</time>
      </trkpt>
      <trkpt lat="46.76072" lon="5.52479">
        <ele>217.5</ele>
        <time>2020-02-18T08:14:57Z</time>
      </trkpt>
      <trkpt lat="46.76072" lon="5.52473">
        <ele>217.8</ele>
        <time>2020-02-18T08:15:02Z</time>
      </trkpt>
      <trkpt lat="46.76071" lon="5.52463">
        <ele>218</ele>
        <time>2020-02-18T08:15:07Z</time>
      </trkpt>
      <trkpt lat="46.7607" lon="5.52456">
        <ele>218.1</ele>
        <time>2020-02-18T08:15:12Z</time>
      </trkpt>
      <trkpt lat="46.76069" lon="5.52448">
        <ele>218.2</ele>
        <time>2020-02-18T08:15:17Z</time>
      </trkpt>
      <trkpt lat="46.7607" lon="5.52442">
        <ele>218.3</ele>
        <time>2020-02-18T08:15:21Z</time>
      </trkpt>
      <trkpt lat="46.7607" lon="5.52434">
        <ele>218.2</ele>
        <time>2020-02-18T08:15:26Z</time>
      </trkpt>
      <trkpt lat="46.76071" lon="5.52426">
        <ele>218.2</ele>
        <time>2020-02-18T08:15:31Z</time>
      </trkpt>
      <trkpt lat="46.76072" lon="5.5242">
        <ele>218.1</ele>
        <time>2020-02-18T08:15:35Z</time>
      </trkpt>
      <trkpt lat="46.76072" lon="5.52413">
        <ele>217.9</ele>
        <time>2020-02-18T08:15:39Z</time>
      </trkpt>
      <trkpt lat="46.76071" lon="5.52406">
        <ele>217.8</ele>
        <time>2020-02-18T08:15:43Z</time>
      </trkpt>
      <trkpt lat="46.7607" lon="5.524">
        <ele>217.9</ele>
        <time>2020-02-18T08:15:47Z</time>
      </trkpt>
      <trkpt lat="46.76069" lon="5.52392">
        <ele>218.1</ele>
        <time>2020-02-18T08:15:52Z</time>
      </trkpt>
      <trkpt lat="46.76071" lon="5.52385">
        <ele>218.1</ele>
        <time>2020-02-18T08:15:56Z</time>
      </trkpt>
      <trkpt lat="46.76072" lon="5.52378">
        <ele>218.1</ele>
        <time>2020-02-18T08:16:01Z</time>
      </trkpt>
      <trkpt lat="46.76073" lon="5.5237">
        <ele>218.1</ele>
        <time>2020-02-18T08:16:06Z</time>
      </trkpt>
      <trkpt lat="46.76073" lon="5.52363">
        <ele>218</ele>
        <time>2020-02-18T08:16:10Z</time>
      </trkpt>
      <trkpt lat="46.76073" lon="5.52356">
        <ele>218.1</ele>
        <time>2020-02-18T08:16:14Z</time>
      </trkpt>
      <trkpt lat="46.76072" lon="5.52349">
        <ele>218.2</ele>
        <time>2020-02-18T08:16:18Z</time>
      </trkpt>
      <trkpt lat="46.76072" lon="5.52341">
        <ele>218.4</ele>
        <time>2020-02-18T08:16:22Z</time>
      </trkpt>
      <trkpt lat="46.76071" lon="5.52333">
        <ele>218.6</ele>
        <time>2020-02-18T08:16:26Z</time>
      </trkpt>
      <trkpt lat="46.7607" lon="5.52327">
        <ele>218.8</ele>
        <time>2020-02-18T08:16:30Z</time>
      </trkpt>
      <trkpt lat="46.76071" lon="5.5232">
        <ele>218.7</ele>
        <time>2020-02-18T08:16:36Z</time>
      </trkpt>
      <trkpt lat="46.76072" lon="5.52313">
        <ele>218.8</ele>
        <time>2020-02-18T08:16:40Z</time>
      </trkpt>
      <trkpt lat="46.76074" lon="5.52308">
        <ele>219</ele>
        <time>2020-02-18T08:16:44Z</time>
      </trkpt>
      <trkpt lat="46.76078" lon="5.52303">
        <ele>219.3</ele>
        <time>2020-02-18T08:16:49Z</time>
      </trkpt>
      <trkpt lat="46.76083" lon="5.523">
        <ele>219.3</ele>
        <time>2020-02-18T08:16:55Z</time>
      </trkpt>
      <trkpt lat="46.76088" lon="5.52299">
        <ele>219.1</ele>
        <time>2020-02-18T08:17:00Z</time>
      </trkpt>
      <trkpt lat="46.76093" lon="5.52297">
        <ele>218.8</ele>
        <time>2020-02-18T08:17:04Z</time>
      </trkpt>
      <trkpt lat="46.76098" lon="5.52297">
        <ele>218.4</ele>
        <time>2020-02-18T08:17:07Z</time>
      </trkpt>
      <trkpt lat="46.76103" lon="5.52296">
        <ele>217.8</ele>
        <time>2020-02-18T08:17:11Z</time>
      </trkpt>
      <trkpt lat="46.76108" lon="5.52296">
        <ele>217.5</ele>
        <time>2020-02-18T08:17:15Z</time>
      </trkpt>
      <trkpt lat="46.76113" lon="5.52295">
        <ele>217.6</ele>
        <time>2020-02-18T08:17:20Z</time>
      </trkpt>
      <trkpt lat="46.76117" lon="5.52292">
        <ele>217.9</ele>
        <time>2020-02-18T08:17:25Z</time>
      </trkpt>
      <trkpt lat="46.7612" lon="5.52287">
        <ele>218.2</ele>
        <time>2020-02-18T08:17:32Z</time>
      </trkpt>
      <trkpt lat="46.76122" lon="5.5228">
        <ele>218.4</ele>
        <time>2020-02-18T08:17:37Z</time>
      </trkpt>
      <trkpt lat="46.76124" lon="5.52274">
        <ele>218.5</ele>
        <time>2020-02-18T08:17:41Z</time>
      </trkpt>
      <trkpt lat="46.76125" lon="5.52267">
        <ele>218.4</ele>
        <time>2020-02-18T08:17:45Z</time>
      </trkpt>
      <trkpt lat="46.76127" lon="5.5226">
        <ele>218.2</ele>
        <time>2020-02-18T08:17:49Z</time>
      </trkpt>
      <trkpt lat="46.7613" lon="5.52253">
        <ele>217.8</ele>
        <time>2020-02-18T08:17:53Z</time>
      </trkpt>
      <trkpt lat="46.76133" lon="5.52246">
        <ele>217.4</ele>
        <time>2020-02-18T08:17:59Z</time>
      </trkpt>
      <trkpt lat="46.76137" lon="5.5224">
        <ele>216.9</ele>
        <time>2020-02-18T08:18:06Z</time>
      </trkpt>
      <trkpt lat="46.76139" lon="5.52234">
        <ele>216.6</ele>
        <time>2020-02-18T08:18:10Z</time>
      </trkpt>
      <trkpt lat="46.76142" lon="5.52228">
        <ele>216.2</ele>
        <time>2020-02-18T08:18:14Z</time>
      </trkpt>
      <trkpt lat="46.76143" lon="5.52221">
        <ele>215.8</ele>
        <time>2020-02-18T08:18:18Z</time>
      </trkpt>
      <trkpt lat="46.76144" lon="5.52214">
        <ele>215.2</ele>
        <time>2020-02-18T08:18:23Z</time>
      </trkpt>
      <trkpt lat="46.76146" lon="5.52207">
        <ele>214.5</ele>
        <time>2020-02-18T08:18:29Z</time>
      </trkpt>
      <trkpt lat="46.76146" lon="5.522">
        <ele>214.1</ele>
        <time>2020-02-18T08:18:33Z</time>
      </trkpt>
      <trkpt lat="46.76146" lon="5.52192">
        <ele>213.7</ele>
        <time>2020-02-18T08:18:37Z</time>
      </trkpt>
      <trkpt lat="46.76147" lon="5.52185">
        <ele>213.4</ele>
        <time>2020-02-18T08:18:41Z</time>
      </trkpt>
      <trkpt lat="46.76148" lon="5.52178">
        <ele>213.4</ele>
        <time>2020-02-18T08:18:46Z</time>
      </trkpt>
      <trkpt lat="46.76149" lon="5.52171">
        <ele>213.5</ele>
        <time>2020-02-18T08:18:51Z</time>
      </trkpt>
      <trkpt lat="46.76149" lon="5.52162">
        <ele>213.6</ele>
        <time>2020-02-18T08:18:56Z</time>
      </trkpt>
      <trkpt lat="46.7615" lon="5.52155">
        <ele>213.6</ele>
        <time>2020-02-18T08:18:59Z</time>
      </trkpt>
      <trkpt lat="46.76151" lon="5.52147">
        <ele>213.7</ele>
        <time>2020-02-18T08:19:04Z</time>
      </trkpt>
      <trkpt lat="46.76151" lon="5.52139">
        <ele>214</ele>
        <time>2020-02-18T08:19:09Z</time>
      </trkpt>
      <trkpt lat="46.7615" lon="5.52132">
        <ele>214.1</ele>
        <time>2020-02-18T08:19:13Z</time>
      </trkpt>
      <trkpt lat="46.76148" lon="5.52126">
        <ele>214.1</ele>
        <time>2020-02-18T08:19:19Z</time>
      </trkpt>
      <trkpt lat="46.76145" lon="5.52119">
        <ele>214.2</ele>
        <time>2020-02-18T08:19:24Z</time>
      </trkpt>
      <trkpt lat="46.76142" lon="5.52113">
        <ele>214.4</ele>
        <time>2020-02-18T08:19:29Z</time>
      </trkpt>
      <trkpt lat="46.7614" lon="5.52107">
        <ele>214.9</ele>
        <time>2020-02-18T08:19:34Z</time>
      </trkpt>
      <trkpt lat="46.76137" lon="5.52101">
        <ele>215.3</ele>
        <time>2020-02-18T08:19:38Z</time>
      </trkpt>
      <trkpt lat="46.76134" lon="5.52094">
        <ele>215.6</ele>
        <time>2020-02-18T08:19:42Z</time>
      </trkpt>
      <trkpt lat="46.7613" lon="5.52088">
        <ele>215.8</ele>
        <time>2020-02-18T08:19:46Z</time>
      </trkpt>
      <trkpt lat="46.76127" lon="5.52082">
        <ele>216</ele>
        <time>2020-02-18T08:19:50Z</time>
      </trkpt>
      <trkpt lat="46.76124" lon="5.52076">
        <ele>216.1</ele>
        <time>2020-02-18T08:19:54Z</time>
      </trkpt>
      <trkpt lat="46.76122" lon="5.52071">
        <ele>216.2</ele>
        <time>2020-02-18T08:19:58Z</time>
      </trkpt>
      <trkpt lat="46.76118" lon="5.52065">
        <ele>216.2</ele>
        <time>2020-02-18T08:20:02Z</time>
      </trkpt>
      <trkpt lat="46.76115" lon="5.5206">
        <ele>216.3</ele>
        <time>2020-02-18T08:20:07Z</time>
      </trkpt>
      <trkpt lat="46.76111" lon="5.52056">
        <ele>216.3</ele>
        <time>2020-02-18T08:20:12Z</time>
      </trkpt>
      <trkpt lat="46.76107" lon="5.5205">
        <ele>216.3</ele>
        <time>2020-02-18T08:20:16Z</time>
      </trkpt>
      <trkpt lat="46.76104" lon="5.52045">
        <ele>216.1</ele>
        <time>2020-02-18T08:20:20Z</time>
      </trkpt>
      <trkpt lat="46.761" lon="5.52041">
        <ele>215.8</ele>
        <time>2020-02-18T08:20:25Z</time>
      </trkpt>
      <trkpt lat="46.76098" lon="5.52035">
        <ele>214.8</ele>
        <time>2020-02-18T08:20:51Z</time>
      </trkpt>
      <trkpt lat="46.761" lon="5.52029">
        <ele>214.8</ele>
        <time>2020-02-18T08:21:12Z</time>
      </trkpt>
      <trkpt lat="46.76097" lon="5.52026">
        <ele>214.3</ele>
        <time>2020-02-18T08:21:33Z</time>
      </trkpt>
      <trkpt lat="46.76092" lon="5.52023">
        <ele>214.1</ele>
        <time>2020-02-18T08:21:37Z</time>
      </trkpt>
      <trkpt lat="46.76088" lon="5.5202">
        <ele>213.8</ele>
        <time>2020-02-18T08:21:42Z</time>
      </trkpt>
      <trkpt lat="46.76083" lon="5.52016">
        <ele>213.8</ele>
        <time>2020-02-18T08:21:46Z</time>
      </trkpt>
      <trkpt lat="46.7608" lon="5.52011">
        <ele>213.9</ele>
        <time>2020-02-18T08:21:49Z</time>
      </trkpt>
      <trkpt lat="46.76076" lon="5.52008">
        <ele>213.9</ele>
        <time>2020-02-18T08:21:52Z</time>
      </trkpt>
      <trkpt lat="46.76072" lon="5.52004">
        <ele>213.8</ele>
        <time>2020-02-18T08:21:55Z</time>
      </trkpt>
      <trkpt lat="46.76068" lon="5.52001">
        <ele>213.9</ele>
        <time>2020-02-18T08:21:58Z</time>
      </trkpt>
      <trkpt lat="46.76064" lon="5.51998">
        <ele>214</ele>
        <time>2020-02-18T08:22:02Z</time>
      </trkpt>
      <trkpt lat="46.7606" lon="5.51995">
        <ele>214.2</ele>
        <time>2020-02-18T08:22:07Z</time>
      </trkpt>
      <trkpt lat="46.76055" lon="5.51991">
        <ele>214.3</ele>
        <time>2020-02-18T08:22:12Z</time>
      </trkpt>
      <trkpt lat="46.76051" lon="5.51986">
        <ele>214.3</ele>
        <time>2020-02-18T08:22:16Z</time>
      </trkpt>
      <trkpt lat="46.76047" lon="5.51982">
        <ele>214.3</ele>
        <time>2020-02-18T08:22:20Z</time>
      </trkpt>
      <trkpt lat="46.76043" lon="5.51978">
        <ele>214.4</ele>
        <time>2020-02-18T08:22:24Z</time>
      </trkpt>
      <trkpt lat="46.76039" lon="5.51975">
        <ele>214.5</ele>
        <time>2020-02-18T08:22:28Z</time>
      </trkpt>
      <trkpt lat="46.76034" lon="5.51971">
        <ele>214.7</ele>
        <time>2020-02-18T08:22:32Z</time>
      </trkpt>
      <trkpt lat="46.7603" lon="5.51967">
        <ele>215</ele>
        <time>2020-02-18T08:22:36Z</time>
      </trkpt>
      <trkpt lat="46.76026" lon="5.51963">
        <ele>215.3</ele>
        <time>2020-02-18T08:22:41Z</time>
      </trkpt>
      <trkpt lat="46.76022" lon="5.51959">
        <ele>215.5</ele>
        <time>2020-02-18T08:22:46Z</time>
      </trkpt>
      <trkpt lat="46.76018" lon="5.51955">
        <ele>215.5</ele>
        <time>2020-02-18T08:22:50Z</time>
      </trkpt>
      <trkpt lat="46.76014" lon="5.51949">
        <ele>215.5</ele>
        <time>2020-02-18T08:22:55Z</time>
      </trkpt>
      <trkpt lat="46.76011" lon="5.51944">
        <ele>215.5</ele>
        <time>2020-02-18T08:22:59Z</time>
      </trkpt>
      <trkpt lat="46.76006" lon="5.5194">
        <ele>215.3</ele>
        <time>2020-02-18T08:23:04Z</time>
      </trkpt>
      <trkpt lat="46.76002" lon="5.51936">
        <ele>215.2</ele>
        <time>2020-02-18T08:23:08Z</time>
      </trkpt>
      <trkpt lat="46.75999" lon="5.51931">
        <ele>215</ele>
        <time>2020-02-18T08:23:11Z</time>
      </trkpt>
      <trkpt lat="46.75995" lon="5.51926">
        <ele>214.8</ele>
        <time>2020-02-18T08:23:15Z</time>
      </trkpt>
      <trkpt lat="46.75991" lon="5.51922">
        <ele>214.8</ele>
        <time>2020-02-18T08:23:19Z</time>
      </trkpt>
      <trkpt lat="46.75988" lon="5.51916">
        <ele>214.7</ele>
        <time>2020-02-18T08:23:29Z</time>
      </trkpt>
      <trkpt lat="46.75985" lon="5.51911">
        <ele>214.3</ele>
        <time>2020-02-18T08:23:36Z</time>
      </trkpt>
      <trkpt lat="46.75981" lon="5.51906">
        <ele>214.2</ele>
        <time>2020-02-18T08:23:40Z</time>
      </trkpt>
      <trkpt lat="46.75978" lon="5.519">
        <ele>214</ele>
        <time>2020-02-18T08:23:46Z</time>
      </trkpt>
      <trkpt lat="46.75974" lon="5.51896">
        <ele>213.9</ele>
        <time>2020-02-18T08:23:50Z</time>
      </trkpt>
      <trkpt lat="46.7597" lon="5.5189">
        <ele>213.9</ele>
        <time>2020-02-18T08:23:54Z</time>
      </trkpt>
      <trkpt lat="46.75967" lon="5.51884">
        <ele>213.9</ele>
        <time>2020-02-18T08:23:58Z</time>
      </trkpt>
      <trkpt lat="46.75963" lon="5.51878">
        <ele>214</ele>
        <time>2020-02-18T08:24:03Z</time>
      </trkpt>
      <trkpt lat="46.75959" lon="5.51874">
        <ele>213.9</ele>
        <time>2020-02-18T08:24:08Z</time>
      </trkpt>
      <trkpt lat="46.75956" lon="5.51869">
        <ele>214</ele>
        <time>2020-02-18T08:24:12Z</time>
      </trkpt>
      <trkpt lat="46.75952" lon="5.51864">
        <ele>214.1</ele>
        <time>2020-02-18T08:24:16Z</time>
      </trkpt>
      <trkpt lat="46.75949" lon="5.51858">
        <ele>214</ele>
        <time>2020-02-18T08:24:21Z</time>
      </trkpt>
      <trkpt lat="46.75946" lon="5.51852">
        <ele>213.8</ele>
        <time>2020-02-18T08:24:27Z</time>
      </trkpt>
      <trkpt lat="46.75943" lon="5.51847">
        <ele>213.6</ele>
        <time>2020-02-18T08:24:31Z</time>
      </trkpt>
      <trkpt lat="46.75939" lon="5.51842">
        <ele>213.4</ele>
        <time>2020-02-18T08:24:36Z</time>
      </trkpt>
      <trkpt lat="46.75936" lon="5.51836">
        <ele>213.5</ele>
        <time>2020-02-18T08:24:41Z</time>
      </trkpt>
      <trkpt lat="46.75933" lon="5.51831">
        <ele>213.5</ele>
        <time>2020-02-18T08:24:45Z</time>
      </trkpt>
      <trkpt lat="46.7593" lon="5.51824">
        <ele>213.4</ele>
        <time>2020-02-18T08:24:50Z</time>
      </trkpt>
      <trkpt lat="46.75927" lon="5.51819">
        <ele>213.4</ele>
        <time>2020-02-18T08:24:55Z</time>
      </trkpt>
      <trkpt lat="46.75923" lon="5.51813">
        <ele>213.4</ele>
        <time>2020-02-18T08:25:00Z</time>
      </trkpt>
      <trkpt lat="46.75919" lon="5.5181">
        <ele>213.2</ele>
        <time>2020-02-18T08:25:05Z</time>
      </trkpt>
      <trkpt lat="46.75913" lon="5.5181">
        <ele>212.9</ele>
        <time>2020-02-18T08:25:10Z</time>
      </trkpt>
      <trkpt lat="46.75908" lon="5.51811">
        <ele>212.6</ele>
        <time>2020-02-18T08:25:16Z</time>
      </trkpt>
      <trkpt lat="46.75903" lon="5.51813">
        <ele>212.3</ele>
        <time>2020-02-18T08:25:21Z</time>
      </trkpt>
      <trkpt lat="46.75899" lon="5.51816">
        <ele>211.8</ele>
        <time>2020-02-18T08:25:26Z</time>
      </trkpt>
      <trkpt lat="46.75894" lon="5.51819">
        <ele>211.2</ele>
        <time>2020-02-18T08:25:31Z</time>
      </trkpt>
      <trkpt lat="46.7589" lon="5.51822">
        <ele>210.7</ele>
        <time>2020-02-18T08:25:35Z</time>
      </trkpt>
      <trkpt lat="46.75884" lon="5.51824">
        <ele>210.1</ele>
        <time>2020-02-18T08:25:39Z</time>
      </trkpt>
      <trkpt lat="46.75879" lon="5.51827">
        <ele>209.7</ele>
        <time>2020-02-18T08:25:43Z</time>
      </trkpt>
      <trkpt lat="46.75874" lon="5.51831">
        <ele>209.4</ele>
        <time>2020-02-18T08:25:48Z</time>
      </trkpt>
      <trkpt lat="46.75869" lon="5.51834">
        <ele>209.2</ele>
        <time>2020-02-18T08:25:53Z</time>
      </trkpt>
      <trkpt lat="46.75864" lon="5.51836">
        <ele>208.9</ele>
        <time>2020-02-18T08:25:59Z</time>
      </trkpt>
      <trkpt lat="46.7586" lon="5.51838">
        <ele>208.7</ele>
        <time>2020-02-18T08:26:04Z</time>
      </trkpt>
      <trkpt lat="46.75854" lon="5.51838">
        <ele>208.7</ele>
        <time>2020-02-18T08:26:09Z</time>
      </trkpt>
      <trkpt lat="46.75849" lon="5.51838">
        <ele>208.8</ele>
        <time>2020-02-18T08:26:13Z</time>
      </trkpt>
      <trkpt lat="46.75844" lon="5.51838">
        <ele>209</ele>
        <time>2020-02-18T08:26:17Z</time>
      </trkpt>
      <trkpt lat="46.75839" lon="5.51838">
        <ele>209.2</ele>
        <time>2020-02-18T08:26:21Z</time>
      </trkpt>
      <trkpt lat="46.75834" lon="5.51838">
        <ele>209.4</ele>
        <time>2020-02-18T08:26:25Z</time>
      </trkpt>
      <trkpt lat="46.75829" lon="5.51837">
        <ele>209.7</ele>
        <time>2020-02-18T08:26:29Z</time>
      </trkpt>
      <trkpt lat="46.75825" lon="5.51836">
        <ele>210.1</ele>
        <time>2020-02-18T08:26:34Z</time>
      </trkpt>
      <trkpt lat="46.75819" lon="5.51837">
        <ele>210.5</ele>
        <time>2020-02-18T08:26:39Z</time>
      </trkpt>
      <trkpt lat="46.75814" lon="5.51837">
        <ele>210.9</ele>
        <time>2020-02-18T08:26:43Z</time>
      </trkpt>
      <trkpt lat="46.75809" lon="5.51838">
        <ele>211.1</ele>
        <time>2020-02-18T08:26:47Z</time>
      </trkpt>
      <trkpt lat="46.75804" lon="5.51838">
        <ele>211.3</ele>
        <time>2020-02-18T08:26:51Z</time>
      </trkpt>
      <trkpt lat="46.75798" lon="5.51837">
        <ele>211.4</ele>
        <time>2020-02-18T08:26:55Z</time>
      </trkpt>
      <trkpt lat="46.75793" lon="5.51836">
        <ele>211.5</ele>
        <time>2020-02-18T08:26:59Z</time>
      </trkpt>
      <trkpt lat="46.75788" lon="5.51836">
        <ele>211.9</ele>
        <time>2020-02-18T08:27:04Z</time>
      </trkpt>
      <trkpt lat="46.75783" lon="5.51836">
        <ele>212.2</ele>
        <time>2020-02-18T08:27:09Z</time>
      </trkpt>
      <trkpt lat="46.75778" lon="5.51837">
        <ele>212.5</ele>
        <time>2020-02-18T08:27:12Z</time>
      </trkpt>
      <trkpt lat="46.75773" lon="5.51839">
        <ele>212.8</ele>
        <time>2020-02-18T08:27:15Z</time>
      </trkpt>
      <trkpt lat="46.75768" lon="5.5184">
        <ele>213</ele>
        <time>2020-02-18T08:27:21Z</time>
      </trkpt>
      <trkpt lat="46.75763" lon="5.51841">
        <ele>212.9</ele>
        <time>2020-02-18T08:27:26Z</time>
      </trkpt>
      <trkpt lat="46.75758" lon="5.51841">
        <ele>212.9</ele>
        <time>2020-02-18T08:27:30Z</time>
      </trkpt>
      <trkpt lat="46.75753" lon="5.51842">
        <ele>213</ele>
        <time>2020-02-18T08:27:34Z</time>
      </trkpt>
      <trkpt lat="46.75748" lon="5.51842">
        <ele>213.2</ele>
        <time>2020-02-18T08:27:38Z</time>
      </trkpt>
      <trkpt lat="46.75744" lon="5.51843">
        <ele>213.3</ele>
        <time>2020-02-18T08:27:42Z</time>
      </trkpt>
      <trkpt lat="46.75738" lon="5.51843">
        <ele>213.4</ele>
        <time>2020-02-18T08:27:48Z</time>
      </trkpt>
      <trkpt lat="46.75734" lon="5.51842">
        <ele>213.4</ele>
        <time>2020-02-18T08:27:52Z</time>
      </trkpt>
      <trkpt lat="46.75728" lon="5.51843">
        <ele>213.4</ele>
        <time>2020-02-18T08:27:57Z</time>
      </trkpt>
      <trkpt lat="46.75723" lon="5.51844">
        <ele>213.4</ele>
        <time>2020-02-18T08:28:02Z</time>
      </trkpt>
      <trkpt lat="46.75717" lon="5.51844">
        <ele>213.4</ele>
        <time>2020-02-18T08:28:06Z</time>
      </trkpt>
      <trkpt lat="46.75713" lon="5.51845">
        <ele>213.5</ele>
        <time>2020-02-18T08:28:09Z</time>
      </trkpt>
      <trkpt lat="46.75708" lon="5.51846">
        <ele>213.4</ele>
        <time>2020-02-18T08:28:12Z</time>
      </trkpt>
      <trkpt lat="46.75703" lon="5.51847">
        <ele>213.4</ele>
        <time>2020-02-18T08:28:15Z</time>
      </trkpt>
      <trkpt lat="46.75699" lon="5.51848">
        <ele>213.4</ele>
        <time>2020-02-18T08:28:20Z</time>
      </trkpt>
      <trkpt lat="46.75693" lon="5.5185">
        <ele>213.5</ele>
        <time>2020-02-18T08:28:24Z</time>
      </trkpt>
      <trkpt lat="46.75688" lon="5.51852">
        <ele>213.6</ele>
        <time>2020-02-18T08:28:29Z</time>
      </trkpt>
      <trkpt lat="46.75683" lon="5.51854">
        <ele>213.8</ele>
        <time>2020-02-18T08:28:33Z</time>
      </trkpt>
      <trkpt lat="46.75678" lon="5.51857">
        <ele>214</ele>
        <time>2020-02-18T08:28:38Z</time>
      </trkpt>
      <trkpt lat="46.75674" lon="5.5186">
        <ele>213.9</ele>
        <time>2020-02-18T08:28:42Z</time>
      </trkpt>
      <trkpt lat="46.75669" lon="5.51863">
        <ele>213.7</ele>
        <time>2020-02-18T08:28:46Z</time>
      </trkpt>
      <trkpt lat="46.75664" lon="5.51866">
        <ele>213.3</ele>
        <time>2020-02-18T08:28:52Z</time>
      </trkpt>
      <trkpt lat="46.7566" lon="5.51869">
        <ele>213.1</ele>
        <time>2020-02-18T08:28:56Z</time>
      </trkpt>
      <trkpt lat="46.75655" lon="5.51872">
        <ele>212.8</ele>
        <time>2020-02-18T08:29:01Z</time>
      </trkpt>
      <trkpt lat="46.75651" lon="5.51876">
        <ele>212.6</ele>
        <time>2020-02-18T08:29:06Z</time>
      </trkpt>
      <trkpt lat="46.75648" lon="5.5188">
        <ele>212.4</ele>
        <time>2020-02-18T08:29:10Z</time>
      </trkpt>
      <trkpt lat="46.75643" lon="5.51884">
        <ele>212.2</ele>
        <time>2020-02-18T08:29:14Z</time>
      </trkpt>
      <trkpt lat="46.75638" lon="5.51887">
        <ele>212</ele>
        <time>2020-02-18T08:29:18Z</time>
      </trkpt>
      <trkpt lat="46.75633" lon="5.51888">
        <ele>211.9</ele>
        <time>2020-02-18T08:29:22Z</time>
      </trkpt>
      <trkpt lat="46.75628" lon="5.51888">
        <ele>211.8</ele>
        <time>2020-02-18T08:29:26Z</time>
      </trkpt>
      <trkpt lat="46.75623" lon="5.51888">
        <ele>211.8</ele>
        <time>2020-02-18T08:29:30Z</time>
      </trkpt>
      <trkpt lat="46.75617" lon="5.51888">
        <ele>211.9</ele>
        <time>2020-02-18T08:29:35Z</time>
      </trkpt>
      <trkpt lat="46.75612" lon="5.51886">
        <ele>212</ele>
        <time>2020-02-18T08:29:39Z</time>
      </trkpt>
      <trkpt lat="46.75607" lon="5.51885">
        <ele>212.1</ele>
        <time>2020-02-18T08:29:43Z</time>
      </trkpt>
      <trkpt lat="46.75603" lon="5.51882">
        <ele>212.3</ele>
        <time>2020-02-18T08:29:47Z</time>
      </trkpt>
      <trkpt lat="46.75598" lon="5.51879">
        <ele>212.4</ele>
        <time>2020-02-18T08:29:50Z</time>
      </trkpt>
      <trkpt lat="46.75594" lon="5.51877">
        <ele>212.6</ele>
        <time>2020-02-18T08:29:53Z</time>
      </trkpt>
      <trkpt lat="46.75589" lon="5.51873">
        <ele>212.9</ele>
        <time>2020-02-18T08:29:58Z</time>
      </trkpt>
      <trkpt lat="46.75585" lon="5.5187">
        <ele>213.2</ele>
        <time>2020-02-18T08:30:03Z</time>
      </trkpt>
      <trkpt lat="46.75581" lon="5.51867">
        <ele>213.5</ele>
        <time>2020-02-18T08:30:08Z</time>
      </trkpt>
      <trkpt lat="46.75576" lon="5.51863">
        <ele>213.5</ele>
        <time>2020-02-18T08:30:13Z</time>
      </trkpt>
      <trkpt lat="46.75572" lon="5.51859">
        <ele>213.3</ele>
        <time>2020-02-18T08:30:19Z</time>
      </trkpt>
      <trkpt lat="46.75568" lon="5.51855">
        <ele>212.9</ele>
        <time>2020-02-18T08:30:24Z</time>
      </trkpt>
      <trkpt lat="46.75564" lon="5.51851">
        <ele>212.7</ele>
        <time>2020-02-18T08:30:28Z</time>
      </trkpt>
      <trkpt lat="46.7556" lon="5.51846">
        <ele>212.6</ele>
        <time>2020-02-18T08:30:32Z</time>
      </trkpt>
      <trkpt lat="46.75556" lon="5.51842">
        <ele>212.6</ele>
        <time>2020-02-18T08:30:36Z</time>
      </trkpt>
      <trkpt lat="46.75551" lon="5.51838">
        <ele>212.7</ele>
        <time>2020-02-18T08:30:41Z</time>
      </trkpt>
      <trkpt lat="46.75547" lon="5.51835">
        <ele>212.7</ele>
        <time>2020-02-18T08:30:44Z</time>
      </trkpt>
      <trkpt lat="46.75543" lon="5.51832">
        <ele>212.9</ele>
        <time>2020-02-18T08:30:47Z</time>
      </trkpt>
      <trkpt lat="46.75538" lon="5.51829">
        <ele>213</ele>
        <time>2020-02-18T08:30:51Z</time>
      </trkpt>
      <trkpt lat="46.75533" lon="5.51826">
        <ele>213.2</ele>
        <time>2020-02-18T08:30:55Z</time>
      </trkpt>
      <trkpt lat="46.75528" lon="5.51825">
        <ele>213.2</ele>
        <time>2020-02-18T08:30:59Z</time>
      </trkpt>
      <trkpt lat="46.75523" lon="5.51823">
        <ele>213.3</ele>
        <time>2020-02-18T08:31:03Z</time>
      </trkpt>
      <trkpt lat="46.75518" lon="5.5182">
        <ele>213.5</ele>
        <time>2020-02-18T08:31:08Z</time>
      </trkpt>
      <trkpt lat="46.75513" lon="5.51817">
        <ele>213.5</ele>
        <time>2020-02-18T08:31:13Z</time>
      </trkpt>
      <trkpt lat="46.75508" lon="5.51813">
        <ele>213.6</ele>
        <time>2020-02-18T08:31:17Z</time>
      </trkpt>
      <trkpt lat="46.75505" lon="5.51808">
        <ele>213.7</ele>
        <time>2020-02-18T08:31:22Z</time>
      </trkpt>
      <trkpt lat="46.75502" lon="5.51801">
        <ele>213.7</ele>
        <time>2020-02-18T08:31:29Z</time>
      </trkpt>
      <trkpt lat="46.75498" lon="5.51796">
        <ele>213.7</ele>
        <time>2020-02-18T08:31:33Z</time>
      </trkpt>
      <trkpt lat="46.75494" lon="5.51792">
        <ele>213.7</ele>
        <time>2020-02-18T08:31:37Z</time>
      </trkpt>
      <trkpt lat="46.75491" lon="5.51787">
        <ele>213.8</ele>
        <time>2020-02-18T08:31:40Z</time>
      </trkpt>
      <trkpt lat="46.75487" lon="5.51783">
        <ele>213.9</ele>
        <time>2020-02-18T08:31:44Z</time>
      </trkpt>
      <trkpt lat="46.75483" lon="5.51777">
        <ele>214.1</ele>
        <time>2020-02-18T08:31:49Z</time>
      </trkpt>
      <trkpt lat="46.7548" lon="5.51771">
        <ele>214.1</ele>
        <time>2020-02-18T08:31:53Z</time>
      </trkpt>
      <trkpt lat="46.75476" lon="5.51765">
        <ele>214</ele>
        <time>2020-02-18T08:31:57Z</time>
      </trkpt>
      <trkpt lat="46.75473" lon="5.51759">
        <ele>213.9</ele>
        <time>2020-02-18T08:32:01Z</time>
      </trkpt>
      <trkpt lat="46.75471" lon="5.51752">
        <ele>213.7</ele>
        <time>2020-02-18T08:32:06Z</time>
      </trkpt>
      <trkpt lat="46.75469" lon="5.51746">
        <ele>213.6</ele>
        <time>2020-02-18T08:32:09Z</time>
      </trkpt>
      <trkpt lat="46.75467" lon="5.51738">
        <ele>213.6</ele>
        <time>2020-02-18T08:32:13Z</time>
      </trkpt>
      <trkpt lat="46.75465" lon="5.51731">
        <ele>213.6</ele>
        <time>2020-02-18T08:32:18Z</time>
      </trkpt>
      <trkpt lat="46.75464" lon="5.51724">
        <ele>213.5</ele>
        <time>2020-02-18T08:32:23Z</time>
      </trkpt>
      <trkpt lat="46.75462" lon="5.51718">
        <ele>213.5</ele>
        <time>2020-02-18T08:32:27Z</time>
      </trkpt>
      <trkpt lat="46.75459" lon="5.51712">
        <ele>213.5</ele>
        <time>2020-02-18T08:32:31Z</time>
      </trkpt>
      <trkpt lat="46.75457" lon="5.51706">
        <ele>213.8</ele>
        <time>2020-02-18T08:32:36Z</time>
      </trkpt>
      <trkpt lat="46.75455" lon="5.51698">
        <ele>213.9</ele>
        <time>2020-02-18T08:32:41Z</time>
      </trkpt>
      <trkpt lat="46.75453" lon="5.51692">
        <ele>213.9</ele>
        <time>2020-02-18T08:32:45Z</time>
      </trkpt>
      <trkpt lat="46.75451" lon="5.51685">
        <ele>213.9</ele>
        <time>2020-02-18T08:32:49Z</time>
      </trkpt>
      <trkpt lat="46.75448" lon="5.51679">
        <ele>214</ele>
        <time>2020-02-18T08:32:53Z</time>
      </trkpt>
      <trkpt lat="46.75445" lon="5.51672">
        <ele>214.1</ele>
        <time>2020-02-18T08:32:57Z</time>
      </trkpt>
      <trkpt lat="46.75441" lon="5.51666">
        <ele>214.2</ele>
        <time>2020-02-18T08:33:01Z</time>
      </trkpt>
      <trkpt lat="46.75439" lon="5.5166">
        <ele>214.2</ele>
        <time>2020-02-18T08:33:04Z</time>
      </trkpt>
      <trkpt lat="46.75437" lon="5.51655">
        <ele>214.2</ele>
        <time>2020-02-18T08:33:08Z</time>
      </trkpt>
      <trkpt lat="46.75433" lon="5.51648">
        <ele>214.3</ele>
        <time>2020-02-18T08:33:14Z</time>
      </trkpt>
      <trkpt lat="46.75431" lon="5.51642">
        <ele>214.2</ele>
        <time>2020-02-18T08:33:19Z</time>
      </trkpt>
      <trkpt lat="46.75428" lon="5.51636">
        <ele>214.1</ele>
        <time>2020-02-18T08:33:22Z</time>
      </trkpt>
      <trkpt lat="46.75424" lon="5.5163">
        <ele>214.1</ele>
        <time>2020-02-18T08:33:26Z</time>
      </trkpt>
      <trkpt lat="46.75422" lon="5.51624">
        <ele>213.9</ele>
        <time>2020-02-18T08:33:30Z</time>
      </trkpt>
      <trkpt lat="46.75421" lon="5.51617">
        <ele>213.8</ele>
        <time>2020-02-18T08:33:34Z</time>
      </trkpt>
      <trkpt lat="46.7542" lon="5.5161">
        <ele>213.6</ele>
        <time>2020-02-18T08:33:39Z</time>
      </trkpt>
      <trkpt lat="46.75418" lon="5.51602">
        <ele>213.4</ele>
        <time>2020-02-18T08:33:43Z</time>
      </trkpt>
      <trkpt lat="46.75416" lon="5.51596">
        <ele>213.3</ele>
        <time>2020-02-18T08:33:48Z</time>
      </trkpt>
      <trkpt lat="46.75413" lon="5.51589">
        <ele>213.3</ele>
        <time>2020-02-18T08:33:52Z</time>
      </trkpt>
      <trkpt lat="46.75409" lon="5.51584">
        <ele>213.6</ele>
        <time>2020-02-18T08:33:57Z</time>
      </trkpt>
      <trkpt lat="46.75405" lon="5.5158">
        <ele>214</ele>
        <time>2020-02-18T08:34:01Z</time>
      </trkpt>
      <trkpt lat="46.754" lon="5.51577">
        <ele>214.4</ele>
        <time>2020-02-18T08:34:05Z</time>
      </trkpt>
      <trkpt lat="46.75396" lon="5.51574">
        <ele>214.7</ele>
        <time>2020-02-18T08:34:09Z</time>
      </trkpt>
      <trkpt lat="46.75392" lon="5.5157">
        <ele>214.8</ele>
        <time>2020-02-18T08:34:14Z</time>
      </trkpt>
      <trkpt lat="46.75388" lon="5.51566">
        <ele>215</ele>
        <time>2020-02-18T08:34:19Z</time>
      </trkpt>
      <trkpt lat="46.75383" lon="5.51562">
        <ele>215.1</ele>
        <time>2020-02-18T08:34:23Z</time>
      </trkpt>
      <trkpt lat="46.7538" lon="5.51557">
        <ele>215.2</ele>
        <time>2020-02-18T08:34:27Z</time>
      </trkpt>
      <trkpt lat="46.75376" lon="5.51552">
        <ele>215.3</ele>
        <time>2020-02-18T08:34:31Z</time>
      </trkpt>
      <trkpt lat="46.75372" lon="5.51548">
        <ele>215.5</ele>
        <time>2020-02-18T08:34:35Z</time>
      </trkpt>
      <trkpt lat="46.75368" lon="5.51545">
        <ele>215.8</ele>
        <time>2020-02-18T08:34:39Z</time>
      </trkpt>
      <trkpt lat="46.75363" lon="5.5154">
        <ele>216.1</ele>
        <time>2020-02-18T08:34:43Z</time>
      </trkpt>
      <trkpt lat="46.75358" lon="5.51537">
        <ele>216.4</ele>
        <time>2020-02-18T08:34:48Z</time>
      </trkpt>
      <trkpt lat="46.75353" lon="5.51534">
        <ele>216.6</ele>
        <time>2020-02-18T08:34:53Z</time>
      </trkpt>
      <trkpt lat="46.75348" lon="5.5153">
        <ele>216.9</ele>
        <time>2020-02-18T08:34:58Z</time>
      </trkpt>
      <trkpt lat="46.75344" lon="5.51526">
        <ele>217.1</ele>
        <time>2020-02-18T08:35:03Z</time>
      </trkpt>
      <trkpt lat="46.7534" lon="5.51523">
        <ele>217.3</ele>
        <time>2020-02-18T08:35:07Z</time>
      </trkpt>
      <trkpt lat="46.75335" lon="5.51521">
        <ele>217.5</ele>
        <time>2020-02-18T08:35:11Z</time>
      </trkpt>
      <trkpt lat="46.75331" lon="5.51517">
        <ele>217.8</ele>
        <time>2020-02-18T08:35:15Z</time>
      </trkpt>
      <trkpt lat="46.75326" lon="5.51515">
        <ele>217.9</ele>
        <time>2020-02-18T08:35:20Z</time>
      </trkpt>
      <trkpt lat="46.75321" lon="5.51514">
        <ele>217.9</ele>
        <time>2020-02-18T08:35:24Z</time>
      </trkpt>
      <trkpt lat="46.75316" lon="5.51515">
        <ele>217.8</ele>
        <time>2020-02-18T08:35:29Z</time>
      </trkpt>
      <trkpt lat="46.75311" lon="5.51515">
        <ele>217.6</ele>
        <time>2020-02-18T08:35:34Z</time>
      </trkpt>
      <trkpt lat="46.75305" lon="5.51515">
        <ele>217.3</ele>
        <time>2020-02-18T08:35:38Z</time>
      </trkpt>
      <trkpt lat="46.75301" lon="5.51515">
        <ele>217</ele>
        <time>2020-02-18T08:35:42Z</time>
      </trkpt>
      <trkpt lat="46.75295" lon="5.51516">
        <ele>216.7</ele>
        <time>2020-02-18T08:35:47Z</time>
      </trkpt>
      <trkpt lat="46.7529" lon="5.51516">
        <ele>216.6</ele>
        <time>2020-02-18T08:35:51Z</time>
      </trkpt>
      <trkpt lat="46.75285" lon="5.51516">
        <ele>216.3</ele>
        <time>2020-02-18T08:35:55Z</time>
      </trkpt>
      <trkpt lat="46.7528" lon="5.51516">
        <ele>216</ele>
        <time>2020-02-18T08:35:59Z</time>
      </trkpt>
      <trkpt lat="46.75274" lon="5.51516">
        <ele>215.7</ele>
        <time>2020-02-18T08:36:03Z</time>
      </trkpt>
      <trkpt lat="46.75269" lon="5.51516">
        <ele>215.6</ele>
        <time>2020-02-18T08:36:06Z</time>
      </trkpt>
      <trkpt lat="46.75265" lon="5.51517">
        <ele>215.6</ele>
        <time>2020-02-18T08:36:10Z</time>
      </trkpt>
      <trkpt lat="46.7526" lon="5.51519">
        <ele>215.6</ele>
        <time>2020-02-18T08:36:14Z</time>
      </trkpt>
      <trkpt lat="46.75255" lon="5.51519">
        <ele>215.8</ele>
        <time>2020-02-18T08:36:19Z</time>
      </trkpt>
      <trkpt lat="46.75249" lon="5.51518">
        <ele>215.9</ele>
        <time>2020-02-18T08:36:24Z</time>
      </trkpt>
      <trkpt lat="46.75244" lon="5.51518">
        <ele>216</ele>
        <time>2020-02-18T08:36:28Z</time>
      </trkpt>
      <trkpt lat="46.75239" lon="5.51516">
        <ele>216.2</ele>
        <time>2020-02-18T08:36:33Z</time>
      </trkpt>
      <trkpt lat="46.75234" lon="5.51515">
        <ele>216.6</ele>
        <time>2020-02-18T08:36:38Z</time>
      </trkpt>
      <trkpt lat="46.75228" lon="5.51514">
        <ele>216.8</ele>
        <time>2020-02-18T08:36:42Z</time>
      </trkpt>
      <trkpt lat="46.75223" lon="5.51513">
        <ele>217</ele>
        <time>2020-02-18T08:36:45Z</time>
      </trkpt>
      <trkpt lat="46.75218" lon="5.51513">
        <ele>217.2</ele>
        <time>2020-02-18T08:36:48Z</time>
      </trkpt>
      <trkpt lat="46.75213" lon="5.51513">
        <ele>217.3</ele>
        <time>2020-02-18T08:36:52Z</time>
      </trkpt>
      <trkpt lat="46.75208" lon="5.51512">
        <ele>217.3</ele>
        <time>2020-02-18T08:36:56Z</time>
      </trkpt>
      <trkpt lat="46.75202" lon="5.51511">
        <ele>217.2</ele>
        <time>2020-02-18T08:37:00Z</time>
      </trkpt>
      <trkpt lat="46.75197" lon="5.5151">
        <ele>217.1</ele>
        <time>2020-02-18T08:37:04Z</time>
      </trkpt>
      <trkpt lat="46.75192" lon="5.5151">
        <ele>217.1</ele>
        <time>2020-02-18T08:37:08Z</time>
      </trkpt>
      <trkpt lat="46.75186" lon="5.51509">
        <ele>217.1</ele>
        <time>2020-02-18T08:37:13Z</time>
      </trkpt>
      <trkpt lat="46.75181" lon="5.51508">
        <ele>217</ele>
        <time>2020-02-18T08:37:18Z</time>
      </trkpt>
      <trkpt lat="46.75176" lon="5.51507">
        <ele>217</ele>
        <time>2020-02-18T08:37:23Z</time>
      </trkpt>
      <trkpt lat="46.75172" lon="5.51506">
        <ele>216.9</ele>
        <time>2020-02-18T08:37:27Z</time>
      </trkpt>
      <trkpt lat="46.75167" lon="5.51507">
        <ele>216.7</ele>
        <time>2020-02-18T08:37:31Z</time>
      </trkpt>
      <trkpt lat="46.75162" lon="5.51507">
        <ele>216.6</ele>
        <time>2020-02-18T08:37:38Z</time>
      </trkpt>
      <trkpt lat="46.75157" lon="5.51508">
        <ele>216.5</ele>
        <time>2020-02-18T08:37:42Z</time>
      </trkpt>
      <trkpt lat="46.75152" lon="5.51508">
        <ele>216.3</ele>
        <time>2020-02-18T08:37:46Z</time>
      </trkpt>
      <trkpt lat="46.75147" lon="5.51507">
        <ele>216.1</ele>
        <time>2020-02-18T08:37:50Z</time>
      </trkpt>
      <trkpt lat="46.75142" lon="5.51505">
        <ele>215.9</ele>
        <time>2020-02-18T08:37:55Z</time>
      </trkpt>
      <trkpt lat="46.75137" lon="5.51502">
        <ele>215.7</ele>
        <time>2020-02-18T08:37:59Z</time>
      </trkpt>
      <trkpt lat="46.75132" lon="5.515">
        <ele>215.7</ele>
        <time>2020-02-18T08:38:02Z</time>
      </trkpt>
      <trkpt lat="46.75127" lon="5.51498">
        <ele>215.7</ele>
        <time>2020-02-18T08:38:06Z</time>
      </trkpt>
      <trkpt lat="46.75122" lon="5.51496">
        <ele>215.7</ele>
        <time>2020-02-18T08:38:10Z</time>
      </trkpt>
      <trkpt lat="46.75116" lon="5.51495">
        <ele>215.8</ele>
        <time>2020-02-18T08:38:15Z</time>
      </trkpt>
      <trkpt lat="46.75112" lon="5.51493">
        <ele>215.8</ele>
        <time>2020-02-18T08:38:19Z</time>
      </trkpt>
      <trkpt lat="46.75106" lon="5.51491">
        <ele>215.6</ele>
        <time>2020-02-18T08:38:26Z</time>
      </trkpt>
      <trkpt lat="46.75101" lon="5.5149">
        <ele>215.6</ele>
        <time>2020-02-18T08:38:28Z</time>
      </trkpt>
      <trkpt lat="46.75097" lon="5.51487">
        <ele>215.4</ele>
        <time>2020-02-18T08:38:32Z</time>
      </trkpt>
      <trkpt lat="46.75091" lon="5.51486">
        <ele>215</ele>
        <time>2020-02-18T08:38:37Z</time>
      </trkpt>
      <trkpt lat="46.75087" lon="5.51484">
        <ele>214.7</ele>
        <time>2020-02-18T08:38:41Z</time>
      </trkpt>
      <trkpt lat="46.75083" lon="5.5148">
        <ele>214.4</ele>
        <time>2020-02-18T08:38:45Z</time>
      </trkpt>
      <trkpt lat="46.75078" lon="5.51476">
        <ele>214.2</ele>
        <time>2020-02-18T08:38:50Z</time>
      </trkpt>
      <trkpt lat="46.75074" lon="5.51474">
        <ele>214.1</ele>
        <time>2020-02-18T08:38:55Z</time>
      </trkpt>
      <trkpt lat="46.75069" lon="5.51471">
        <ele>214.4</ele>
        <time>2020-02-18T08:39:00Z</time>
      </trkpt>
      <trkpt lat="46.75065" lon="5.51466">
        <ele>214.6</ele>
        <time>2020-02-18T08:39:05Z</time>
      </trkpt>
      <trkpt lat="46.75062" lon="5.51462">
        <ele>214.8</ele>
        <time>2020-02-18T08:39:11Z</time>
      </trkpt>
      <trkpt lat="46.75057" lon="5.51457">
        <ele>215</ele>
        <time>2020-02-18T08:39:17Z</time>
      </trkpt>
      <trkpt lat="46.75053" lon="5.51454">
        <ele>214.9</ele>
        <time>2020-02-18T08:39:22Z</time>
      </trkpt>
      <trkpt lat="46.75049" lon="5.5145">
        <ele>214.6</ele>
        <time>2020-02-18T08:39:30Z</time>
      </trkpt>
      <trkpt lat="46.75046" lon="5.51445">
        <ele>214.2</ele>
        <time>2020-02-18T08:39:33Z</time>
      </trkpt>
      <trkpt lat="46.75043" lon="5.5144">
        <ele>213.9</ele>
        <time>2020-02-18T08:39:36Z</time>
      </trkpt>
      <trkpt lat="46.75041" lon="5.51432">
        <ele>213.3</ele>
        <time>2020-02-18T08:39:40Z</time>
      </trkpt>
      <trkpt lat="46.75041" lon="5.51426">
        <ele>212.5</ele>
        <time>2020-02-18T08:39:45Z</time>
      </trkpt>
      <trkpt lat="46.75038" lon="5.5142">
        <ele>211.4</ele>
        <time>2020-02-18T08:39:53Z</time>
      </trkpt>
      <trkpt lat="46.75034" lon="5.51412">
        <ele>210.3</ele>
        <time>2020-02-18T08:40:10Z</time>
      </trkpt>
      <trkpt lat="46.75031" lon="5.51417">
        <ele>208.9</ele>
        <time>2020-02-18T08:40:29Z</time>
      </trkpt>
      <trkpt lat="46.7503" lon="5.51424">
        <ele>208.5</ele>
        <time>2020-02-18T08:40:34Z</time>
      </trkpt>
      <trkpt lat="46.75026" lon="5.51424">
        <ele>208.3</ele>
        <time>2020-02-18T08:40:41Z</time>
      </trkpt>
      <trkpt lat="46.75021" lon="5.51421">
        <ele>208.1</ele>
        <time>2020-02-18T08:40:47Z</time>
      </trkpt>
      <trkpt lat="46.75017" lon="5.51416">
        <ele>208.1</ele>
        <time>2020-02-18T08:40:50Z</time>
      </trkpt>
      <trkpt lat="46.75014" lon="5.5141">
        <ele>208</ele>
        <time>2020-02-18T08:40:53Z</time>
      </trkpt>
      <trkpt lat="46.75011" lon="5.51403">
        <ele>208.1</ele>
        <time>2020-02-18T08:40:56Z</time>
      </trkpt>
      <trkpt lat="46.75008" lon="5.51396">
        <ele>208.2</ele>
        <time>2020-02-18T08:41:00Z</time>
      </trkpt>
      <trkpt lat="46.75006" lon="5.51389">
        <ele>208.5</ele>
        <time>2020-02-18T08:41:04Z</time>
      </trkpt>
      <trkpt lat="46.75003" lon="5.51384">
        <ele>208.7</ele>
        <time>2020-02-18T08:41:07Z</time>
      </trkpt>
      <trkpt lat="46.74999" lon="5.51378">
        <ele>208.9</ele>
        <time>2020-02-18T08:41:11Z</time>
      </trkpt>
      <trkpt lat="46.74995" lon="5.51373">
        <ele>209.8</ele>
        <time>2020-02-18T08:41:20Z</time>
      </trkpt>
      <trkpt lat="46.7499" lon="5.51369">
        <ele>210.2</ele>
        <time>2020-02-18T08:41:24Z</time>
      </trkpt>
      <trkpt lat="46.74986" lon="5.51364">
        <ele>210.6</ele>
        <time>2020-02-18T08:41:28Z</time>
      </trkpt>
      <trkpt lat="46.74974" lon="5.5135">
        <ele>212.2</ele>
        <time>2020-02-18T08:41:42Z</time>
      </trkpt>
      <trkpt lat="46.74965" lon="5.51336">
        <ele>213.5</ele>
        <time>2020-02-18T08:41:55Z</time>
      </trkpt>
      <trkpt lat="46.74961" lon="5.51332">
        <ele>213.9</ele>
        <time>2020-02-18T08:42:03Z</time>
      </trkpt>
      <trkpt lat="46.74953" lon="5.51323">
        <ele>214.1</ele>
        <time>2020-02-18T08:42:07Z</time>
      </trkpt>
      <trkpt lat="46.74945" lon="5.51313">
        <ele>214.2</ele>
        <time>2020-02-18T08:42:09Z</time>
      </trkpt>
      <trkpt lat="46.74939" lon="5.51306">
        <ele>214.3</ele>
        <time>2020-02-18T08:42:11Z</time>
      </trkpt>
      <trkpt lat="46.74936" lon="5.51301">
        <ele>214.3</ele>
        <time>2020-02-18T08:42:15Z</time>
      </trkpt>
      <trkpt lat="46.74938" lon="5.51294">
        <ele>214.4</ele>
        <time>2020-02-18T08:42:22Z</time>
      </trkpt>
      <trkpt lat="46.74938" lon="5.51287">
        <ele>214.6</ele>
        <time>2020-02-18T08:42:30Z</time>
      </trkpt>
      <trkpt lat="46.74935" lon="5.51292">
        <ele>215.8</ele>
        <time>2020-02-18T08:42:47Z</time>
      </trkpt>
      <trkpt lat="46.74931" lon="5.51303">
        <ele>218.3</ele>
        <time>2020-02-18T08:50:21Z</time>
      </trkpt>
      <trkpt lat="46.74926" lon="5.513">
        <ele>218.5</ele>
        <time>2020-02-18T08:50:26Z</time>
      </trkpt>
      <trkpt lat="46.74923" lon="5.51296">
        <ele>218.4</ele>
        <time>2020-02-18T08:50:30Z</time>
      </trkpt>
      <trkpt lat="46.74918" lon="5.51293">
        <ele>217.9</ele>
        <time>2020-02-18T08:50:36Z</time>
      </trkpt>
      <trkpt lat="46.74913" lon="5.51291">
        <ele>217.5</ele>
        <time>2020-02-18T08:50:42Z</time>
      </trkpt>
      <trkpt lat="46.74908" lon="5.5129">
        <ele>217</ele>
        <time>2020-02-18T08:50:47Z</time>
      </trkpt>
      <trkpt lat="46.74904" lon="5.51287">
        <ele>216.6</ele>
        <time>2020-02-18T08:50:52Z</time>
      </trkpt>
      <trkpt lat="46.749" lon="5.51285">
        <ele>216.2</ele>
        <time>2020-02-18T08:50:56Z</time>
      </trkpt>
      <trkpt lat="46.74895" lon="5.51283">
        <ele>216</ele>
        <time>2020-02-18T08:51:00Z</time>
      </trkpt>
      <trkpt lat="46.74891" lon="5.51277">
        <ele>215.8</ele>
        <time>2020-02-18T08:51:04Z</time>
      </trkpt>
      <trkpt lat="46.74887" lon="5.51272">
        <ele>215.3</ele>
        <time>2020-02-18T08:51:09Z</time>
      </trkpt>
      <trkpt lat="46.74883" lon="5.51269">
        <ele>214.6</ele>
        <time>2020-02-18T08:51:13Z</time>
      </trkpt>
      <trkpt lat="46.74879" lon="5.51267">
        <ele>214.1</ele>
        <time>2020-02-18T08:51:17Z</time>
      </trkpt>
      <trkpt lat="46.74875" lon="5.51261">
        <ele>213.7</ele>
        <time>2020-02-18T08:51:21Z</time>
      </trkpt>
      <trkpt lat="46.74871" lon="5.51255">
        <ele>213.5</ele>
        <time>2020-02-18T08:51:25Z</time>
      </trkpt>
      <trkpt lat="46.74867" lon="5.51251">
        <ele>213.3</ele>
        <time>2020-02-18T08:51:30Z</time>
      </trkpt>
      <trkpt lat="46.74863" lon="5.51246">
        <ele>213.3</ele>
        <time>2020-02-18T08:51:34Z</time>
      </trkpt>
      <trkpt lat="46.74859" lon="5.51241">
        <ele>213.3</ele>
        <time>2020-02-18T08:51:38Z</time>
      </trkpt>
      <trkpt lat="46.74856" lon="5.51235">
        <ele>213.1</ele>
        <time>2020-02-18T08:51:44Z</time>
      </trkpt>
      <trkpt lat="46.74857" lon="5.51229">
        <ele>212.9</ele>
        <time>2020-02-18T08:51:47Z</time>
      </trkpt>
      <trkpt lat="46.74858" lon="5.51221">
        <ele>212.8</ele>
        <time>2020-02-18T08:51:51Z</time>
      </trkpt>
      <trkpt lat="46.74861" lon="5.51215">
        <ele>212.5</ele>
        <time>2020-02-18T08:51:57Z</time>
      </trkpt>
      <trkpt lat="46.74864" lon="5.51209">
        <ele>212.5</ele>
        <time>2020-02-18T08:52:03Z</time>
      </trkpt>
      <trkpt lat="46.74866" lon="5.51203">
        <ele>212.8</ele>
        <time>2020-02-18T08:52:08Z</time>
      </trkpt>
      <trkpt lat="46.74865" lon="5.51194">
        <ele>213</ele>
        <time>2020-02-18T08:52:11Z</time>
      </trkpt>
      <trkpt lat="46.74866" lon="5.51187">
        <ele>213.2</ele>
        <time>2020-02-18T08:52:15Z</time>
      </trkpt>
      <trkpt lat="46.74866" lon="5.5118">
        <ele>213.5</ele>
        <time>2020-02-18T08:52:20Z</time>
      </trkpt>
      <trkpt lat="46.74868" lon="5.51173">
        <ele>213.8</ele>
        <time>2020-02-18T08:52:25Z</time>
      </trkpt>
      <trkpt lat="46.7487" lon="5.51166">
        <ele>214</ele>
        <time>2020-02-18T08:52:30Z</time>
      </trkpt>
      <trkpt lat="46.7487" lon="5.51159">
        <ele>214.3</ele>
        <time>2020-02-18T08:52:35Z</time>
      </trkpt>
      <trkpt lat="46.74868" lon="5.51153">
        <ele>214.3</ele>
        <time>2020-02-18T08:52:40Z</time>
      </trkpt>
      <trkpt lat="46.74865" lon="5.51146">
        <ele>214.1</ele>
        <time>2020-02-18T08:52:44Z</time>
      </trkpt>
      <trkpt lat="46.74862" lon="5.5114">
        <ele>213.9</ele>
        <time>2020-02-18T08:52:48Z</time>
      </trkpt>
      <trkpt lat="46.74859" lon="5.51135">
        <ele>213.9</ele>
        <time>2020-02-18T08:52:54Z</time>
      </trkpt>
      <trkpt lat="46.74857" lon="5.51126">
        <ele>214.2</ele>
        <time>2020-02-18T08:52:59Z</time>
      </trkpt>
      <trkpt lat="46.74857" lon="5.51117">
        <ele>214.4</ele>
        <time>2020-02-18T08:53:02Z</time>
      </trkpt>
      <trkpt lat="46.74856" lon="5.51108">
        <ele>214.5</ele>
        <time>2020-02-18T08:53:05Z</time>
      </trkpt>
      <trkpt lat="46.74857" lon="5.511">
        <ele>214.6</ele>
        <time>2020-02-18T08:53:08Z</time>
      </trkpt>
      <trkpt lat="46.74858" lon="5.51093">
        <ele>214.7</ele>
        <time>2020-02-18T08:53:12Z</time>
      </trkpt>
      <trkpt lat="46.74861" lon="5.51087">
        <ele>215</ele>
        <time>2020-02-18T08:53:16Z</time>
      </trkpt>
      <trkpt lat="46.74864" lon="5.51082">
        <ele>215.3</ele>
        <time>2020-02-18T08:53:20Z</time>
      </trkpt>
      <trkpt lat="46.74866" lon="5.51074">
        <ele>215.5</ele>
        <time>2020-02-18T08:53:24Z</time>
      </trkpt>
      <trkpt lat="46.74868" lon="5.51067">
        <ele>215.6</ele>
        <time>2020-02-18T08:53:28Z</time>
      </trkpt>
      <trkpt lat="46.74869" lon="5.5106">
        <ele>215.6</ele>
        <time>2020-02-18T08:53:33Z</time>
      </trkpt>
      <trkpt lat="46.74871" lon="5.51054">
        <ele>215.6</ele>
        <time>2020-02-18T08:53:38Z</time>
      </trkpt>
      <trkpt lat="46.74873" lon="5.51047">
        <ele>215.5</ele>
        <time>2020-02-18T08:53:43Z</time>
      </trkpt>
      <trkpt lat="46.74875" lon="5.5104">
        <ele>215.4</ele>
        <time>2020-02-18T08:53:47Z</time>
      </trkpt>
      <trkpt lat="46.74874" lon="5.5099">
        <ele>211.6</ele>
        <time>2020-02-18T08:54:22Z</time>
      </trkpt>
      <trkpt lat="46.74874" lon="5.50982">
        <ele>211.9</ele>
        <time>2020-02-18T08:54:25Z</time>
      </trkpt>
      <trkpt lat="46.74874" lon="5.50974">
        <ele>212.1</ele>
        <time>2020-02-18T08:54:28Z</time>
      </trkpt>
      <trkpt lat="46.74873" lon="5.50967">
        <ele>212.3</ele>
        <time>2020-02-18T08:54:31Z</time>
      </trkpt>
      <trkpt lat="46.74873" lon="5.50961">
        <ele>212.6</ele>
        <time>2020-02-18T08:54:35Z</time>
      </trkpt>
      <trkpt lat="46.74873" lon="5.50954">
        <ele>212.9</ele>
        <time>2020-02-18T08:54:40Z</time>
      </trkpt>
      <trkpt lat="46.74874" lon="5.50947">
        <ele>213</ele>
        <time>2020-02-18T08:54:46Z</time>
      </trkpt>
      <trkpt lat="46.74874" lon="5.50941">
        <ele>213.1</ele>
        <time>2020-02-18T08:54:51Z</time>
      </trkpt>
      <trkpt lat="46.74872" lon="5.50934">
        <ele>213.3</ele>
        <time>2020-02-18T08:54:58Z</time>
      </trkpt>
      <trkpt lat="46.7487" lon="5.50927">
        <ele>213.6</ele>
        <time>2020-02-18T08:55:01Z</time>
      </trkpt>
      <trkpt lat="46.74868" lon="5.50919">
        <ele>214</ele>
        <time>2020-02-18T08:55:06Z</time>
      </trkpt>
      <trkpt lat="46.74866" lon="5.50914">
        <ele>214.2</ele>
        <time>2020-02-18T08:55:11Z</time>
      </trkpt>
      <trkpt lat="46.74862" lon="5.50909">
        <ele>214.7</ele>
        <time>2020-02-18T08:55:17Z</time>
      </trkpt>
      <trkpt lat="46.74858" lon="5.50904">
        <ele>215.1</ele>
        <time>2020-02-18T08:55:22Z</time>
      </trkpt>
      <trkpt lat="46.74854" lon="5.50899">
        <ele>215.4</ele>
        <time>2020-02-18T08:55:26Z</time>
      </trkpt>
      <trkpt lat="46.7485" lon="5.50893">
        <ele>215.8</ele>
        <time>2020-02-18T08:55:31Z</time>
      </trkpt>
      <trkpt lat="46.74846" lon="5.50888">
        <ele>216.3</ele>
        <time>2020-02-18T08:55:36Z</time>
      </trkpt>
      <trkpt lat="46.74842" lon="5.50884">
        <ele>216.7</ele>
        <time>2020-02-18T08:55:41Z</time>
      </trkpt>
      <trkpt lat="46.74838" lon="5.50879">
        <ele>217</ele>
        <time>2020-02-18T08:55:45Z</time>
      </trkpt>
      <trkpt lat="46.74834" lon="5.50875">
        <ele>217.2</ele>
        <time>2020-02-18T08:55:48Z</time>
      </trkpt>
      <trkpt lat="46.74829" lon="5.50872">
        <ele>217.3</ele>
        <time>2020-02-18T08:55:52Z</time>
      </trkpt>
      <trkpt lat="46.74825" lon="5.50868">
        <ele>217.3</ele>
        <time>2020-02-18T08:55:56Z</time>
      </trkpt>
      <trkpt lat="46.74821" lon="5.50864">
        <ele>217.4</ele>
        <time>2020-02-18T08:56:00Z</time>
      </trkpt>
      <trkpt lat="46.74817" lon="5.5086">
        <ele>217.3</ele>
        <time>2020-02-18T08:56:03Z</time>
      </trkpt>
      <trkpt lat="46.74813" lon="5.50855">
        <ele>217.2</ele>
        <time>2020-02-18T08:56:07Z</time>
      </trkpt>
      <trkpt lat="46.74809" lon="5.50851">
        <ele>217</ele>
        <time>2020-02-18T08:56:11Z</time>
      </trkpt>
      <trkpt lat="46.74806" lon="5.50845">
        <ele>216.8</ele>
        <time>2020-02-18T08:56:16Z</time>
      </trkpt>
      <trkpt lat="46.74803" lon="5.5084">
        <ele>216.6</ele>
        <time>2020-02-18T08:56:20Z</time>
      </trkpt>
      <trkpt lat="46.74799" lon="5.50834">
        <ele>216.4</ele>
        <time>2020-02-18T08:56:24Z</time>
      </trkpt>
      <trkpt lat="46.74796" lon="5.50829">
        <ele>216.1</ele>
        <time>2020-02-18T08:56:28Z</time>
      </trkpt>
      <trkpt lat="46.74793" lon="5.50824">
        <ele>215.6</ele>
        <time>2020-02-18T08:56:33Z</time>
      </trkpt>
      <trkpt lat="46.74789" lon="5.50817">
        <ele>215.2</ele>
        <time>2020-02-18T08:56:38Z</time>
      </trkpt>
      <trkpt lat="46.74787" lon="5.50811">
        <ele>215.1</ele>
        <time>2020-02-18T08:56:42Z</time>
      </trkpt>
      <trkpt lat="46.74784" lon="5.50805">
        <ele>215.2</ele>
        <time>2020-02-18T08:56:46Z</time>
      </trkpt>
      <trkpt lat="46.74783" lon="5.50798">
        <ele>215.3</ele>
        <time>2020-02-18T08:56:52Z</time>
      </trkpt>
      <trkpt lat="46.7478" lon="5.50791">
        <ele>215.4</ele>
        <time>2020-02-18T08:56:57Z</time>
      </trkpt>
      <trkpt lat="46.74778" lon="5.50785">
        <ele>215.3</ele>
        <time>2020-02-18T08:57:01Z</time>
      </trkpt>
      <trkpt lat="46.74776" lon="5.50779">
        <ele>215.3</ele>
        <time>2020-02-18T08:57:05Z</time>
      </trkpt>
      <trkpt lat="46.74774" lon="5.50771">
        <ele>215.1</ele>
        <time>2020-02-18T08:57:09Z</time>
      </trkpt>
      <trkpt lat="46.74773" lon="5.50764">
        <ele>214.9</ele>
        <time>2020-02-18T08:57:13Z</time>
      </trkpt>
      <trkpt lat="46.74771" lon="5.50758">
        <ele>214.6</ele>
        <time>2020-02-18T08:57:17Z</time>
      </trkpt>
      <trkpt lat="46.74769" lon="5.50751">
        <ele>214.5</ele>
        <time>2020-02-18T08:57:21Z</time>
      </trkpt>
      <trkpt lat="46.74768" lon="5.50743">
        <ele>214.4</ele>
        <time>2020-02-18T08:57:25Z</time>
      </trkpt>
      <trkpt lat="46.74767" lon="5.50736">
        <ele>214.3</ele>
        <time>2020-02-18T08:57:29Z</time>
      </trkpt>
      <trkpt lat="46.74765" lon="5.50728">
        <ele>214.2</ele>
        <time>2020-02-18T08:57:33Z</time>
      </trkpt>
      <trkpt lat="46.74763" lon="5.50721">
        <ele>214</ele>
        <time>2020-02-18T08:57:37Z</time>
      </trkpt>
      <trkpt lat="46.74761" lon="5.50714">
        <ele>213.8</ele>
        <time>2020-02-18T08:57:40Z</time>
      </trkpt>
      <trkpt lat="46.7476" lon="5.50707">
        <ele>213.6</ele>
        <time>2020-02-18T08:57:44Z</time>
      </trkpt>
      <trkpt lat="46.74758" lon="5.50701">
        <ele>213.4</ele>
        <time>2020-02-18T08:57:48Z</time>
      </trkpt>
      <trkpt lat="46.74758" lon="5.50694">
        <ele>213.2</ele>
        <time>2020-02-18T08:57:53Z</time>
      </trkpt>
      <trkpt lat="46.74758" lon="5.50686">
        <ele>213</ele>
        <time>2020-02-18T08:57:58Z</time>
      </trkpt>
      <trkpt lat="46.74757" lon="5.5068">
        <ele>212.9</ele>
        <time>2020-02-18T08:58:02Z</time>
      </trkpt>
      <trkpt lat="46.74756" lon="5.50671">
        <ele>212.6</ele>
        <time>2020-02-18T08:58:06Z</time>
      </trkpt>
      <trkpt lat="46.74756" lon="5.50665">
        <ele>212.3</ele>
        <time>2020-02-18T08:58:10Z</time>
      </trkpt>
      <trkpt lat="46.74756" lon="5.50656">
        <ele>212</ele>
        <time>2020-02-18T08:58:16Z</time>
      </trkpt>
      <trkpt lat="46.74756" lon="5.50649">
        <ele>211.9</ele>
        <time>2020-02-18T08:58:19Z</time>
      </trkpt>
      <trkpt lat="46.74756" lon="5.50641">
        <ele>211.7</ele>
        <time>2020-02-18T08:58:23Z</time>
      </trkpt>
      <trkpt lat="46.74757" lon="5.50633">
        <ele>211.6</ele>
        <time>2020-02-18T08:58:27Z</time>
      </trkpt>
      <trkpt lat="46.74756" lon="5.50625">
        <ele>211.4</ele>
        <time>2020-02-18T08:58:32Z</time>
      </trkpt>
      <trkpt lat="46.74755" lon="5.50618">
        <ele>211.4</ele>
        <time>2020-02-18T08:58:35Z</time>
      </trkpt>
      <trkpt lat="46.74755" lon="5.5061">
        <ele>211.4</ele>
        <time>2020-02-18T08:58:39Z</time>
      </trkpt>
      <trkpt lat="46.74754" lon="5.50601">
        <ele>211.5</ele>
        <time>2020-02-18T08:58:43Z</time>
      </trkpt>
      <trkpt lat="46.74755" lon="5.50594">
        <ele>211.7</ele>
        <time>2020-02-18T08:58:47Z</time>
      </trkpt>
      <trkpt lat="46.74755" lon="5.50587">
        <ele>211.8</ele>
        <time>2020-02-18T08:58:51Z</time>
      </trkpt>
      <trkpt lat="46.74755" lon="5.50578">
        <ele>212</ele>
        <time>2020-02-18T08:58:56Z</time>
      </trkpt>
      <trkpt lat="46.74754" lon="5.5057">
        <ele>212.1</ele>
        <time>2020-02-18T08:59:00Z</time>
      </trkpt>
      <trkpt lat="46.74755" lon="5.50564">
        <ele>212.4</ele>
        <time>2020-02-18T08:59:04Z</time>
      </trkpt>
      <trkpt lat="46.74755" lon="5.50557">
        <ele>212.7</ele>
        <time>2020-02-18T08:59:10Z</time>
      </trkpt>
      <trkpt lat="46.74755" lon="5.50549">
        <ele>212.9</ele>
        <time>2020-02-18T08:59:14Z</time>
      </trkpt>
      <trkpt lat="46.74755" lon="5.50541">
        <ele>213.2</ele>
        <time>2020-02-18T08:59:18Z</time>
      </trkpt>
      <trkpt lat="46.74756" lon="5.50535">
        <ele>213.3</ele>
        <time>2020-02-18T08:59:22Z</time>
      </trkpt>
      <trkpt lat="46.74757" lon="5.50526">
        <ele>213.3</ele>
        <time>2020-02-18T08:59:27Z</time>
      </trkpt>
      <trkpt lat="46.74758" lon="5.50519">
        <ele>213.4</ele>
        <time>2020-02-18T08:59:31Z</time>
      </trkpt>
      <trkpt lat="46.74759" lon="5.50511">
        <ele>213.6</ele>
        <time>2020-02-18T08:59:36Z</time>
      </trkpt>
      <trkpt lat="46.74759" lon="5.50504">
        <ele>213.8</ele>
        <time>2020-02-18T08:59:40Z</time>
      </trkpt>
      <trkpt lat="46.74759" lon="5.50498">
        <ele>213.9</ele>
        <time>2020-02-18T08:59:44Z</time>
      </trkpt>
      <trkpt lat="46.74761" lon="5.50491">
        <ele>214</ele>
        <time>2020-02-18T08:59:48Z</time>
      </trkpt>
      <trkpt lat="46.74762" lon="5.50485">
        <ele>214.1</ele>
        <time>2020-02-18T08:59:53Z</time>
      </trkpt>
      <trkpt lat="46.74762" lon="5.50478">
        <ele>214.1</ele>
        <time>2020-02-18T08:59:57Z</time>
      </trkpt>
      <trkpt lat="46.74763" lon="5.50471">
        <ele>213.9</ele>
        <time>2020-02-18T09:00:01Z</time>
      </trkpt>
      <trkpt lat="46.74764" lon="5.50464">
        <ele>213.9</ele>
        <time>2020-02-18T09:00:04Z</time>
      </trkpt>
      <trkpt lat="46.74765" lon="5.50457">
        <ele>214</ele>
        <time>2020-02-18T09:00:08Z</time>
      </trkpt>
      <trkpt lat="46.74765" lon="5.50449">
        <ele>214</ele>
        <time>2020-02-18T09:00:13Z</time>
      </trkpt>
      <trkpt lat="46.74765" lon="5.50441">
        <ele>214.2</ele>
        <time>2020-02-18T09:00:18Z</time>
      </trkpt>
      <trkpt lat="46.74766" lon="5.50434">
        <ele>214.2</ele>
        <time>2020-02-18T09:00:22Z</time>
      </trkpt>
      <trkpt lat="46.74766" lon="5.50427">
        <ele>214.1</ele>
        <time>2020-02-18T09:00:26Z</time>
      </trkpt>
      <trkpt lat="46.74768" lon="5.5042">
        <ele>213.8</ele>
        <time>2020-02-18T09:00:31Z</time>
      </trkpt>
      <trkpt lat="46.7477" lon="5.50412">
        <ele>213.4</ele>
        <time>2020-02-18T09:00:37Z</time>
      </trkpt>
      <trkpt lat="46.7477" lon="5.50404">
        <ele>213.2</ele>
        <time>2020-02-18T09:00:42Z</time>
      </trkpt>
      <trkpt lat="46.74771" lon="5.50397">
        <ele>213.3</ele>
        <time>2020-02-18T09:00:46Z</time>
      </trkpt>
      <trkpt lat="46.74772" lon="5.50388">
        <ele>213.5</ele>
        <time>2020-02-18T09:00:50Z</time>
      </trkpt>
      <trkpt lat="46.74772" lon="5.50381">
        <ele>213.7</ele>
        <time>2020-02-18T09:00:54Z</time>
      </trkpt>
      <trkpt lat="46.74774" lon="5.50373">
        <ele>214</ele>
        <time>2020-02-18T09:00:59Z</time>
      </trkpt>
      <trkpt lat="46.74775" lon="5.50367">
        <ele>214.2</ele>
        <time>2020-02-18T09:01:03Z</time>
      </trkpt>
      <trkpt lat="46.74776" lon="5.50359">
        <ele>214.3</ele>
        <time>2020-02-18T09:01:07Z</time>
      </trkpt>
      <trkpt lat="46.74777" lon="5.50352">
        <ele>214.4</ele>
        <time>2020-02-18T09:01:11Z</time>
      </trkpt>
      <trkpt lat="46.74779" lon="5.50345">
        <ele>214.5</ele>
        <time>2020-02-18T09:01:15Z</time>
      </trkpt>
      <trkpt lat="46.7478" lon="5.50339">
        <ele>214.5</ele>
        <time>2020-02-18T09:01:19Z</time>
      </trkpt>
      <trkpt lat="46.74781" lon="5.50331">
        <ele>214.5</ele>
        <time>2020-02-18T09:01:24Z</time>
      </trkpt>
      <trkpt lat="46.74783" lon="5.50323">
        <ele>214.5</ele>
        <time>2020-02-18T09:01:29Z</time>
      </trkpt>
      <trkpt lat="46.74784" lon="5.50315">
        <ele>214.3</ele>
        <time>2020-02-18T09:01:34Z</time>
      </trkpt>
      <trkpt lat="46.74785" lon="5.50307">
        <ele>214</ele>
        <time>2020-02-18T09:01:38Z</time>
      </trkpt>
      <trkpt lat="46.74787" lon="5.50301">
        <ele>213.9</ele>
        <time>2020-02-18T09:01:42Z</time>
      </trkpt>
      <trkpt lat="46.74788" lon="5.50294">
        <ele>213.7</ele>
        <time>2020-02-18T09:01:46Z</time>
      </trkpt>
      <trkpt lat="46.7479" lon="5.50287">
        <ele>213.5</ele>
        <time>2020-02-18T09:01:50Z</time>
      </trkpt>
      <trkpt lat="46.74791" lon="5.50279">
        <ele>213.5</ele>
        <time>2020-02-18T09:01:55Z</time>
      </trkpt>
      <trkpt lat="46.74792" lon="5.50273">
        <ele>213.5</ele>
        <time>2020-02-18T09:02:00Z</time>
      </trkpt>
      <trkpt lat="46.74794" lon="5.50265">
        <ele>213.5</ele>
        <time>2020-02-18T09:02:04Z</time>
      </trkpt>
      <trkpt lat="46.74794" lon="5.50256">
        <ele>213.5</ele>
        <time>2020-02-18T09:02:09Z</time>
      </trkpt>
      <trkpt lat="46.74792" lon="5.50249">
        <ele>213.6</ele>
        <time>2020-02-18T09:02:14Z</time>
      </trkpt>
      <trkpt lat="46.7479" lon="5.50243">
        <ele>213.6</ele>
        <time>2020-02-18T09:02:18Z</time>
      </trkpt>
      <trkpt lat="46.74788" lon="5.50236">
        <ele>213.7</ele>
        <time>2020-02-18T09:02:22Z</time>
      </trkpt>
      <trkpt lat="46.74787" lon="5.50228">
        <ele>213.8</ele>
        <time>2020-02-18T09:02:27Z</time>
      </trkpt>
      <trkpt lat="46.74786" lon="5.50222">
        <ele>213.9</ele>
        <time>2020-02-18T09:02:31Z</time>
      </trkpt>
      <trkpt lat="46.74783" lon="5.50215">
        <ele>213.7</ele>
        <time>2020-02-18T09:02:36Z</time>
      </trkpt>
      <trkpt lat="46.7478" lon="5.50209">
        <ele>213.4</ele>
        <time>2020-02-18T09:02:42Z</time>
      </trkpt>
      <trkpt lat="46.74777" lon="5.50203">
        <ele>213.1</ele>
        <time>2020-02-18T09:02:47Z</time>
      </trkpt>
      <trkpt lat="46.74774" lon="5.50198">
        <ele>212.9</ele>
        <time>2020-02-18T09:02:51Z</time>
      </trkpt>
      <trkpt lat="46.74771" lon="5.50192">
        <ele>212.5</ele>
        <time>2020-02-18T09:02:56Z</time>
      </trkpt>
      <trkpt lat="46.74768" lon="5.50186">
        <ele>212.4</ele>
        <time>2020-02-18T09:02:59Z</time>
      </trkpt>
      <trkpt lat="46.74766" lon="5.5018">
        <ele>212.2</ele>
        <time>2020-02-18T09:03:02Z</time>
      </trkpt>
      <trkpt lat="46.74764" lon="5.50174">
        <ele>212</ele>
        <time>2020-02-18T09:03:06Z</time>
      </trkpt>
      <trkpt lat="46.7476" lon="5.50168">
        <ele>211.9</ele>
        <time>2020-02-18T09:03:11Z</time>
      </trkpt>
      <trkpt lat="46.74756" lon="5.50163">
        <ele>211.8</ele>
        <time>2020-02-18T09:03:15Z</time>
      </trkpt>
      <trkpt lat="46.74752" lon="5.50157">
        <ele>211.9</ele>
        <time>2020-02-18T09:03:19Z</time>
      </trkpt>
      <trkpt lat="46.74749" lon="5.50152">
        <ele>211.9</ele>
        <time>2020-02-18T09:03:23Z</time>
      </trkpt>
      <trkpt lat="46.74746" lon="5.50146">
        <ele>211.9</ele>
        <time>2020-02-18T09:03:27Z</time>
      </trkpt>
      <trkpt lat="46.74742" lon="5.50139">
        <ele>211.9</ele>
        <time>2020-02-18T09:03:31Z</time>
      </trkpt>
      <trkpt lat="46.74739" lon="5.50133">
        <ele>211.7</ele>
        <time>2020-02-18T09:03:35Z</time>
      </trkpt>
      <trkpt lat="46.74736" lon="5.50127">
        <ele>211.6</ele>
        <time>2020-02-18T09:03:40Z</time>
      </trkpt>
      <trkpt lat="46.74733" lon="5.50121">
        <ele>211.6</ele>
        <time>2020-02-18T09:03:45Z</time>
      </trkpt>
      <trkpt lat="46.74729" lon="5.50115">
        <ele>211.5</ele>
        <time>2020-02-18T09:03:49Z</time>
      </trkpt>
      <trkpt lat="46.74726" lon="5.5011">
        <ele>211.5</ele>
        <time>2020-02-18T09:03:53Z</time>
      </trkpt>
      <trkpt lat="46.74723" lon="5.50104">
        <ele>211.4</ele>
        <time>2020-02-18T09:03:58Z</time>
      </trkpt>
      <trkpt lat="46.74719" lon="5.50098">
        <ele>211.5</ele>
        <time>2020-02-18T09:04:02Z</time>
      </trkpt>
      <trkpt lat="46.74715" lon="5.50092">
        <ele>211.6</ele>
        <time>2020-02-18T09:04:06Z</time>
      </trkpt>
      <trkpt lat="46.74712" lon="5.50088">
        <ele>211.7</ele>
        <time>2020-02-18T09:04:10Z</time>
      </trkpt>
      <trkpt lat="46.74709" lon="5.50083">
        <ele>211.7</ele>
        <time>2020-02-18T09:04:14Z</time>
      </trkpt>
      <trkpt lat="46.74705" lon="5.50078">
        <ele>211.7</ele>
        <time>2020-02-18T09:04:19Z</time>
      </trkpt>
      <trkpt lat="46.74702" lon="5.50073">
        <ele>211.7</ele>
        <time>2020-02-18T09:04:23Z</time>
      </trkpt>
      <trkpt lat="46.74697" lon="5.50069">
        <ele>211.8</ele>
        <time>2020-02-18T09:04:28Z</time>
      </trkpt>
      <trkpt lat="46.74692" lon="5.50065">
        <ele>211.7</ele>
        <time>2020-02-18T09:04:33Z</time>
      </trkpt>
      <trkpt lat="46.74687" lon="5.5006">
        <ele>211.5</ele>
        <time>2020-02-18T09:04:37Z</time>
      </trkpt>
      <trkpt lat="46.74683" lon="5.50055">
        <ele>211.4</ele>
        <time>2020-02-18T09:04:41Z</time>
      </trkpt>
      <trkpt lat="46.74679" lon="5.50049">
        <ele>211.3</ele>
        <time>2020-02-18T09:04:46Z</time>
      </trkpt>
      <trkpt lat="46.74676" lon="5.50044">
        <ele>211.4</ele>
        <time>2020-02-18T09:04:50Z</time>
      </trkpt>
      <trkpt lat="46.74672" lon="5.50039">
        <ele>211.6</ele>
        <time>2020-02-18T09:04:54Z</time>
      </trkpt>
      <trkpt lat="46.74668" lon="5.50033">
        <ele>211.6</ele>
        <time>2020-02-18T09:04:58Z</time>
      </trkpt>
      <trkpt lat="46.74664" lon="5.50028">
        <ele>211.7</ele>
        <time>2020-02-18T09:05:03Z</time>
      </trkpt>
      <trkpt lat="46.74661" lon="5.50024">
        <ele>211.8</ele>
        <time>2020-02-18T09:05:08Z</time>
      </trkpt>
      <trkpt lat="46.74657" lon="5.50018">
        <ele>211.8</ele>
        <time>2020-02-18T09:05:12Z</time>
      </trkpt>
      <trkpt lat="46.74653" lon="5.50013">
        <ele>211.8</ele>
        <time>2020-02-18T09:05:16Z</time>
      </trkpt>
      <trkpt lat="46.74649" lon="5.50007">
        <ele>211.6</ele>
        <time>2020-02-18T09:05:20Z</time>
      </trkpt>
      <trkpt lat="46.74645" lon="5.50001">
        <ele>211.4</ele>
        <time>2020-02-18T09:05:24Z</time>
      </trkpt>
      <trkpt lat="46.74642" lon="5.49996">
        <ele>211.2</ele>
        <time>2020-02-18T09:05:27Z</time>
      </trkpt>
      <trkpt lat="46.74639" lon="5.4999">
        <ele>210.7</ele>
        <time>2020-02-18T09:05:32Z</time>
      </trkpt>
      <trkpt lat="46.74636" lon="5.49985">
        <ele>210.5</ele>
        <time>2020-02-18T09:05:37Z</time>
      </trkpt>
      <trkpt lat="46.74632" lon="5.49979">
        <ele>210.4</ele>
        <time>2020-02-18T09:05:44Z</time>
      </trkpt>
      <trkpt lat="46.74628" lon="5.49973">
        <ele>210.4</ele>
        <time>2020-02-18T09:05:48Z</time>
      </trkpt>
      <trkpt lat="46.74625" lon="5.49968">
        <ele>210.4</ele>
        <time>2020-02-18T09:05:51Z</time>
      </trkpt>
      <trkpt lat="46.74622" lon="5.49962">
        <ele>210.5</ele>
        <time>2020-02-18T09:05:55Z</time>
      </trkpt>
      <trkpt lat="46.74619" lon="5.49958">
        <ele>210.7</ele>
        <time>2020-02-18T09:06:00Z</time>
      </trkpt>
      <trkpt lat="46.74615" lon="5.49951">
        <ele>210.8</ele>
        <time>2020-02-18T09:06:05Z</time>
      </trkpt>
      <trkpt lat="46.74613" lon="5.49945">
        <ele>211.2</ele>
        <time>2020-02-18T09:06:09Z</time>
      </trkpt>
      <trkpt lat="46.74609" lon="5.49939">
        <ele>211.7</ele>
        <time>2020-02-18T09:06:14Z</time>
      </trkpt>
      <trkpt lat="46.74605" lon="5.49936">
        <ele>212.3</ele>
        <time>2020-02-18T09:06:19Z</time>
      </trkpt>
      <trkpt lat="46.74604" lon="5.49926">
        <ele>212.5</ele>
        <time>2020-02-18T09:06:34Z</time>
      </trkpt>
      <trkpt lat="46.746" lon="5.49922">
        <ele>212.1</ele>
        <time>2020-02-18T09:06:42Z</time>
      </trkpt>
      <trkpt lat="46.74595" lon="5.49919">
        <ele>212.1</ele>
        <time>2020-02-18T09:06:48Z</time>
      </trkpt>
      <trkpt lat="46.74591" lon="5.49916">
        <ele>212.4</ele>
        <time>2020-02-18T09:06:52Z</time>
      </trkpt>
      <trkpt lat="46.74587" lon="5.49913">
        <ele>212.7</ele>
        <time>2020-02-18T09:06:56Z</time>
      </trkpt>
      <trkpt lat="46.74583" lon="5.49908">
        <ele>212.9</ele>
        <time>2020-02-18T09:07:00Z</time>
      </trkpt>
      <trkpt lat="46.74579" lon="5.49903">
        <ele>213.2</ele>
        <time>2020-02-18T09:07:04Z</time>
      </trkpt>
      <trkpt lat="46.74575" lon="5.49898">
        <ele>213.9</ele>
        <time>2020-02-18T09:07:10Z</time>
      </trkpt>
      <trkpt lat="46.74572" lon="5.49892">
        <ele>214.7</ele>
        <time>2020-02-18T09:07:16Z</time>
      </trkpt>
      <trkpt lat="46.74569" lon="5.49886">
        <ele>215.5</ele>
        <time>2020-02-18T09:07:22Z</time>
      </trkpt>
      <trkpt lat="46.74566" lon="5.4988">
        <ele>215.7</ele>
        <time>2020-02-18T09:07:28Z</time>
      </trkpt>
      <trkpt lat="46.74563" lon="5.49873">
        <ele>215.7</ele>
        <time>2020-02-18T09:07:32Z</time>
      </trkpt>
      <trkpt lat="46.74559" lon="5.49867">
        <ele>215.7</ele>
        <time>2020-02-18T09:07:36Z</time>
      </trkpt>
      <trkpt lat="46.74556" lon="5.49862">
        <ele>215.7</ele>
        <time>2020-02-18T09:07:43Z</time>
      </trkpt>
      <trkpt lat="46.74553" lon="5.49855">
        <ele>215.2</ele>
        <time>2020-02-18T09:07:49Z</time>
      </trkpt>
      <trkpt lat="46.74552" lon="5.49848">
        <ele>214.4</ele>
        <time>2020-02-18T09:07:54Z</time>
      </trkpt>
      <trkpt lat="46.74551" lon="5.49841">
        <ele>213.6</ele>
        <time>2020-02-18T09:07:59Z</time>
      </trkpt>
      <trkpt lat="46.7455" lon="5.49835">
        <ele>213.1</ele>
        <time>2020-02-18T09:08:02Z</time>
      </trkpt>
      <trkpt lat="46.74549" lon="5.49828">
        <ele>212.7</ele>
        <time>2020-02-18T09:08:06Z</time>
      </trkpt>
      <trkpt lat="46.74546" lon="5.49823">
        <ele>212.3</ele>
        <time>2020-02-18T09:08:11Z</time>
      </trkpt>
      <trkpt lat="46.74543" lon="5.49816">
        <ele>212.1</ele>
        <time>2020-02-18T09:08:16Z</time>
      </trkpt>
      <trkpt lat="46.74541" lon="5.49809">
        <ele>212.1</ele>
        <time>2020-02-18T09:08:22Z</time>
      </trkpt>
      <trkpt lat="46.74539" lon="5.49802">
        <ele>212.3</ele>
        <time>2020-02-18T09:08:26Z</time>
      </trkpt>
      <trkpt lat="46.74535" lon="5.49796">
        <ele>212.7</ele>
        <time>2020-02-18T09:08:30Z</time>
      </trkpt>
      <trkpt lat="46.74532" lon="5.49792">
        <ele>213</ele>
        <time>2020-02-18T09:08:34Z</time>
      </trkpt>
      <trkpt lat="46.74529" lon="5.49785">
        <ele>213</ele>
        <time>2020-02-18T09:08:40Z</time>
      </trkpt>
      <trkpt lat="46.74531" lon="5.49778">
        <ele>212.9</ele>
        <time>2020-02-18T09:08:43Z</time>
      </trkpt>
      <trkpt lat="46.74535" lon="5.49772">
        <ele>212.7</ele>
        <time>2020-02-18T09:08:48Z</time>
      </trkpt>
      <trkpt lat="46.74538" lon="5.49766">
        <ele>212.4</ele>
        <time>2020-02-18T09:08:53Z</time>
      </trkpt>
      <trkpt lat="46.74539" lon="5.49758">
        <ele>212.3</ele>
        <time>2020-02-18T09:08:56Z</time>
      </trkpt>
      <trkpt lat="46.74541" lon="5.49752">
        <ele>212.3</ele>
        <time>2020-02-18T09:09:00Z</time>
      </trkpt>
      <trkpt lat="46.74544" lon="5.49745">
        <ele>212.3</ele>
        <time>2020-02-18T09:09:05Z</time>
      </trkpt>
      <trkpt lat="46.74545" lon="5.49738">
        <ele>212.2</ele>
        <time>2020-02-18T09:09:08Z</time>
      </trkpt>
      <trkpt lat="46.74547" lon="5.49731">
        <ele>211.9</ele>
        <time>2020-02-18T09:09:13Z</time>
      </trkpt>
      <trkpt lat="46.7455" lon="5.49725">
        <ele>211.5</ele>
        <time>2020-02-18T09:09:19Z</time>
      </trkpt>
      <trkpt lat="46.74553" lon="5.49717">
        <ele>211.1</ele>
        <time>2020-02-18T09:09:24Z</time>
      </trkpt>
      <trkpt lat="46.74555" lon="5.49711">
        <ele>211</ele>
        <time>2020-02-18T09:09:29Z</time>
      </trkpt>
      <trkpt lat="46.74559" lon="5.49706">
        <ele>211.2</ele>
        <time>2020-02-18T09:09:33Z</time>
      </trkpt>
      <trkpt lat="46.74561" lon="5.49699">
        <ele>211.3</ele>
        <time>2020-02-18T09:09:37Z</time>
      </trkpt>
      <trkpt lat="46.74562" lon="5.49691">
        <ele>211.4</ele>
        <time>2020-02-18T09:09:42Z</time>
      </trkpt>
      <trkpt lat="46.74564" lon="5.49684">
        <ele>211.3</ele>
        <time>2020-02-18T09:09:47Z</time>
      </trkpt>
      <trkpt lat="46.74566" lon="5.49676">
        <ele>211.1</ele>
        <time>2020-02-18T09:09:51Z</time>
      </trkpt>
      <trkpt lat="46.74567" lon="5.49668">
        <ele>211.1</ele>
        <time>2020-02-18T09:09:56Z</time>
      </trkpt>
      <trkpt lat="46.74569" lon="5.49661">
        <ele>211</ele>
        <time>2020-02-18T09:10:00Z</time>
      </trkpt>
      <trkpt lat="46.7457" lon="5.49655">
        <ele>211</ele>
        <time>2020-02-18T09:10:05Z</time>
      </trkpt>
      <trkpt lat="46.74569" lon="5.49647">
        <ele>211</ele>
        <time>2020-02-18T09:10:09Z</time>
      </trkpt>
      <trkpt lat="46.74568" lon="5.4964">
        <ele>211</ele>
        <time>2020-02-18T09:10:14Z</time>
      </trkpt>
      <trkpt lat="46.74567" lon="5.49634">
        <ele>211.1</ele>
        <time>2020-02-18T09:10:18Z</time>
      </trkpt>
      <trkpt lat="46.74566" lon="5.49627">
        <ele>211.1</ele>
        <time>2020-02-18T09:10:22Z</time>
      </trkpt>
      <trkpt lat="46.74564" lon="5.4962">
        <ele>211.2</ele>
        <time>2020-02-18T09:10:26Z</time>
      </trkpt>
      <trkpt lat="46.74563" lon="5.49614">
        <ele>211</ele>
        <time>2020-02-18T09:10:30Z</time>
      </trkpt>
      <trkpt lat="46.74562" lon="5.49606">
        <ele>211</ele>
        <time>2020-02-18T09:10:35Z</time>
      </trkpt>
      <trkpt lat="46.74563" lon="5.496">
        <ele>211.1</ele>
        <time>2020-02-18T09:10:38Z</time>
      </trkpt>
      <trkpt lat="46.74564" lon="5.49591">
        <ele>211.2</ele>
        <time>2020-02-18T09:10:42Z</time>
      </trkpt>
      <trkpt lat="46.74563" lon="5.49583">
        <ele>211.3</ele>
        <time>2020-02-18T09:10:47Z</time>
      </trkpt>
      <trkpt lat="46.74562" lon="5.49577">
        <ele>211.4</ele>
        <time>2020-02-18T09:10:50Z</time>
      </trkpt>
      <trkpt lat="46.74562" lon="5.49569">
        <ele>211.4</ele>
        <time>2020-02-18T09:10:55Z</time>
      </trkpt>
      <trkpt lat="46.74562" lon="5.49562">
        <ele>211.3</ele>
        <time>2020-02-18T09:10:59Z</time>
      </trkpt>
      <trkpt lat="46.74562" lon="5.49555">
        <ele>211.1</ele>
        <time>2020-02-18T09:11:03Z</time>
      </trkpt>
      <trkpt lat="46.74562" lon="5.49548">
        <ele>210.9</ele>
        <time>2020-02-18T09:11:07Z</time>
      </trkpt>
      <trkpt lat="46.74561" lon="5.49542">
        <ele>210.8</ele>
        <time>2020-02-18T09:11:11Z</time>
      </trkpt>
      <trkpt lat="46.7456" lon="5.49535">
        <ele>211.1</ele>
        <time>2020-02-18T09:11:17Z</time>
      </trkpt>
      <trkpt lat="46.74556" lon="5.49529">
        <ele>211.6</ele>
        <time>2020-02-18T09:11:22Z</time>
      </trkpt>
      <trkpt lat="46.74553" lon="5.49523">
        <ele>212.2</ele>
        <time>2020-02-18T09:11:26Z</time>
      </trkpt>
      <trkpt lat="46.74549" lon="5.49517">
        <ele>213.3</ele>
        <time>2020-02-18T09:11:32Z</time>
      </trkpt>
      <trkpt lat="46.74546" lon="5.49512">
        <ele>213.9</ele>
        <time>2020-02-18T09:11:36Z</time>
      </trkpt>
      <trkpt lat="46.74543" lon="5.49505">
        <ele>214.4</ele>
        <time>2020-02-18T09:11:40Z</time>
      </trkpt>
      <trkpt lat="46.7454" lon="5.495">
        <ele>214.6</ele>
        <time>2020-02-18T09:11:44Z</time>
      </trkpt>
      <trkpt lat="46.74536" lon="5.49496">
        <ele>214.7</ele>
        <time>2020-02-18T09:11:48Z</time>
      </trkpt>
      <trkpt lat="46.74532" lon="5.49493">
        <ele>214.7</ele>
        <time>2020-02-18T09:11:52Z</time>
      </trkpt>
      <trkpt lat="46.74528" lon="5.49489">
        <ele>214.5</ele>
        <time>2020-02-18T09:11:57Z</time>
      </trkpt>
      <trkpt lat="46.74523" lon="5.49487">
        <ele>214.4</ele>
        <time>2020-02-18T09:12:02Z</time>
      </trkpt>
      <trkpt lat="46.74518" lon="5.49485">
        <ele>214.4</ele>
        <time>2020-02-18T09:12:06Z</time>
      </trkpt>
      <trkpt lat="46.74513" lon="5.49484">
        <ele>214.3</ele>
        <time>2020-02-18T09:12:11Z</time>
      </trkpt>
      <trkpt lat="46.74508" lon="5.49483">
        <ele>214.4</ele>
        <time>2020-02-18T09:12:16Z</time>
      </trkpt>
      <trkpt lat="46.74503" lon="5.49482">
        <ele>214.4</ele>
        <time>2020-02-18T09:12:22Z</time>
      </trkpt>
      <trkpt lat="46.74499" lon="5.49482">
        <ele>214.2</ele>
        <time>2020-02-18T09:12:29Z</time>
      </trkpt>
      <trkpt lat="46.74496" lon="5.49489">
        <ele>213.6</ele>
        <time>2020-02-18T09:12:35Z</time>
      </trkpt>
      <trkpt lat="46.74495" lon="5.49496">
        <ele>213</ele>
        <time>2020-02-18T09:12:39Z</time>
      </trkpt>
      <trkpt lat="46.74494" lon="5.49502">
        <ele>212.3</ele>
        <time>2020-02-18T09:12:44Z</time>
      </trkpt>
      <trkpt lat="46.74492" lon="5.49509">
        <ele>211.8</ele>
        <time>2020-02-18T09:12:49Z</time>
      </trkpt>
      <trkpt lat="46.7449" lon="5.49515">
        <ele>211.6</ele>
        <time>2020-02-18T09:12:54Z</time>
      </trkpt>
      <trkpt lat="46.74486" lon="5.49518">
        <ele>211.5</ele>
        <time>2020-02-18T09:12:58Z</time>
      </trkpt>
      <trkpt lat="46.74483" lon="5.49524">
        <ele>211.5</ele>
        <time>2020-02-18T09:13:03Z</time>
      </trkpt>
      <trkpt lat="46.74483" lon="5.49531">
        <ele>211.3</ele>
        <time>2020-02-18T09:13:08Z</time>
      </trkpt>
      <trkpt lat="46.74482" lon="5.49538">
        <ele>210.9</ele>
        <time>2020-02-18T09:13:14Z</time>
      </trkpt>
      <trkpt lat="46.74478" lon="5.49543">
        <ele>210.9</ele>
        <time>2020-02-18T09:13:22Z</time>
      </trkpt>
      <trkpt lat="46.74481" lon="5.49537">
        <ele>212</ele>
        <time>2020-02-18T09:14:00Z</time>
      </trkpt>
      <trkpt lat="46.74478" lon="5.49543">
        <ele>214.6</ele>
        <time>2020-02-18T09:14:39Z</time>
      </trkpt>
      <trkpt lat="46.74479" lon="5.4955">
        <ele>213.8</ele>
        <time>2020-02-18T09:14:54Z</time>
      </trkpt>
      <trkpt lat="46.74477" lon="5.49556">
        <ele>213.2</ele>
        <time>2020-02-18T09:15:00Z</time>
      </trkpt>
      <trkpt lat="46.74476" lon="5.49563">
        <ele>213</ele>
        <time>2020-02-18T09:15:05Z</time>
      </trkpt>
      <trkpt lat="46.74475" lon="5.4957">
        <ele>212.9</ele>
        <time>2020-02-18T09:15:10Z</time>
      </trkpt>
      <trkpt lat="46.74474" lon="5.49577">
        <ele>212.6</ele>
        <time>2020-02-18T09:15:16Z</time>
      </trkpt>
      <trkpt lat="46.74471" lon="5.49584">
        <ele>212.6</ele>
        <time>2020-02-18T09:15:21Z</time>
      </trkpt>
      <trkpt lat="46.74468" lon="5.4959">
        <ele>212.5</ele>
        <time>2020-02-18T09:15:25Z</time>
      </trkpt>
      <trkpt lat="46.74461" lon="5.49608">
        <ele>213</ele>
        <time>2020-02-18T09:15:36Z</time>
      </trkpt>
      <trkpt lat="46.74461" lon="5.49615">
        <ele>213.2</ele>
        <time>2020-02-18T09:15:40Z</time>
      </trkpt>
      <trkpt lat="46.7446" lon="5.49623">
        <ele>213.4</ele>
        <time>2020-02-18T09:15:46Z</time>
      </trkpt>
      <trkpt lat="46.74459" lon="5.49629">
        <ele>213.5</ele>
        <time>2020-02-18T09:15:50Z</time>
      </trkpt>
      <trkpt lat="46.74455" lon="5.49634">
        <ele>213.7</ele>
        <time>2020-02-18T09:15:55Z</time>
      </trkpt>
      <trkpt lat="46.74451" lon="5.49639">
        <ele>213.8</ele>
        <time>2020-02-18T09:15:59Z</time>
      </trkpt>
      <trkpt lat="46.74448" lon="5.49647">
        <ele>214.2</ele>
        <time>2020-02-18T09:16:04Z</time>
      </trkpt>
      <trkpt lat="46.74446" lon="5.49653">
        <ele>214.6</ele>
        <time>2020-02-18T09:16:09Z</time>
      </trkpt>
      <trkpt lat="46.74442" lon="5.49658">
        <ele>214.8</ele>
        <time>2020-02-18T09:16:14Z</time>
      </trkpt>
      <trkpt lat="46.74438" lon="5.49661">
        <ele>214.9</ele>
        <time>2020-02-18T09:16:18Z</time>
      </trkpt>
      <trkpt lat="46.74433" lon="5.49664">
        <ele>214.9</ele>
        <time>2020-02-18T09:16:22Z</time>
      </trkpt>
      <trkpt lat="46.74428" lon="5.49668">
        <ele>214.9</ele>
        <time>2020-02-18T09:16:27Z</time>
      </trkpt>
      <trkpt lat="46.74424" lon="5.49672">
        <ele>214.9</ele>
        <time>2020-02-18T09:16:31Z</time>
      </trkpt>
      <trkpt lat="46.74419" lon="5.49676">
        <ele>215</ele>
        <time>2020-02-18T09:16:36Z</time>
      </trkpt>
      <trkpt lat="46.74415" lon="5.49679">
        <ele>215</ele>
        <time>2020-02-18T09:16:40Z</time>
      </trkpt>
      <trkpt lat="46.74411" lon="5.49684">
        <ele>215</ele>
        <time>2020-02-18T09:16:45Z</time>
      </trkpt>
      <trkpt lat="46.74406" lon="5.49685">
        <ele>215</ele>
        <time>2020-02-18T09:16:49Z</time>
      </trkpt>
      <trkpt lat="46.74401" lon="5.49687">
        <ele>215</ele>
        <time>2020-02-18T09:16:53Z</time>
      </trkpt>
      <trkpt lat="46.74397" lon="5.49689">
        <ele>214.8</ele>
        <time>2020-02-18T09:16:57Z</time>
      </trkpt>
      <trkpt lat="46.74392" lon="5.4969">
        <ele>214.5</ele>
        <time>2020-02-18T09:17:02Z</time>
      </trkpt>
      <trkpt lat="46.74387" lon="5.49692">
        <ele>214.4</ele>
        <time>2020-02-18T09:17:07Z</time>
      </trkpt>
      <trkpt lat="46.74382" lon="5.49695">
        <ele>214.5</ele>
        <time>2020-02-18T09:17:12Z</time>
      </trkpt>
      <trkpt lat="46.74377" lon="5.49695">
        <ele>214.3</ele>
        <time>2020-02-18T09:17:19Z</time>
      </trkpt>
      <trkpt lat="46.74373" lon="5.49699">
        <ele>213.1</ele>
        <time>2020-02-18T09:17:52Z</time>
      </trkpt>
      <trkpt lat="46.74367" lon="5.49699">
        <ele>212.8</ele>
        <time>2020-02-18T09:17:56Z</time>
      </trkpt>
      <trkpt lat="46.74362" lon="5.49699">
        <ele>212.5</ele>
        <time>2020-02-18T09:18:01Z</time>
      </trkpt>
      <trkpt lat="46.74357" lon="5.49699">
        <ele>212</ele>
        <time>2020-02-18T09:18:11Z</time>
      </trkpt>
      <trkpt lat="46.74356" lon="5.49705">
        <ele>210.6</ele>
        <time>2020-02-18T09:18:36Z</time>
      </trkpt>
      <trkpt lat="46.74351" lon="5.49708">
        <ele>210.9</ele>
        <time>2020-02-18T09:18:47Z</time>
      </trkpt>
      <trkpt lat="46.74346" lon="5.49708">
        <ele>211.4</ele>
        <time>2020-02-18T09:18:52Z</time>
      </trkpt>
      <trkpt lat="46.74341" lon="5.49708">
        <ele>211.7</ele>
        <time>2020-02-18T09:18:56Z</time>
      </trkpt>
      <trkpt lat="46.74336" lon="5.49709">
        <ele>212</ele>
        <time>2020-02-18T09:19:01Z</time>
      </trkpt>
      <trkpt lat="46.74331" lon="5.4971">
        <ele>212.3</ele>
        <time>2020-02-18T09:19:07Z</time>
      </trkpt>
      <trkpt lat="46.74326" lon="5.49714">
        <ele>212.3</ele>
        <time>2020-02-18T09:19:13Z</time>
      </trkpt>
      <trkpt lat="46.74324" lon="5.49721">
        <ele>212.1</ele>
        <time>2020-02-18T09:19:18Z</time>
      </trkpt>
      <trkpt lat="46.74324" lon="5.49729">
        <ele>211.9</ele>
        <time>2020-02-18T09:19:22Z</time>
      </trkpt>
      <trkpt lat="46.74325" lon="5.49736">
        <ele>211.8</ele>
        <time>2020-02-18T09:19:25Z</time>
      </trkpt>
      <trkpt lat="46.74328" lon="5.49742">
        <ele>211.6</ele>
        <time>2020-02-18T09:19:29Z</time>
      </trkpt>
      <trkpt lat="46.7433" lon="5.4975">
        <ele>211.6</ele>
        <time>2020-02-18T09:19:34Z</time>
      </trkpt>
      <trkpt lat="46.74332" lon="5.49757">
        <ele>211.5</ele>
        <time>2020-02-18T09:19:39Z</time>
      </trkpt>
      <trkpt lat="46.74335" lon="5.49763">
        <ele>211.4</ele>
        <time>2020-02-18T09:19:43Z</time>
      </trkpt>
      <trkpt lat="46.74336" lon="5.49769">
        <ele>211.5</ele>
        <time>2020-02-18T09:19:48Z</time>
      </trkpt>
      <trkpt lat="46.74338" lon="5.49776">
        <ele>211.5</ele>
        <time>2020-02-18T09:19:52Z</time>
      </trkpt>
      <trkpt lat="46.74339" lon="5.49782">
        <ele>211.5</ele>
        <time>2020-02-18T09:19:56Z</time>
      </trkpt>
      <trkpt lat="46.74342" lon="5.49788">
        <ele>211.5</ele>
        <time>2020-02-18T09:20:00Z</time>
      </trkpt>
      <trkpt lat="46.74344" lon="5.49794">
        <ele>211.5</ele>
        <time>2020-02-18T09:20:04Z</time>
      </trkpt>
      <trkpt lat="46.74346" lon="5.49801">
        <ele>211.4</ele>
        <time>2020-02-18T09:20:08Z</time>
      </trkpt>
      <trkpt lat="46.74347" lon="5.49808">
        <ele>211.3</ele>
        <time>2020-02-18T09:20:13Z</time>
      </trkpt>
      <trkpt lat="46.74349" lon="5.49814">
        <ele>211.2</ele>
        <time>2020-02-18T09:20:17Z</time>
      </trkpt>
      <trkpt lat="46.74351" lon="5.49821">
        <ele>210.9</ele>
        <time>2020-02-18T09:20:22Z</time>
      </trkpt>
      <trkpt lat="46.74353" lon="5.49829">
        <ele>210.7</ele>
        <time>2020-02-18T09:20:26Z</time>
      </trkpt>
      <trkpt lat="46.74354" lon="5.49836">
        <ele>210.4</ele>
        <time>2020-02-18T09:20:31Z</time>
      </trkpt>
      <trkpt lat="46.74355" lon="5.49843">
        <ele>210.2</ele>
        <time>2020-02-18T09:20:35Z</time>
      </trkpt>
      <trkpt lat="46.74356" lon="5.4985">
        <ele>210.2</ele>
        <time>2020-02-18T09:20:39Z</time>
      </trkpt>
      <trkpt lat="46.74358" lon="5.49857">
        <ele>210.3</ele>
        <time>2020-02-18T09:20:43Z</time>
      </trkpt>
      <trkpt lat="46.74359" lon="5.49864">
        <ele>210.6</ele>
        <time>2020-02-18T09:20:47Z</time>
      </trkpt>
      <trkpt lat="46.74361" lon="5.49871">
        <ele>210.8</ele>
        <time>2020-02-18T09:20:52Z</time>
      </trkpt>
      <trkpt lat="46.74363" lon="5.49878">
        <ele>210.9</ele>
        <time>2020-02-18T09:20:57Z</time>
      </trkpt>
      <trkpt lat="46.74364" lon="5.49885">
        <ele>211</ele>
        <time>2020-02-18T09:21:02Z</time>
      </trkpt>
      <trkpt lat="46.74366" lon="5.49892">
        <ele>211.2</ele>
        <time>2020-02-18T09:21:07Z</time>
      </trkpt>
      <trkpt lat="46.74367" lon="5.49899">
        <ele>211.3</ele>
        <time>2020-02-18T09:21:10Z</time>
      </trkpt>
      <trkpt lat="46.74369" lon="5.49906">
        <ele>211.3</ele>
        <time>2020-02-18T09:21:14Z</time>
      </trkpt>
      <trkpt lat="46.74371" lon="5.49913">
        <ele>211.3</ele>
        <time>2020-02-18T09:21:18Z</time>
      </trkpt>
      <trkpt lat="46.74373" lon="5.4992">
        <ele>211.3</ele>
        <time>2020-02-18T09:21:24Z</time>
      </trkpt>
      <trkpt lat="46.74373" lon="5.49927">
        <ele>211.3</ele>
        <time>2020-02-18T09:21:28Z</time>
      </trkpt>
      <trkpt lat="46.74372" lon="5.49935">
        <ele>211.3</ele>
        <time>2020-02-18T09:21:33Z</time>
      </trkpt>
      <trkpt lat="46.74372" lon="5.49943">
        <ele>211.1</ele>
        <time>2020-02-18T09:21:38Z</time>
      </trkpt>
      <trkpt lat="46.74373" lon="5.49949">
        <ele>211</ele>
        <time>2020-02-18T09:21:43Z</time>
      </trkpt>
      <trkpt lat="46.74376" lon="5.49955">
        <ele>211</ele>
        <time>2020-02-18T09:21:46Z</time>
      </trkpt>
      <trkpt lat="46.74378" lon="5.49962">
        <ele>211.2</ele>
        <time>2020-02-18T09:21:50Z</time>
      </trkpt>
      <trkpt lat="46.74379" lon="5.49969">
        <ele>211.3</ele>
        <time>2020-02-18T09:21:55Z</time>
      </trkpt>
      <trkpt lat="46.74381" lon="5.49976">
        <ele>211.3</ele>
        <time>2020-02-18T09:22:00Z</time>
      </trkpt>
      <trkpt lat="46.74382" lon="5.49982">
        <ele>211.1</ele>
        <time>2020-02-18T09:22:04Z</time>
      </trkpt>
      <trkpt lat="46.74383" lon="5.49989">
        <ele>210.6</ele>
        <time>2020-02-18T09:22:10Z</time>
      </trkpt>
      <trkpt lat="46.74388" lon="5.4999">
        <ele>207.9</ele>
        <time>2020-02-18T09:22:37Z</time>
      </trkpt>
      <trkpt lat="46.74384" lon="5.49992">
        <ele>206.7</ele>
        <time>2020-02-18T09:23:12Z</time>
      </trkpt>
      <trkpt lat="46.74379" lon="5.49998">
        <ele>206.2</ele>
        <time>2020-02-18T09:23:42Z</time>
      </trkpt>
      <trkpt lat="46.74378" lon="5.50005">
        <ele>205.8</ele>
        <time>2020-02-18T09:23:46Z</time>
      </trkpt>
      <trkpt lat="46.74378" lon="5.50012">
        <ele>205.1</ele>
        <time>2020-02-18T09:23:51Z</time>
      </trkpt>
      <trkpt lat="46.74375" lon="5.50018">
        <ele>204.5</ele>
        <time>2020-02-18T09:23:58Z</time>
      </trkpt>
      <trkpt lat="46.74372" lon="5.50025">
        <ele>204.2</ele>
        <time>2020-02-18T09:24:04Z</time>
      </trkpt>
      <trkpt lat="46.74369" lon="5.50031">
        <ele>204.1</ele>
        <time>2020-02-18T09:24:08Z</time>
      </trkpt>
      <trkpt lat="46.74366" lon="5.50036">
        <ele>204.2</ele>
        <time>2020-02-18T09:24:13Z</time>
      </trkpt>
      <trkpt lat="46.74363" lon="5.50041">
        <ele>204.4</ele>
        <time>2020-02-18T09:24:17Z</time>
      </trkpt>
      <trkpt lat="46.7436" lon="5.50047">
        <ele>204.5</ele>
        <time>2020-02-18T09:24:20Z</time>
      </trkpt>
      <trkpt lat="46.74357" lon="5.50053">
        <ele>204.7</ele>
        <time>2020-02-18T09:24:24Z</time>
      </trkpt>
      <trkpt lat="46.74353" lon="5.50059">
        <ele>204.9</ele>
        <time>2020-02-18T09:24:29Z</time>
      </trkpt>
      <trkpt lat="46.74351" lon="5.50064">
        <ele>205.2</ele>
        <time>2020-02-18T09:24:34Z</time>
      </trkpt>
      <trkpt lat="46.74348" lon="5.5007">
        <ele>205.2</ele>
        <time>2020-02-18T09:24:38Z</time>
      </trkpt>
      <trkpt lat="46.74344" lon="5.50075">
        <ele>205.3</ele>
        <time>2020-02-18T09:24:43Z</time>
      </trkpt>
      <trkpt lat="46.74341" lon="5.50081">
        <ele>205.2</ele>
        <time>2020-02-18T09:24:48Z</time>
      </trkpt>
      <trkpt lat="46.74338" lon="5.50086">
        <ele>205.1</ele>
        <time>2020-02-18T09:24:52Z</time>
      </trkpt>
      <trkpt lat="46.74335" lon="5.50092">
        <ele>204.9</ele>
        <time>2020-02-18T09:24:56Z</time>
      </trkpt>
      <trkpt lat="46.74332" lon="5.50098">
        <ele>204.7</ele>
        <time>2020-02-18T09:25:01Z</time>
      </trkpt>
      <trkpt lat="46.74329" lon="5.50105">
        <ele>204.5</ele>
        <time>2020-02-18T09:25:06Z</time>
      </trkpt>
      <trkpt lat="46.74325" lon="5.50111">
        <ele>204.4</ele>
        <time>2020-02-18T09:25:10Z</time>
      </trkpt>
      <trkpt lat="46.74322" lon="5.50116">
        <ele>204.4</ele>
        <time>2020-02-18T09:25:14Z</time>
      </trkpt>
      <trkpt lat="46.7432" lon="5.50123">
        <ele>204.3</ele>
        <time>2020-02-18T09:25:18Z</time>
      </trkpt>
      <trkpt lat="46.74317" lon="5.50129">
        <ele>204.2</ele>
        <time>2020-02-18T09:25:22Z</time>
      </trkpt>
      <trkpt lat="46.74314" lon="5.50135">
        <ele>204</ele>
        <time>2020-02-18T09:25:27Z</time>
      </trkpt>
      <trkpt lat="46.74311" lon="5.50141">
        <ele>203.6</ele>
        <time>2020-02-18T09:25:32Z</time>
      </trkpt>
      <trkpt lat="46.74308" lon="5.50146">
        <ele>203.3</ele>
        <time>2020-02-18T09:25:38Z</time>
      </trkpt>
      <trkpt lat="46.74306" lon="5.50152">
        <ele>203.1</ele>
        <time>2020-02-18T09:25:42Z</time>
      </trkpt>
      <trkpt lat="46.74303" lon="5.50158">
        <ele>202.9</ele>
        <time>2020-02-18T09:25:46Z</time>
      </trkpt>
      <trkpt lat="46.74301" lon="5.50164">
        <ele>202.7</ele>
        <time>2020-02-18T09:25:50Z</time>
      </trkpt>
      <trkpt lat="46.74298" lon="5.50171">
        <ele>202.6</ele>
        <time>2020-02-18T09:25:55Z</time>
      </trkpt>
      <trkpt lat="46.74295" lon="5.50178">
        <ele>202.7</ele>
        <time>2020-02-18T09:25:59Z</time>
      </trkpt>
      <trkpt lat="46.74292" lon="5.50184">
        <ele>202.8</ele>
        <time>2020-02-18T09:26:03Z</time>
      </trkpt>
      <trkpt lat="46.7429" lon="5.5019">
        <ele>203</ele>
        <time>2020-02-18T09:26:09Z</time>
      </trkpt>
      <trkpt lat="46.74288" lon="5.50196">
        <ele>203.1</ele>
        <time>2020-02-18T09:26:14Z</time>
      </trkpt>
      <trkpt lat="46.74284" lon="5.50202">
        <ele>203.3</ele>
        <time>2020-02-18T09:26:19Z</time>
      </trkpt>
      <trkpt lat="46.74281" lon="5.50209">
        <ele>203.4</ele>
        <time>2020-02-18T09:26:23Z</time>
      </trkpt>
      <trkpt lat="46.74277" lon="5.50215">
        <ele>203.4</ele>
        <time>2020-02-18T09:26:28Z</time>
      </trkpt>
      <trkpt lat="46.74274" lon="5.50221">
        <ele>203.3</ele>
        <time>2020-02-18T09:26:33Z</time>
      </trkpt>
      <trkpt lat="46.74272" lon="5.50228">
        <ele>203.3</ele>
        <time>2020-02-18T09:26:38Z</time>
      </trkpt>
      <trkpt lat="46.7427" lon="5.50235">
        <ele>203.5</ele>
        <time>2020-02-18T09:26:43Z</time>
      </trkpt>
      <trkpt lat="46.74267" lon="5.50242">
        <ele>203.7</ele>
        <time>2020-02-18T09:26:49Z</time>
      </trkpt>
      <trkpt lat="46.74264" lon="5.50248">
        <ele>203.8</ele>
        <time>2020-02-18T09:26:54Z</time>
      </trkpt>
      <trkpt lat="46.7426" lon="5.50254">
        <ele>203.7</ele>
        <time>2020-02-18T09:26:58Z</time>
      </trkpt>
      <trkpt lat="46.74257" lon="5.50259">
        <ele>203.7</ele>
        <time>2020-02-18T09:27:02Z</time>
      </trkpt>
      <trkpt lat="46.74254" lon="5.50265">
        <ele>203.7</ele>
        <time>2020-02-18T09:27:07Z</time>
      </trkpt>
      <trkpt lat="46.74251" lon="5.50271">
        <ele>203.7</ele>
        <time>2020-02-18T09:27:11Z</time>
      </trkpt>
      <trkpt lat="46.74249" lon="5.50277">
        <ele>203.6</ele>
        <time>2020-02-18T09:27:15Z</time>
      </trkpt>
      <trkpt lat="46.74246" lon="5.50284">
        <ele>203.4</ele>
        <time>2020-02-18T09:27:20Z</time>
      </trkpt>
      <trkpt lat="46.74243" lon="5.5029">
        <ele>203.2</ele>
        <time>2020-02-18T09:27:24Z</time>
      </trkpt>
      <trkpt lat="46.7424" lon="5.50295">
        <ele>203</ele>
        <time>2020-02-18T09:27:28Z</time>
      </trkpt>
      <trkpt lat="46.74237" lon="5.50301">
        <ele>202.6</ele>
        <time>2020-02-18T09:27:33Z</time>
      </trkpt>
      <trkpt lat="46.74234" lon="5.50308">
        <ele>202.5</ele>
        <time>2020-02-18T09:27:37Z</time>
      </trkpt>
      <trkpt lat="46.74232" lon="5.50314">
        <ele>202.4</ele>
        <time>2020-02-18T09:27:41Z</time>
      </trkpt>
      <trkpt lat="46.74229" lon="5.50322">
        <ele>202.6</ele>
        <time>2020-02-18T09:27:46Z</time>
      </trkpt>
      <trkpt lat="46.74226" lon="5.50327">
        <ele>202.6</ele>
        <time>2020-02-18T09:27:49Z</time>
      </trkpt>
      <trkpt lat="46.74224" lon="5.50333">
        <ele>202.5</ele>
        <time>2020-02-18T09:27:52Z</time>
      </trkpt>
      <trkpt lat="46.74221" lon="5.50339">
        <ele>202.3</ele>
        <time>2020-02-18T09:27:57Z</time>
      </trkpt>
      <trkpt lat="46.74218" lon="5.50345">
        <ele>202.2</ele>
        <time>2020-02-18T09:28:03Z</time>
      </trkpt>
      <trkpt lat="46.74214" lon="5.50351">
        <ele>201.9</ele>
        <time>2020-02-18T09:28:08Z</time>
      </trkpt>
      <trkpt lat="46.74211" lon="5.50357">
        <ele>201.7</ele>
        <time>2020-02-18T09:28:12Z</time>
      </trkpt>
      <trkpt lat="46.74209" lon="5.50364">
        <ele>201.6</ele>
        <time>2020-02-18T09:28:16Z</time>
      </trkpt>
      <trkpt lat="46.74207" lon="5.50371">
        <ele>201.5</ele>
        <time>2020-02-18T09:28:20Z</time>
      </trkpt>
      <trkpt lat="46.74205" lon="5.50377">
        <ele>201.4</ele>
        <time>2020-02-18T09:28:25Z</time>
      </trkpt>
      <trkpt lat="46.74202" lon="5.50384">
        <ele>201.4</ele>
        <time>2020-02-18T09:28:30Z</time>
      </trkpt>
      <trkpt lat="46.74199" lon="5.5039">
        <ele>201.4</ele>
        <time>2020-02-18T09:28:34Z</time>
      </trkpt>
      <trkpt lat="46.74197" lon="5.50396">
        <ele>201.5</ele>
        <time>2020-02-18T09:28:39Z</time>
      </trkpt>
      <trkpt lat="46.74195" lon="5.50403">
        <ele>201.8</ele>
        <time>2020-02-18T09:28:45Z</time>
      </trkpt>
      <trkpt lat="46.74192" lon="5.5041">
        <ele>202</ele>
        <time>2020-02-18T09:28:49Z</time>
      </trkpt>
      <trkpt lat="46.7419" lon="5.50416">
        <ele>202.3</ele>
        <time>2020-02-18T09:28:53Z</time>
      </trkpt>
      <trkpt lat="46.74187" lon="5.50423">
        <ele>202.4</ele>
        <time>2020-02-18T09:28:58Z</time>
      </trkpt>
      <trkpt lat="46.74184" lon="5.5043">
        <ele>202.6</ele>
        <time>2020-02-18T09:29:03Z</time>
      </trkpt>
      <trkpt lat="46.74182" lon="5.50437">
        <ele>202.7</ele>
        <time>2020-02-18T09:29:08Z</time>
      </trkpt>
      <trkpt lat="46.7418" lon="5.50444">
        <ele>202.8</ele>
        <time>2020-02-18T09:29:12Z</time>
      </trkpt>
      <trkpt lat="46.74178" lon="5.5045">
        <ele>202.9</ele>
        <time>2020-02-18T09:29:16Z</time>
      </trkpt>
      <trkpt lat="46.74174" lon="5.50456">
        <ele>203</ele>
        <time>2020-02-18T09:29:20Z</time>
      </trkpt>
      <trkpt lat="46.74173" lon="5.50463">
        <ele>203.1</ele>
        <time>2020-02-18T09:29:24Z</time>
      </trkpt>
      <trkpt lat="46.74172" lon="5.5047">
        <ele>203.3</ele>
        <time>2020-02-18T09:29:28Z</time>
      </trkpt>
      <trkpt lat="46.74171" lon="5.50477">
        <ele>203.5</ele>
        <time>2020-02-18T09:29:32Z</time>
      </trkpt>
      <trkpt lat="46.74168" lon="5.50485">
        <ele>203.7</ele>
        <time>2020-02-18T09:29:36Z</time>
      </trkpt>
      <trkpt lat="46.74166" lon="5.50493">
        <ele>203.9</ele>
        <time>2020-02-18T09:29:40Z</time>
      </trkpt>
      <trkpt lat="46.74165" lon="5.505">
        <ele>204.2</ele>
        <time>2020-02-18T09:29:46Z</time>
      </trkpt>
      <trkpt lat="46.74162" lon="5.50507">
        <ele>204.4</ele>
        <time>2020-02-18T09:29:51Z</time>
      </trkpt>
      <trkpt lat="46.7416" lon="5.50514">
        <ele>204.4</ele>
        <time>2020-02-18T09:29:56Z</time>
      </trkpt>
      <trkpt lat="46.74159" lon="5.5052">
        <ele>204.3</ele>
        <time>2020-02-18T09:30:00Z</time>
      </trkpt>
      <trkpt lat="46.74158" lon="5.50528">
        <ele>204.4</ele>
        <time>2020-02-18T09:30:04Z</time>
      </trkpt>
      <trkpt lat="46.74157" lon="5.50535">
        <ele>204.3</ele>
        <time>2020-02-18T09:30:08Z</time>
      </trkpt>
      <trkpt lat="46.74156" lon="5.50543">
        <ele>204.3</ele>
        <time>2020-02-18T09:30:12Z</time>
      </trkpt>
      <trkpt lat="46.74154" lon="5.5055">
        <ele>204.4</ele>
        <time>2020-02-18T09:30:17Z</time>
      </trkpt>
      <trkpt lat="46.74153" lon="5.50558">
        <ele>204.5</ele>
        <time>2020-02-18T09:30:22Z</time>
      </trkpt>
      <trkpt lat="46.74152" lon="5.50565">
        <ele>204.5</ele>
        <time>2020-02-18T09:30:25Z</time>
      </trkpt>
      <trkpt lat="46.74151" lon="5.50572">
        <ele>204.6</ele>
        <time>2020-02-18T09:30:29Z</time>
      </trkpt>
      <trkpt lat="46.7415" lon="5.50579">
        <ele>204.8</ele>
        <time>2020-02-18T09:30:34Z</time>
      </trkpt>
      <trkpt lat="46.7415" lon="5.50587">
        <ele>205.2</ele>
        <time>2020-02-18T09:30:40Z</time>
      </trkpt>
      <trkpt lat="46.74151" lon="5.50594">
        <ele>205.7</ele>
        <time>2020-02-18T09:30:45Z</time>
      </trkpt>
      <trkpt lat="46.74151" lon="5.50602">
        <ele>206.3</ele>
        <time>2020-02-18T09:30:50Z</time>
      </trkpt>
      <trkpt lat="46.74151" lon="5.50611">
        <ele>206.6</ele>
        <time>2020-02-18T09:30:54Z</time>
      </trkpt>
      <trkpt lat="46.74151" lon="5.50618">
        <ele>207</ele>
        <time>2020-02-18T09:30:58Z</time>
      </trkpt>
      <trkpt lat="46.74151" lon="5.50624">
        <ele>207.6</ele>
        <time>2020-02-18T09:31:03Z</time>
      </trkpt>
      <trkpt lat="46.74152" lon="5.50632">
        <ele>208</ele>
        <time>2020-02-18T09:31:07Z</time>
      </trkpt>
      <trkpt lat="46.74152" lon="5.50639">
        <ele>208.4</ele>
        <time>2020-02-18T09:31:11Z</time>
      </trkpt>
      <trkpt lat="46.74153" lon="5.50647">
        <ele>208.9</ele>
        <time>2020-02-18T09:31:16Z</time>
      </trkpt>
      <trkpt lat="46.74154" lon="5.50654">
        <ele>209.4</ele>
        <time>2020-02-18T09:31:21Z</time>
      </trkpt>
      <trkpt lat="46.74156" lon="5.50661">
        <ele>209.9</ele>
        <time>2020-02-18T09:31:26Z</time>
      </trkpt>
      <trkpt lat="46.74159" lon="5.50667">
        <ele>210.3</ele>
        <time>2020-02-18T09:31:31Z</time>
      </trkpt>
      <trkpt lat="46.74162" lon="5.50674">
        <ele>210.6</ele>
        <time>2020-02-18T09:31:37Z</time>
      </trkpt>
      <trkpt lat="46.74163" lon="5.5068">
        <ele>211</ele>
        <time>2020-02-18T09:31:41Z</time>
      </trkpt>
      <trkpt lat="46.74166" lon="5.50686">
        <ele>211.4</ele>
        <time>2020-02-18T09:31:45Z</time>
      </trkpt>
      <trkpt lat="46.74168" lon="5.50693">
        <ele>211.8</ele>
        <time>2020-02-18T09:31:50Z</time>
      </trkpt>
      <trkpt lat="46.74169" lon="5.50701">
        <ele>212.2</ele>
        <time>2020-02-18T09:31:55Z</time>
      </trkpt>
      <trkpt lat="46.7417" lon="5.50707">
        <ele>212.2</ele>
        <time>2020-02-18T09:31:59Z</time>
      </trkpt>
      <trkpt lat="46.74172" lon="5.50714">
        <ele>212.3</ele>
        <time>2020-02-18T09:32:03Z</time>
      </trkpt>
      <trkpt lat="46.74173" lon="5.5072">
        <ele>212.2</ele>
        <time>2020-02-18T09:32:08Z</time>
      </trkpt>
      <trkpt lat="46.74174" lon="5.50727">
        <ele>211.9</ele>
        <time>2020-02-18T09:32:18Z</time>
      </trkpt>
      <trkpt lat="46.74176" lon="5.50734">
        <ele>211.6</ele>
        <time>2020-02-18T09:32:24Z</time>
      </trkpt>
      <trkpt lat="46.74177" lon="5.5074">
        <ele>211.8</ele>
        <time>2020-02-18T09:32:36Z</time>
      </trkpt>
      <trkpt lat="46.74178" lon="5.50747">
        <ele>212.3</ele>
        <time>2020-02-18T09:32:42Z</time>
      </trkpt>
      <trkpt lat="46.7418" lon="5.50754">
        <ele>212.7</ele>
        <time>2020-02-18T09:32:46Z</time>
      </trkpt>
      <trkpt lat="46.74182" lon="5.5076">
        <ele>213.1</ele>
        <time>2020-02-18T09:32:50Z</time>
      </trkpt>
      <trkpt lat="46.74184" lon="5.50766">
        <ele>213.5</ele>
        <time>2020-02-18T09:32:54Z</time>
      </trkpt>
      <trkpt lat="46.74186" lon="5.50773">
        <ele>213.9</ele>
        <time>2020-02-18T09:32:58Z</time>
      </trkpt>
      <trkpt lat="46.74187" lon="5.5078">
        <ele>214.2</ele>
        <time>2020-02-18T09:33:02Z</time>
      </trkpt>
      <trkpt lat="46.74188" lon="5.50787">
        <ele>214.5</ele>
        <time>2020-02-18T09:33:06Z</time>
      </trkpt>
      <trkpt lat="46.7419" lon="5.50794">
        <ele>214.9</ele>
        <time>2020-02-18T09:33:10Z</time>
      </trkpt>
      <trkpt lat="46.74191" lon="5.50801">
        <ele>215.2</ele>
        <time>2020-02-18T09:33:15Z</time>
      </trkpt>
      <trkpt lat="46.74192" lon="5.50809">
        <ele>215.5</ele>
        <time>2020-02-18T09:33:19Z</time>
      </trkpt>
      <trkpt lat="46.74194" lon="5.50816">
        <ele>215.8</ele>
        <time>2020-02-18T09:33:23Z</time>
      </trkpt>
      <trkpt lat="46.74195" lon="5.50823">
        <ele>216.3</ele>
        <time>2020-02-18T09:33:27Z</time>
      </trkpt>
      <trkpt lat="46.74197" lon="5.5083">
        <ele>216.9</ele>
        <time>2020-02-18T09:33:32Z</time>
      </trkpt>
      <trkpt lat="46.74198" lon="5.50838">
        <ele>217.5</ele>
        <time>2020-02-18T09:33:37Z</time>
      </trkpt>
      <trkpt lat="46.74199" lon="5.50844">
        <ele>217.8</ele>
        <time>2020-02-18T09:33:41Z</time>
      </trkpt>
      <trkpt lat="46.74201" lon="5.50851">
        <ele>218.1</ele>
        <time>2020-02-18T09:33:45Z</time>
      </trkpt>
      <trkpt lat="46.74202" lon="5.50858">
        <ele>218.3</ele>
        <time>2020-02-18T09:33:50Z</time>
      </trkpt>
      <trkpt lat="46.74203" lon="5.50865">
        <ele>218.4</ele>
        <time>2020-02-18T09:33:55Z</time>
      </trkpt>
      <trkpt lat="46.74205" lon="5.50872">
        <ele>218.4</ele>
        <time>2020-02-18T09:34:00Z</time>
      </trkpt>
      <trkpt lat="46.74207" lon="5.50879">
        <ele>218.3</ele>
        <time>2020-02-18T09:34:04Z</time>
      </trkpt>
      <trkpt lat="46.74209" lon="5.50886">
        <ele>218.3</ele>
        <time>2020-02-18T09:34:07Z</time>
      </trkpt>
      <trkpt lat="46.74211" lon="5.50892">
        <ele>218.3</ele>
        <time>2020-02-18T09:34:11Z</time>
      </trkpt>
      <trkpt lat="46.74214" lon="5.50899">
        <ele>218.4</ele>
        <time>2020-02-18T09:34:15Z</time>
      </trkpt>
      <trkpt lat="46.74216" lon="5.50906">
        <ele>218.5</ele>
        <time>2020-02-18T09:34:20Z</time>
      </trkpt>
      <trkpt lat="46.74218" lon="5.50913">
        <ele>218.5</ele>
        <time>2020-02-18T09:34:24Z</time>
      </trkpt>
      <trkpt lat="46.7422" lon="5.5092">
        <ele>218.4</ele>
        <time>2020-02-18T09:34:29Z</time>
      </trkpt>
      <trkpt lat="46.74221" lon="5.50927">
        <ele>218.4</ele>
        <time>2020-02-18T09:34:33Z</time>
      </trkpt>
      <trkpt lat="46.74222" lon="5.50934">
        <ele>218.4</ele>
        <time>2020-02-18T09:34:37Z</time>
      </trkpt>
      <trkpt lat="46.74223" lon="5.50942">
        <ele>218.4</ele>
        <time>2020-02-18T09:34:42Z</time>
      </trkpt>
      <trkpt lat="46.74225" lon="5.50949">
        <ele>218.5</ele>
        <time>2020-02-18T09:34:46Z</time>
      </trkpt>
      <trkpt lat="46.74227" lon="5.50956">
        <ele>218.6</ele>
        <time>2020-02-18T09:34:50Z</time>
      </trkpt>
      <trkpt lat="46.7423" lon="5.50963">
        <ele>218.7</ele>
        <time>2020-02-18T09:34:54Z</time>
      </trkpt>
      <trkpt lat="46.74233" lon="5.5097">
        <ele>219</ele>
        <time>2020-02-18T09:34:59Z</time>
      </trkpt>
      <trkpt lat="46.74235" lon="5.50977">
        <ele>219.3</ele>
        <time>2020-02-18T09:35:04Z</time>
      </trkpt>
      <trkpt lat="46.74238" lon="5.50983">
        <ele>219.6</ele>
        <time>2020-02-18T09:35:08Z</time>
      </trkpt>
      <trkpt lat="46.7424" lon="5.50989">
        <ele>219.9</ele>
        <time>2020-02-18T09:35:12Z</time>
      </trkpt>
      <trkpt lat="46.74243" lon="5.50996">
        <ele>220.1</ele>
        <time>2020-02-18T09:35:16Z</time>
      </trkpt>
      <trkpt lat="46.74246" lon="5.51001">
        <ele>220.3</ele>
        <time>2020-02-18T09:35:20Z</time>
      </trkpt>
      <trkpt lat="46.74249" lon="5.51008">
        <ele>220.6</ele>
        <time>2020-02-18T09:35:24Z</time>
      </trkpt>
      <trkpt lat="46.74251" lon="5.51014">
        <ele>221</ele>
        <time>2020-02-18T09:35:28Z</time>
      </trkpt>
      <trkpt lat="46.74253" lon="5.51021">
        <ele>221.3</ele>
        <time>2020-02-18T09:35:32Z</time>
      </trkpt>
      <trkpt lat="46.74255" lon="5.51028">
        <ele>221.5</ele>
        <time>2020-02-18T09:35:38Z</time>
      </trkpt>
      <trkpt lat="46.74258" lon="5.51034">
        <ele>221.4</ele>
        <time>2020-02-18T09:35:43Z</time>
      </trkpt>
      <trkpt lat="46.7426" lon="5.51041">
        <ele>221.4</ele>
        <time>2020-02-18T09:35:48Z</time>
      </trkpt>
      <trkpt lat="46.74261" lon="5.51048">
        <ele>221.7</ele>
        <time>2020-02-18T09:35:53Z</time>
      </trkpt>
      <trkpt lat="46.74263" lon="5.51054">
        <ele>222.1</ele>
        <time>2020-02-18T09:35:57Z</time>
      </trkpt>
      <trkpt lat="46.74265" lon="5.51061">
        <ele>222.7</ele>
        <time>2020-02-18T09:36:02Z</time>
      </trkpt>
      <trkpt lat="46.74265" lon="5.51068">
        <ele>223.3</ele>
        <time>2020-02-18T09:36:07Z</time>
      </trkpt>
      <trkpt lat="46.74265" lon="5.51075">
        <ele>223.7</ele>
        <time>2020-02-18T09:36:12Z</time>
      </trkpt>
      <trkpt lat="46.74266" lon="5.51082">
        <ele>223.9</ele>
        <time>2020-02-18T09:36:17Z</time>
      </trkpt>
      <trkpt lat="46.74266" lon="5.51089">
        <ele>224</ele>
        <time>2020-02-18T09:36:22Z</time>
      </trkpt>
      <trkpt lat="46.74267" lon="5.51097">
        <ele>224</ele>
        <time>2020-02-18T09:36:27Z</time>
      </trkpt>
      <trkpt lat="46.74267" lon="5.51104">
        <ele>224.2</ele>
        <time>2020-02-18T09:36:33Z</time>
      </trkpt>
      <trkpt lat="46.74267" lon="5.5111">
        <ele>224.4</ele>
        <time>2020-02-18T09:36:39Z</time>
      </trkpt>
      <trkpt lat="46.74265" lon="5.51117">
        <ele>224.5</ele>
        <time>2020-02-18T09:36:45Z</time>
      </trkpt>
      <trkpt lat="46.74266" lon="5.51124">
        <ele>224.5</ele>
        <time>2020-02-18T09:36:57Z</time>
      </trkpt>
      <trkpt lat="46.74266" lon="5.51131">
        <ele>224.4</ele>
        <time>2020-02-18T09:37:02Z</time>
      </trkpt>
      <trkpt lat="46.74266" lon="5.51137">
        <ele>224.4</ele>
        <time>2020-02-18T09:37:06Z</time>
      </trkpt>
      <trkpt lat="46.74266" lon="5.51145">
        <ele>224.5</ele>
        <time>2020-02-18T09:37:10Z</time>
      </trkpt>
      <trkpt lat="46.74266" lon="5.51152">
        <ele>224.6</ele>
        <time>2020-02-18T09:37:14Z</time>
      </trkpt>
      <trkpt lat="46.74267" lon="5.5116">
        <ele>224.8</ele>
        <time>2020-02-18T09:37:18Z</time>
      </trkpt>
      <trkpt lat="46.74267" lon="5.51167">
        <ele>224.9</ele>
        <time>2020-02-18T09:37:22Z</time>
      </trkpt>
      <trkpt lat="46.74267" lon="5.51174">
        <ele>225</ele>
        <time>2020-02-18T09:37:27Z</time>
      </trkpt>
      <trkpt lat="46.74266" lon="5.51182">
        <ele>225</ele>
        <time>2020-02-18T09:37:31Z</time>
      </trkpt>
      <trkpt lat="46.74266" lon="5.51189">
        <ele>224.9</ele>
        <time>2020-02-18T09:37:35Z</time>
      </trkpt>
      <trkpt lat="46.74266" lon="5.51196">
        <ele>224.8</ele>
        <time>2020-02-18T09:37:39Z</time>
      </trkpt>
      <trkpt lat="46.74266" lon="5.51203">
        <ele>224.5</ele>
        <time>2020-02-18T09:37:43Z</time>
      </trkpt>
      <trkpt lat="46.74266" lon="5.5121">
        <ele>224.3</ele>
        <time>2020-02-18T09:37:47Z</time>
      </trkpt>
      <trkpt lat="46.74266" lon="5.51217">
        <ele>224.3</ele>
        <time>2020-02-18T09:37:51Z</time>
      </trkpt>
      <trkpt lat="46.74266" lon="5.51225">
        <ele>224.3</ele>
        <time>2020-02-18T09:37:55Z</time>
      </trkpt>
      <trkpt lat="46.74266" lon="5.51232">
        <ele>224.3</ele>
        <time>2020-02-18T09:37:59Z</time>
      </trkpt>
      <trkpt lat="46.74267" lon="5.5124">
        <ele>224.3</ele>
        <time>2020-02-18T09:38:04Z</time>
      </trkpt>
      <trkpt lat="46.74267" lon="5.51248">
        <ele>224.4</ele>
        <time>2020-02-18T09:38:08Z</time>
      </trkpt>
      <trkpt lat="46.74267" lon="5.51256">
        <ele>224.3</ele>
        <time>2020-02-18T09:38:12Z</time>
      </trkpt>
      <trkpt lat="46.74267" lon="5.51263">
        <ele>224.1</ele>
        <time>2020-02-18T09:38:17Z</time>
      </trkpt>
      <trkpt lat="46.74267" lon="5.5127">
        <ele>224</ele>
        <time>2020-02-18T09:38:21Z</time>
      </trkpt>
      <trkpt lat="46.74268" lon="5.51278">
        <ele>223.9</ele>
        <time>2020-02-18T09:38:26Z</time>
      </trkpt>
      <trkpt lat="46.74269" lon="5.51285">
        <ele>223.9</ele>
        <time>2020-02-18T09:38:30Z</time>
      </trkpt>
      <trkpt lat="46.74269" lon="5.51292">
        <ele>224</ele>
        <time>2020-02-18T09:38:35Z</time>
      </trkpt>
      <trkpt lat="46.74269" lon="5.513">
        <ele>224.1</ele>
        <time>2020-02-18T09:38:39Z</time>
      </trkpt>
      <trkpt lat="46.74269" lon="5.51308">
        <ele>224.3</ele>
        <time>2020-02-18T09:38:43Z</time>
      </trkpt>
      <trkpt lat="46.74269" lon="5.51315">
        <ele>224.4</ele>
        <time>2020-02-18T09:38:47Z</time>
      </trkpt>
      <trkpt lat="46.74269" lon="5.51322">
        <ele>224.6</ele>
        <time>2020-02-18T09:38:51Z</time>
      </trkpt>
      <trkpt lat="46.74269" lon="5.5133">
        <ele>224.8</ele>
        <time>2020-02-18T09:38:56Z</time>
      </trkpt>
      <trkpt lat="46.7427" lon="5.51337">
        <ele>225.1</ele>
        <time>2020-02-18T09:39:00Z</time>
      </trkpt>
      <trkpt lat="46.7427" lon="5.51344">
        <ele>225.3</ele>
        <time>2020-02-18T09:39:04Z</time>
      </trkpt>
      <trkpt lat="46.7427" lon="5.51351">
        <ele>225.4</ele>
        <time>2020-02-18T09:39:09Z</time>
      </trkpt>
      <trkpt lat="46.74271" lon="5.51359">
        <ele>225.6</ele>
        <time>2020-02-18T09:39:14Z</time>
      </trkpt>
      <trkpt lat="46.74272" lon="5.51367">
        <ele>225.7</ele>
        <time>2020-02-18T09:39:18Z</time>
      </trkpt>
      <trkpt lat="46.74272" lon="5.51374">
        <ele>225.9</ele>
        <time>2020-02-18T09:39:22Z</time>
      </trkpt>
      <trkpt lat="46.74273" lon="5.51381">
        <ele>226</ele>
        <time>2020-02-18T09:39:26Z</time>
      </trkpt>
      <trkpt lat="46.74273" lon="5.51388">
        <ele>226</ele>
        <time>2020-02-18T09:39:29Z</time>
      </trkpt>
      <trkpt lat="46.74273" lon="5.51396">
        <ele>225.9</ele>
        <time>2020-02-18T09:39:33Z</time>
      </trkpt>
      <trkpt lat="46.74274" lon="5.51404">
        <ele>225.9</ele>
        <time>2020-02-18T09:39:37Z</time>
      </trkpt>
      <trkpt lat="46.74274" lon="5.51412">
        <ele>226</ele>
        <time>2020-02-18T09:39:42Z</time>
      </trkpt>
      <trkpt lat="46.74274" lon="5.5142">
        <ele>226.3</ele>
        <time>2020-02-18T09:39:47Z</time>
      </trkpt>
      <trkpt lat="46.74275" lon="5.51427">
        <ele>226.5</ele>
        <time>2020-02-18T09:39:51Z</time>
      </trkpt>
      <trkpt lat="46.74276" lon="5.51434">
        <ele>226.7</ele>
        <time>2020-02-18T09:39:55Z</time>
      </trkpt>
      <trkpt lat="46.74276" lon="5.51441">
        <ele>226.9</ele>
        <time>2020-02-18T09:39:59Z</time>
      </trkpt>
      <trkpt lat="46.74276" lon="5.51448">
        <ele>227.1</ele>
        <time>2020-02-18T09:40:03Z</time>
      </trkpt>
      <trkpt lat="46.74276" lon="5.51455">
        <ele>227.3</ele>
        <time>2020-02-18T09:40:08Z</time>
      </trkpt>
      <trkpt lat="46.74276" lon="5.51461">
        <ele>227.4</ele>
        <time>2020-02-18T09:40:12Z</time>
      </trkpt>
      <trkpt lat="46.74276" lon="5.51469">
        <ele>227.5</ele>
        <time>2020-02-18T09:40:16Z</time>
      </trkpt>
      <trkpt lat="46.74275" lon="5.51477">
        <ele>227.5</ele>
        <time>2020-02-18T09:40:21Z</time>
      </trkpt>
      <trkpt lat="46.74274" lon="5.51484">
        <ele>227.4</ele>
        <time>2020-02-18T09:40:26Z</time>
      </trkpt>
      <trkpt lat="46.74274" lon="5.51492">
        <ele>227.2</ele>
        <time>2020-02-18T09:40:31Z</time>
      </trkpt>
      <trkpt lat="46.74273" lon="5.51499">
        <ele>227</ele>
        <time>2020-02-18T09:40:35Z</time>
      </trkpt>
      <trkpt lat="46.74273" lon="5.51506">
        <ele>226.6</ele>
        <time>2020-02-18T09:40:40Z</time>
      </trkpt>
      <trkpt lat="46.74273" lon="5.51512">
        <ele>226.5</ele>
        <time>2020-02-18T09:40:45Z</time>
      </trkpt>
      <trkpt lat="46.74273" lon="5.5152">
        <ele>226.5</ele>
        <time>2020-02-18T09:40:49Z</time>
      </trkpt>
      <trkpt lat="46.74274" lon="5.51527">
        <ele>226.4</ele>
        <time>2020-02-18T09:40:52Z</time>
      </trkpt>
      <trkpt lat="46.74274" lon="5.51534">
        <ele>226.4</ele>
        <time>2020-02-18T09:40:55Z</time>
      </trkpt>
      <trkpt lat="46.74275" lon="5.51541">
        <ele>226.6</ele>
        <time>2020-02-18T09:40:59Z</time>
      </trkpt>
      <trkpt lat="46.74277" lon="5.51548">
        <ele>225.7</ele>
        <time>2020-02-18T09:41:19Z</time>
      </trkpt>
      <trkpt lat="46.7428" lon="5.51553">
        <ele>225.6</ele>
        <time>2020-02-18T09:41:23Z</time>
      </trkpt>
      <trkpt lat="46.74282" lon="5.51559">
        <ele>225.5</ele>
        <time>2020-02-18T09:41:26Z</time>
      </trkpt>
      <trkpt lat="46.74285" lon="5.51566">
        <ele>225.6</ele>
        <time>2020-02-18T09:41:30Z</time>
      </trkpt>
      <trkpt lat="46.74288" lon="5.51572">
        <ele>225.7</ele>
        <time>2020-02-18T09:41:34Z</time>
      </trkpt>
      <trkpt lat="46.74292" lon="5.51577">
        <ele>225.9</ele>
        <time>2020-02-18T09:41:38Z</time>
      </trkpt>
      <trkpt lat="46.74295" lon="5.51582">
        <ele>226.1</ele>
        <time>2020-02-18T09:41:42Z</time>
      </trkpt>
      <trkpt lat="46.74298" lon="5.51588">
        <ele>226.2</ele>
        <time>2020-02-18T09:41:46Z</time>
      </trkpt>
      <trkpt lat="46.743" lon="5.51593">
        <ele>226.4</ele>
        <time>2020-02-18T09:41:51Z</time>
      </trkpt>
      <trkpt lat="46.74304" lon="5.51599">
        <ele>226.7</ele>
        <time>2020-02-18T09:41:56Z</time>
      </trkpt>
      <trkpt lat="46.74307" lon="5.51604">
        <ele>227.1</ele>
        <time>2020-02-18T09:42:01Z</time>
      </trkpt>
      <trkpt lat="46.7431" lon="5.5161">
        <ele>227.4</ele>
        <time>2020-02-18T09:42:05Z</time>
      </trkpt>
      <trkpt lat="46.74313" lon="5.51615">
        <ele>227.7</ele>
        <time>2020-02-18T09:42:09Z</time>
      </trkpt>
      <trkpt lat="46.74316" lon="5.51621">
        <ele>228.1</ele>
        <time>2020-02-18T09:42:14Z</time>
      </trkpt>
      <trkpt lat="46.74319" lon="5.51626">
        <ele>228.7</ele>
        <time>2020-02-18T09:42:20Z</time>
      </trkpt>
      <trkpt lat="46.74321" lon="5.51631">
        <ele>229.1</ele>
        <time>2020-02-18T09:43:20Z</time>
      </trkpt>
      <trkpt lat="46.74325" lon="5.51638">
        <ele>228</ele>
        <time>2020-02-18T09:43:44Z</time>
      </trkpt>
      <trkpt lat="46.74328" lon="5.51643">
        <ele>227.8</ele>
        <time>2020-02-18T09:43:48Z</time>
      </trkpt>
      <trkpt lat="46.74331" lon="5.51648">
        <ele>227.6</ele>
        <time>2020-02-18T09:43:52Z</time>
      </trkpt>
      <trkpt lat="46.74335" lon="5.51653">
        <ele>227.6</ele>
        <time>2020-02-18T09:43:56Z</time>
      </trkpt>
      <trkpt lat="46.74338" lon="5.51658">
        <ele>227.7</ele>
        <time>2020-02-18T09:44:01Z</time>
      </trkpt>
      <trkpt lat="46.74342" lon="5.51662">
        <ele>228</ele>
        <time>2020-02-18T09:44:05Z</time>
      </trkpt>
      <trkpt lat="46.74347" lon="5.51666">
        <ele>228.5</ele>
        <time>2020-02-18T09:44:09Z</time>
      </trkpt>
      <trkpt lat="46.74351" lon="5.5167">
        <ele>228.9</ele>
        <time>2020-02-18T09:44:13Z</time>
      </trkpt>
      <trkpt lat="46.74355" lon="5.51673">
        <ele>229.2</ele>
        <time>2020-02-18T09:44:17Z</time>
      </trkpt>
      <trkpt lat="46.7436" lon="5.51677">
        <ele>229.6</ele>
        <time>2020-02-18T09:44:21Z</time>
      </trkpt>
      <trkpt lat="46.74364" lon="5.51682">
        <ele>229.9</ele>
        <time>2020-02-18T09:44:25Z</time>
      </trkpt>
      <trkpt lat="46.74369" lon="5.51686">
        <ele>230.3</ele>
        <time>2020-02-18T09:44:30Z</time>
      </trkpt>
      <trkpt lat="46.74373" lon="5.51691">
        <ele>230.7</ele>
        <time>2020-02-18T09:44:35Z</time>
      </trkpt>
      <trkpt lat="46.74378" lon="5.51695">
        <ele>231.1</ele>
        <time>2020-02-18T09:44:39Z</time>
      </trkpt>
      <trkpt lat="46.74383" lon="5.51699">
        <ele>231.7</ele>
        <time>2020-02-18T09:44:44Z</time>
      </trkpt>
      <trkpt lat="46.74387" lon="5.51704">
        <ele>232.1</ele>
        <time>2020-02-18T09:44:49Z</time>
      </trkpt>
      <trkpt lat="46.74391" lon="5.51708">
        <ele>232.4</ele>
        <time>2020-02-18T09:44:53Z</time>
      </trkpt>
      <trkpt lat="46.74395" lon="5.51711">
        <ele>232.6</ele>
        <time>2020-02-18T09:44:57Z</time>
      </trkpt>
      <trkpt lat="46.744" lon="5.51716">
        <ele>232.9</ele>
        <time>2020-02-18T09:45:02Z</time>
      </trkpt>
      <trkpt lat="46.74404" lon="5.5172">
        <ele>233.1</ele>
        <time>2020-02-18T09:45:06Z</time>
      </trkpt>
      <trkpt lat="46.74408" lon="5.51723">
        <ele>233.2</ele>
        <time>2020-02-18T09:45:11Z</time>
      </trkpt>
      <trkpt lat="46.74412" lon="5.51728">
        <ele>233.4</ele>
        <time>2020-02-18T09:45:15Z</time>
      </trkpt>
      <trkpt lat="46.74417" lon="5.51732">
        <ele>233.6</ele>
        <time>2020-02-18T09:45:19Z</time>
      </trkpt>
      <trkpt lat="46.74421" lon="5.51737">
        <ele>233.8</ele>
        <time>2020-02-18T09:45:23Z</time>
      </trkpt>
      <trkpt lat="46.74425" lon="5.51741">
        <ele>234</ele>
        <time>2020-02-18T09:45:27Z</time>
      </trkpt>
      <trkpt lat="46.7443" lon="5.51745">
        <ele>234.4</ele>
        <time>2020-02-18T09:45:31Z</time>
      </trkpt>
      <trkpt lat="46.74435" lon="5.51748">
        <ele>234.7</ele>
        <time>2020-02-18T09:45:35Z</time>
      </trkpt>
      <trkpt lat="46.74439" lon="5.51752">
        <ele>234.9</ele>
        <time>2020-02-18T09:45:39Z</time>
      </trkpt>
      <trkpt lat="46.74444" lon="5.51756">
        <ele>235.1</ele>
        <time>2020-02-18T09:45:43Z</time>
      </trkpt>
      <trkpt lat="46.74448" lon="5.5176">
        <ele>235.4</ele>
        <time>2020-02-18T09:45:47Z</time>
      </trkpt>
      <trkpt lat="46.74453" lon="5.51764">
        <ele>235.8</ele>
        <time>2020-02-18T09:45:51Z</time>
      </trkpt>
      <trkpt lat="46.74457" lon="5.51768">
        <ele>236</ele>
        <time>2020-02-18T09:45:55Z</time>
      </trkpt>
      <trkpt lat="46.74462" lon="5.51772">
        <ele>236.2</ele>
        <time>2020-02-18T09:46:00Z</time>
      </trkpt>
      <trkpt lat="46.74466" lon="5.51774">
        <ele>236.5</ele>
        <time>2020-02-18T09:46:05Z</time>
      </trkpt>
      <trkpt lat="46.74471" lon="5.51778">
        <ele>236.7</ele>
        <time>2020-02-18T09:46:10Z</time>
      </trkpt>
      <trkpt lat="46.74476" lon="5.51782">
        <ele>236.9</ele>
        <time>2020-02-18T09:46:14Z</time>
      </trkpt>
      <trkpt lat="46.7448" lon="5.51785">
        <ele>236.9</ele>
        <time>2020-02-18T09:46:19Z</time>
      </trkpt>
      <trkpt lat="46.74485" lon="5.51787">
        <ele>236.9</ele>
        <time>2020-02-18T09:46:23Z</time>
      </trkpt>
      <trkpt lat="46.74489" lon="5.5179">
        <ele>236.8</ele>
        <time>2020-02-18T09:46:28Z</time>
      </trkpt>
      <trkpt lat="46.74494" lon="5.51791">
        <ele>236.8</ele>
        <time>2020-02-18T09:46:33Z</time>
      </trkpt>
      <trkpt lat="46.745" lon="5.51795">
        <ele>236.8</ele>
        <time>2020-02-18T09:46:37Z</time>
      </trkpt>
      <trkpt lat="46.74505" lon="5.51798">
        <ele>237</ele>
        <time>2020-02-18T09:46:41Z</time>
      </trkpt>
      <trkpt lat="46.74509" lon="5.518">
        <ele>237.2</ele>
        <time>2020-02-18T09:46:45Z</time>
      </trkpt>
      <trkpt lat="46.74514" lon="5.51802">
        <ele>237.7</ele>
        <time>2020-02-18T09:46:49Z</time>
      </trkpt>
      <trkpt lat="46.74519" lon="5.51805">
        <ele>238.1</ele>
        <time>2020-02-18T09:46:53Z</time>
      </trkpt>
      <trkpt lat="46.74524" lon="5.51806">
        <ele>238.8</ele>
        <time>2020-02-18T09:47:01Z</time>
      </trkpt>
      <trkpt lat="46.74529" lon="5.51809">
        <ele>239</ele>
        <time>2020-02-18T09:47:05Z</time>
      </trkpt>
      <trkpt lat="46.74533" lon="5.51812">
        <ele>239.3</ele>
        <time>2020-02-18T09:47:09Z</time>
      </trkpt>
      <trkpt lat="46.74538" lon="5.51816">
        <ele>239.5</ele>
        <time>2020-02-18T09:47:13Z</time>
      </trkpt>
      <trkpt lat="46.74543" lon="5.51817">
        <ele>239.7</ele>
        <time>2020-02-18T09:47:18Z</time>
      </trkpt>
      <trkpt lat="46.74548" lon="5.5182">
        <ele>239.8</ele>
        <time>2020-02-18T09:47:23Z</time>
      </trkpt>
      <trkpt lat="46.74553" lon="5.51823">
        <ele>239.9</ele>
        <time>2020-02-18T09:47:27Z</time>
      </trkpt>
      <trkpt lat="46.74558" lon="5.51826">
        <ele>239.9</ele>
        <time>2020-02-18T09:47:31Z</time>
      </trkpt>
      <trkpt lat="46.74562" lon="5.51829">
        <ele>240</ele>
        <time>2020-02-18T09:47:35Z</time>
      </trkpt>
      <trkpt lat="46.74567" lon="5.51832">
        <ele>240.1</ele>
        <time>2020-02-18T09:47:39Z</time>
      </trkpt>
      <trkpt lat="46.74572" lon="5.51836">
        <ele>240.3</ele>
        <time>2020-02-18T09:47:43Z</time>
      </trkpt>
      <trkpt lat="46.74577" lon="5.51838">
        <ele>240.4</ele>
        <time>2020-02-18T09:47:47Z</time>
      </trkpt>
      <trkpt lat="46.74581" lon="5.5184">
        <ele>240.5</ele>
        <time>2020-02-18T09:47:51Z</time>
      </trkpt>
      <trkpt lat="46.74586" lon="5.51841">
        <ele>240.4</ele>
        <time>2020-02-18T09:47:56Z</time>
      </trkpt>
      <trkpt lat="46.74591" lon="5.51844">
        <ele>240.4</ele>
        <time>2020-02-18T09:48:01Z</time>
      </trkpt>
      <trkpt lat="46.74596" lon="5.51846">
        <ele>240.5</ele>
        <time>2020-02-18T09:48:05Z</time>
      </trkpt>
      <trkpt lat="46.74601" lon="5.51848">
        <ele>240.6</ele>
        <time>2020-02-18T09:48:09Z</time>
      </trkpt>
      <trkpt lat="46.74606" lon="5.5185">
        <ele>240.7</ele>
        <time>2020-02-18T09:48:13Z</time>
      </trkpt>
      <trkpt lat="46.74616" lon="5.51858">
        <ele>240.8</ele>
        <time>2020-02-18T09:48:25Z</time>
      </trkpt>
      <trkpt lat="46.74621" lon="5.51862">
        <ele>240.4</ele>
        <time>2020-02-18T09:48:30Z</time>
      </trkpt>
      <trkpt lat="46.74626" lon="5.51866">
        <ele>240.2</ele>
        <time>2020-02-18T09:48:34Z</time>
      </trkpt>
      <trkpt lat="46.74631" lon="5.51868">
        <ele>240</ele>
        <time>2020-02-18T09:48:38Z</time>
      </trkpt>
      <trkpt lat="46.74636" lon="5.51871">
        <ele>239.9</ele>
        <time>2020-02-18T09:48:42Z</time>
      </trkpt>
      <trkpt lat="46.74641" lon="5.51876">
        <ele>239.9</ele>
        <time>2020-02-18T09:48:46Z</time>
      </trkpt>
      <trkpt lat="46.74645" lon="5.51878">
        <ele>239.9</ele>
        <time>2020-02-18T09:48:50Z</time>
      </trkpt>
      <trkpt lat="46.7465" lon="5.51881">
        <ele>239.8</ele>
        <time>2020-02-18T09:48:54Z</time>
      </trkpt>
      <trkpt lat="46.74654" lon="5.51884">
        <ele>239.9</ele>
        <time>2020-02-18T09:48:58Z</time>
      </trkpt>
      <trkpt lat="46.74659" lon="5.51888">
        <ele>240</ele>
        <time>2020-02-18T09:49:03Z</time>
      </trkpt>
      <trkpt lat="46.74663" lon="5.51891">
        <ele>240.1</ele>
        <time>2020-02-18T09:49:08Z</time>
      </trkpt>
      <trkpt lat="46.74668" lon="5.51895">
        <ele>240.1</ele>
        <time>2020-02-18T09:49:13Z</time>
      </trkpt>
      <trkpt lat="46.74673" lon="5.51898">
        <ele>240.1</ele>
        <time>2020-02-18T09:49:17Z</time>
      </trkpt>
      <trkpt lat="46.74677" lon="5.519">
        <ele>240.1</ele>
        <time>2020-02-18T09:49:20Z</time>
      </trkpt>
      <trkpt lat="46.74681" lon="5.51904">
        <ele>240.1</ele>
        <time>2020-02-18T09:49:23Z</time>
      </trkpt>
      <trkpt lat="46.74686" lon="5.51907">
        <ele>240.2</ele>
        <time>2020-02-18T09:49:28Z</time>
      </trkpt>
      <trkpt lat="46.7469" lon="5.51911">
        <ele>240.2</ele>
        <time>2020-02-18T09:49:33Z</time>
      </trkpt>
      <trkpt lat="46.74695" lon="5.51915">
        <ele>240</ele>
        <time>2020-02-18T09:49:38Z</time>
      </trkpt>
      <trkpt lat="46.74698" lon="5.51921">
        <ele>239.7</ele>
        <time>2020-02-18T09:49:42Z</time>
      </trkpt>
      <trkpt lat="46.74701" lon="5.51927">
        <ele>239.5</ele>
        <time>2020-02-18T09:49:46Z</time>
      </trkpt>
      <trkpt lat="46.74704" lon="5.51932">
        <ele>239.1</ele>
        <time>2020-02-18T09:49:50Z</time>
      </trkpt>
      <trkpt lat="46.74709" lon="5.51937">
        <ele>238.8</ele>
        <time>2020-02-18T09:49:54Z</time>
      </trkpt>
      <trkpt lat="46.74713" lon="5.51941">
        <ele>238.6</ele>
        <time>2020-02-18T09:49:58Z</time>
      </trkpt>
      <trkpt lat="46.74717" lon="5.51946">
        <ele>238.3</ele>
        <time>2020-02-18T09:50:02Z</time>
      </trkpt>
      <trkpt lat="46.7472" lon="5.51952">
        <ele>238.1</ele>
        <time>2020-02-18T09:50:06Z</time>
      </trkpt>
      <trkpt lat="46.74723" lon="5.51958">
        <ele>237.9</ele>
        <time>2020-02-18T09:50:11Z</time>
      </trkpt>
      <trkpt lat="46.74727" lon="5.51962">
        <ele>238</ele>
        <time>2020-02-18T09:50:15Z</time>
      </trkpt>
      <trkpt lat="46.74731" lon="5.51967">
        <ele>238.2</ele>
        <time>2020-02-18T09:50:20Z</time>
      </trkpt>
      <trkpt lat="46.74735" lon="5.51972">
        <ele>238.5</ele>
        <time>2020-02-18T09:50:24Z</time>
      </trkpt>
      <trkpt lat="46.7474" lon="5.51976">
        <ele>238.9</ele>
        <time>2020-02-18T09:50:28Z</time>
      </trkpt>
      <trkpt lat="46.74744" lon="5.5198">
        <ele>239.2</ele>
        <time>2020-02-18T09:50:32Z</time>
      </trkpt>
      <trkpt lat="46.74748" lon="5.51983">
        <ele>239.5</ele>
        <time>2020-02-18T09:50:37Z</time>
      </trkpt>
      <trkpt lat="46.74753" lon="5.51988">
        <ele>239.5</ele>
        <time>2020-02-18T09:50:41Z</time>
      </trkpt>
      <trkpt lat="46.74757" lon="5.51993">
        <ele>239.5</ele>
        <time>2020-02-18T09:50:45Z</time>
      </trkpt>
      <trkpt lat="46.74761" lon="5.51996">
        <ele>239.5</ele>
        <time>2020-02-18T09:50:48Z</time>
      </trkpt>
      <trkpt lat="46.74765" lon="5.52">
        <ele>239.7</ele>
        <time>2020-02-18T09:50:52Z</time>
      </trkpt>
      <trkpt lat="46.74769" lon="5.52005">
        <ele>239.7</ele>
        <time>2020-02-18T09:50:57Z</time>
      </trkpt>
      <trkpt lat="46.74773" lon="5.52008">
        <ele>239.7</ele>
        <time>2020-02-18T09:51:01Z</time>
      </trkpt>
      <trkpt lat="46.74778" lon="5.52011">
        <ele>239.7</ele>
        <time>2020-02-18T09:51:05Z</time>
      </trkpt>
      <trkpt lat="46.74782" lon="5.52015">
        <ele>239.8</ele>
        <time>2020-02-18T09:51:09Z</time>
      </trkpt>
      <trkpt lat="46.74787" lon="5.52018">
        <ele>239.8</ele>
        <time>2020-02-18T09:51:14Z</time>
      </trkpt>
      <trkpt lat="46.74792" lon="5.52022">
        <ele>239.8</ele>
        <time>2020-02-18T09:51:18Z</time>
      </trkpt>
      <trkpt lat="46.74796" lon="5.52025">
        <ele>239.8</ele>
        <time>2020-02-18T09:51:22Z</time>
      </trkpt>
      <trkpt lat="46.74801" lon="5.52028">
        <ele>239.9</ele>
        <time>2020-02-18T09:51:26Z</time>
      </trkpt>
      <trkpt lat="46.74806" lon="5.52031">
        <ele>239.9</ele>
        <time>2020-02-18T09:51:30Z</time>
      </trkpt>
      <trkpt lat="46.74811" lon="5.52033">
        <ele>239.9</ele>
        <time>2020-02-18T09:51:34Z</time>
      </trkpt>
      <trkpt lat="46.74815" lon="5.52036">
        <ele>239.8</ele>
        <time>2020-02-18T09:51:38Z</time>
      </trkpt>
      <trkpt lat="46.7482" lon="5.52038">
        <ele>239.8</ele>
        <time>2020-02-18T09:51:42Z</time>
      </trkpt>
      <trkpt lat="46.74825" lon="5.52041">
        <ele>239.6</ele>
        <time>2020-02-18T09:51:47Z</time>
      </trkpt>
      <trkpt lat="46.7483" lon="5.52043">
        <ele>239.4</ele>
        <time>2020-02-18T09:51:51Z</time>
      </trkpt>
      <trkpt lat="46.74834" lon="5.52045">
        <ele>239.3</ele>
        <time>2020-02-18T09:51:56Z</time>
      </trkpt>
      <trkpt lat="46.74839" lon="5.52048">
        <ele>239.1</ele>
        <time>2020-02-18T09:52:02Z</time>
      </trkpt>
      <trkpt lat="46.74843" lon="5.52052">
        <ele>239</ele>
        <time>2020-02-18T09:52:18Z</time>
      </trkpt>
      <trkpt lat="46.74848" lon="5.52053">
        <ele>239.4</ele>
        <time>2020-02-18T09:52:27Z</time>
      </trkpt>
      <trkpt lat="46.74852" lon="5.52055">
        <ele>239.7</ele>
        <time>2020-02-18T09:52:31Z</time>
      </trkpt>
      <trkpt lat="46.74857" lon="5.52056">
        <ele>239.7</ele>
        <time>2020-02-18T09:52:35Z</time>
      </trkpt>
      <trkpt lat="46.74861" lon="5.52058">
        <ele>239.7</ele>
        <time>2020-02-18T09:52:40Z</time>
      </trkpt>
      <trkpt lat="46.74865" lon="5.52061">
        <ele>239.2</ele>
        <time>2020-02-18T09:52:46Z</time>
      </trkpt>
      <trkpt lat="46.74871" lon="5.52064">
        <ele>238.8</ele>
        <time>2020-02-18T09:52:50Z</time>
      </trkpt>
      <trkpt lat="46.74875" lon="5.52065">
        <ele>238.4</ele>
        <time>2020-02-18T09:52:54Z</time>
      </trkpt>
      <trkpt lat="46.7488" lon="5.52068">
        <ele>238.1</ele>
        <time>2020-02-18T09:52:58Z</time>
      </trkpt>
      <trkpt lat="46.74885" lon="5.52071">
        <ele>237.9</ele>
        <time>2020-02-18T09:53:02Z</time>
      </trkpt>
      <trkpt lat="46.74889" lon="5.52075">
        <ele>237.5</ele>
        <time>2020-02-18T09:53:06Z</time>
      </trkpt>
      <trkpt lat="46.74893" lon="5.52078">
        <ele>237.1</ele>
        <time>2020-02-18T09:53:10Z</time>
      </trkpt>
      <trkpt lat="46.74898" lon="5.52081">
        <ele>236.6</ele>
        <time>2020-02-18T09:53:15Z</time>
      </trkpt>
      <trkpt lat="46.74903" lon="5.52083">
        <ele>236.1</ele>
        <time>2020-02-18T09:53:19Z</time>
      </trkpt>
      <trkpt lat="46.74909" lon="5.52085">
        <ele>235.6</ele>
        <time>2020-02-18T09:53:23Z</time>
      </trkpt>
      <trkpt lat="46.74913" lon="5.52088">
        <ele>235.1</ele>
        <time>2020-02-18T09:53:27Z</time>
      </trkpt>
      <trkpt lat="46.74918" lon="5.5209">
        <ele>234.6</ele>
        <time>2020-02-18T09:53:32Z</time>
      </trkpt>
      <trkpt lat="46.74923" lon="5.52093">
        <ele>234.2</ele>
        <time>2020-02-18T09:53:36Z</time>
      </trkpt>
      <trkpt lat="46.74927" lon="5.52095">
        <ele>233.8</ele>
        <time>2020-02-18T09:53:40Z</time>
      </trkpt>
      <trkpt lat="46.74932" lon="5.52099">
        <ele>233.6</ele>
        <time>2020-02-18T09:53:44Z</time>
      </trkpt>
      <trkpt lat="46.74936" lon="5.52103">
        <ele>233.1</ele>
        <time>2020-02-18T09:53:49Z</time>
      </trkpt>
      <trkpt lat="46.74941" lon="5.52106">
        <ele>232.6</ele>
        <time>2020-02-18T09:53:54Z</time>
      </trkpt>
      <trkpt lat="46.74945" lon="5.52111">
        <ele>232.3</ele>
        <time>2020-02-18T09:53:58Z</time>
      </trkpt>
      <trkpt lat="46.74949" lon="5.52116">
        <ele>231.9</ele>
        <time>2020-02-18T09:54:03Z</time>
      </trkpt>
      <trkpt lat="46.74954" lon="5.52119">
        <ele>231.7</ele>
        <time>2020-02-18T09:54:07Z</time>
      </trkpt>
      <trkpt lat="46.74959" lon="5.5212">
        <ele>231.8</ele>
        <time>2020-02-18T09:54:12Z</time>
      </trkpt>
      <trkpt lat="46.74964" lon="5.52122">
        <ele>232</ele>
        <time>2020-02-18T09:54:17Z</time>
      </trkpt>
      <trkpt lat="46.74969" lon="5.52125">
        <ele>232.1</ele>
        <time>2020-02-18T09:54:21Z</time>
      </trkpt>
      <trkpt lat="46.74973" lon="5.52128">
        <ele>232.1</ele>
        <time>2020-02-18T09:54:25Z</time>
      </trkpt>
      <trkpt lat="46.74981" lon="5.52135">
        <ele>232.2</ele>
        <time>2020-02-18T09:54:33Z</time>
      </trkpt>
      <trkpt lat="46.74987" lon="5.52139">
        <ele>231.9</ele>
        <time>2020-02-18T09:54:38Z</time>
      </trkpt>
      <trkpt lat="46.74992" lon="5.52142">
        <ele>231.6</ele>
        <time>2020-02-18T09:54:42Z</time>
      </trkpt>
      <trkpt lat="46.74996" lon="5.52144">
        <ele>231.4</ele>
        <time>2020-02-18T09:54:46Z</time>
      </trkpt>
      <trkpt lat="46.75002" lon="5.52146">
        <ele>231</ele>
        <time>2020-02-18T09:54:50Z</time>
      </trkpt>
      <trkpt lat="46.75007" lon="5.52148">
        <ele>230.9</ele>
        <time>2020-02-18T09:54:54Z</time>
      </trkpt>
      <trkpt lat="46.75013" lon="5.5215">
        <ele>231.1</ele>
        <time>2020-02-18T09:54:58Z</time>
      </trkpt>
      <trkpt lat="46.75017" lon="5.52152">
        <ele>231.4</ele>
        <time>2020-02-18T09:55:02Z</time>
      </trkpt>
      <trkpt lat="46.75022" lon="5.52153">
        <ele>231.6</ele>
        <time>2020-02-18T09:55:07Z</time>
      </trkpt>
      <trkpt lat="46.75027" lon="5.52156">
        <ele>232.2</ele>
        <time>2020-02-18T09:55:14Z</time>
      </trkpt>
      <trkpt lat="46.75032" lon="5.52159">
        <ele>232.8</ele>
        <time>2020-02-18T09:55:18Z</time>
      </trkpt>
      <trkpt lat="46.75036" lon="5.52164">
        <ele>233.5</ele>
        <time>2020-02-18T09:55:22Z</time>
      </trkpt>
      <trkpt lat="46.7504" lon="5.52168">
        <ele>233.9</ele>
        <time>2020-02-18T09:55:26Z</time>
      </trkpt>
      <trkpt lat="46.75044" lon="5.52173">
        <ele>234.1</ele>
        <time>2020-02-18T09:55:30Z</time>
      </trkpt>
      <trkpt lat="46.75047" lon="5.52177">
        <ele>234.2</ele>
        <time>2020-02-18T09:55:33Z</time>
      </trkpt>
      <trkpt lat="46.7505" lon="5.52183">
        <ele>234.3</ele>
        <time>2020-02-18T09:55:37Z</time>
      </trkpt>
      <trkpt lat="46.75053" lon="5.5219">
        <ele>234.3</ele>
        <time>2020-02-18T09:55:42Z</time>
      </trkpt>
      <trkpt lat="46.75057" lon="5.52195">
        <ele>234.5</ele>
        <time>2020-02-18T09:55:48Z</time>
      </trkpt>
      <trkpt lat="46.75059" lon="5.52201">
        <ele>234.7</ele>
        <time>2020-02-18T09:55:52Z</time>
      </trkpt>
      <trkpt lat="46.7506" lon="5.52208">
        <ele>234.8</ele>
        <time>2020-02-18T09:55:56Z</time>
      </trkpt>
      <trkpt lat="46.7506" lon="5.52215">
        <ele>235</ele>
        <time>2020-02-18T09:56:01Z</time>
      </trkpt>
      <trkpt lat="46.75059" lon="5.52222">
        <ele>235.2</ele>
        <time>2020-02-18T09:56:07Z</time>
      </trkpt>
      <trkpt lat="46.75056" lon="5.52228">
        <ele>235.2</ele>
        <time>2020-02-18T09:56:11Z</time>
      </trkpt>
      <trkpt lat="46.75053" lon="5.52234">
        <ele>235.3</ele>
        <time>2020-02-18T09:56:15Z</time>
      </trkpt>
      <trkpt lat="46.75051" lon="5.52242">
        <ele>235.3</ele>
        <time>2020-02-18T09:56:20Z</time>
      </trkpt>
      <trkpt lat="46.75049" lon="5.52248">
        <ele>235.3</ele>
        <time>2020-02-18T09:56:26Z</time>
      </trkpt>
      <trkpt lat="46.75045" lon="5.52254">
        <ele>235.2</ele>
        <time>2020-02-18T09:56:32Z</time>
      </trkpt>
      <trkpt lat="46.75042" lon="5.5226">
        <ele>235.1</ele>
        <time>2020-02-18T09:56:37Z</time>
      </trkpt>
      <trkpt lat="46.75038" lon="5.52265">
        <ele>234.9</ele>
        <time>2020-02-18T09:56:42Z</time>
      </trkpt>
      <trkpt lat="46.75035" lon="5.52271">
        <ele>234.4</ele>
        <time>2020-02-18T09:56:49Z</time>
      </trkpt>
      <trkpt lat="46.75032" lon="5.52266">
        <ele>233.2</ele>
        <time>2020-02-18T09:58:50Z</time>
      </trkpt>
      <trkpt lat="46.75033" lon="5.52273">
        <ele>232.9</ele>
        <time>2020-02-18T09:59:05Z</time>
      </trkpt>
      <trkpt lat="46.75031" lon="5.5228">
        <ele>233.9</ele>
        <time>2020-02-18T09:59:48Z</time>
      </trkpt>
      <trkpt lat="46.75029" lon="5.52285">
        <ele>234.2</ele>
        <time>2020-02-18T09:59:53Z</time>
      </trkpt>
      <trkpt lat="46.75025" lon="5.52291">
        <ele>235.7</ele>
        <time>2020-02-18T10:00:17Z</time>
      </trkpt>
      <trkpt lat="46.75022" lon="5.52297">
        <ele>236</ele>
        <time>2020-02-18T10:00:21Z</time>
      </trkpt>
      <trkpt lat="46.75019" lon="5.52302">
        <ele>236.3</ele>
        <time>2020-02-18T10:00:24Z</time>
      </trkpt>
      <trkpt lat="46.75016" lon="5.52308">
        <ele>236.7</ele>
        <time>2020-02-18T10:00:27Z</time>
      </trkpt>
      <trkpt lat="46.75012" lon="5.52314">
        <ele>237.1</ele>
        <time>2020-02-18T10:00:32Z</time>
      </trkpt>
      <trkpt lat="46.75009" lon="5.52319">
        <ele>237.3</ele>
        <time>2020-02-18T10:00:36Z</time>
      </trkpt>
      <trkpt lat="46.75006" lon="5.52324">
        <ele>237.5</ele>
        <time>2020-02-18T10:00:40Z</time>
      </trkpt>
      <trkpt lat="46.75003" lon="5.5233">
        <ele>237.9</ele>
        <time>2020-02-18T10:00:45Z</time>
      </trkpt>
      <trkpt lat="46.74999" lon="5.52336">
        <ele>238.2</ele>
        <time>2020-02-18T10:00:49Z</time>
      </trkpt>
      <trkpt lat="46.74996" lon="5.52341">
        <ele>238.6</ele>
        <time>2020-02-18T10:00:53Z</time>
      </trkpt>
      <trkpt lat="46.74992" lon="5.52347">
        <ele>239</ele>
        <time>2020-02-18T10:00:57Z</time>
      </trkpt>
      <trkpt lat="46.7499" lon="5.52353">
        <ele>239.5</ele>
        <time>2020-02-18T10:01:01Z</time>
      </trkpt>
      <trkpt lat="46.74986" lon="5.52357">
        <ele>240.3</ele>
        <time>2020-02-18T10:01:19Z</time>
      </trkpt>
      <trkpt lat="46.74983" lon="5.52364">
        <ele>240.3</ele>
        <time>2020-02-18T10:01:24Z</time>
      </trkpt>
      <trkpt lat="46.7498" lon="5.5237">
        <ele>240.4</ele>
        <time>2020-02-18T10:01:27Z</time>
      </trkpt>
      <trkpt lat="46.74977" lon="5.52376">
        <ele>240.5</ele>
        <time>2020-02-18T10:01:31Z</time>
      </trkpt>
      <trkpt lat="46.74974" lon="5.52382">
        <ele>240.5</ele>
        <time>2020-02-18T10:01:36Z</time>
      </trkpt>
      <trkpt lat="46.74971" lon="5.52388">
        <ele>240.5</ele>
        <time>2020-02-18T10:01:40Z</time>
      </trkpt>
      <trkpt lat="46.74967" lon="5.52394">
        <ele>240.5</ele>
        <time>2020-02-18T10:01:44Z</time>
      </trkpt>
      <trkpt lat="46.74964" lon="5.524">
        <ele>240.6</ele>
        <time>2020-02-18T10:01:49Z</time>
      </trkpt>
      <trkpt lat="46.74961" lon="5.52404">
        <ele>240.7</ele>
        <time>2020-02-18T10:01:53Z</time>
      </trkpt>
      <trkpt lat="46.74957" lon="5.5241">
        <ele>241.1</ele>
        <time>2020-02-18T10:01:58Z</time>
      </trkpt>
      <trkpt lat="46.74956" lon="5.52417">
        <ele>241.7</ele>
        <time>2020-02-18T10:02:04Z</time>
      </trkpt>
      <trkpt lat="46.74953" lon="5.52423">
        <ele>242.3</ele>
        <time>2020-02-18T10:02:09Z</time>
      </trkpt>
      <trkpt lat="46.74951" lon="5.5243">
        <ele>242.9</ele>
        <time>2020-02-18T10:02:14Z</time>
      </trkpt>
      <trkpt lat="46.74949" lon="5.52437">
        <ele>243.1</ele>
        <time>2020-02-18T10:02:18Z</time>
      </trkpt>
      <trkpt lat="46.74946" lon="5.52444">
        <ele>243.2</ele>
        <time>2020-02-18T10:02:23Z</time>
      </trkpt>
      <trkpt lat="46.74944" lon="5.52451">
        <ele>243.1</ele>
        <time>2020-02-18T10:02:29Z</time>
      </trkpt>
      <trkpt lat="46.74942" lon="5.52457">
        <ele>242.9</ele>
        <time>2020-02-18T10:02:34Z</time>
      </trkpt>
      <trkpt lat="46.7494" lon="5.52464">
        <ele>242.8</ele>
        <time>2020-02-18T10:02:40Z</time>
      </trkpt>
      <trkpt lat="46.74939" lon="5.52471">
        <ele>242.8</ele>
        <time>2020-02-18T10:02:44Z</time>
      </trkpt>
      <trkpt lat="46.74936" lon="5.52478">
        <ele>242.8</ele>
        <time>2020-02-18T10:02:48Z</time>
      </trkpt>
      <trkpt lat="46.74933" lon="5.52485">
        <ele>242.8</ele>
        <time>2020-02-18T10:02:52Z</time>
      </trkpt>
      <trkpt lat="46.7493" lon="5.52491">
        <ele>242.8</ele>
        <time>2020-02-18T10:02:56Z</time>
      </trkpt>
      <trkpt lat="46.74927" lon="5.52497">
        <ele>242.7</ele>
        <time>2020-02-18T10:03:00Z</time>
      </trkpt>
      <trkpt lat="46.74925" lon="5.52504">
        <ele>242.4</ele>
        <time>2020-02-18T10:03:05Z</time>
      </trkpt>
      <trkpt lat="46.74923" lon="5.5251">
        <ele>242.2</ele>
        <time>2020-02-18T10:03:11Z</time>
      </trkpt>
      <trkpt lat="46.7492" lon="5.52516">
        <ele>242.3</ele>
        <time>2020-02-18T10:03:16Z</time>
      </trkpt>
      <trkpt lat="46.74917" lon="5.52522">
        <ele>242.7</ele>
        <time>2020-02-18T10:03:22Z</time>
      </trkpt>
      <trkpt lat="46.74914" lon="5.52527">
        <ele>243</ele>
        <time>2020-02-18T10:03:27Z</time>
      </trkpt>
      <trkpt lat="46.74911" lon="5.52533">
        <ele>243.3</ele>
        <time>2020-02-18T10:03:31Z</time>
      </trkpt>
      <trkpt lat="46.74909" lon="5.5254">
        <ele>243.6</ele>
        <time>2020-02-18T10:03:35Z</time>
      </trkpt>
      <trkpt lat="46.74906" lon="5.52546">
        <ele>243.8</ele>
        <time>2020-02-18T10:03:40Z</time>
      </trkpt>
      <trkpt lat="46.74905" lon="5.52553">
        <ele>243.8</ele>
        <time>2020-02-18T10:03:44Z</time>
      </trkpt>
      <trkpt lat="46.74902" lon="5.52559">
        <ele>243.7</ele>
        <time>2020-02-18T10:03:48Z</time>
      </trkpt>
      <trkpt lat="46.74898" lon="5.52564">
        <ele>243.6</ele>
        <time>2020-02-18T10:03:52Z</time>
      </trkpt>
      <trkpt lat="46.74896" lon="5.5257">
        <ele>243.6</ele>
        <time>2020-02-18T10:03:56Z</time>
      </trkpt>
      <trkpt lat="46.74893" lon="5.52576">
        <ele>243.7</ele>
        <time>2020-02-18T10:04:01Z</time>
      </trkpt>
      <trkpt lat="46.7489" lon="5.52582">
        <ele>243.6</ele>
        <time>2020-02-18T10:04:05Z</time>
      </trkpt>
      <trkpt lat="46.74887" lon="5.52588">
        <ele>243.7</ele>
        <time>2020-02-18T10:04:09Z</time>
      </trkpt>
      <trkpt lat="46.74885" lon="5.52594">
        <ele>243.8</ele>
        <time>2020-02-18T10:04:14Z</time>
      </trkpt>
      <trkpt lat="46.74883" lon="5.526">
        <ele>244</ele>
        <time>2020-02-18T10:04:18Z</time>
      </trkpt>
      <trkpt lat="46.7488" lon="5.52606">
        <ele>244.3</ele>
        <time>2020-02-18T10:04:22Z</time>
      </trkpt>
      <trkpt lat="46.74877" lon="5.52612">
        <ele>244.8</ele>
        <time>2020-02-18T10:04:28Z</time>
      </trkpt>
      <trkpt lat="46.74874" lon="5.52619">
        <ele>245.4</ele>
        <time>2020-02-18T10:04:34Z</time>
      </trkpt>
      <trkpt lat="46.74871" lon="5.52625">
        <ele>245.9</ele>
        <time>2020-02-18T10:04:39Z</time>
      </trkpt>
      <trkpt lat="46.74868" lon="5.52631">
        <ele>246.2</ele>
        <time>2020-02-18T10:04:43Z</time>
      </trkpt>
      <trkpt lat="46.74865" lon="5.52637">
        <ele>246.3</ele>
        <time>2020-02-18T10:04:47Z</time>
      </trkpt>
      <trkpt lat="46.74863" lon="5.52643">
        <ele>246.4</ele>
        <time>2020-02-18T10:04:51Z</time>
      </trkpt>
      <trkpt lat="46.7486" lon="5.52648">
        <ele>246.5</ele>
        <time>2020-02-18T10:04:55Z</time>
      </trkpt>
      <trkpt lat="46.74857" lon="5.52654">
        <ele>246.6</ele>
        <time>2020-02-18T10:04:59Z</time>
      </trkpt>
      <trkpt lat="46.74854" lon="5.52661">
        <ele>246.7</ele>
        <time>2020-02-18T10:05:03Z</time>
      </trkpt>
      <trkpt lat="46.74851" lon="5.52667">
        <ele>246.9</ele>
        <time>2020-02-18T10:05:08Z</time>
      </trkpt>
      <trkpt lat="46.74848" lon="5.52673">
        <ele>246.9</ele>
        <time>2020-02-18T10:05:13Z</time>
      </trkpt>
      <trkpt lat="46.74845" lon="5.52679">
        <ele>246.8</ele>
        <time>2020-02-18T10:05:18Z</time>
      </trkpt>
      <trkpt lat="46.74842" lon="5.52686">
        <ele>246.7</ele>
        <time>2020-02-18T10:05:22Z</time>
      </trkpt>
      <trkpt lat="46.7484" lon="5.52693">
        <ele>246.7</ele>
        <time>2020-02-18T10:05:25Z</time>
      </trkpt>
      <trkpt lat="46.74838" lon="5.527">
        <ele>246.7</ele>
        <time>2020-02-18T10:05:29Z</time>
      </trkpt>
      <trkpt lat="46.74835" lon="5.52707">
        <ele>246.8</ele>
        <time>2020-02-18T10:05:33Z</time>
      </trkpt>
      <trkpt lat="46.74833" lon="5.52713">
        <ele>247</ele>
        <time>2020-02-18T10:05:38Z</time>
      </trkpt>
      <trkpt lat="46.74832" lon="5.52719">
        <ele>247.1</ele>
        <time>2020-02-18T10:05:43Z</time>
      </trkpt>
      <trkpt lat="46.7483" lon="5.52726">
        <ele>247.2</ele>
        <time>2020-02-18T10:05:48Z</time>
      </trkpt>
      <trkpt lat="46.74828" lon="5.52733">
        <ele>247.3</ele>
        <time>2020-02-18T10:05:53Z</time>
      </trkpt>
      <trkpt lat="46.74825" lon="5.52738">
        <ele>248</ele>
        <time>2020-02-18T10:06:06Z</time>
      </trkpt>
      <trkpt lat="46.74823" lon="5.52744">
        <ele>248.9</ele>
        <time>2020-02-18T10:06:16Z</time>
      </trkpt>
      <trkpt lat="46.74821" lon="5.5275">
        <ele>256</ele>
        <time>2020-02-18T10:07:41Z</time>
      </trkpt>
      <trkpt lat="46.74819" lon="5.52756">
        <ele>260.4</ele>
        <time>2020-02-18T10:09:03Z</time>
      </trkpt>
      <trkpt lat="46.74817" lon="5.52763">
        <ele>260.8</ele>
        <time>2020-02-18T10:09:09Z</time>
      </trkpt>
      <trkpt lat="46.74816" lon="5.5277">
        <ele>260.9</ele>
        <time>2020-02-18T10:09:13Z</time>
      </trkpt>
      <trkpt lat="46.74815" lon="5.52778">
        <ele>261.1</ele>
        <time>2020-02-18T10:09:17Z</time>
      </trkpt>
      <trkpt lat="46.74815" lon="5.52786">
        <ele>261.4</ele>
        <time>2020-02-18T10:09:21Z</time>
      </trkpt>
      <trkpt lat="46.74815" lon="5.52793">
        <ele>261.8</ele>
        <time>2020-02-18T10:09:26Z</time>
      </trkpt>
      <trkpt lat="46.74814" lon="5.52801">
        <ele>262.1</ele>
        <time>2020-02-18T10:09:31Z</time>
      </trkpt>
      <trkpt lat="46.74812" lon="5.52808">
        <ele>262.5</ele>
        <time>2020-02-18T10:09:36Z</time>
      </trkpt>
      <trkpt lat="46.74811" lon="5.52816">
        <ele>263</ele>
        <time>2020-02-18T10:09:41Z</time>
      </trkpt>
      <trkpt lat="46.7481" lon="5.52823">
        <ele>263.5</ele>
        <time>2020-02-18T10:09:46Z</time>
      </trkpt>
      <trkpt lat="46.74809" lon="5.52829">
        <ele>263.9</ele>
        <time>2020-02-18T10:09:50Z</time>
      </trkpt>
      <trkpt lat="46.74807" lon="5.52837">
        <ele>264.1</ele>
        <time>2020-02-18T10:09:54Z</time>
      </trkpt>
      <trkpt lat="46.74806" lon="5.52844">
        <ele>264.2</ele>
        <time>2020-02-18T10:09:58Z</time>
      </trkpt>
      <trkpt lat="46.74805" lon="5.52851">
        <ele>264.3</ele>
        <time>2020-02-18T10:10:03Z</time>
      </trkpt>
      <trkpt lat="46.74803" lon="5.52858">
        <ele>264.4</ele>
        <time>2020-02-18T10:10:08Z</time>
      </trkpt>
      <trkpt lat="46.74801" lon="5.52866">
        <ele>264.5</ele>
        <time>2020-02-18T10:10:12Z</time>
      </trkpt>
      <trkpt lat="46.748" lon="5.52873">
        <ele>264.6</ele>
        <time>2020-02-18T10:10:16Z</time>
      </trkpt>
      <trkpt lat="46.74799" lon="5.5288">
        <ele>264.8</ele>
        <time>2020-02-18T10:10:20Z</time>
      </trkpt>
      <trkpt lat="46.74797" lon="5.52887">
        <ele>264.7</ele>
        <time>2020-02-18T10:10:24Z</time>
      </trkpt>
      <trkpt lat="46.74796" lon="5.52894">
        <ele>264.3</ele>
        <time>2020-02-18T10:10:29Z</time>
      </trkpt>
      <trkpt lat="46.74796" lon="5.52902">
        <ele>263.7</ele>
        <time>2020-02-18T10:10:33Z</time>
      </trkpt>
      <trkpt lat="46.74794" lon="5.52909">
        <ele>263.2</ele>
        <time>2020-02-18T10:10:36Z</time>
      </trkpt>
      <trkpt lat="46.74791" lon="5.52915">
        <ele>262.7</ele>
        <time>2020-02-18T10:10:39Z</time>
      </trkpt>
      <trkpt lat="46.74789" lon="5.52922">
        <ele>262.4</ele>
        <time>2020-02-18T10:10:43Z</time>
      </trkpt>
      <trkpt lat="46.74786" lon="5.52928">
        <ele>262.3</ele>
        <time>2020-02-18T10:10:50Z</time>
      </trkpt>
      <trkpt lat="46.74784" lon="5.52935">
        <ele>263.1</ele>
        <time>2020-02-18T10:11:03Z</time>
      </trkpt>
      <trkpt lat="46.74785" lon="5.52942">
        <ele>263.6</ele>
        <time>2020-02-18T10:11:07Z</time>
      </trkpt>
      <trkpt lat="46.74785" lon="5.52948">
        <ele>264.3</ele>
        <time>2020-02-18T10:11:13Z</time>
      </trkpt>
      <trkpt lat="46.74784" lon="5.52955">
        <ele>265.4</ele>
        <time>2020-02-18T10:11:21Z</time>
      </trkpt>
      <trkpt lat="46.74781" lon="5.52961">
        <ele>265.9</ele>
        <time>2020-02-18T10:11:25Z</time>
      </trkpt>
      <trkpt lat="46.7478" lon="5.52968">
        <ele>266.2</ele>
        <time>2020-02-18T10:11:29Z</time>
      </trkpt>
      <trkpt lat="46.74777" lon="5.52977">
        <ele>267.4</ele>
        <time>2020-02-18T10:11:41Z</time>
      </trkpt>
      <trkpt lat="46.74776" lon="5.52984">
        <ele>267.6</ele>
        <time>2020-02-18T10:11:45Z</time>
      </trkpt>
      <trkpt lat="46.74774" lon="5.52992">
        <ele>267.6</ele>
        <time>2020-02-18T10:11:48Z</time>
      </trkpt>
      <trkpt lat="46.74779" lon="5.52991">
        <ele>267.7</ele>
        <time>2020-02-18T10:11:54Z</time>
      </trkpt>
      <trkpt lat="46.74778" lon="5.52998">
        <ele>268.1</ele>
        <time>2020-02-18T10:12:17Z</time>
      </trkpt>
      <trkpt lat="46.74776" lon="5.53006">
        <ele>267.8</ele>
        <time>2020-02-18T10:12:20Z</time>
      </trkpt>
      <trkpt lat="46.74775" lon="5.53012">
        <ele>267.3</ele>
        <time>2020-02-18T10:12:24Z</time>
      </trkpt>
      <trkpt lat="46.74774" lon="5.53021">
        <ele>266.6</ele>
        <time>2020-02-18T10:12:29Z</time>
      </trkpt>
      <trkpt lat="46.74772" lon="5.53027">
        <ele>266.1</ele>
        <time>2020-02-18T10:12:33Z</time>
      </trkpt>
      <trkpt lat="46.74771" lon="5.53035">
        <ele>265.8</ele>
        <time>2020-02-18T10:12:37Z</time>
      </trkpt>
      <trkpt lat="46.74769" lon="5.53042">
        <ele>265.6</ele>
        <time>2020-02-18T10:12:40Z</time>
      </trkpt>
      <trkpt lat="46.74767" lon="5.53049">
        <ele>265.3</ele>
        <time>2020-02-18T10:12:44Z</time>
      </trkpt>
      <trkpt lat="46.74765" lon="5.53058">
        <ele>265.1</ele>
        <time>2020-02-18T10:12:48Z</time>
      </trkpt>
      <trkpt lat="46.74764" lon="5.53064">
        <ele>264.9</ele>
        <time>2020-02-18T10:12:51Z</time>
      </trkpt>
      <trkpt lat="46.74762" lon="5.53072">
        <ele>264.6</ele>
        <time>2020-02-18T10:12:56Z</time>
      </trkpt>
      <trkpt lat="46.7476" lon="5.5308">
        <ele>264.1</ele>
        <time>2020-02-18T10:13:01Z</time>
      </trkpt>
      <trkpt lat="46.74759" lon="5.53087">
        <ele>263.7</ele>
        <time>2020-02-18T10:13:06Z</time>
      </trkpt>
      <trkpt lat="46.74758" lon="5.53094">
        <ele>263.4</ele>
        <time>2020-02-18T10:13:10Z</time>
      </trkpt>
      <trkpt lat="46.74755" lon="5.53101">
        <ele>263.1</ele>
        <time>2020-02-18T10:13:15Z</time>
      </trkpt>
      <trkpt lat="46.74754" lon="5.53108">
        <ele>263</ele>
        <time>2020-02-18T10:13:18Z</time>
      </trkpt>
      <trkpt lat="46.74752" lon="5.53115">
        <ele>262.8</ele>
        <time>2020-02-18T10:13:21Z</time>
      </trkpt>
      <trkpt lat="46.74751" lon="5.53121">
        <ele>262.6</ele>
        <time>2020-02-18T10:13:26Z</time>
      </trkpt>
      <trkpt lat="46.74748" lon="5.53128">
        <ele>262.7</ele>
        <time>2020-02-18T10:13:28Z</time>
      </trkpt>
      <trkpt lat="46.74745" lon="5.53137">
        <ele>263</ele>
        <time>2020-02-18T10:13:31Z</time>
      </trkpt>
      <trkpt lat="46.74743" lon="5.53145">
        <ele>263.5</ele>
        <time>2020-02-18T10:13:34Z</time>
      </trkpt>
      <trkpt lat="46.74742" lon="5.53152">
        <ele>264.3</ele>
        <time>2020-02-18T10:13:38Z</time>
      </trkpt>
      <trkpt lat="46.7474" lon="5.53159">
        <ele>264.9</ele>
        <time>2020-02-18T10:13:41Z</time>
      </trkpt>
      <trkpt lat="46.74738" lon="5.53166">
        <ele>265.6</ele>
        <time>2020-02-18T10:13:45Z</time>
      </trkpt>
      <trkpt lat="46.74736" lon="5.53176">
        <ele>266.2</ele>
        <time>2020-02-18T10:13:48Z</time>
      </trkpt>
      <trkpt lat="46.74735" lon="5.53183">
        <ele>266.8</ele>
        <time>2020-02-18T10:13:51Z</time>
      </trkpt>
      <trkpt lat="46.74734" lon="5.5319">
        <ele>267.4</ele>
        <time>2020-02-18T10:13:54Z</time>
      </trkpt>
      <trkpt lat="46.74733" lon="5.53197">
        <ele>268.1</ele>
        <time>2020-02-18T10:13:57Z</time>
      </trkpt>
      <trkpt lat="46.74732" lon="5.53203">
        <ele>269.1</ele>
        <time>2020-02-18T10:14:02Z</time>
      </trkpt>
      <trkpt lat="46.74729" lon="5.53209">
        <ele>270.5</ele>
        <time>2020-02-18T10:14:12Z</time>
      </trkpt>
      <trkpt lat="46.74727" lon="5.53216">
        <ele>270.9</ele>
        <time>2020-02-18T10:14:16Z</time>
      </trkpt>
      <trkpt lat="46.74725" lon="5.53223">
        <ele>271.1</ele>
        <time>2020-02-18T10:14:21Z</time>
      </trkpt>
      <trkpt lat="46.74722" lon="5.53228">
        <ele>271</ele>
        <time>2020-02-18T10:14:28Z</time>
      </trkpt>
      <trkpt lat="46.74719" lon="5.5324">
        <ele>275.5</ele>
        <time>2020-02-18T10:15:26Z</time>
      </trkpt>
      <trkpt lat="46.74716" lon="5.53246">
        <ele>275.2</ele>
        <time>2020-02-18T10:15:31Z</time>
      </trkpt>
      <trkpt lat="46.74712" lon="5.53251">
        <ele>274.6</ele>
        <time>2020-02-18T10:15:36Z</time>
      </trkpt>
      <trkpt lat="46.74708" lon="5.53256">
        <ele>274.2</ele>
        <time>2020-02-18T10:15:39Z</time>
      </trkpt>
      <trkpt lat="46.74703" lon="5.53259">
        <ele>273.8</ele>
        <time>2020-02-18T10:15:42Z</time>
      </trkpt>
      <trkpt lat="46.747" lon="5.53265">
        <ele>273.1</ele>
        <time>2020-02-18T10:15:49Z</time>
      </trkpt>
      <trkpt lat="46.74697" lon="5.5327">
        <ele>272.9</ele>
        <time>2020-02-18T10:15:54Z</time>
      </trkpt>
      <trkpt lat="46.74694" lon="5.5328">
        <ele>272.9</ele>
        <time>2020-02-18T10:15:58Z</time>
      </trkpt>
      <trkpt lat="46.74691" lon="5.53287">
        <ele>273</ele>
        <time>2020-02-18T10:16:01Z</time>
      </trkpt>
      <trkpt lat="46.74689" lon="5.53292">
        <ele>273.3</ele>
        <time>2020-02-18T10:16:05Z</time>
      </trkpt>
      <trkpt lat="46.74684" lon="5.53298">
        <ele>273.8</ele>
        <time>2020-02-18T10:16:07Z</time>
      </trkpt>
      <trkpt lat="46.74681" lon="5.53303">
        <ele>274.7</ele>
        <time>2020-02-18T10:16:11Z</time>
      </trkpt>
      <trkpt lat="46.74677" lon="5.53308">
        <ele>275.9</ele>
        <time>2020-02-18T10:16:17Z</time>
      </trkpt>
      <trkpt lat="46.74674" lon="5.53314">
        <ele>276.2</ele>
        <time>2020-02-18T10:16:24Z</time>
      </trkpt>
      <trkpt lat="46.74671" lon="5.53321">
        <ele>275.9</ele>
        <time>2020-02-18T10:16:28Z</time>
      </trkpt>
      <trkpt lat="46.74669" lon="5.53328">
        <ele>275.4</ele>
        <time>2020-02-18T10:16:32Z</time>
      </trkpt>
      <trkpt lat="46.74668" lon="5.53334">
        <ele>275</ele>
        <time>2020-02-18T10:16:36Z</time>
      </trkpt>
      <trkpt lat="46.74669" lon="5.53343">
        <ele>274.9</ele>
        <time>2020-02-18T10:16:38Z</time>
      </trkpt>
      <trkpt lat="46.74671" lon="5.53348">
        <ele>274.8</ele>
        <time>2020-02-18T10:16:40Z</time>
      </trkpt>
      <trkpt lat="46.74674" lon="5.53355">
        <ele>274.8</ele>
        <time>2020-02-18T10:16:44Z</time>
      </trkpt>
      <trkpt lat="46.74678" lon="5.5336">
        <ele>275.2</ele>
        <time>2020-02-18T10:16:49Z</time>
      </trkpt>
      <trkpt lat="46.74681" lon="5.53365">
        <ele>275.9</ele>
        <time>2020-02-18T10:16:55Z</time>
      </trkpt>
      <trkpt lat="46.74686" lon="5.53371">
        <ele>276.5</ele>
        <time>2020-02-18T10:17:02Z</time>
      </trkpt>
      <trkpt lat="46.74689" lon="5.53377">
        <ele>276.9</ele>
        <time>2020-02-18T10:17:07Z</time>
      </trkpt>
      <trkpt lat="46.74694" lon="5.53382">
        <ele>277</ele>
        <time>2020-02-18T10:17:09Z</time>
      </trkpt>
      <trkpt lat="46.74699" lon="5.53387">
        <ele>277.4</ele>
        <time>2020-02-18T10:17:13Z</time>
      </trkpt>
      <trkpt lat="46.74704" lon="5.53391">
        <ele>277.9</ele>
        <time>2020-02-18T10:17:17Z</time>
      </trkpt>
      <trkpt lat="46.74708" lon="5.53395">
        <ele>278.2</ele>
        <time>2020-02-18T10:17:19Z</time>
      </trkpt>
      <trkpt lat="46.74712" lon="5.53399">
        <ele>279</ele>
        <time>2020-02-18T10:17:23Z</time>
      </trkpt>
      <trkpt lat="46.74716" lon="5.53402">
        <ele>280</ele>
        <time>2020-02-18T10:17:28Z</time>
      </trkpt>
      <trkpt lat="46.7472" lon="5.53407">
        <ele>280.7</ele>
        <time>2020-02-18T10:17:31Z</time>
      </trkpt>
      <trkpt lat="46.74723" lon="5.53413">
        <ele>281.8</ele>
        <time>2020-02-18T10:17:35Z</time>
      </trkpt>
      <trkpt lat="46.74727" lon="5.53417">
        <ele>283.5</ele>
        <time>2020-02-18T10:17:41Z</time>
      </trkpt>
      <trkpt lat="46.74732" lon="5.53419">
        <ele>285.4</ele>
        <time>2020-02-18T10:17:49Z</time>
      </trkpt>
      <trkpt lat="46.74737" lon="5.53421">
        <ele>286</ele>
        <time>2020-02-18T10:17:55Z</time>
      </trkpt>
      <trkpt lat="46.74741" lon="5.53421">
        <ele>286.3</ele>
        <time>2020-02-18T10:17:59Z</time>
      </trkpt>
      <trkpt lat="46.74746" lon="5.53421">
        <ele>286.7</ele>
        <time>2020-02-18T10:18:04Z</time>
      </trkpt>
      <trkpt lat="46.74751" lon="5.53421">
        <ele>287.1</ele>
        <time>2020-02-18T10:18:09Z</time>
      </trkpt>
      <trkpt lat="46.74756" lon="5.53422">
        <ele>287.3</ele>
        <time>2020-02-18T10:18:14Z</time>
      </trkpt>
      <trkpt lat="46.7476" lon="5.53422">
        <ele>287.7</ele>
        <time>2020-02-18T10:18:19Z</time>
      </trkpt>
      <trkpt lat="46.74767" lon="5.53423">
        <ele>288</ele>
        <time>2020-02-18T10:18:23Z</time>
      </trkpt>
      <trkpt lat="46.74772" lon="5.53425">
        <ele>288.3</ele>
        <time>2020-02-18T10:18:26Z</time>
      </trkpt>
      <trkpt lat="46.74777" lon="5.53426">
        <ele>288.5</ele>
        <time>2020-02-18T10:18:28Z</time>
      </trkpt>
      <trkpt lat="46.74782" lon="5.53428">
        <ele>288.8</ele>
        <time>2020-02-18T10:18:32Z</time>
      </trkpt>
      <trkpt lat="46.74787" lon="5.53431">
        <ele>289.6</ele>
        <time>2020-02-18T10:18:37Z</time>
      </trkpt>
      <trkpt lat="46.74791" lon="5.53433">
        <ele>290.4</ele>
        <time>2020-02-18T10:18:42Z</time>
      </trkpt>
      <trkpt lat="46.74795" lon="5.53436">
        <ele>291.5</ele>
        <time>2020-02-18T10:18:47Z</time>
      </trkpt>
      <trkpt lat="46.74801" lon="5.53437">
        <ele>292.5</ele>
        <time>2020-02-18T10:18:52Z</time>
      </trkpt>
      <trkpt lat="46.74806" lon="5.53439">
        <ele>293.7</ele>
        <time>2020-02-18T10:18:57Z</time>
      </trkpt>
      <trkpt lat="46.74811" lon="5.53441">
        <ele>294.6</ele>
        <time>2020-02-18T10:19:01Z</time>
      </trkpt>
      <trkpt lat="46.74816" lon="5.53442">
        <ele>295.3</ele>
        <time>2020-02-18T10:19:05Z</time>
      </trkpt>
      <trkpt lat="46.74821" lon="5.53444">
        <ele>295.8</ele>
        <time>2020-02-18T10:19:09Z</time>
      </trkpt>
      <trkpt lat="46.74825" lon="5.53445">
        <ele>296.3</ele>
        <time>2020-02-18T10:19:14Z</time>
      </trkpt>
      <trkpt lat="46.74831" lon="5.53446">
        <ele>296.7</ele>
        <time>2020-02-18T10:19:18Z</time>
      </trkpt>
      <trkpt lat="46.74837" lon="5.53448">
        <ele>297.1</ele>
        <time>2020-02-18T10:19:22Z</time>
      </trkpt>
      <trkpt lat="46.74841" lon="5.53451">
        <ele>297.3</ele>
        <time>2020-02-18T10:19:26Z</time>
      </trkpt>
      <trkpt lat="46.74846" lon="5.53452">
        <ele>297.5</ele>
        <time>2020-02-18T10:19:29Z</time>
      </trkpt>
      <trkpt lat="46.74851" lon="5.53454">
        <ele>297.7</ele>
        <time>2020-02-18T10:19:33Z</time>
      </trkpt>
      <trkpt lat="46.74856" lon="5.53456">
        <ele>297.9</ele>
        <time>2020-02-18T10:19:37Z</time>
      </trkpt>
      <trkpt lat="46.74862" lon="5.53458">
        <ele>298</ele>
        <time>2020-02-18T10:19:40Z</time>
      </trkpt>
      <trkpt lat="46.74868" lon="5.53461">
        <ele>298</ele>
        <time>2020-02-18T10:19:43Z</time>
      </trkpt>
      <trkpt lat="46.74873" lon="5.53462">
        <ele>297.7</ele>
        <time>2020-02-18T10:19:48Z</time>
      </trkpt>
      <trkpt lat="46.74878" lon="5.53464">
        <ele>297.2</ele>
        <time>2020-02-18T10:19:54Z</time>
      </trkpt>
      <trkpt lat="46.74886" lon="5.53468">
        <ele>296.2</ele>
        <time>2020-02-18T10:20:05Z</time>
      </trkpt>
      <trkpt lat="46.74891" lon="5.5347">
        <ele>295.6</ele>
        <time>2020-02-18T10:20:10Z</time>
      </trkpt>
      <trkpt lat="46.74895" lon="5.53472">
        <ele>294.2</ele>
        <time>2020-02-18T10:20:17Z</time>
      </trkpt>
      <trkpt lat="46.74901" lon="5.53474">
        <ele>293.3</ele>
        <time>2020-02-18T10:20:21Z</time>
      </trkpt>
      <trkpt lat="46.74906" lon="5.53477">
        <ele>292.8</ele>
        <time>2020-02-18T10:20:24Z</time>
      </trkpt>
      <trkpt lat="46.74911" lon="5.53478">
        <ele>292.3</ele>
        <time>2020-02-18T10:20:27Z</time>
      </trkpt>
      <trkpt lat="46.74916" lon="5.5348">
        <ele>291.9</ele>
        <time>2020-02-18T10:20:30Z</time>
      </trkpt>
      <trkpt lat="46.74921" lon="5.53482">
        <ele>291.5</ele>
        <time>2020-02-18T10:20:34Z</time>
      </trkpt>
      <trkpt lat="46.74926" lon="5.53483">
        <ele>291</ele>
        <time>2020-02-18T10:20:39Z</time>
      </trkpt>
      <trkpt lat="46.74931" lon="5.53485">
        <ele>290.5</ele>
        <time>2020-02-18T10:20:45Z</time>
      </trkpt>
      <trkpt lat="46.74935" lon="5.53488">
        <ele>290.1</ele>
        <time>2020-02-18T10:20:49Z</time>
      </trkpt>
      <trkpt lat="46.7494" lon="5.5349">
        <ele>289.7</ele>
        <time>2020-02-18T10:20:53Z</time>
      </trkpt>
      <trkpt lat="46.74945" lon="5.53493">
        <ele>289.3</ele>
        <time>2020-02-18T10:20:57Z</time>
      </trkpt>
      <trkpt lat="46.7495" lon="5.53495">
        <ele>288.7</ele>
        <time>2020-02-18T10:21:02Z</time>
      </trkpt>
      <trkpt lat="46.74954" lon="5.53497">
        <ele>288.3</ele>
        <time>2020-02-18T10:21:06Z</time>
      </trkpt>
      <trkpt lat="46.74958" lon="5.535">
        <ele>287.7</ele>
        <time>2020-02-18T10:21:12Z</time>
      </trkpt>
      <trkpt lat="46.74962" lon="5.53504">
        <ele>287.2</ele>
        <time>2020-02-18T10:21:17Z</time>
      </trkpt>
      <trkpt lat="46.74966" lon="5.53508">
        <ele>286.9</ele>
        <time>2020-02-18T10:21:20Z</time>
      </trkpt>
      <trkpt lat="46.74971" lon="5.53513">
        <ele>286.5</ele>
        <time>2020-02-18T10:21:23Z</time>
      </trkpt>
      <trkpt lat="46.74976" lon="5.53519">
        <ele>286.2</ele>
        <time>2020-02-18T10:21:26Z</time>
      </trkpt>
      <trkpt lat="46.7498" lon="5.53523">
        <ele>285.8</ele>
        <time>2020-02-18T10:21:29Z</time>
      </trkpt>
      <trkpt lat="46.74983" lon="5.53528">
        <ele>285.5</ele>
        <time>2020-02-18T10:21:32Z</time>
      </trkpt>
      <trkpt lat="46.74987" lon="5.53535">
        <ele>285.1</ele>
        <time>2020-02-18T10:21:35Z</time>
      </trkpt>
      <trkpt lat="46.7499" lon="5.53542">
        <ele>284.5</ele>
        <time>2020-02-18T10:21:39Z</time>
      </trkpt>
      <trkpt lat="46.74991" lon="5.53549">
        <ele>283.7</ele>
        <time>2020-02-18T10:21:43Z</time>
      </trkpt>
      <trkpt lat="46.74994" lon="5.53556">
        <ele>282.6</ele>
        <time>2020-02-18T10:21:48Z</time>
      </trkpt>
      <trkpt lat="46.74995" lon="5.53563">
        <ele>281.6</ele>
        <time>2020-02-18T10:21:53Z</time>
      </trkpt>
      <trkpt lat="46.74999" lon="5.5357">
        <ele>280.9</ele>
        <time>2020-02-18T10:21:57Z</time>
      </trkpt>
      <trkpt lat="46.75003" lon="5.53575">
        <ele>280.1</ele>
        <time>2020-02-18T10:22:01Z</time>
      </trkpt>
      <trkpt lat="46.75006" lon="5.53581">
        <ele>279.5</ele>
        <time>2020-02-18T10:22:05Z</time>
      </trkpt>
      <trkpt lat="46.75009" lon="5.53587">
        <ele>278.6</ele>
        <time>2020-02-18T10:22:11Z</time>
      </trkpt>
      <trkpt lat="46.7501" lon="5.53595">
        <ele>278.1</ele>
        <time>2020-02-18T10:22:17Z</time>
      </trkpt>
      <trkpt lat="46.7501" lon="5.53602">
        <ele>277.9</ele>
        <time>2020-02-18T10:22:21Z</time>
      </trkpt>
      <trkpt lat="46.7501" lon="5.53609">
        <ele>277.4</ele>
        <time>2020-02-18T10:22:26Z</time>
      </trkpt>
      <trkpt lat="46.75009" lon="5.53616">
        <ele>276.9</ele>
        <time>2020-02-18T10:22:31Z</time>
      </trkpt>
      <trkpt lat="46.75006" lon="5.53624">
        <ele>276.3</ele>
        <time>2020-02-18T10:22:36Z</time>
      </trkpt>
      <trkpt lat="46.75004" lon="5.5363">
        <ele>275.7</ele>
        <time>2020-02-18T10:22:40Z</time>
      </trkpt>
      <trkpt lat="46.75003" lon="5.53638">
        <ele>275</ele>
        <time>2020-02-18T10:22:44Z</time>
      </trkpt>
      <trkpt lat="46.75001" lon="5.53645">
        <ele>274.3</ele>
        <time>2020-02-18T10:22:48Z</time>
      </trkpt>
      <trkpt lat="46.75001" lon="5.53652">
        <ele>273.4</ele>
        <time>2020-02-18T10:22:53Z</time>
      </trkpt>
      <trkpt lat="46.75002" lon="5.53659">
        <ele>272.5</ele>
        <time>2020-02-18T10:22:59Z</time>
      </trkpt>
      <trkpt lat="46.75002" lon="5.53667">
        <ele>272.1</ele>
        <time>2020-02-18T10:23:03Z</time>
      </trkpt>
      <trkpt lat="46.75001" lon="5.53676">
        <ele>271.7</ele>
        <time>2020-02-18T10:23:07Z</time>
      </trkpt>
      <trkpt lat="46.75" lon="5.53684">
        <ele>271.5</ele>
        <time>2020-02-18T10:23:18Z</time>
      </trkpt>
      <trkpt lat="46.74998" lon="5.53691">
        <ele>272.2</ele>
        <time>2020-02-18T10:23:23Z</time>
      </trkpt>
      <trkpt lat="46.74996" lon="5.53698">
        <ele>272.8</ele>
        <time>2020-02-18T10:23:27Z</time>
      </trkpt>
      <trkpt lat="46.74997" lon="5.53704">
        <ele>274.6</ele>
        <time>2020-02-18T10:23:44Z</time>
      </trkpt>
      <trkpt lat="46.74999" lon="5.53711">
        <ele>276.1</ele>
        <time>2020-02-18T10:23:55Z</time>
      </trkpt>
      <trkpt lat="46.74999" lon="5.53718">
        <ele>276.7</ele>
        <time>2020-02-18T10:24:00Z</time>
      </trkpt>
      <trkpt lat="46.74998" lon="5.53726">
        <ele>277.2</ele>
        <time>2020-02-18T10:24:06Z</time>
      </trkpt>
      <trkpt lat="46.74998" lon="5.53734">
        <ele>277.4</ele>
        <time>2020-02-18T10:24:11Z</time>
      </trkpt>
      <trkpt lat="46.74997" lon="5.53741">
        <ele>277.4</ele>
        <time>2020-02-18T10:24:16Z</time>
      </trkpt>
      <trkpt lat="46.74998" lon="5.53748">
        <ele>277.2</ele>
        <time>2020-02-18T10:24:24Z</time>
      </trkpt>
      <trkpt lat="46.74997" lon="5.53756">
        <ele>276.5</ele>
        <time>2020-02-18T10:24:30Z</time>
      </trkpt>
      <trkpt lat="46.74996" lon="5.53764">
        <ele>275.8</ele>
        <time>2020-02-18T10:24:34Z</time>
      </trkpt>
      <trkpt lat="46.74994" lon="5.53772">
        <ele>275</ele>
        <time>2020-02-18T10:24:39Z</time>
      </trkpt>
      <trkpt lat="46.74994" lon="5.53778">
        <ele>274.2</ele>
        <time>2020-02-18T10:24:44Z</time>
      </trkpt>
      <trkpt lat="46.74991" lon="5.53785">
        <ele>273.4</ele>
        <time>2020-02-18T10:24:50Z</time>
      </trkpt>
      <trkpt lat="46.74989" lon="5.53791">
        <ele>273</ele>
        <time>2020-02-18T10:24:55Z</time>
      </trkpt>
      <trkpt lat="46.74987" lon="5.53799">
        <ele>272.7</ele>
        <time>2020-02-18T10:24:59Z</time>
      </trkpt>
      <trkpt lat="46.74985" lon="5.53807">
        <ele>272.5</ele>
        <time>2020-02-18T10:25:03Z</time>
      </trkpt>
      <trkpt lat="46.74983" lon="5.53814">
        <ele>272.5</ele>
        <time>2020-02-18T10:25:07Z</time>
      </trkpt>
      <trkpt lat="46.74982" lon="5.53821">
        <ele>272.5</ele>
        <time>2020-02-18T10:25:12Z</time>
      </trkpt>
      <trkpt lat="46.7498" lon="5.53829">
        <ele>272.4</ele>
        <time>2020-02-18T10:25:16Z</time>
      </trkpt>
      <trkpt lat="46.74979" lon="5.53838">
        <ele>272.2</ele>
        <time>2020-02-18T10:25:20Z</time>
      </trkpt>
      <trkpt lat="46.74977" lon="5.53845">
        <ele>272.1</ele>
        <time>2020-02-18T10:25:23Z</time>
      </trkpt>
      <trkpt lat="46.74975" lon="5.53853">
        <ele>272.1</ele>
        <time>2020-02-18T10:25:27Z</time>
      </trkpt>
      <trkpt lat="46.74974" lon="5.5386">
        <ele>272.3</ele>
        <time>2020-02-18T10:25:31Z</time>
      </trkpt>
      <trkpt lat="46.74973" lon="5.53868">
        <ele>272.8</ele>
        <time>2020-02-18T10:25:35Z</time>
      </trkpt>
      <trkpt lat="46.74975" lon="5.53874">
        <ele>273.5</ele>
        <time>2020-02-18T10:25:40Z</time>
      </trkpt>
      <trkpt lat="46.74978" lon="5.53881">
        <ele>274.3</ele>
        <time>2020-02-18T10:25:44Z</time>
      </trkpt>
      <trkpt lat="46.74981" lon="5.53886">
        <ele>275.4</ele>
        <time>2020-02-18T10:25:48Z</time>
      </trkpt>
      <trkpt lat="46.74985" lon="5.53889">
        <ele>276.3</ele>
        <time>2020-02-18T10:25:52Z</time>
      </trkpt>
      <trkpt lat="46.7499" lon="5.53892">
        <ele>277.6</ele>
        <time>2020-02-18T10:25:57Z</time>
      </trkpt>
      <trkpt lat="46.74994" lon="5.53895">
        <ele>278.6</ele>
        <time>2020-02-18T10:26:01Z</time>
      </trkpt>
      <trkpt lat="46.74999" lon="5.53898">
        <ele>279.9</ele>
        <time>2020-02-18T10:26:07Z</time>
      </trkpt>
      <trkpt lat="46.75003" lon="5.539">
        <ele>280.9</ele>
        <time>2020-02-18T10:26:13Z</time>
      </trkpt>
      <trkpt lat="46.75014" lon="5.53906">
        <ele>282.7</ele>
        <time>2020-02-18T10:26:23Z</time>
      </trkpt>
      <trkpt lat="46.75019" lon="5.53909">
        <ele>283.2</ele>
        <time>2020-02-18T10:26:29Z</time>
      </trkpt>
      <trkpt lat="46.75023" lon="5.5391">
        <ele>283.7</ele>
        <time>2020-02-18T10:26:34Z</time>
      </trkpt>
      <trkpt lat="46.75028" lon="5.53912">
        <ele>284.1</ele>
        <time>2020-02-18T10:26:38Z</time>
      </trkpt>
      <trkpt lat="46.75032" lon="5.53914">
        <ele>284.4</ele>
        <time>2020-02-18T10:26:42Z</time>
      </trkpt>
      <trkpt lat="46.75037" lon="5.53917">
        <ele>284.6</ele>
        <time>2020-02-18T10:26:46Z</time>
      </trkpt>
      <trkpt lat="46.75043" lon="5.53919">
        <ele>284.7</ele>
        <time>2020-02-18T10:26:50Z</time>
      </trkpt>
      <trkpt lat="46.75048" lon="5.53923">
        <ele>284.7</ele>
        <time>2020-02-18T10:26:55Z</time>
      </trkpt>
      <trkpt lat="46.75052" lon="5.53926">
        <ele>284.7</ele>
        <time>2020-02-18T10:27:01Z</time>
      </trkpt>
      <trkpt lat="46.75057" lon="5.53928">
        <ele>284.6</ele>
        <time>2020-02-18T10:27:05Z</time>
      </trkpt>
      <trkpt lat="46.75062" lon="5.5393">
        <ele>284.8</ele>
        <time>2020-02-18T10:27:09Z</time>
      </trkpt>
      <trkpt lat="46.75067" lon="5.53932">
        <ele>285</ele>
        <time>2020-02-18T10:27:13Z</time>
      </trkpt>
      <trkpt lat="46.75072" lon="5.53935">
        <ele>285.6</ele>
        <time>2020-02-18T10:27:18Z</time>
      </trkpt>
      <trkpt lat="46.75077" lon="5.53938">
        <ele>286.1</ele>
        <time>2020-02-18T10:27:22Z</time>
      </trkpt>
      <trkpt lat="46.75081" lon="5.5394">
        <ele>286.4</ele>
        <time>2020-02-18T10:27:26Z</time>
      </trkpt>
      <trkpt lat="46.75086" lon="5.53942">
        <ele>286.6</ele>
        <time>2020-02-18T10:27:30Z</time>
      </trkpt>
      <trkpt lat="46.75091" lon="5.53945">
        <ele>286.6</ele>
        <time>2020-02-18T10:27:34Z</time>
      </trkpt>
      <trkpt lat="46.75095" lon="5.53948">
        <ele>286.5</ele>
        <time>2020-02-18T10:27:39Z</time>
      </trkpt>
      <trkpt lat="46.751" lon="5.53949">
        <ele>286.1</ele>
        <time>2020-02-18T10:27:45Z</time>
      </trkpt>
      <trkpt lat="46.75104" lon="5.53952">
        <ele>285.7</ele>
        <time>2020-02-18T10:27:51Z</time>
      </trkpt>
      <trkpt lat="46.75109" lon="5.53954">
        <ele>285.2</ele>
        <time>2020-02-18T10:27:57Z</time>
      </trkpt>
      <trkpt lat="46.75114" lon="5.53956">
        <ele>284.4</ele>
        <time>2020-02-18T10:28:03Z</time>
      </trkpt>
      <trkpt lat="46.7512" lon="5.53958">
        <ele>283.9</ele>
        <time>2020-02-18T10:28:07Z</time>
      </trkpt>
      <trkpt lat="46.75125" lon="5.5396">
        <ele>283.6</ele>
        <time>2020-02-18T10:28:10Z</time>
      </trkpt>
      <trkpt lat="46.7513" lon="5.53962">
        <ele>283.5</ele>
        <time>2020-02-18T10:28:14Z</time>
      </trkpt>
      <trkpt lat="46.75134" lon="5.53964">
        <ele>282.9</ele>
        <time>2020-02-18T10:28:22Z</time>
      </trkpt>
      <trkpt lat="46.75138" lon="5.53959">
        <ele>282.6</ele>
        <time>2020-02-18T10:28:29Z</time>
      </trkpt>
      <trkpt lat="46.75142" lon="5.53954">
        <ele>282.3</ele>
        <time>2020-02-18T10:28:35Z</time>
      </trkpt>
      <trkpt lat="46.75143" lon="5.53946">
        <ele>282.1</ele>
        <time>2020-02-18T10:28:42Z</time>
      </trkpt>
      <trkpt lat="46.75144" lon="5.53939">
        <ele>282.1</ele>
        <time>2020-02-18T10:28:47Z</time>
      </trkpt>
      <trkpt lat="46.75146" lon="5.53933">
        <ele>282.2</ele>
        <time>2020-02-18T10:28:53Z</time>
      </trkpt>
      <trkpt lat="46.75147" lon="5.53926">
        <ele>282.2</ele>
        <time>2020-02-18T10:28:58Z</time>
      </trkpt>
      <trkpt lat="46.75148" lon="5.53919">
        <ele>282.4</ele>
        <time>2020-02-18T10:29:03Z</time>
      </trkpt>
      <trkpt lat="46.75149" lon="5.53912">
        <ele>282.6</ele>
        <time>2020-02-18T10:29:08Z</time>
      </trkpt>
      <trkpt lat="46.75149" lon="5.53904">
        <ele>282.7</ele>
        <time>2020-02-18T10:29:13Z</time>
      </trkpt>
      <trkpt lat="46.75149" lon="5.53898">
        <ele>282.9</ele>
        <time>2020-02-18T10:29:18Z</time>
      </trkpt>
      <trkpt lat="46.7515" lon="5.5389">
        <ele>283.2</ele>
        <time>2020-02-18T10:29:23Z</time>
      </trkpt>
      <trkpt lat="46.7515" lon="5.53883">
        <ele>283.5</ele>
        <time>2020-02-18T10:29:27Z</time>
      </trkpt>
      <trkpt lat="46.75151" lon="5.53876">
        <ele>283.8</ele>
        <time>2020-02-18T10:29:31Z</time>
      </trkpt>
      <trkpt lat="46.75153" lon="5.53869">
        <ele>284.2</ele>
        <time>2020-02-18T10:29:36Z</time>
      </trkpt>
      <trkpt lat="46.75155" lon="5.53863">
        <ele>284.5</ele>
        <time>2020-02-18T10:29:41Z</time>
      </trkpt>
      <trkpt lat="46.75158" lon="5.53858">
        <ele>284.8</ele>
        <time>2020-02-18T10:29:46Z</time>
      </trkpt>
      <trkpt lat="46.75161" lon="5.53852">
        <ele>285.1</ele>
        <time>2020-02-18T10:29:50Z</time>
      </trkpt>
      <trkpt lat="46.75165" lon="5.53848">
        <ele>285.5</ele>
        <time>2020-02-18T10:29:55Z</time>
      </trkpt>
      <trkpt lat="46.7517" lon="5.53843">
        <ele>285.8</ele>
        <time>2020-02-18T10:30:00Z</time>
      </trkpt>
      <trkpt lat="46.75174" lon="5.53839">
        <ele>285.9</ele>
        <time>2020-02-18T10:30:04Z</time>
      </trkpt>
      <trkpt lat="46.75178" lon="5.53835">
        <ele>285.8</ele>
        <time>2020-02-18T10:30:09Z</time>
      </trkpt>
      <trkpt lat="46.75183" lon="5.53831">
        <ele>285.6</ele>
        <time>2020-02-18T10:30:13Z</time>
      </trkpt>
      <trkpt lat="46.75187" lon="5.53827">
        <ele>285.2</ele>
        <time>2020-02-18T10:30:18Z</time>
      </trkpt>
      <trkpt lat="46.75191" lon="5.53823">
        <ele>284.8</ele>
        <time>2020-02-18T10:30:22Z</time>
      </trkpt>
      <trkpt lat="46.75194" lon="5.53818">
        <ele>284.4</ele>
        <time>2020-02-18T10:30:28Z</time>
      </trkpt>
      <trkpt lat="46.75197" lon="5.53812">
        <ele>284.1</ele>
        <time>2020-02-18T10:30:33Z</time>
      </trkpt>
      <trkpt lat="46.752" lon="5.53806">
        <ele>284</ele>
        <time>2020-02-18T10:30:37Z</time>
      </trkpt>
      <trkpt lat="46.75203" lon="5.538">
        <ele>284</ele>
        <time>2020-02-18T10:30:43Z</time>
      </trkpt>
      <trkpt lat="46.75206" lon="5.53794">
        <ele>284</ele>
        <time>2020-02-18T10:30:49Z</time>
      </trkpt>
      <trkpt lat="46.75208" lon="5.53787">
        <ele>283.9</ele>
        <time>2020-02-18T10:30:54Z</time>
      </trkpt>
      <trkpt lat="46.75211" lon="5.53781">
        <ele>283.7</ele>
        <time>2020-02-18T10:30:59Z</time>
      </trkpt>
      <trkpt lat="46.75213" lon="5.53775">
        <ele>283.4</ele>
        <time>2020-02-18T10:31:04Z</time>
      </trkpt>
      <trkpt lat="46.75217" lon="5.53768">
        <ele>282.9</ele>
        <time>2020-02-18T10:31:10Z</time>
      </trkpt>
      <trkpt lat="46.75219" lon="5.53762">
        <ele>282.7</ele>
        <time>2020-02-18T10:31:13Z</time>
      </trkpt>
      <trkpt lat="46.75222" lon="5.53756">
        <ele>282.3</ele>
        <time>2020-02-18T10:31:17Z</time>
      </trkpt>
      <trkpt lat="46.75224" lon="5.53749">
        <ele>281.9</ele>
        <time>2020-02-18T10:31:21Z</time>
      </trkpt>
      <trkpt lat="46.75226" lon="5.53743">
        <ele>281.6</ele>
        <time>2020-02-18T10:31:24Z</time>
      </trkpt>
      <trkpt lat="46.75228" lon="5.53736">
        <ele>281.4</ele>
        <time>2020-02-18T10:31:27Z</time>
      </trkpt>
      <trkpt lat="46.75231" lon="5.5373">
        <ele>281</ele>
        <time>2020-02-18T10:31:31Z</time>
      </trkpt>
      <trkpt lat="46.75235" lon="5.53724">
        <ele>280.4</ele>
        <time>2020-02-18T10:31:36Z</time>
      </trkpt>
      <trkpt lat="46.75238" lon="5.53718">
        <ele>280</ele>
        <time>2020-02-18T10:31:41Z</time>
      </trkpt>
      <trkpt lat="46.75241" lon="5.53712">
        <ele>279.5</ele>
        <time>2020-02-18T10:31:46Z</time>
      </trkpt>
      <trkpt lat="46.75243" lon="5.53705">
        <ele>279.1</ele>
        <time>2020-02-18T10:31:50Z</time>
      </trkpt>
      <trkpt lat="46.75245" lon="5.53698">
        <ele>278.7</ele>
        <time>2020-02-18T10:31:55Z</time>
      </trkpt>
      <trkpt lat="46.75247" lon="5.53691">
        <ele>278.2</ele>
        <time>2020-02-18T10:32:01Z</time>
      </trkpt>
      <trkpt lat="46.75249" lon="5.53685">
        <ele>277.7</ele>
        <time>2020-02-18T10:32:06Z</time>
      </trkpt>
      <trkpt lat="46.75252" lon="5.53679">
        <ele>277.5</ele>
        <time>2020-02-18T10:32:09Z</time>
      </trkpt>
      <trkpt lat="46.75254" lon="5.53673">
        <ele>277.1</ele>
        <time>2020-02-18T10:32:13Z</time>
      </trkpt>
      <trkpt lat="46.75257" lon="5.53667">
        <ele>276.7</ele>
        <time>2020-02-18T10:32:17Z</time>
      </trkpt>
      <trkpt lat="46.7526" lon="5.53662">
        <ele>276.4</ele>
        <time>2020-02-18T10:32:21Z</time>
      </trkpt>
      <trkpt lat="46.75263" lon="5.53655">
        <ele>276.1</ele>
        <time>2020-02-18T10:32:26Z</time>
      </trkpt>
      <trkpt lat="46.75266" lon="5.53649">
        <ele>276</ele>
        <time>2020-02-18T10:32:31Z</time>
      </trkpt>
      <trkpt lat="46.75269" lon="5.53643">
        <ele>276.1</ele>
        <time>2020-02-18T10:32:36Z</time>
      </trkpt>
      <trkpt lat="46.75273" lon="5.53637">
        <ele>276.2</ele>
        <time>2020-02-18T10:32:41Z</time>
      </trkpt>
      <trkpt lat="46.75276" lon="5.53631">
        <ele>276.2</ele>
        <time>2020-02-18T10:32:45Z</time>
      </trkpt>
      <trkpt lat="46.75279" lon="5.53624">
        <ele>276.3</ele>
        <time>2020-02-18T10:32:50Z</time>
      </trkpt>
      <trkpt lat="46.75282" lon="5.53618">
        <ele>276.3</ele>
        <time>2020-02-18T10:32:54Z</time>
      </trkpt>
      <trkpt lat="46.75286" lon="5.53613">
        <ele>276.3</ele>
        <time>2020-02-18T10:32:59Z</time>
      </trkpt>
      <trkpt lat="46.7529" lon="5.53607">
        <ele>276.2</ele>
        <time>2020-02-18T10:33:03Z</time>
      </trkpt>
      <trkpt lat="46.75293" lon="5.53601">
        <ele>276.2</ele>
        <time>2020-02-18T10:33:08Z</time>
      </trkpt>
      <trkpt lat="46.75296" lon="5.53595">
        <ele>276.4</ele>
        <time>2020-02-18T10:33:15Z</time>
      </trkpt>
      <trkpt lat="46.753" lon="5.53589">
        <ele>276.5</ele>
        <time>2020-02-18T10:33:19Z</time>
      </trkpt>
      <trkpt lat="46.75303" lon="5.53583">
        <ele>276.5</ele>
        <time>2020-02-18T10:33:24Z</time>
      </trkpt>
      <trkpt lat="46.75306" lon="5.53576">
        <ele>276.5</ele>
        <time>2020-02-18T10:33:29Z</time>
      </trkpt>
      <trkpt lat="46.7531" lon="5.53571">
        <ele>276.7</ele>
        <time>2020-02-18T10:33:33Z</time>
      </trkpt>
      <trkpt lat="46.75314" lon="5.53567">
        <ele>276.9</ele>
        <time>2020-02-18T10:33:38Z</time>
      </trkpt>
      <trkpt lat="46.75319" lon="5.53563">
        <ele>277.2</ele>
        <time>2020-02-18T10:33:42Z</time>
      </trkpt>
      <trkpt lat="46.75323" lon="5.5356">
        <ele>277.5</ele>
        <time>2020-02-18T10:33:47Z</time>
      </trkpt>
      <trkpt lat="46.75328" lon="5.53558">
        <ele>277.6</ele>
        <time>2020-02-18T10:33:51Z</time>
      </trkpt>
      <trkpt lat="46.75333" lon="5.53556">
        <ele>277.7</ele>
        <time>2020-02-18T10:33:56Z</time>
      </trkpt>
      <trkpt lat="46.75337" lon="5.53556">
        <ele>277.8</ele>
        <time>2020-02-18T10:34:00Z</time>
      </trkpt>
      <trkpt lat="46.75342" lon="5.53554">
        <ele>277.8</ele>
        <time>2020-02-18T10:34:05Z</time>
      </trkpt>
      <trkpt lat="46.75348" lon="5.53551">
        <ele>277.9</ele>
        <time>2020-02-18T10:34:10Z</time>
      </trkpt>
      <trkpt lat="46.75353" lon="5.53549">
        <ele>278</ele>
        <time>2020-02-18T10:34:15Z</time>
      </trkpt>
      <trkpt lat="46.75358" lon="5.53546">
        <ele>278.1</ele>
        <time>2020-02-18T10:34:20Z</time>
      </trkpt>
      <trkpt lat="46.75362" lon="5.53544">
        <ele>278.2</ele>
        <time>2020-02-18T10:34:25Z</time>
      </trkpt>
      <trkpt lat="46.75367" lon="5.5354">
        <ele>278.3</ele>
        <time>2020-02-18T10:34:30Z</time>
      </trkpt>
      <trkpt lat="46.75371" lon="5.53538">
        <ele>278.5</ele>
        <time>2020-02-18T10:34:34Z</time>
      </trkpt>
      <trkpt lat="46.75376" lon="5.5354">
        <ele>278.7</ele>
        <time>2020-02-18T10:34:41Z</time>
      </trkpt>
      <trkpt lat="46.7538" lon="5.53544">
        <ele>278.7</ele>
        <time>2020-02-18T10:34:50Z</time>
      </trkpt>
      <trkpt lat="46.75383" lon="5.53549">
        <ele>278.9</ele>
        <time>2020-02-18T10:34:56Z</time>
      </trkpt>
      <trkpt lat="46.75386" lon="5.53553">
        <ele>279</ele>
        <time>2020-02-18T10:35:02Z</time>
      </trkpt>
      <trkpt lat="46.75391" lon="5.53557">
        <ele>279.3</ele>
        <time>2020-02-18T10:35:08Z</time>
      </trkpt>
      <trkpt lat="46.75395" lon="5.53561">
        <ele>279.5</ele>
        <time>2020-02-18T10:35:13Z</time>
      </trkpt>
      <trkpt lat="46.754" lon="5.53564">
        <ele>279.7</ele>
        <time>2020-02-18T10:35:17Z</time>
      </trkpt>
      <trkpt lat="46.75404" lon="5.53567">
        <ele>279.9</ele>
        <time>2020-02-18T10:35:22Z</time>
      </trkpt>
      <trkpt lat="46.75409" lon="5.5357">
        <ele>280</ele>
        <time>2020-02-18T10:35:26Z</time>
      </trkpt>
      <trkpt lat="46.75413" lon="5.53573">
        <ele>280.1</ele>
        <time>2020-02-18T10:35:31Z</time>
      </trkpt>
      <trkpt lat="46.75418" lon="5.53577">
        <ele>280.6</ele>
        <time>2020-02-18T10:35:37Z</time>
      </trkpt>
      <trkpt lat="46.75423" lon="5.53578">
        <ele>280.8</ele>
        <time>2020-02-18T10:35:41Z</time>
      </trkpt>
      <trkpt lat="46.75428" lon="5.53578">
        <ele>281.2</ele>
        <time>2020-02-18T10:35:46Z</time>
      </trkpt>
      <trkpt lat="46.75434" lon="5.53576">
        <ele>281.7</ele>
        <time>2020-02-18T10:35:51Z</time>
      </trkpt>
      <trkpt lat="46.75438" lon="5.53572">
        <ele>282.1</ele>
        <time>2020-02-18T10:35:54Z</time>
      </trkpt>
      <trkpt lat="46.75441" lon="5.53567">
        <ele>282.5</ele>
        <time>2020-02-18T10:35:58Z</time>
      </trkpt>
      <trkpt lat="46.75444" lon="5.53561">
        <ele>283.1</ele>
        <time>2020-02-18T10:36:04Z</time>
      </trkpt>
      <trkpt lat="46.75447" lon="5.53555">
        <ele>283.4</ele>
        <time>2020-02-18T10:36:09Z</time>
      </trkpt>
      <trkpt lat="46.7545" lon="5.53547">
        <ele>283.7</ele>
        <time>2020-02-18T10:36:13Z</time>
      </trkpt>
      <trkpt lat="46.75453" lon="5.53541">
        <ele>284.1</ele>
        <time>2020-02-18T10:36:18Z</time>
      </trkpt>
      <trkpt lat="46.75455" lon="5.53535">
        <ele>284.6</ele>
        <time>2020-02-18T10:36:23Z</time>
      </trkpt>
      <trkpt lat="46.75458" lon="5.53529">
        <ele>285.1</ele>
        <time>2020-02-18T10:36:28Z</time>
      </trkpt>
      <trkpt lat="46.75461" lon="5.53523">
        <ele>285.2</ele>
        <time>2020-02-18T10:36:32Z</time>
      </trkpt>
      <trkpt lat="46.75464" lon="5.53518">
        <ele>285.4</ele>
        <time>2020-02-18T10:36:36Z</time>
      </trkpt>
      <trkpt lat="46.75468" lon="5.53513">
        <ele>285.5</ele>
        <time>2020-02-18T10:36:41Z</time>
      </trkpt>
      <trkpt lat="46.75472" lon="5.5351">
        <ele>285.5</ele>
        <time>2020-02-18T10:36:45Z</time>
      </trkpt>
      <trkpt lat="46.75477" lon="5.53509">
        <ele>285.6</ele>
        <time>2020-02-18T10:36:51Z</time>
      </trkpt>
      <trkpt lat="46.75481" lon="5.53511">
        <ele>285.9</ele>
        <time>2020-02-18T10:36:56Z</time>
      </trkpt>
      <trkpt lat="46.75486" lon="5.53514">
        <ele>286.3</ele>
        <time>2020-02-18T10:37:01Z</time>
      </trkpt>
      <trkpt lat="46.7549" lon="5.53517">
        <ele>286.6</ele>
        <time>2020-02-18T10:37:05Z</time>
      </trkpt>
      <trkpt lat="46.75495" lon="5.53519">
        <ele>287</ele>
        <time>2020-02-18T10:37:10Z</time>
      </trkpt>
      <trkpt lat="46.75499" lon="5.53524">
        <ele>287.5</ele>
        <time>2020-02-18T10:37:16Z</time>
      </trkpt>
      <trkpt lat="46.75504" lon="5.53527">
        <ele>287.8</ele>
        <time>2020-02-18T10:37:21Z</time>
      </trkpt>
      <trkpt lat="46.75509" lon="5.53531">
        <ele>288.2</ele>
        <time>2020-02-18T10:37:26Z</time>
      </trkpt>
      <trkpt lat="46.75514" lon="5.53535">
        <ele>288.5</ele>
        <time>2020-02-18T10:37:30Z</time>
      </trkpt>
      <trkpt lat="46.75518" lon="5.53538">
        <ele>288.8</ele>
        <time>2020-02-18T10:37:35Z</time>
      </trkpt>
      <trkpt lat="46.75523" lon="5.53541">
        <ele>289.2</ele>
        <time>2020-02-18T10:37:42Z</time>
      </trkpt>
      <trkpt lat="46.75527" lon="5.53545">
        <ele>289.2</ele>
        <time>2020-02-18T10:37:47Z</time>
      </trkpt>
      <trkpt lat="46.75532" lon="5.53549">
        <ele>289.3</ele>
        <time>2020-02-18T10:37:52Z</time>
      </trkpt>
      <trkpt lat="46.75536" lon="5.53553">
        <ele>289.5</ele>
        <time>2020-02-18T10:37:56Z</time>
      </trkpt>
      <trkpt lat="46.75541" lon="5.53556">
        <ele>289.9</ele>
        <time>2020-02-18T10:38:01Z</time>
      </trkpt>
      <trkpt lat="46.75546" lon="5.53559">
        <ele>290.4</ele>
        <time>2020-02-18T10:38:07Z</time>
      </trkpt>
      <trkpt lat="46.7555" lon="5.53562">
        <ele>291</ele>
        <time>2020-02-18T10:38:13Z</time>
      </trkpt>
      <trkpt lat="46.75555" lon="5.53564">
        <ele>291.7</ele>
        <time>2020-02-18T10:38:19Z</time>
      </trkpt>
      <trkpt lat="46.75559" lon="5.53567">
        <ele>292.1</ele>
        <time>2020-02-18T10:38:23Z</time>
      </trkpt>
      <trkpt lat="46.75564" lon="5.5357">
        <ele>292.5</ele>
        <time>2020-02-18T10:38:28Z</time>
      </trkpt>
      <trkpt lat="46.7557" lon="5.53571">
        <ele>293</ele>
        <time>2020-02-18T10:38:32Z</time>
      </trkpt>
      <trkpt lat="46.75575" lon="5.53572">
        <ele>293.5</ele>
        <time>2020-02-18T10:38:37Z</time>
      </trkpt>
      <trkpt lat="46.75579" lon="5.5357">
        <ele>294.1</ele>
        <time>2020-02-18T10:38:43Z</time>
      </trkpt>
      <trkpt lat="46.75584" lon="5.53567">
        <ele>294.7</ele>
        <time>2020-02-18T10:38:48Z</time>
      </trkpt>
      <trkpt lat="46.75589" lon="5.53564">
        <ele>295.6</ele>
        <time>2020-02-18T10:38:54Z</time>
      </trkpt>
      <trkpt lat="46.75593" lon="5.53565">
        <ele>296.8</ele>
        <time>2020-02-18T10:39:01Z</time>
      </trkpt>
      <trkpt lat="46.75598" lon="5.53567">
        <ele>297.8</ele>
        <time>2020-02-18T10:39:07Z</time>
      </trkpt>
      <trkpt lat="46.75602" lon="5.53567">
        <ele>299.6</ele>
        <time>2020-02-18T10:39:18Z</time>
      </trkpt>
      <trkpt lat="46.75607" lon="5.53566">
        <ele>301.6</ele>
        <time>2020-02-18T10:39:28Z</time>
      </trkpt>
      <trkpt lat="46.75612" lon="5.53565">
        <ele>303.4</ele>
        <time>2020-02-18T10:39:36Z</time>
      </trkpt>
      <trkpt lat="46.75611" lon="5.53565">
        <ele>311</ele>
        <time>2020-02-18T10:40:51Z</time>
      </trkpt>
      <trkpt lat="46.75612" lon="5.53572">
        <ele>310.6</ele>
        <time>2020-02-18T10:40:56Z</time>
      </trkpt>
      <trkpt lat="46.75613" lon="5.53579">
        <ele>309</ele>
        <time>2020-02-18T10:41:48Z</time>
      </trkpt>
      <trkpt lat="46.75614" lon="5.53586">
        <ele>308.7</ele>
        <time>2020-02-18T10:41:53Z</time>
      </trkpt>
      <trkpt lat="46.75616" lon="5.53601">
        <ele>308.3</ele>
        <time>2020-02-18T10:42:01Z</time>
      </trkpt>
      <trkpt lat="46.75617" lon="5.53607">
        <ele>308.4</ele>
        <time>2020-02-18T10:42:05Z</time>
      </trkpt>
      <trkpt lat="46.75619" lon="5.53613">
        <ele>308.5</ele>
        <time>2020-02-18T10:42:09Z</time>
      </trkpt>
      <trkpt lat="46.75622" lon="5.53618">
        <ele>308.3</ele>
        <time>2020-02-18T10:42:15Z</time>
      </trkpt>
      <trkpt lat="46.75625" lon="5.53624">
        <ele>308.1</ele>
        <time>2020-02-18T10:42:20Z</time>
      </trkpt>
      <trkpt lat="46.75628" lon="5.5363">
        <ele>307.9</ele>
        <time>2020-02-18T10:42:24Z</time>
      </trkpt>
      <trkpt lat="46.75629" lon="5.53638">
        <ele>307.8</ele>
        <time>2020-02-18T10:42:28Z</time>
      </trkpt>
      <trkpt lat="46.7563" lon="5.53646">
        <ele>307.8</ele>
        <time>2020-02-18T10:42:32Z</time>
      </trkpt>
      <trkpt lat="46.7563" lon="5.53654">
        <ele>307.9</ele>
        <time>2020-02-18T10:42:37Z</time>
      </trkpt>
      <trkpt lat="46.75632" lon="5.53661">
        <ele>308.1</ele>
        <time>2020-02-18T10:42:44Z</time>
      </trkpt>
      <trkpt lat="46.75634" lon="5.53668">
        <ele>308.2</ele>
        <time>2020-02-18T10:42:51Z</time>
      </trkpt>
      <trkpt lat="46.75636" lon="5.53675">
        <ele>308.2</ele>
        <time>2020-02-18T10:42:56Z</time>
      </trkpt>
      <trkpt lat="46.7564" lon="5.53679">
        <ele>308.1</ele>
        <time>2020-02-18T10:43:01Z</time>
      </trkpt>
      <trkpt lat="46.75643" lon="5.53686">
        <ele>308</ele>
        <time>2020-02-18T10:43:07Z</time>
      </trkpt>
      <trkpt lat="46.75644" lon="5.53693">
        <ele>308</ele>
        <time>2020-02-18T10:43:13Z</time>
      </trkpt>
      <trkpt lat="46.75647" lon="5.537">
        <ele>308.2</ele>
        <time>2020-02-18T10:43:19Z</time>
      </trkpt>
      <trkpt lat="46.75649" lon="5.53707">
        <ele>308.6</ele>
        <time>2020-02-18T10:43:23Z</time>
      </trkpt>
      <trkpt lat="46.75652" lon="5.53713">
        <ele>308.9</ele>
        <time>2020-02-18T10:43:27Z</time>
      </trkpt>
      <trkpt lat="46.75655" lon="5.53719">
        <ele>309.2</ele>
        <time>2020-02-18T10:43:31Z</time>
      </trkpt>
      <trkpt lat="46.75658" lon="5.53724">
        <ele>309.8</ele>
        <time>2020-02-18T10:43:36Z</time>
      </trkpt>
      <trkpt lat="46.75661" lon="5.53729">
        <ele>310.5</ele>
        <time>2020-02-18T10:43:44Z</time>
      </trkpt>
      <trkpt lat="46.75663" lon="5.53735">
        <ele>311.3</ele>
        <time>2020-02-18T10:43:55Z</time>
      </trkpt>
      <trkpt lat="46.75664" lon="5.53742">
        <ele>312.4</ele>
        <time>2020-02-18T10:44:03Z</time>
      </trkpt>
      <trkpt lat="46.75668" lon="5.53747">
        <ele>313.3</ele>
        <time>2020-02-18T10:44:16Z</time>
      </trkpt>
      <trkpt lat="46.75667" lon="5.53754">
        <ele>313</ele>
        <time>2020-02-18T10:44:38Z</time>
      </trkpt>
      <trkpt lat="46.75668" lon="5.53761">
        <ele>312.3</ele>
        <time>2020-02-18T10:44:45Z</time>
      </trkpt>
      <trkpt lat="46.75671" lon="5.53767">
        <ele>311.4</ele>
        <time>2020-02-18T10:44:52Z</time>
      </trkpt>
      <trkpt lat="46.75674" lon="5.53773">
        <ele>310.7</ele>
        <time>2020-02-18T10:44:57Z</time>
      </trkpt>
      <trkpt lat="46.75676" lon="5.53779">
        <ele>310.2</ele>
        <time>2020-02-18T10:45:03Z</time>
      </trkpt>
      <trkpt lat="46.75678" lon="5.53786">
        <ele>310.2</ele>
        <time>2020-02-18T10:45:08Z</time>
      </trkpt>
      <trkpt lat="46.75682" lon="5.53791">
        <ele>310.2</ele>
        <time>2020-02-18T10:45:14Z</time>
      </trkpt>
      <trkpt lat="46.75693" lon="5.53798">
        <ele>309.2</ele>
        <time>2020-02-18T10:45:25Z</time>
      </trkpt>
      <trkpt lat="46.75698" lon="5.53799">
        <ele>309</ele>
        <time>2020-02-18T10:45:41Z</time>
      </trkpt>
      <trkpt lat="46.75704" lon="5.538">
        <ele>309.7</ele>
        <time>2020-02-18T10:45:46Z</time>
      </trkpt>
      <trkpt lat="46.75709" lon="5.53802">
        <ele>310.3</ele>
        <time>2020-02-18T10:45:50Z</time>
      </trkpt>
      <trkpt lat="46.75714" lon="5.53804">
        <ele>310.6</ele>
        <time>2020-02-18T10:45:54Z</time>
      </trkpt>
      <trkpt lat="46.75719" lon="5.53806">
        <ele>310.8</ele>
        <time>2020-02-18T10:45:59Z</time>
      </trkpt>
      <trkpt lat="46.75725" lon="5.53809">
        <ele>310.6</ele>
        <time>2020-02-18T10:46:05Z</time>
      </trkpt>
      <trkpt lat="46.75731" lon="5.53812">
        <ele>310.2</ele>
        <time>2020-02-18T10:46:08Z</time>
      </trkpt>
      <trkpt lat="46.75736" lon="5.53814">
        <ele>309.5</ele>
        <time>2020-02-18T10:46:12Z</time>
      </trkpt>
      <trkpt lat="46.7574" lon="5.53818">
        <ele>308.4</ele>
        <time>2020-02-18T10:46:19Z</time>
      </trkpt>
      <trkpt lat="46.75744" lon="5.53821">
        <ele>306.1</ele>
        <time>2020-02-18T10:46:31Z</time>
      </trkpt>
      <trkpt lat="46.75749" lon="5.53823">
        <ele>304.3</ele>
        <time>2020-02-18T10:46:38Z</time>
      </trkpt>
      <trkpt lat="46.75754" lon="5.53826">
        <ele>302.8</ele>
        <time>2020-02-18T10:46:45Z</time>
      </trkpt>
      <trkpt lat="46.75759" lon="5.53828">
        <ele>302.1</ele>
        <time>2020-02-18T10:46:50Z</time>
      </trkpt>
      <trkpt lat="46.75764" lon="5.5383">
        <ele>301.2</ele>
        <time>2020-02-18T10:46:55Z</time>
      </trkpt>
      <trkpt lat="46.75768" lon="5.53831">
        <ele>299.4</ele>
        <time>2020-02-18T10:47:04Z</time>
      </trkpt>
      <trkpt lat="46.7577" lon="5.53838">
        <ele>297.6</ele>
        <time>2020-02-18T10:47:13Z</time>
      </trkpt>
      <trkpt lat="46.75767" lon="5.53844">
        <ele>286.7</ele>
        <time>2020-02-18T10:47:50Z</time>
      </trkpt>
      <trkpt lat="46.75766" lon="5.53851">
        <ele>284.9</ele>
        <time>2020-02-18T10:47:56Z</time>
      </trkpt>
      <trkpt lat="46.75765" lon="5.53859">
        <ele>282.7</ele>
        <time>2020-02-18T10:48:06Z</time>
      </trkpt>
      <trkpt lat="46.75766" lon="5.53865">
        <ele>282.3</ele>
        <time>2020-02-18T10:48:09Z</time>
      </trkpt>
      <trkpt lat="46.75764" lon="5.53873">
        <ele>282.1</ele>
        <time>2020-02-18T10:48:11Z</time>
      </trkpt>
      <trkpt lat="46.75762" lon="5.53881">
        <ele>281.7</ele>
        <time>2020-02-18T10:48:14Z</time>
      </trkpt>
      <trkpt lat="46.75762" lon="5.53888">
        <ele>281.1</ele>
        <time>2020-02-18T10:48:18Z</time>
      </trkpt>
      <trkpt lat="46.75761" lon="5.53895">
        <ele>280</ele>
        <time>2020-02-18T10:48:23Z</time>
      </trkpt>
      <trkpt lat="46.75759" lon="5.53914">
        <ele>275.2</ele>
        <time>2020-02-18T10:48:38Z</time>
      </trkpt>
      <trkpt lat="46.75758" lon="5.5392">
        <ele>274</ele>
        <time>2020-02-18T10:48:44Z</time>
      </trkpt>
      <trkpt lat="46.75755" lon="5.53926">
        <ele>273</ele>
        <time>2020-02-18T10:48:50Z</time>
      </trkpt>
      <trkpt lat="46.75754" lon="5.53933">
        <ele>272.4</ele>
        <time>2020-02-18T10:48:55Z</time>
      </trkpt>
      <trkpt lat="46.75753" lon="5.5394">
        <ele>271.4</ele>
        <time>2020-02-18T10:49:01Z</time>
      </trkpt>
      <trkpt lat="46.75752" lon="5.53947">
        <ele>269.3</ele>
        <time>2020-02-18T10:49:09Z</time>
      </trkpt>
      <trkpt lat="46.7575" lon="5.53955">
        <ele>268.3</ele>
        <time>2020-02-18T10:49:15Z</time>
      </trkpt>
      <trkpt lat="46.75749" lon="5.53961">
        <ele>267.9</ele>
        <time>2020-02-18T10:49:19Z</time>
      </trkpt>
      <trkpt lat="46.75749" lon="5.53968">
        <ele>266.7</ele>
        <time>2020-02-18T10:49:32Z</time>
      </trkpt>
      <trkpt lat="46.75746" lon="5.53974">
        <ele>265.8</ele>
        <time>2020-02-18T10:49:43Z</time>
      </trkpt>
      <trkpt lat="46.75751" lon="5.53976">
        <ele>265.7</ele>
        <time>2020-02-18T10:49:56Z</time>
      </trkpt>
      <trkpt lat="46.75756" lon="5.53977">
        <ele>265.7</ele>
        <time>2020-02-18T10:50:02Z</time>
      </trkpt>
      <trkpt lat="46.75761" lon="5.53978">
        <ele>265.4</ele>
        <time>2020-02-18T10:50:08Z</time>
      </trkpt>
      <trkpt lat="46.75766" lon="5.5398">
        <ele>265.2</ele>
        <time>2020-02-18T10:50:12Z</time>
      </trkpt>
      <trkpt lat="46.7577" lon="5.53982">
        <ele>265.1</ele>
        <time>2020-02-18T10:50:18Z</time>
      </trkpt>
      <trkpt lat="46.75775" lon="5.53983">
        <ele>265</ele>
        <time>2020-02-18T10:50:24Z</time>
      </trkpt>
      <trkpt lat="46.75781" lon="5.53984">
        <ele>264.9</ele>
        <time>2020-02-18T10:50:30Z</time>
      </trkpt>
      <trkpt lat="46.75785" lon="5.53986">
        <ele>265.1</ele>
        <time>2020-02-18T10:50:35Z</time>
      </trkpt>
      <trkpt lat="46.75791" lon="5.53997">
        <ele>264.3</ele>
        <time>2020-02-18T10:51:11Z</time>
      </trkpt>
      <trkpt lat="46.75793" lon="5.54004">
        <ele>263.9</ele>
        <time>2020-02-18T10:51:45Z</time>
      </trkpt>
      <trkpt lat="46.75794" lon="5.5401">
        <ele>263.2</ele>
        <time>2020-02-18T10:51:51Z</time>
      </trkpt>
      <trkpt lat="46.75798" lon="5.54014">
        <ele>262.6</ele>
        <time>2020-02-18T10:51:57Z</time>
      </trkpt>
      <trkpt lat="46.75802" lon="5.54019">
        <ele>262.3</ele>
        <time>2020-02-18T10:52:01Z</time>
      </trkpt>
      <trkpt lat="46.75805" lon="5.54025">
        <ele>262.2</ele>
        <time>2020-02-18T10:52:07Z</time>
      </trkpt>
      <trkpt lat="46.75806" lon="5.54032">
        <ele>261.7</ele>
        <time>2020-02-18T10:52:23Z</time>
      </trkpt>
      <trkpt lat="46.75808" lon="5.54038">
        <ele>261.2</ele>
        <time>2020-02-18T10:52:31Z</time>
      </trkpt>
      <trkpt lat="46.75808" lon="5.54045">
        <ele>259</ele>
        <time>2020-02-18T10:52:49Z</time>
      </trkpt>
      <trkpt lat="46.75807" lon="5.54052">
        <ele>256.9</ele>
        <time>2020-02-18T10:53:05Z</time>
      </trkpt>
      <trkpt lat="46.75806" lon="5.54059">
        <ele>256.4</ele>
        <time>2020-02-18T10:53:11Z</time>
      </trkpt>
      <trkpt lat="46.75804" lon="5.54065">
        <ele>255.9</ele>
        <time>2020-02-18T10:53:14Z</time>
      </trkpt>
      <trkpt lat="46.75801" lon="5.54072">
        <ele>255.2</ele>
        <time>2020-02-18T10:53:18Z</time>
      </trkpt>
      <trkpt lat="46.75799" lon="5.54078">
        <ele>253.7</ele>
        <time>2020-02-18T10:53:29Z</time>
      </trkpt>
      <trkpt lat="46.75797" lon="5.54084">
        <ele>252.8</ele>
        <time>2020-02-18T10:53:35Z</time>
      </trkpt>
      <trkpt lat="46.75795" lon="5.54091">
        <ele>252.2</ele>
        <time>2020-02-18T10:53:39Z</time>
      </trkpt>
      <trkpt lat="46.75793" lon="5.54099">
        <ele>251.5</ele>
        <time>2020-02-18T10:53:43Z</time>
      </trkpt>
      <trkpt lat="46.75793" lon="5.54106">
        <ele>250.6</ele>
        <time>2020-02-18T10:53:49Z</time>
      </trkpt>
      <trkpt lat="46.75793" lon="5.54114">
        <ele>249.9</ele>
        <time>2020-02-18T10:53:54Z</time>
      </trkpt>
      <trkpt lat="46.75793" lon="5.54121">
        <ele>249.4</ele>
        <time>2020-02-18T10:54:00Z</time>
      </trkpt>
      <trkpt lat="46.75795" lon="5.54128">
        <ele>249.6</ele>
        <time>2020-02-18T10:54:07Z</time>
      </trkpt>
      <trkpt lat="46.75796" lon="5.54135">
        <ele>249.8</ele>
        <time>2020-02-18T10:54:13Z</time>
      </trkpt>
      <trkpt lat="46.75797" lon="5.54142">
        <ele>249.9</ele>
        <time>2020-02-18T10:54:20Z</time>
      </trkpt>
      <trkpt lat="46.75797" lon="5.54149">
        <ele>249.8</ele>
        <time>2020-02-18T10:54:26Z</time>
      </trkpt>
      <trkpt lat="46.75798" lon="5.54157">
        <ele>248.9</ele>
        <time>2020-02-18T10:54:32Z</time>
      </trkpt>
      <trkpt lat="46.75799" lon="5.54163">
        <ele>247.9</ele>
        <time>2020-02-18T10:54:38Z</time>
      </trkpt>
      <trkpt lat="46.75795" lon="5.54164">
        <ele>245.6</ele>
        <time>2020-02-18T10:54:55Z</time>
      </trkpt>
      <trkpt lat="46.7579" lon="5.54166">
        <ele>245</ele>
        <time>2020-02-18T10:55:04Z</time>
      </trkpt>
      <trkpt lat="46.75789" lon="5.54173">
        <ele>244.4</ele>
        <time>2020-02-18T10:55:13Z</time>
      </trkpt>
      <trkpt lat="46.7579" lon="5.54181">
        <ele>243.6</ele>
        <time>2020-02-18T10:55:25Z</time>
      </trkpt>
      <trkpt lat="46.7579" lon="5.54188">
        <ele>243.3</ele>
        <time>2020-02-18T10:55:30Z</time>
      </trkpt>
      <trkpt lat="46.75791" lon="5.54195">
        <ele>243.1</ele>
        <time>2020-02-18T10:55:36Z</time>
      </trkpt>
      <trkpt lat="46.75791" lon="5.54202">
        <ele>242.8</ele>
        <time>2020-02-18T10:55:41Z</time>
      </trkpt>
      <trkpt lat="46.75791" lon="5.54209">
        <ele>242.6</ele>
        <time>2020-02-18T10:55:46Z</time>
      </trkpt>
      <trkpt lat="46.7579" lon="5.54216">
        <ele>242.5</ele>
        <time>2020-02-18T10:55:51Z</time>
      </trkpt>
      <trkpt lat="46.75789" lon="5.54222">
        <ele>242.5</ele>
        <time>2020-02-18T10:55:56Z</time>
      </trkpt>
      <trkpt lat="46.7579" lon="5.54229">
        <ele>242.6</ele>
        <time>2020-02-18T10:56:03Z</time>
      </trkpt>
      <trkpt lat="46.75795" lon="5.54229">
        <ele>242.8</ele>
        <time>2020-02-18T10:56:11Z</time>
      </trkpt>
      <trkpt lat="46.758" lon="5.54231">
        <ele>242.9</ele>
        <time>2020-02-18T10:56:19Z</time>
      </trkpt>
      <trkpt lat="46.75805" lon="5.54232">
        <ele>242.9</ele>
        <time>2020-02-18T10:56:23Z</time>
      </trkpt>
      <trkpt lat="46.7581" lon="5.54234">
        <ele>242.8</ele>
        <time>2020-02-18T10:56:27Z</time>
      </trkpt>
      <trkpt lat="46.75815" lon="5.54235">
        <ele>242.2</ele>
        <time>2020-02-18T10:56:33Z</time>
      </trkpt>
      <trkpt lat="46.7582" lon="5.54235">
        <ele>241.5</ele>
        <time>2020-02-18T10:56:38Z</time>
      </trkpt>
      <trkpt lat="46.75825" lon="5.54236">
        <ele>241</ele>
        <time>2020-02-18T10:56:43Z</time>
      </trkpt>
      <trkpt lat="46.7583" lon="5.54237">
        <ele>240.4</ele>
        <time>2020-02-18T10:56:49Z</time>
      </trkpt>
      <trkpt lat="46.75835" lon="5.54239">
        <ele>240</ele>
        <time>2020-02-18T10:56:54Z</time>
      </trkpt>
      <trkpt lat="46.7584" lon="5.5424">
        <ele>239.6</ele>
        <time>2020-02-18T10:56:58Z</time>
      </trkpt>
      <trkpt lat="46.75845" lon="5.5424">
        <ele>239.1</ele>
        <time>2020-02-18T10:57:03Z</time>
      </trkpt>
      <trkpt lat="46.7585" lon="5.54241">
        <ele>238.5</ele>
        <time>2020-02-18T10:57:08Z</time>
      </trkpt>
      <trkpt lat="46.75855" lon="5.54243">
        <ele>237.9</ele>
        <time>2020-02-18T10:57:14Z</time>
      </trkpt>
      <trkpt lat="46.7586" lon="5.54242">
        <ele>237.7</ele>
        <time>2020-02-18T10:57:19Z</time>
      </trkpt>
      <trkpt lat="46.75865" lon="5.54243">
        <ele>237.4</ele>
        <time>2020-02-18T10:57:25Z</time>
      </trkpt>
      <trkpt lat="46.7587" lon="5.54245">
        <ele>237.2</ele>
        <time>2020-02-18T10:57:29Z</time>
      </trkpt>
      <trkpt lat="46.75875" lon="5.54246">
        <ele>236.8</ele>
        <time>2020-02-18T10:57:34Z</time>
      </trkpt>
      <trkpt lat="46.75881" lon="5.54247">
        <ele>236.5</ele>
        <time>2020-02-18T10:57:38Z</time>
      </trkpt>
      <trkpt lat="46.75886" lon="5.54248">
        <ele>236</ele>
        <time>2020-02-18T10:57:42Z</time>
      </trkpt>
      <trkpt lat="46.75891" lon="5.54248">
        <ele>235.6</ele>
        <time>2020-02-18T10:57:46Z</time>
      </trkpt>
      <trkpt lat="46.75896" lon="5.54251">
        <ele>235.1</ele>
        <time>2020-02-18T10:58:00Z</time>
      </trkpt>
      <trkpt lat="46.759" lon="5.54252">
        <ele>234.8</ele>
        <time>2020-02-18T10:58:08Z</time>
      </trkpt>
      <trkpt lat="46.75905" lon="5.54253">
        <ele>234.1</ele>
        <time>2020-02-18T10:58:16Z</time>
      </trkpt>
      <trkpt lat="46.7591" lon="5.54253">
        <ele>233.7</ele>
        <time>2020-02-18T10:58:22Z</time>
      </trkpt>
      <trkpt lat="46.75916" lon="5.54253">
        <ele>233.5</ele>
        <time>2020-02-18T10:58:28Z</time>
      </trkpt>
      <trkpt lat="46.7592" lon="5.54252">
        <ele>233.5</ele>
        <time>2020-02-18T10:58:31Z</time>
      </trkpt>
      <trkpt lat="46.75925" lon="5.5425">
        <ele>233.3</ele>
        <time>2020-02-18T10:58:34Z</time>
      </trkpt>
      <trkpt lat="46.7593" lon="5.54249">
        <ele>232.9</ele>
        <time>2020-02-18T10:58:38Z</time>
      </trkpt>
      <trkpt lat="46.75936" lon="5.54248">
        <ele>232.7</ele>
        <time>2020-02-18T10:58:43Z</time>
      </trkpt>
      <trkpt lat="46.75941" lon="5.54248">
        <ele>232.5</ele>
        <time>2020-02-18T10:58:48Z</time>
      </trkpt>
      <trkpt lat="46.75946" lon="5.54249">
        <ele>232.5</ele>
        <time>2020-02-18T10:58:53Z</time>
      </trkpt>
      <trkpt lat="46.75951" lon="5.54249">
        <ele>232.4</ele>
        <time>2020-02-18T10:58:58Z</time>
      </trkpt>
      <trkpt lat="46.75956" lon="5.54248">
        <ele>232.6</ele>
        <time>2020-02-18T10:59:03Z</time>
      </trkpt>
      <trkpt lat="46.7596" lon="5.54244">
        <ele>232.5</ele>
        <time>2020-02-18T10:59:18Z</time>
      </trkpt>
      <trkpt lat="46.75965" lon="5.54244">
        <ele>232.2</ele>
        <time>2020-02-18T10:59:28Z</time>
      </trkpt>
      <trkpt lat="46.75969" lon="5.54243">
        <ele>231.8</ele>
        <time>2020-02-18T10:59:36Z</time>
      </trkpt>
      <trkpt lat="46.75974" lon="5.54241">
        <ele>231.1</ele>
        <time>2020-02-18T10:59:42Z</time>
      </trkpt>
      <trkpt lat="46.75979" lon="5.5424">
        <ele>229.6</ele>
        <time>2020-02-18T11:00:00Z</time>
      </trkpt>
      <trkpt lat="46.7598" lon="5.54233">
        <ele>228.6</ele>
        <time>2020-02-18T11:00:11Z</time>
      </trkpt>
      <trkpt lat="46.7598" lon="5.54226">
        <ele>226.3</ele>
        <time>2020-02-18T11:00:32Z</time>
      </trkpt>
      <trkpt lat="46.75979" lon="5.5422">
        <ele>226</ele>
        <time>2020-02-18T11:00:36Z</time>
      </trkpt>
      <trkpt lat="46.75979" lon="5.54212">
        <ele>225.7</ele>
        <time>2020-02-18T11:00:40Z</time>
      </trkpt>
      <trkpt lat="46.75979" lon="5.54205">
        <ele>225.4</ele>
        <time>2020-02-18T11:00:44Z</time>
      </trkpt>
      <trkpt lat="46.75978" lon="5.54198">
        <ele>225.4</ele>
        <time>2020-02-18T11:00:47Z</time>
      </trkpt>
      <trkpt lat="46.75977" lon="5.54192">
        <ele>225.4</ele>
        <time>2020-02-18T11:00:50Z</time>
      </trkpt>
      <trkpt lat="46.75977" lon="5.54185">
        <ele>225.5</ele>
        <time>2020-02-18T11:00:54Z</time>
      </trkpt>
      <trkpt lat="46.75977" lon="5.54177">
        <ele>225.5</ele>
        <time>2020-02-18T11:00:59Z</time>
      </trkpt>
      <trkpt lat="46.75977" lon="5.5417">
        <ele>225.7</ele>
        <time>2020-02-18T11:01:04Z</time>
      </trkpt>
      <trkpt lat="46.75977" lon="5.54163">
        <ele>226.2</ele>
        <time>2020-02-18T11:01:09Z</time>
      </trkpt>
      <trkpt lat="46.75975" lon="5.54155">
        <ele>226.6</ele>
        <time>2020-02-18T11:01:14Z</time>
      </trkpt>
      <trkpt lat="46.75974" lon="5.54147">
        <ele>227.1</ele>
        <time>2020-02-18T11:01:19Z</time>
      </trkpt>
      <trkpt lat="46.75973" lon="5.54141">
        <ele>227.4</ele>
        <time>2020-02-18T11:01:23Z</time>
      </trkpt>
      <trkpt lat="46.7597" lon="5.54134">
        <ele>227.5</ele>
        <time>2020-02-18T11:01:27Z</time>
      </trkpt>
      <trkpt lat="46.75968" lon="5.54127">
        <ele>227.5</ele>
        <time>2020-02-18T11:01:32Z</time>
      </trkpt>
      <trkpt lat="46.75967" lon="5.5412">
        <ele>227.5</ele>
        <time>2020-02-18T11:01:37Z</time>
      </trkpt>
      <trkpt lat="46.75966" lon="5.54113">
        <ele>227.5</ele>
        <time>2020-02-18T11:01:43Z</time>
      </trkpt>
      <trkpt lat="46.75964" lon="5.54106">
        <ele>227.3</ele>
        <time>2020-02-18T11:01:48Z</time>
      </trkpt>
      <trkpt lat="46.75962" lon="5.54099">
        <ele>227.2</ele>
        <time>2020-02-18T11:01:53Z</time>
      </trkpt>
      <trkpt lat="46.75961" lon="5.54093">
        <ele>227.1</ele>
        <time>2020-02-18T11:01:56Z</time>
      </trkpt>
      <trkpt lat="46.75961" lon="5.54086">
        <ele>227</ele>
        <time>2020-02-18T11:01:59Z</time>
      </trkpt>
      <trkpt lat="46.7596" lon="5.54078">
        <ele>226.8</ele>
        <time>2020-02-18T11:02:03Z</time>
      </trkpt>
      <trkpt lat="46.75959" lon="5.5407">
        <ele>226.5</ele>
        <time>2020-02-18T11:02:08Z</time>
      </trkpt>
      <trkpt lat="46.75959" lon="5.54063">
        <ele>226.5</ele>
        <time>2020-02-18T11:02:13Z</time>
      </trkpt>
      <trkpt lat="46.75959" lon="5.54055">
        <ele>226.8</ele>
        <time>2020-02-18T11:02:18Z</time>
      </trkpt>
      <trkpt lat="46.75958" lon="5.54049">
        <ele>227.1</ele>
        <time>2020-02-18T11:02:23Z</time>
      </trkpt>
      <trkpt lat="46.75958" lon="5.5404">
        <ele>227.5</ele>
        <time>2020-02-18T11:02:27Z</time>
      </trkpt>
      <trkpt lat="46.75959" lon="5.54033">
        <ele>227.8</ele>
        <time>2020-02-18T11:02:30Z</time>
      </trkpt>
      <trkpt lat="46.7596" lon="5.54025">
        <ele>228</ele>
        <time>2020-02-18T11:02:34Z</time>
      </trkpt>
      <trkpt lat="46.75961" lon="5.54017">
        <ele>228.2</ele>
        <time>2020-02-18T11:02:39Z</time>
      </trkpt>
      <trkpt lat="46.75964" lon="5.54012">
        <ele>228.5</ele>
        <time>2020-02-18T11:02:43Z</time>
      </trkpt>
      <trkpt lat="46.75965" lon="5.54005">
        <ele>228.8</ele>
        <time>2020-02-18T11:02:46Z</time>
      </trkpt>
      <trkpt lat="46.75965" lon="5.53998">
        <ele>229.3</ele>
        <time>2020-02-18T11:02:51Z</time>
      </trkpt>
      <trkpt lat="46.75965" lon="5.5399">
        <ele>230</ele>
        <time>2020-02-18T11:02:56Z</time>
      </trkpt>
      <trkpt lat="46.75964" lon="5.53983">
        <ele>230.6</ele>
        <time>2020-02-18T11:03:01Z</time>
      </trkpt>
      <trkpt lat="46.75964" lon="5.53976">
        <ele>231.3</ele>
        <time>2020-02-18T11:03:05Z</time>
      </trkpt>
      <trkpt lat="46.75967" lon="5.53969">
        <ele>232.2</ele>
        <time>2020-02-18T11:03:10Z</time>
      </trkpt>
      <trkpt lat="46.75967" lon="5.53962">
        <ele>233</ele>
        <time>2020-02-18T11:03:15Z</time>
      </trkpt>
      <trkpt lat="46.75967" lon="5.53954">
        <ele>233.7</ele>
        <time>2020-02-18T11:03:21Z</time>
      </trkpt>
      <trkpt lat="46.75967" lon="5.53947">
        <ele>234.3</ele>
        <time>2020-02-18T11:03:25Z</time>
      </trkpt>
      <trkpt lat="46.75967" lon="5.5394">
        <ele>234.9</ele>
        <time>2020-02-18T11:03:29Z</time>
      </trkpt>
      <trkpt lat="46.75969" lon="5.53933">
        <ele>235.4</ele>
        <time>2020-02-18T11:03:34Z</time>
      </trkpt>
      <trkpt lat="46.75969" lon="5.53922">
        <ele>235.6</ele>
        <time>2020-02-18T11:03:59Z</time>
      </trkpt>
      <trkpt lat="46.7597" lon="5.53915">
        <ele>235.1</ele>
        <time>2020-02-18T11:04:07Z</time>
      </trkpt>
      <trkpt lat="46.75969" lon="5.53908">
        <ele>234.4</ele>
        <time>2020-02-18T11:04:13Z</time>
      </trkpt>
      <trkpt lat="46.75968" lon="5.539">
        <ele>233.8</ele>
        <time>2020-02-18T11:04:18Z</time>
      </trkpt>
      <trkpt lat="46.75967" lon="5.53893">
        <ele>233.2</ele>
        <time>2020-02-18T11:04:23Z</time>
      </trkpt>
      <trkpt lat="46.75959" lon="5.53876">
        <ele>231.4</ele>
        <time>2020-02-18T11:04:35Z</time>
      </trkpt>
      <trkpt lat="46.75958" lon="5.53869">
        <ele>230.7</ele>
        <time>2020-02-18T11:04:41Z</time>
      </trkpt>
      <trkpt lat="46.75959" lon="5.53862">
        <ele>230.4</ele>
        <time>2020-02-18T11:04:47Z</time>
      </trkpt>
      <trkpt lat="46.7596" lon="5.53855">
        <ele>229.9</ele>
        <time>2020-02-18T11:04:54Z</time>
      </trkpt>
      <trkpt lat="46.75959" lon="5.53848">
        <ele>229.6</ele>
        <time>2020-02-18T11:04:58Z</time>
      </trkpt>
      <trkpt lat="46.75959" lon="5.53841">
        <ele>229.2</ele>
        <time>2020-02-18T11:05:02Z</time>
      </trkpt>
      <trkpt lat="46.7596" lon="5.53834">
        <ele>228.8</ele>
        <time>2020-02-18T11:05:07Z</time>
      </trkpt>
      <trkpt lat="46.75959" lon="5.53827">
        <ele>228.6</ele>
        <time>2020-02-18T11:05:12Z</time>
      </trkpt>
      <trkpt lat="46.75959" lon="5.5382">
        <ele>228.4</ele>
        <time>2020-02-18T11:05:16Z</time>
      </trkpt>
      <trkpt lat="46.75958" lon="5.53813">
        <ele>228.3</ele>
        <time>2020-02-18T11:05:20Z</time>
      </trkpt>
      <trkpt lat="46.75959" lon="5.53806">
        <ele>228.1</ele>
        <time>2020-02-18T11:05:25Z</time>
      </trkpt>
      <trkpt lat="46.75961" lon="5.53788">
        <ele>227.9</ele>
        <time>2020-02-18T11:05:36Z</time>
      </trkpt>
      <trkpt lat="46.75963" lon="5.53781">
        <ele>228.1</ele>
        <time>2020-02-18T11:05:40Z</time>
      </trkpt>
      <trkpt lat="46.75963" lon="5.53774">
        <ele>228.6</ele>
        <time>2020-02-18T11:05:45Z</time>
      </trkpt>
      <trkpt lat="46.75967" lon="5.53764">
        <ele>230.5</ele>
        <time>2020-02-18T11:05:54Z</time>
      </trkpt>
      <trkpt lat="46.75969" lon="5.53756">
        <ele>230.7</ele>
        <time>2020-02-18T11:05:56Z</time>
      </trkpt>
      <trkpt lat="46.75968" lon="5.53749">
        <ele>231</ele>
        <time>2020-02-18T11:05:58Z</time>
      </trkpt>
      <trkpt lat="46.75966" lon="5.53743">
        <ele>231.5</ele>
        <time>2020-02-18T11:06:01Z</time>
      </trkpt>
      <trkpt lat="46.75963" lon="5.53737">
        <ele>232.2</ele>
        <time>2020-02-18T11:06:05Z</time>
      </trkpt>
      <trkpt lat="46.7596" lon="5.53732">
        <ele>232.8</ele>
        <time>2020-02-18T11:06:11Z</time>
      </trkpt>
      <trkpt lat="46.75961" lon="5.53726">
        <ele>233.1</ele>
        <time>2020-02-18T11:06:15Z</time>
      </trkpt>
      <trkpt lat="46.75962" lon="5.53718">
        <ele>233.4</ele>
        <time>2020-02-18T11:06:18Z</time>
      </trkpt>
      <trkpt lat="46.75961" lon="5.53711">
        <ele>233.7</ele>
        <time>2020-02-18T11:06:21Z</time>
      </trkpt>
      <trkpt lat="46.75959" lon="5.53705">
        <ele>234.3</ele>
        <time>2020-02-18T11:06:26Z</time>
      </trkpt>
      <trkpt lat="46.75963" lon="5.53688">
        <ele>236.7</ele>
        <time>2020-02-18T11:06:37Z</time>
      </trkpt>
      <trkpt lat="46.75964" lon="5.5368">
        <ele>237</ele>
        <time>2020-02-18T11:06:41Z</time>
      </trkpt>
      <trkpt lat="46.75966" lon="5.53672">
        <ele>237.1</ele>
        <time>2020-02-18T11:06:45Z</time>
      </trkpt>
      <trkpt lat="46.75967" lon="5.53666">
        <ele>236.9</ele>
        <time>2020-02-18T11:06:50Z</time>
      </trkpt>
      <trkpt lat="46.75968" lon="5.53659">
        <ele>236.3</ele>
        <time>2020-02-18T11:06:56Z</time>
      </trkpt>
      <trkpt lat="46.7597" lon="5.53653">
        <ele>234</ele>
        <time>2020-02-18T11:07:08Z</time>
      </trkpt>
      <trkpt lat="46.75971" lon="5.53646">
        <ele>232.2</ele>
        <time>2020-02-18T11:07:16Z</time>
      </trkpt>
      <trkpt lat="46.75972" lon="5.53639">
        <ele>231.7</ele>
        <time>2020-02-18T11:07:21Z</time>
      </trkpt>
      <trkpt lat="46.7597" lon="5.53631">
        <ele>231.6</ele>
        <time>2020-02-18T11:07:24Z</time>
      </trkpt>
      <trkpt lat="46.7597" lon="5.53623">
        <ele>231.4</ele>
        <time>2020-02-18T11:07:28Z</time>
      </trkpt>
      <trkpt lat="46.75973" lon="5.53618">
        <ele>231.2</ele>
        <time>2020-02-18T11:07:34Z</time>
      </trkpt>
      <trkpt lat="46.75977" lon="5.53617">
        <ele>231.2</ele>
        <time>2020-02-18T11:07:39Z</time>
      </trkpt>
      <trkpt lat="46.75984" lon="5.53616">
        <ele>231.2</ele>
        <time>2020-02-18T11:07:43Z</time>
      </trkpt>
      <trkpt lat="46.7599" lon="5.53616">
        <ele>231.3</ele>
        <time>2020-02-18T11:07:46Z</time>
      </trkpt>
      <trkpt lat="46.75994" lon="5.53616">
        <ele>231.2</ele>
        <time>2020-02-18T11:07:49Z</time>
      </trkpt>
      <trkpt lat="46.75999" lon="5.53615">
        <ele>231</ele>
        <time>2020-02-18T11:07:52Z</time>
      </trkpt>
      <trkpt lat="46.76004" lon="5.53615">
        <ele>230.7</ele>
        <time>2020-02-18T11:07:55Z</time>
      </trkpt>
      <trkpt lat="46.76008" lon="5.53615">
        <ele>230.1</ele>
        <time>2020-02-18T11:08:00Z</time>
      </trkpt>
      <trkpt lat="46.76013" lon="5.53614">
        <ele>229.1</ele>
        <time>2020-02-18T11:08:08Z</time>
      </trkpt>
      <trkpt lat="46.76018" lon="5.53614">
        <ele>228.7</ele>
        <time>2020-02-18T11:08:13Z</time>
      </trkpt>
      <trkpt lat="46.76023" lon="5.53614">
        <ele>228.2</ele>
        <time>2020-02-18T11:08:18Z</time>
      </trkpt>
      <trkpt lat="46.76028" lon="5.53615">
        <ele>227.8</ele>
        <time>2020-02-18T11:08:23Z</time>
      </trkpt>
      <trkpt lat="46.76032" lon="5.53615">
        <ele>227.1</ele>
        <time>2020-02-18T11:08:30Z</time>
      </trkpt>
      <trkpt lat="46.76038" lon="5.53615">
        <ele>226.5</ele>
        <time>2020-02-18T11:08:36Z</time>
      </trkpt>
      <trkpt lat="46.76043" lon="5.53616">
        <ele>226.2</ele>
        <time>2020-02-18T11:08:39Z</time>
      </trkpt>
      <trkpt lat="46.76048" lon="5.53616">
        <ele>225.7</ele>
        <time>2020-02-18T11:08:43Z</time>
      </trkpt>
      <trkpt lat="46.76052" lon="5.53615">
        <ele>225.3</ele>
        <time>2020-02-18T11:08:48Z</time>
      </trkpt>
      <trkpt lat="46.76058" lon="5.53615">
        <ele>224.8</ele>
        <time>2020-02-18T11:08:53Z</time>
      </trkpt>
      <trkpt lat="46.76063" lon="5.53614">
        <ele>224.6</ele>
        <time>2020-02-18T11:08:56Z</time>
      </trkpt>
      <trkpt lat="46.76067" lon="5.53613">
        <ele>224.4</ele>
        <time>2020-02-18T11:09:00Z</time>
      </trkpt>
      <trkpt lat="46.76072" lon="5.53612">
        <ele>224.2</ele>
        <time>2020-02-18T11:09:07Z</time>
      </trkpt>
      <trkpt lat="46.76077" lon="5.5361">
        <ele>223.9</ele>
        <time>2020-02-18T11:09:11Z</time>
      </trkpt>
      <trkpt lat="46.76081" lon="5.53608">
        <ele>223.3</ele>
        <time>2020-02-18T11:09:17Z</time>
      </trkpt>
      <trkpt lat="46.76087" lon="5.53606">
        <ele>222.8</ele>
        <time>2020-02-18T11:09:22Z</time>
      </trkpt>
      <trkpt lat="46.76092" lon="5.53606">
        <ele>222.4</ele>
        <time>2020-02-18T11:09:26Z</time>
      </trkpt>
      <trkpt lat="46.76097" lon="5.5361">
        <ele>222.2</ele>
        <time>2020-02-18T11:09:31Z</time>
      </trkpt>
      <trkpt lat="46.76098" lon="5.53603">
        <ele>223.9</ele>
        <time>2020-02-18T11:09:53Z</time>
      </trkpt>
      <trkpt lat="46.76101" lon="5.53598">
        <ele>224</ele>
        <time>2020-02-18T11:09:58Z</time>
      </trkpt>
      <trkpt lat="46.76105" lon="5.53593">
        <ele>224.1</ele>
        <time>2020-02-18T11:10:02Z</time>
      </trkpt>
      <trkpt lat="46.76109" lon="5.53589">
        <ele>224.1</ele>
        <time>2020-02-18T11:10:07Z</time>
      </trkpt>
      <trkpt lat="46.76114" lon="5.53585">
        <ele>224.1</ele>
        <time>2020-02-18T11:10:13Z</time>
      </trkpt>
      <trkpt lat="46.76118" lon="5.53582">
        <ele>224</ele>
        <time>2020-02-18T11:10:18Z</time>
      </trkpt>
      <trkpt lat="46.76123" lon="5.53582">
        <ele>223.8</ele>
        <time>2020-02-18T11:10:23Z</time>
      </trkpt>
      <trkpt lat="46.76128" lon="5.53583">
        <ele>223.4</ele>
        <time>2020-02-18T11:10:29Z</time>
      </trkpt>
      <trkpt lat="46.76133" lon="5.53582">
        <ele>223.1</ele>
        <time>2020-02-18T11:10:33Z</time>
      </trkpt>
      <trkpt lat="46.76137" lon="5.5358">
        <ele>222.4</ele>
        <time>2020-02-18T11:10:38Z</time>
      </trkpt>
      <trkpt lat="46.76142" lon="5.53577">
        <ele>222</ele>
        <time>2020-02-18T11:10:42Z</time>
      </trkpt>
      <trkpt lat="46.76146" lon="5.53573">
        <ele>221.7</ele>
        <time>2020-02-18T11:10:46Z</time>
      </trkpt>
      <trkpt lat="46.76151" lon="5.53568">
        <ele>221.6</ele>
        <time>2020-02-18T11:10:51Z</time>
      </trkpt>
      <trkpt lat="46.76155" lon="5.53564">
        <ele>221.5</ele>
        <time>2020-02-18T11:10:55Z</time>
      </trkpt>
      <trkpt lat="46.76157" lon="5.53558">
        <ele>221.4</ele>
        <time>2020-02-18T11:11:03Z</time>
      </trkpt>
      <trkpt lat="46.76162" lon="5.53557">
        <ele>222.4</ele>
        <time>2020-02-18T11:11:15Z</time>
      </trkpt>
      <trkpt lat="46.76166" lon="5.53556">
        <ele>224.7</ele>
        <time>2020-02-18T11:11:40Z</time>
      </trkpt>
      <trkpt lat="46.76171" lon="5.53556">
        <ele>225.6</ele>
        <time>2020-02-18T11:11:46Z</time>
      </trkpt>
      <trkpt lat="46.76176" lon="5.53556">
        <ele>226.2</ele>
        <time>2020-02-18T11:11:51Z</time>
      </trkpt>
      <trkpt lat="46.76181" lon="5.53555">
        <ele>227.1</ele>
        <time>2020-02-18T11:11:57Z</time>
      </trkpt>
      <trkpt lat="46.76186" lon="5.53555">
        <ele>228.3</ele>
        <time>2020-02-18T11:12:07Z</time>
      </trkpt>
      <trkpt lat="46.76181" lon="5.53553">
        <ele>229.1</ele>
        <time>2020-02-18T11:12:25Z</time>
      </trkpt>
      <trkpt lat="46.76175" lon="5.53554">
        <ele>229</ele>
        <time>2020-02-18T11:12:30Z</time>
      </trkpt>
      <trkpt lat="46.76171" lon="5.53556">
        <ele>228.8</ele>
        <time>2020-02-18T11:12:38Z</time>
      </trkpt>
      <trkpt lat="46.76169" lon="5.53562">
        <ele>229</ele>
        <time>2020-02-18T11:12:55Z</time>
      </trkpt>
      <trkpt lat="46.7617" lon="5.53555">
        <ele>230.8</ele>
        <time>2020-02-18T11:13:28Z</time>
      </trkpt>
      <trkpt lat="46.76165" lon="5.53556">
        <ele>231</ele>
        <time>2020-02-18T11:13:45Z</time>
      </trkpt>
      <trkpt lat="46.76161" lon="5.53555">
        <ele>231.1</ele>
        <time>2020-02-18T11:13:56Z</time>
      </trkpt>
      <trkpt lat="46.76168" lon="5.53563">
        <ele>241</ele>
        <time>2020-02-18T11:44:49Z</time>
      </trkpt>
      <trkpt lat="46.76173" lon="5.53563">
        <ele>239.9</ele>
        <time>2020-02-18T11:44:56Z</time>
      </trkpt>
      <trkpt lat="46.76179" lon="5.53563">
        <ele>238.2</ele>
        <time>2020-02-18T11:45:07Z</time>
      </trkpt>
      <trkpt lat="46.76184" lon="5.53563">
        <ele>237</ele>
        <time>2020-02-18T11:45:11Z</time>
      </trkpt>
      <trkpt lat="46.76189" lon="5.53563">
        <ele>235.8</ele>
        <time>2020-02-18T11:45:15Z</time>
      </trkpt>
      <trkpt lat="46.76194" lon="5.53563">
        <ele>232.5</ele>
        <time>2020-02-18T11:45:29Z</time>
      </trkpt>
      <trkpt lat="46.76198" lon="5.53559">
        <ele>231.2</ele>
        <time>2020-02-18T11:45:39Z</time>
      </trkpt>
      <trkpt lat="46.76201" lon="5.53554">
        <ele>231</ele>
        <time>2020-02-18T11:45:44Z</time>
      </trkpt>
      <trkpt lat="46.76205" lon="5.53549">
        <ele>230.9</ele>
        <time>2020-02-18T11:45:49Z</time>
      </trkpt>
      <trkpt lat="46.7621" lon="5.5355">
        <ele>230.6</ele>
        <time>2020-02-18T11:45:55Z</time>
      </trkpt>
      <trkpt lat="46.76215" lon="5.53553">
        <ele>230.4</ele>
        <time>2020-02-18T11:45:58Z</time>
      </trkpt>
      <trkpt lat="46.76219" lon="5.53555">
        <ele>230.3</ele>
        <time>2020-02-18T11:46:01Z</time>
      </trkpt>
      <trkpt lat="46.76224" lon="5.53556">
        <ele>230</ele>
        <time>2020-02-18T11:46:06Z</time>
      </trkpt>
      <trkpt lat="46.76229" lon="5.53555">
        <ele>229.5</ele>
        <time>2020-02-18T11:46:15Z</time>
      </trkpt>
      <trkpt lat="46.76233" lon="5.53553">
        <ele>228.3</ele>
        <time>2020-02-18T11:46:22Z</time>
      </trkpt>
      <trkpt lat="46.76238" lon="5.5355">
        <ele>225.9</ele>
        <time>2020-02-18T11:46:30Z</time>
      </trkpt>
      <trkpt lat="46.76242" lon="5.53548">
        <ele>224.6</ele>
        <time>2020-02-18T11:46:34Z</time>
      </trkpt>
      <trkpt lat="46.76248" lon="5.53546">
        <ele>223.4</ele>
        <time>2020-02-18T11:46:38Z</time>
      </trkpt>
      <trkpt lat="46.76253" lon="5.53545">
        <ele>222.4</ele>
        <time>2020-02-18T11:46:42Z</time>
      </trkpt>
      <trkpt lat="46.76258" lon="5.53547">
        <ele>221.6</ele>
        <time>2020-02-18T11:46:46Z</time>
      </trkpt>
      <trkpt lat="46.76262" lon="5.5355">
        <ele>221.2</ele>
        <time>2020-02-18T11:46:49Z</time>
      </trkpt>
      <trkpt lat="46.76265" lon="5.53555">
        <ele>221</ele>
        <time>2020-02-18T11:46:52Z</time>
      </trkpt>
      <trkpt lat="46.76269" lon="5.5356">
        <ele>221.1</ele>
        <time>2020-02-18T11:46:56Z</time>
      </trkpt>
      <trkpt lat="46.76273" lon="5.53565">
        <ele>221.5</ele>
        <time>2020-02-18T11:47:00Z</time>
      </trkpt>
      <trkpt lat="46.76275" lon="5.53572">
        <ele>222.3</ele>
        <time>2020-02-18T11:47:05Z</time>
      </trkpt>
      <trkpt lat="46.76277" lon="5.53579">
        <ele>223.1</ele>
        <time>2020-02-18T11:47:10Z</time>
      </trkpt>
      <trkpt lat="46.76279" lon="5.53586">
        <ele>223.9</ele>
        <time>2020-02-18T11:47:15Z</time>
      </trkpt>
      <trkpt lat="46.7628" lon="5.53593">
        <ele>224.2</ele>
        <time>2020-02-18T11:47:20Z</time>
      </trkpt>
      <trkpt lat="46.76282" lon="5.53601">
        <ele>224.3</ele>
        <time>2020-02-18T11:47:24Z</time>
      </trkpt>
      <trkpt lat="46.76283" lon="5.53608">
        <ele>224.4</ele>
        <time>2020-02-18T11:47:28Z</time>
      </trkpt>
      <trkpt lat="46.76284" lon="5.53616">
        <ele>224.5</ele>
        <time>2020-02-18T11:47:34Z</time>
      </trkpt>
      <trkpt lat="46.76286" lon="5.53623">
        <ele>224.6</ele>
        <time>2020-02-18T11:47:38Z</time>
      </trkpt>
      <trkpt lat="46.76289" lon="5.53629">
        <ele>224.8</ele>
        <time>2020-02-18T11:47:42Z</time>
      </trkpt>
      <trkpt lat="46.76291" lon="5.53635">
        <ele>225</ele>
        <time>2020-02-18T11:47:46Z</time>
      </trkpt>
      <trkpt lat="46.76293" lon="5.53641">
        <ele>225.1</ele>
        <time>2020-02-18T11:47:51Z</time>
      </trkpt>
      <trkpt lat="46.76296" lon="5.53647">
        <ele>225.1</ele>
        <time>2020-02-18T11:47:54Z</time>
      </trkpt>
      <trkpt lat="46.76299" lon="5.53652">
        <ele>224.8</ele>
        <time>2020-02-18T11:47:59Z</time>
      </trkpt>
      <trkpt lat="46.76302" lon="5.53657">
        <ele>224.2</ele>
        <time>2020-02-18T11:48:04Z</time>
      </trkpt>
      <trkpt lat="46.76304" lon="5.53663">
        <ele>223.7</ele>
        <time>2020-02-18T11:48:08Z</time>
      </trkpt>
      <trkpt lat="46.76306" lon="5.5367">
        <ele>222.9</ele>
        <time>2020-02-18T11:48:13Z</time>
      </trkpt>
      <trkpt lat="46.76309" lon="5.53676">
        <ele>222</ele>
        <time>2020-02-18T11:48:18Z</time>
      </trkpt>
      <trkpt lat="46.76312" lon="5.53684">
        <ele>221.7</ele>
        <time>2020-02-18T11:48:22Z</time>
      </trkpt>
      <trkpt lat="46.76314" lon="5.53691">
        <ele>221.9</ele>
        <time>2020-02-18T11:48:27Z</time>
      </trkpt>
      <trkpt lat="46.76316" lon="5.53697">
        <ele>222.4</ele>
        <time>2020-02-18T11:48:32Z</time>
      </trkpt>
      <trkpt lat="46.7632" lon="5.53703">
        <ele>222.7</ele>
        <time>2020-02-18T11:48:37Z</time>
      </trkpt>
      <trkpt lat="46.76323" lon="5.53708">
        <ele>222.9</ele>
        <time>2020-02-18T11:48:41Z</time>
      </trkpt>
      <trkpt lat="46.76326" lon="5.53714">
        <ele>223</ele>
        <time>2020-02-18T11:48:46Z</time>
      </trkpt>
      <trkpt lat="46.76328" lon="5.5372">
        <ele>222.7</ele>
        <time>2020-02-18T11:48:51Z</time>
      </trkpt>
      <trkpt lat="46.76331" lon="5.53726">
        <ele>222.1</ele>
        <time>2020-02-18T11:48:56Z</time>
      </trkpt>
      <trkpt lat="46.76333" lon="5.53732">
        <ele>221.8</ele>
        <time>2020-02-18T11:49:00Z</time>
      </trkpt>
      <trkpt lat="46.76337" lon="5.53738">
        <ele>221.5</ele>
        <time>2020-02-18T11:49:05Z</time>
      </trkpt>
      <trkpt lat="46.76341" lon="5.53741">
        <ele>221.5</ele>
        <time>2020-02-18T11:49:09Z</time>
      </trkpt>
      <trkpt lat="46.76345" lon="5.53746">
        <ele>221.5</ele>
        <time>2020-02-18T11:49:14Z</time>
      </trkpt>
      <trkpt lat="46.76349" lon="5.53749">
        <ele>221.6</ele>
        <time>2020-02-18T11:49:22Z</time>
      </trkpt>
      <trkpt lat="46.76354" lon="5.53751">
        <ele>222.1</ele>
        <time>2020-02-18T11:49:27Z</time>
      </trkpt>
      <trkpt lat="46.76359" lon="5.53753">
        <ele>222.6</ele>
        <time>2020-02-18T11:49:32Z</time>
      </trkpt>
      <trkpt lat="46.76363" lon="5.53755">
        <ele>222.8</ele>
        <time>2020-02-18T11:49:36Z</time>
      </trkpt>
      <trkpt lat="46.76368" lon="5.53759">
        <ele>222.7</ele>
        <time>2020-02-18T11:49:41Z</time>
      </trkpt>
      <trkpt lat="46.76373" lon="5.53761">
        <ele>222.7</ele>
        <time>2020-02-18T11:49:44Z</time>
      </trkpt>
      <trkpt lat="46.76379" lon="5.53761">
        <ele>222.6</ele>
        <time>2020-02-18T11:49:47Z</time>
      </trkpt>
      <trkpt lat="46.76389" lon="5.53762">
        <ele>222.2</ele>
        <time>2020-02-18T11:49:58Z</time>
      </trkpt>
      <trkpt lat="46.76395" lon="5.53765">
        <ele>221.9</ele>
        <time>2020-02-18T11:50:02Z</time>
      </trkpt>
      <trkpt lat="46.76399" lon="5.53767">
        <ele>221.8</ele>
        <time>2020-02-18T11:50:06Z</time>
      </trkpt>
      <trkpt lat="46.76404" lon="5.53769">
        <ele>221.8</ele>
        <time>2020-02-18T11:50:11Z</time>
      </trkpt>
      <trkpt lat="46.76408" lon="5.53773">
        <ele>221.8</ele>
        <time>2020-02-18T11:50:16Z</time>
      </trkpt>
      <trkpt lat="46.76413" lon="5.53776">
        <ele>221.7</ele>
        <time>2020-02-18T11:50:22Z</time>
      </trkpt>
      <trkpt lat="46.76417" lon="5.53777">
        <ele>221.4</ele>
        <time>2020-02-18T11:50:26Z</time>
      </trkpt>
      <trkpt lat="46.76422" lon="5.53779">
        <ele>221.2</ele>
        <time>2020-02-18T11:50:30Z</time>
      </trkpt>
      <trkpt lat="46.76427" lon="5.53783">
        <ele>221</ele>
        <time>2020-02-18T11:50:35Z</time>
      </trkpt>
      <trkpt lat="46.76432" lon="5.53786">
        <ele>220.8</ele>
        <time>2020-02-18T11:50:41Z</time>
      </trkpt>
      <trkpt lat="46.76437" lon="5.53788">
        <ele>220.7</ele>
        <time>2020-02-18T11:50:46Z</time>
      </trkpt>
      <trkpt lat="46.76442" lon="5.53789">
        <ele>220.5</ele>
        <time>2020-02-18T11:50:50Z</time>
      </trkpt>
      <trkpt lat="46.76447" lon="5.53792">
        <ele>220.3</ele>
        <time>2020-02-18T11:50:54Z</time>
      </trkpt>
      <trkpt lat="46.76452" lon="5.53795">
        <ele>220.2</ele>
        <time>2020-02-18T11:50:58Z</time>
      </trkpt>
      <trkpt lat="46.76457" lon="5.53797">
        <ele>220</ele>
        <time>2020-02-18T11:51:03Z</time>
      </trkpt>
      <trkpt lat="46.76462" lon="5.53799">
        <ele>219.9</ele>
        <time>2020-02-18T11:51:07Z</time>
      </trkpt>
      <trkpt lat="46.76467" lon="5.53802">
        <ele>219.9</ele>
        <time>2020-02-18T11:51:12Z</time>
      </trkpt>
      <trkpt lat="46.76471" lon="5.53804">
        <ele>219.8</ele>
        <time>2020-02-18T11:51:17Z</time>
      </trkpt>
      <trkpt lat="46.76476" lon="5.53807">
        <ele>219.7</ele>
        <time>2020-02-18T11:51:22Z</time>
      </trkpt>
      <trkpt lat="46.76481" lon="5.53811">
        <ele>219.7</ele>
        <time>2020-02-18T11:51:27Z</time>
      </trkpt>
      <trkpt lat="46.76485" lon="5.53815">
        <ele>219.8</ele>
        <time>2020-02-18T11:51:32Z</time>
      </trkpt>
      <trkpt lat="46.76489" lon="5.53818">
        <ele>219.9</ele>
        <time>2020-02-18T11:51:36Z</time>
      </trkpt>
      <trkpt lat="46.76495" lon="5.53821">
        <ele>220.1</ele>
        <time>2020-02-18T11:51:40Z</time>
      </trkpt>
      <trkpt lat="46.76499" lon="5.53825">
        <ele>220.5</ele>
        <time>2020-02-18T11:51:43Z</time>
      </trkpt>
      <trkpt lat="46.76503" lon="5.5383">
        <ele>221.1</ele>
        <time>2020-02-18T11:51:48Z</time>
      </trkpt>
      <trkpt lat="46.76507" lon="5.53835">
        <ele>221.4</ele>
        <time>2020-02-18T11:51:53Z</time>
      </trkpt>
      <trkpt lat="46.76512" lon="5.53839">
        <ele>221.9</ele>
        <time>2020-02-18T11:51:58Z</time>
      </trkpt>
      <trkpt lat="46.76516" lon="5.53841">
        <ele>222.6</ele>
        <time>2020-02-18T11:52:03Z</time>
      </trkpt>
      <trkpt lat="46.76521" lon="5.53844">
        <ele>223.1</ele>
        <time>2020-02-18T11:52:08Z</time>
      </trkpt>
      <trkpt lat="46.76525" lon="5.53847">
        <ele>223.1</ele>
        <time>2020-02-18T11:52:15Z</time>
      </trkpt>
      <trkpt lat="46.7653" lon="5.53849">
        <ele>223.1</ele>
        <time>2020-02-18T11:52:20Z</time>
      </trkpt>
      <trkpt lat="46.76535" lon="5.53851">
        <ele>223.1</ele>
        <time>2020-02-18T11:52:25Z</time>
      </trkpt>
      <trkpt lat="46.7654" lon="5.53851">
        <ele>223.3</ele>
        <time>2020-02-18T11:52:28Z</time>
      </trkpt>
      <trkpt lat="46.76544" lon="5.53852">
        <ele>223.8</ele>
        <time>2020-02-18T11:52:31Z</time>
      </trkpt>
      <trkpt lat="46.76549" lon="5.53854">
        <ele>225.2</ele>
        <time>2020-02-18T11:52:38Z</time>
      </trkpt>
      <trkpt lat="46.76554" lon="5.53852">
        <ele>225.7</ele>
        <time>2020-02-18T11:52:43Z</time>
      </trkpt>
      <trkpt lat="46.76559" lon="5.53851">
        <ele>225.8</ele>
        <time>2020-02-18T11:52:49Z</time>
      </trkpt>
      <trkpt lat="46.76564" lon="5.53851">
        <ele>225.8</ele>
        <time>2020-02-18T11:52:53Z</time>
      </trkpt>
      <trkpt lat="46.76569" lon="5.53851">
        <ele>225.5</ele>
        <time>2020-02-18T11:52:57Z</time>
      </trkpt>
      <trkpt lat="46.76574" lon="5.53851">
        <ele>225.5</ele>
        <time>2020-02-18T11:53:02Z</time>
      </trkpt>
      <trkpt lat="46.76579" lon="5.53852">
        <ele>225.6</ele>
        <time>2020-02-18T11:53:06Z</time>
      </trkpt>
      <trkpt lat="46.76584" lon="5.53855">
        <ele>226.1</ele>
        <time>2020-02-18T11:53:11Z</time>
      </trkpt>
      <trkpt lat="46.76589" lon="5.53859">
        <ele>226.9</ele>
        <time>2020-02-18T11:53:16Z</time>
      </trkpt>
      <trkpt lat="46.76592" lon="5.53863">
        <ele>227.7</ele>
        <time>2020-02-18T11:53:22Z</time>
      </trkpt>
      <trkpt lat="46.76593" lon="5.5387">
        <ele>228.3</ele>
        <time>2020-02-18T11:53:27Z</time>
      </trkpt>
      <trkpt lat="46.76594" lon="5.53878">
        <ele>229.3</ele>
        <time>2020-02-18T11:53:32Z</time>
      </trkpt>
      <trkpt lat="46.76592" lon="5.53885">
        <ele>230.5</ele>
        <time>2020-02-18T11:53:37Z</time>
      </trkpt>
      <trkpt lat="46.76591" lon="5.53892">
        <ele>231.9</ele>
        <time>2020-02-18T11:53:42Z</time>
      </trkpt>
      <trkpt lat="46.7659" lon="5.53899">
        <ele>234.2</ele>
        <time>2020-02-18T11:53:48Z</time>
      </trkpt>
      <trkpt lat="46.76587" lon="5.53905">
        <ele>236.5</ele>
        <time>2020-02-18T11:53:54Z</time>
      </trkpt>
      <trkpt lat="46.76584" lon="5.53912">
        <ele>239.4</ele>
        <time>2020-02-18T11:54:00Z</time>
      </trkpt>
      <trkpt lat="46.76582" lon="5.53918">
        <ele>241.4</ele>
        <time>2020-02-18T11:54:04Z</time>
      </trkpt>
      <trkpt lat="46.76578" lon="5.53923">
        <ele>244.1</ele>
        <time>2020-02-18T11:54:09Z</time>
      </trkpt>
      <trkpt lat="46.76575" lon="5.53929">
        <ele>246.5</ele>
        <time>2020-02-18T11:54:13Z</time>
      </trkpt>
      <trkpt lat="46.76572" lon="5.53934">
        <ele>249.7</ele>
        <time>2020-02-18T11:54:18Z</time>
      </trkpt>
      <trkpt lat="46.76569" lon="5.53941">
        <ele>252.7</ele>
        <time>2020-02-18T11:54:23Z</time>
      </trkpt>
      <trkpt lat="46.76569" lon="5.53948">
        <ele>255.8</ele>
        <time>2020-02-18T11:54:28Z</time>
      </trkpt>
      <trkpt lat="46.76567" lon="5.53955">
        <ele>259.2</ele>
        <time>2020-02-18T11:54:34Z</time>
      </trkpt>
      <trkpt lat="46.76564" lon="5.53961">
        <ele>261.2</ele>
        <time>2020-02-18T11:54:38Z</time>
      </trkpt>
      <trkpt lat="46.76561" lon="5.53967">
        <ele>263</ele>
        <time>2020-02-18T11:54:42Z</time>
      </trkpt>
      <trkpt lat="46.76559" lon="5.53974">
        <ele>265.1</ele>
        <time>2020-02-18T11:54:47Z</time>
      </trkpt>
      <trkpt lat="46.76559" lon="5.5398">
        <ele>267</ele>
        <time>2020-02-18T11:54:52Z</time>
      </trkpt>
      <trkpt lat="46.76559" lon="5.53988">
        <ele>268.3</ele>
        <time>2020-02-18T11:54:56Z</time>
      </trkpt>
      <trkpt lat="46.76559" lon="5.53996">
        <ele>269.4</ele>
        <time>2020-02-18T11:55:00Z</time>
      </trkpt>
      <trkpt lat="46.7656" lon="5.54004">
        <ele>270</ele>
        <time>2020-02-18T11:55:03Z</time>
      </trkpt>
      <trkpt lat="46.76563" lon="5.5401">
        <ele>270.7</ele>
        <time>2020-02-18T11:55:08Z</time>
      </trkpt>
      <trkpt lat="46.76567" lon="5.54015">
        <ele>271</ele>
        <time>2020-02-18T11:55:13Z</time>
      </trkpt>
      <trkpt lat="46.7657" lon="5.54021">
        <ele>271</ele>
        <time>2020-02-18T11:55:16Z</time>
      </trkpt>
      <trkpt lat="46.76572" lon="5.54028">
        <ele>270.8</ele>
        <time>2020-02-18T11:55:19Z</time>
      </trkpt>
      <trkpt lat="46.76575" lon="5.54033">
        <ele>269.2</ele>
        <time>2020-02-18T11:55:26Z</time>
      </trkpt>
      <trkpt lat="46.76578" lon="5.5404">
        <ele>267.3</ele>
        <time>2020-02-18T11:55:31Z</time>
      </trkpt>
      <trkpt lat="46.76579" lon="5.54048">
        <ele>264.1</ele>
        <time>2020-02-18T11:55:37Z</time>
      </trkpt>
      <trkpt lat="46.76581" lon="5.54053">
        <ele>260.5</ele>
        <time>2020-02-18T11:55:44Z</time>
      </trkpt>
      <trkpt lat="46.76584" lon="5.54059">
        <ele>258.3</ele>
        <time>2020-02-18T11:55:50Z</time>
      </trkpt>
      <trkpt lat="46.76584" lon="5.54066">
        <ele>254.8</ele>
        <time>2020-02-18T11:56:10Z</time>
      </trkpt>
      <trkpt lat="46.76588" lon="5.54072">
        <ele>253.8</ele>
        <time>2020-02-18T11:56:15Z</time>
      </trkpt>
      <trkpt lat="46.76592" lon="5.54077">
        <ele>253.2</ele>
        <time>2020-02-18T11:56:18Z</time>
      </trkpt>
      <trkpt lat="46.76597" lon="5.54082">
        <ele>252.6</ele>
        <time>2020-02-18T11:56:21Z</time>
      </trkpt>
      <trkpt lat="46.76601" lon="5.54086">
        <ele>252</ele>
        <time>2020-02-18T11:56:24Z</time>
      </trkpt>
      <trkpt lat="46.76606" lon="5.5409">
        <ele>251.3</ele>
        <time>2020-02-18T11:56:28Z</time>
      </trkpt>
      <trkpt lat="46.76611" lon="5.54093">
        <ele>250.5</ele>
        <time>2020-02-18T11:56:33Z</time>
      </trkpt>
      <trkpt lat="46.76616" lon="5.54097">
        <ele>250.1</ele>
        <time>2020-02-18T11:56:38Z</time>
      </trkpt>
      <trkpt lat="46.7662" lon="5.54101">
        <ele>249.7</ele>
        <time>2020-02-18T11:56:43Z</time>
      </trkpt>
      <trkpt lat="46.76625" lon="5.54105">
        <ele>249.7</ele>
        <time>2020-02-18T11:56:49Z</time>
      </trkpt>
      <trkpt lat="46.76628" lon="5.54111">
        <ele>250.6</ele>
        <time>2020-02-18T11:56:55Z</time>
      </trkpt>
      <trkpt lat="46.76629" lon="5.54118">
        <ele>252</ele>
        <time>2020-02-18T11:57:02Z</time>
      </trkpt>
      <trkpt lat="46.76631" lon="5.54125">
        <ele>252.6</ele>
        <time>2020-02-18T11:57:09Z</time>
      </trkpt>
      <trkpt lat="46.76633" lon="5.54131">
        <ele>253</ele>
        <time>2020-02-18T11:57:14Z</time>
      </trkpt>
      <trkpt lat="46.76637" lon="5.54135">
        <ele>253.8</ele>
        <time>2020-02-18T11:57:19Z</time>
      </trkpt>
      <trkpt lat="46.76643" lon="5.5414">
        <ele>255.2</ele>
        <time>2020-02-18T11:57:24Z</time>
      </trkpt>
      <trkpt lat="46.76647" lon="5.54143">
        <ele>256.9</ele>
        <time>2020-02-18T11:57:28Z</time>
      </trkpt>
      <trkpt lat="46.76652" lon="5.54148">
        <ele>258.5</ele>
        <time>2020-02-18T11:57:32Z</time>
      </trkpt>
      <trkpt lat="46.76656" lon="5.54152">
        <ele>260.3</ele>
        <time>2020-02-18T11:57:37Z</time>
      </trkpt>
      <trkpt lat="46.7666" lon="5.54159">
        <ele>261.6</ele>
        <time>2020-02-18T11:57:41Z</time>
      </trkpt>
      <trkpt lat="46.76663" lon="5.54166">
        <ele>263.3</ele>
        <time>2020-02-18T11:57:46Z</time>
      </trkpt>
      <trkpt lat="46.76664" lon="5.54173">
        <ele>264.6</ele>
        <time>2020-02-18T11:57:50Z</time>
      </trkpt>
      <trkpt lat="46.76665" lon="5.5418">
        <ele>265.2</ele>
        <time>2020-02-18T11:57:56Z</time>
      </trkpt>
      <trkpt lat="46.76665" lon="5.54187">
        <ele>265.2</ele>
        <time>2020-02-18T11:58:01Z</time>
      </trkpt>
      <trkpt lat="46.76666" lon="5.54194">
        <ele>265.4</ele>
        <time>2020-02-18T11:58:06Z</time>
      </trkpt>
      <trkpt lat="46.76669" lon="5.542">
        <ele>265.9</ele>
        <time>2020-02-18T11:58:11Z</time>
      </trkpt>
      <trkpt lat="46.7667" lon="5.54208">
        <ele>266.2</ele>
        <time>2020-02-18T11:58:16Z</time>
      </trkpt>
      <trkpt lat="46.7667" lon="5.54215">
        <ele>266.4</ele>
        <time>2020-02-18T11:58:20Z</time>
      </trkpt>
      <trkpt lat="46.76671" lon="5.54221">
        <ele>266.4</ele>
        <time>2020-02-18T11:58:25Z</time>
      </trkpt>
      <trkpt lat="46.76671" lon="5.54228">
        <ele>265.8</ele>
        <time>2020-02-18T11:58:35Z</time>
      </trkpt>
      <trkpt lat="46.76675" lon="5.54232">
        <ele>265.5</ele>
        <time>2020-02-18T11:58:47Z</time>
      </trkpt>
      <trkpt lat="46.76674" lon="5.54239">
        <ele>266.1</ele>
        <time>2020-02-18T11:59:03Z</time>
      </trkpt>
      <trkpt lat="46.76674" lon="5.54245">
        <ele>263.8</ele>
        <time>2020-02-18T11:59:25Z</time>
      </trkpt>
      <trkpt lat="46.76675" lon="5.54252">
        <ele>262.4</ele>
        <time>2020-02-18T11:59:38Z</time>
      </trkpt>
      <trkpt lat="46.76675" lon="5.54259">
        <ele>262.6</ele>
        <time>2020-02-18T11:59:46Z</time>
      </trkpt>
      <trkpt lat="46.76677" lon="5.54265">
        <ele>263.1</ele>
        <time>2020-02-18T11:59:56Z</time>
      </trkpt>
      <trkpt lat="46.7668" lon="5.54271">
        <ele>264.8</ele>
        <time>2020-02-18T12:00:05Z</time>
      </trkpt>
      <trkpt lat="46.76681" lon="5.54277">
        <ele>267.4</ele>
        <time>2020-02-18T12:00:21Z</time>
      </trkpt>
      <trkpt lat="46.76685" lon="5.54282">
        <ele>264.9</ele>
        <time>2020-02-18T12:00:48Z</time>
      </trkpt>
      <trkpt lat="46.76685" lon="5.54289">
        <ele>260.9</ele>
        <time>2020-02-18T12:01:04Z</time>
      </trkpt>
      <trkpt lat="46.7669" lon="5.54292">
        <ele>260.2</ele>
        <time>2020-02-18T12:01:14Z</time>
      </trkpt>
      <trkpt lat="46.7669" lon="5.54299">
        <ele>260.1</ele>
        <time>2020-02-18T12:02:02Z</time>
      </trkpt>
      <trkpt lat="46.76689" lon="5.54306">
        <ele>261.1</ele>
        <time>2020-02-18T12:02:09Z</time>
      </trkpt>
      <trkpt lat="46.7669" lon="5.54313">
        <ele>262.7</ele>
        <time>2020-02-18T12:02:20Z</time>
      </trkpt>
      <trkpt lat="46.76691" lon="5.54319">
        <ele>262.2</ele>
        <time>2020-02-18T12:02:32Z</time>
      </trkpt>
      <trkpt lat="46.76695" lon="5.54324">
        <ele>261.2</ele>
        <time>2020-02-18T12:02:37Z</time>
      </trkpt>
      <trkpt lat="46.76697" lon="5.5433">
        <ele>260.4</ele>
        <time>2020-02-18T12:02:42Z</time>
      </trkpt>
      <trkpt lat="46.76699" lon="5.54338">
        <ele>259.6</ele>
        <time>2020-02-18T12:02:46Z</time>
      </trkpt>
      <trkpt lat="46.76702" lon="5.54344">
        <ele>258.9</ele>
        <time>2020-02-18T12:02:51Z</time>
      </trkpt>
      <trkpt lat="46.76705" lon="5.54349">
        <ele>258.6</ele>
        <time>2020-02-18T12:02:56Z</time>
      </trkpt>
      <trkpt lat="46.7671" lon="5.54353">
        <ele>258.8</ele>
        <time>2020-02-18T12:03:01Z</time>
      </trkpt>
      <trkpt lat="46.76713" lon="5.54359">
        <ele>259.3</ele>
        <time>2020-02-18T12:03:06Z</time>
      </trkpt>
      <trkpt lat="46.76716" lon="5.54365">
        <ele>259.8</ele>
        <time>2020-02-18T12:03:10Z</time>
      </trkpt>
      <trkpt lat="46.76719" lon="5.5437">
        <ele>260.2</ele>
        <time>2020-02-18T12:03:14Z</time>
      </trkpt>
      <trkpt lat="46.76723" lon="5.54376">
        <ele>260.6</ele>
        <time>2020-02-18T12:03:18Z</time>
      </trkpt>
      <trkpt lat="46.76725" lon="5.54382">
        <ele>261.2</ele>
        <time>2020-02-18T12:03:23Z</time>
      </trkpt>
      <trkpt lat="46.76728" lon="5.54389">
        <ele>261.5</ele>
        <time>2020-02-18T12:03:27Z</time>
      </trkpt>
      <trkpt lat="46.7673" lon="5.54396">
        <ele>261.7</ele>
        <time>2020-02-18T12:03:32Z</time>
      </trkpt>
      <trkpt lat="46.76733" lon="5.54403">
        <ele>261.6</ele>
        <time>2020-02-18T12:03:37Z</time>
      </trkpt>
      <trkpt lat="46.76736" lon="5.54408">
        <ele>261.2</ele>
        <time>2020-02-18T12:03:42Z</time>
      </trkpt>
      <trkpt lat="46.76738" lon="5.54415">
        <ele>260.9</ele>
        <time>2020-02-18T12:03:46Z</time>
      </trkpt>
      <trkpt lat="46.7674" lon="5.54421">
        <ele>260.5</ele>
        <time>2020-02-18T12:03:50Z</time>
      </trkpt>
      <trkpt lat="46.76744" lon="5.54427">
        <ele>260</ele>
        <time>2020-02-18T12:03:55Z</time>
      </trkpt>
      <trkpt lat="46.76746" lon="5.54433">
        <ele>259.4</ele>
        <time>2020-02-18T12:04:00Z</time>
      </trkpt>
      <trkpt lat="46.76748" lon="5.54439">
        <ele>258.7</ele>
        <time>2020-02-18T12:04:05Z</time>
      </trkpt>
      <trkpt lat="46.76751" lon="5.54444">
        <ele>258</ele>
        <time>2020-02-18T12:04:11Z</time>
      </trkpt>
      <trkpt lat="46.76756" lon="5.54446">
        <ele>257.6</ele>
        <time>2020-02-18T12:04:15Z</time>
      </trkpt>
      <trkpt lat="46.76761" lon="5.5445">
        <ele>257.3</ele>
        <time>2020-02-18T12:04:20Z</time>
      </trkpt>
      <trkpt lat="46.76765" lon="5.54454">
        <ele>257.4</ele>
        <time>2020-02-18T12:04:24Z</time>
      </trkpt>
      <trkpt lat="46.76768" lon="5.54459">
        <ele>257.6</ele>
        <time>2020-02-18T12:04:29Z</time>
      </trkpt>
      <trkpt lat="46.76772" lon="5.54463">
        <ele>258.2</ele>
        <time>2020-02-18T12:04:34Z</time>
      </trkpt>
      <trkpt lat="46.76776" lon="5.54467">
        <ele>258.6</ele>
        <time>2020-02-18T12:04:38Z</time>
      </trkpt>
      <trkpt lat="46.76781" lon="5.54473">
        <ele>258.9</ele>
        <time>2020-02-18T12:04:43Z</time>
      </trkpt>
      <trkpt lat="46.76785" lon="5.54478">
        <ele>259.1</ele>
        <time>2020-02-18T12:04:48Z</time>
      </trkpt>
      <trkpt lat="46.76788" lon="5.54483">
        <ele>259.1</ele>
        <time>2020-02-18T12:04:53Z</time>
      </trkpt>
      <trkpt lat="46.76792" lon="5.54489">
        <ele>259.4</ele>
        <time>2020-02-18T12:04:59Z</time>
      </trkpt>
      <trkpt lat="46.76795" lon="5.54494">
        <ele>260.1</ele>
        <time>2020-02-18T12:05:04Z</time>
      </trkpt>
      <trkpt lat="46.76798" lon="5.54499">
        <ele>260.8</ele>
        <time>2020-02-18T12:05:08Z</time>
      </trkpt>
      <trkpt lat="46.76802" lon="5.54503">
        <ele>261.4</ele>
        <time>2020-02-18T12:05:12Z</time>
      </trkpt>
      <trkpt lat="46.76806" lon="5.54507">
        <ele>261.9</ele>
        <time>2020-02-18T12:05:16Z</time>
      </trkpt>
      <trkpt lat="46.7681" lon="5.54511">
        <ele>262.5</ele>
        <time>2020-02-18T12:05:22Z</time>
      </trkpt>
      <trkpt lat="46.76814" lon="5.54516">
        <ele>262.6</ele>
        <time>2020-02-18T12:05:27Z</time>
      </trkpt>
      <trkpt lat="46.76817" lon="5.5452">
        <ele>262.6</ele>
        <time>2020-02-18T12:05:32Z</time>
      </trkpt>
      <trkpt lat="46.7682" lon="5.54525">
        <ele>262.3</ele>
        <time>2020-02-18T12:05:37Z</time>
      </trkpt>
      <trkpt lat="46.76825" lon="5.5453">
        <ele>262.1</ele>
        <time>2020-02-18T12:05:42Z</time>
      </trkpt>
      <trkpt lat="46.76829" lon="5.54535">
        <ele>262</ele>
        <time>2020-02-18T12:05:46Z</time>
      </trkpt>
      <trkpt lat="46.76834" lon="5.54539">
        <ele>261.9</ele>
        <time>2020-02-18T12:05:51Z</time>
      </trkpt>
      <trkpt lat="46.76839" lon="5.54542">
        <ele>261.6</ele>
        <time>2020-02-18T12:05:56Z</time>
      </trkpt>
      <trkpt lat="46.76842" lon="5.54548">
        <ele>261.5</ele>
        <time>2020-02-18T12:06:02Z</time>
      </trkpt>
      <trkpt lat="46.76846" lon="5.54553">
        <ele>261.2</ele>
        <time>2020-02-18T12:06:08Z</time>
      </trkpt>
      <trkpt lat="46.7685" lon="5.54557">
        <ele>261.1</ele>
        <time>2020-02-18T12:06:12Z</time>
      </trkpt>
      <trkpt lat="46.76855" lon="5.5456">
        <ele>261</ele>
        <time>2020-02-18T12:06:16Z</time>
      </trkpt>
      <trkpt lat="46.7686" lon="5.54564">
        <ele>260.9</ele>
        <time>2020-02-18T12:06:20Z</time>
      </trkpt>
      <trkpt lat="46.76863" lon="5.54569">
        <ele>260.9</ele>
        <time>2020-02-18T12:06:24Z</time>
      </trkpt>
      <trkpt lat="46.76866" lon="5.54574">
        <ele>261.3</ele>
        <time>2020-02-18T12:06:29Z</time>
      </trkpt>
      <trkpt lat="46.7687" lon="5.54579">
        <ele>261.7</ele>
        <time>2020-02-18T12:06:35Z</time>
      </trkpt>
      <trkpt lat="46.76874" lon="5.54583">
        <ele>261.8</ele>
        <time>2020-02-18T12:06:40Z</time>
      </trkpt>
      <trkpt lat="46.76878" lon="5.54588">
        <ele>261.6</ele>
        <time>2020-02-18T12:06:45Z</time>
      </trkpt>
      <trkpt lat="46.76881" lon="5.54592">
        <ele>261.4</ele>
        <time>2020-02-18T12:06:49Z</time>
      </trkpt>
      <trkpt lat="46.76886" lon="5.54596">
        <ele>261.2</ele>
        <time>2020-02-18T12:06:54Z</time>
      </trkpt>
      <trkpt lat="46.76891" lon="5.54599">
        <ele>261.2</ele>
        <time>2020-02-18T12:07:00Z</time>
      </trkpt>
      <trkpt lat="46.76895" lon="5.54601">
        <ele>260.9</ele>
        <time>2020-02-18T12:07:06Z</time>
      </trkpt>
      <trkpt lat="46.769" lon="5.54605">
        <ele>260.5</ele>
        <time>2020-02-18T12:07:12Z</time>
      </trkpt>
      <trkpt lat="46.76904" lon="5.54608">
        <ele>260.6</ele>
        <time>2020-02-18T12:07:16Z</time>
      </trkpt>
      <trkpt lat="46.76908" lon="5.54611">
        <ele>261.2</ele>
        <time>2020-02-18T12:07:21Z</time>
      </trkpt>
      <trkpt lat="46.76913" lon="5.54615">
        <ele>262</ele>
        <time>2020-02-18T12:07:26Z</time>
      </trkpt>
      <trkpt lat="46.76917" lon="5.54618">
        <ele>262.8</ele>
        <time>2020-02-18T12:07:32Z</time>
      </trkpt>
      <trkpt lat="46.76922" lon="5.54622">
        <ele>263.3</ele>
        <time>2020-02-18T12:07:39Z</time>
      </trkpt>
      <trkpt lat="46.76926" lon="5.54626">
        <ele>263</ele>
        <time>2020-02-18T12:07:44Z</time>
      </trkpt>
      <trkpt lat="46.7693" lon="5.5463">
        <ele>262.5</ele>
        <time>2020-02-18T12:07:48Z</time>
      </trkpt>
      <trkpt lat="46.76935" lon="5.54635">
        <ele>261.7</ele>
        <time>2020-02-18T12:07:52Z</time>
      </trkpt>
      <trkpt lat="46.76938" lon="5.54639">
        <ele>260.7</ele>
        <time>2020-02-18T12:07:56Z</time>
      </trkpt>
      <trkpt lat="46.76943" lon="5.54643">
        <ele>259.3</ele>
        <time>2020-02-18T12:08:01Z</time>
      </trkpt>
      <trkpt lat="46.76948" lon="5.54646">
        <ele>258.3</ele>
        <time>2020-02-18T12:08:05Z</time>
      </trkpt>
      <trkpt lat="46.76952" lon="5.54648">
        <ele>257.2</ele>
        <time>2020-02-18T12:08:09Z</time>
      </trkpt>
      <trkpt lat="46.76957" lon="5.5465">
        <ele>256.4</ele>
        <time>2020-02-18T12:08:14Z</time>
      </trkpt>
      <trkpt lat="46.76962" lon="5.54653">
        <ele>255.7</ele>
        <time>2020-02-18T12:08:19Z</time>
      </trkpt>
      <trkpt lat="46.76967" lon="5.54656">
        <ele>254.9</ele>
        <time>2020-02-18T12:08:23Z</time>
      </trkpt>
      <trkpt lat="46.76971" lon="5.54659">
        <ele>253.8</ele>
        <time>2020-02-18T12:08:28Z</time>
      </trkpt>
      <trkpt lat="46.76976" lon="5.54662">
        <ele>252.8</ele>
        <time>2020-02-18T12:08:33Z</time>
      </trkpt>
      <trkpt lat="46.76981" lon="5.54666">
        <ele>251.9</ele>
        <time>2020-02-18T12:08:38Z</time>
      </trkpt>
      <trkpt lat="46.76986" lon="5.5467">
        <ele>251.2</ele>
        <time>2020-02-18T12:08:42Z</time>
      </trkpt>
      <trkpt lat="46.76988" lon="5.54677">
        <ele>251.1</ele>
        <time>2020-02-18T12:08:44Z</time>
      </trkpt>
      <trkpt lat="46.76991" lon="5.54683">
        <ele>251.3</ele>
        <time>2020-02-18T12:08:47Z</time>
      </trkpt>
      <trkpt lat="46.76994" lon="5.54689">
        <ele>252.1</ele>
        <time>2020-02-18T12:08:51Z</time>
      </trkpt>
      <trkpt lat="46.76996" lon="5.54697">
        <ele>253.1</ele>
        <time>2020-02-18T12:08:55Z</time>
      </trkpt>
      <trkpt lat="46.77" lon="5.54703">
        <ele>253.9</ele>
        <time>2020-02-18T12:08:58Z</time>
      </trkpt>
      <trkpt lat="46.77003" lon="5.54709">
        <ele>254.8</ele>
        <time>2020-02-18T12:09:01Z</time>
      </trkpt>
      <trkpt lat="46.77007" lon="5.54714">
        <ele>255.8</ele>
        <time>2020-02-18T12:09:05Z</time>
      </trkpt>
      <trkpt lat="46.77011" lon="5.54719">
        <ele>256.8</ele>
        <time>2020-02-18T12:09:10Z</time>
      </trkpt>
      <trkpt lat="46.77014" lon="5.54723">
        <ele>257.5</ele>
        <time>2020-02-18T12:09:16Z</time>
      </trkpt>
      <trkpt lat="46.77018" lon="5.54727">
        <ele>257.7</ele>
        <time>2020-02-18T12:09:22Z</time>
      </trkpt>
      <trkpt lat="46.77022" lon="5.54732">
        <ele>257.9</ele>
        <time>2020-02-18T12:09:27Z</time>
      </trkpt>
      <trkpt lat="46.77027" lon="5.54736">
        <ele>258.2</ele>
        <time>2020-02-18T12:09:32Z</time>
      </trkpt>
      <trkpt lat="46.77031" lon="5.54739">
        <ele>258.5</ele>
        <time>2020-02-18T12:09:36Z</time>
      </trkpt>
      <trkpt lat="46.77035" lon="5.54741">
        <ele>258.8</ele>
        <time>2020-02-18T12:09:40Z</time>
      </trkpt>
      <trkpt lat="46.7704" lon="5.54745">
        <ele>259.1</ele>
        <time>2020-02-18T12:09:45Z</time>
      </trkpt>
      <trkpt lat="46.77045" lon="5.54747">
        <ele>259.3</ele>
        <time>2020-02-18T12:09:50Z</time>
      </trkpt>
      <trkpt lat="46.77049" lon="5.5475">
        <ele>259.6</ele>
        <time>2020-02-18T12:09:54Z</time>
      </trkpt>
      <trkpt lat="46.77053" lon="5.54752">
        <ele>260.2</ele>
        <time>2020-02-18T12:09:59Z</time>
      </trkpt>
      <trkpt lat="46.77057" lon="5.54757">
        <ele>260.9</ele>
        <time>2020-02-18T12:10:05Z</time>
      </trkpt>
      <trkpt lat="46.77061" lon="5.54762">
        <ele>261.2</ele>
        <time>2020-02-18T12:10:10Z</time>
      </trkpt>
      <trkpt lat="46.77065" lon="5.54767">
        <ele>261.2</ele>
        <time>2020-02-18T12:10:15Z</time>
      </trkpt>
      <trkpt lat="46.77069" lon="5.5477">
        <ele>261</ele>
        <time>2020-02-18T12:10:20Z</time>
      </trkpt>
      <trkpt lat="46.77073" lon="5.54775">
        <ele>260.9</ele>
        <time>2020-02-18T12:10:27Z</time>
      </trkpt>
      <trkpt lat="46.77076" lon="5.54781">
        <ele>260.8</ele>
        <time>2020-02-18T12:10:41Z</time>
      </trkpt>
      <trkpt lat="46.77075" lon="5.54775">
        <ele>263.1</ele>
        <time>2020-02-18T12:11:03Z</time>
      </trkpt>
      <trkpt lat="46.77071" lon="5.54775">
        <ele>265</ele>
        <time>2020-02-18T12:11:14Z</time>
      </trkpt>
      <trkpt lat="46.77067" lon="5.5478">
        <ele>265.3</ele>
        <time>2020-02-18T12:11:19Z</time>
      </trkpt>
      <trkpt lat="46.77062" lon="5.54782">
        <ele>264.4</ele>
        <time>2020-02-18T12:11:29Z</time>
      </trkpt>
      <trkpt lat="46.77065" lon="5.54788">
        <ele>260.5</ele>
        <time>2020-02-18T12:11:48Z</time>
      </trkpt>
      <trkpt lat="46.77069" lon="5.54791">
        <ele>259.6</ele>
        <time>2020-02-18T12:11:52Z</time>
      </trkpt>
      <trkpt lat="46.77074" lon="5.54795">
        <ele>258.9</ele>
        <time>2020-02-18T12:11:56Z</time>
      </trkpt>
      <trkpt lat="46.77076" lon="5.548">
        <ele>258</ele>
        <time>2020-02-18T12:12:01Z</time>
      </trkpt>
      <trkpt lat="46.77079" lon="5.54807">
        <ele>257.2</ele>
        <time>2020-02-18T12:12:07Z</time>
      </trkpt>
      <trkpt lat="46.77082" lon="5.54813">
        <ele>256.5</ele>
        <time>2020-02-18T12:12:12Z</time>
      </trkpt>
      <trkpt lat="46.77085" lon="5.5482">
        <ele>256</ele>
        <time>2020-02-18T12:12:17Z</time>
      </trkpt>
      <trkpt lat="46.77088" lon="5.54827">
        <ele>255.6</ele>
        <time>2020-02-18T12:12:21Z</time>
      </trkpt>
      <trkpt lat="46.7709" lon="5.54834">
        <ele>255.1</ele>
        <time>2020-02-18T12:12:25Z</time>
      </trkpt>
      <trkpt lat="46.77092" lon="5.54841">
        <ele>254.2</ele>
        <time>2020-02-18T12:12:30Z</time>
      </trkpt>
      <trkpt lat="46.77095" lon="5.54847">
        <ele>253.5</ele>
        <time>2020-02-18T12:12:35Z</time>
      </trkpt>
      <trkpt lat="46.77096" lon="5.54853">
        <ele>253.2</ele>
        <time>2020-02-18T12:12:39Z</time>
      </trkpt>
      <trkpt lat="46.77098" lon="5.5486">
        <ele>253.1</ele>
        <time>2020-02-18T12:12:43Z</time>
      </trkpt>
      <trkpt lat="46.771" lon="5.54866">
        <ele>253</ele>
        <time>2020-02-18T12:12:47Z</time>
      </trkpt>
      <trkpt lat="46.77102" lon="5.54872">
        <ele>252.9</ele>
        <time>2020-02-18T12:12:51Z</time>
      </trkpt>
      <trkpt lat="46.77106" lon="5.54878">
        <ele>252.6</ele>
        <time>2020-02-18T12:12:55Z</time>
      </trkpt>
      <trkpt lat="46.77109" lon="5.54884">
        <ele>252.4</ele>
        <time>2020-02-18T12:12:59Z</time>
      </trkpt>
      <trkpt lat="46.77113" lon="5.54888">
        <ele>251.9</ele>
        <time>2020-02-18T12:13:05Z</time>
      </trkpt>
      <trkpt lat="46.77117" lon="5.54892">
        <ele>251.7</ele>
        <time>2020-02-18T12:13:11Z</time>
      </trkpt>
      <trkpt lat="46.77122" lon="5.54896">
        <ele>251.6</ele>
        <time>2020-02-18T12:13:16Z</time>
      </trkpt>
      <trkpt lat="46.77125" lon="5.54901">
        <ele>251.5</ele>
        <time>2020-02-18T12:13:21Z</time>
      </trkpt>
      <trkpt lat="46.77128" lon="5.54908">
        <ele>251.4</ele>
        <time>2020-02-18T12:13:26Z</time>
      </trkpt>
      <trkpt lat="46.7713" lon="5.54914">
        <ele>251.6</ele>
        <time>2020-02-18T12:13:30Z</time>
      </trkpt>
      <trkpt lat="46.77132" lon="5.54921">
        <ele>251.9</ele>
        <time>2020-02-18T12:13:34Z</time>
      </trkpt>
      <trkpt lat="46.77135" lon="5.54926">
        <ele>252.3</ele>
        <time>2020-02-18T12:13:38Z</time>
      </trkpt>
      <trkpt lat="46.77137" lon="5.54933">
        <ele>252.6</ele>
        <time>2020-02-18T12:13:43Z</time>
      </trkpt>
      <trkpt lat="46.77139" lon="5.54939">
        <ele>252.6</ele>
        <time>2020-02-18T12:13:49Z</time>
      </trkpt>
      <trkpt lat="46.77142" lon="5.54945">
        <ele>252.3</ele>
        <time>2020-02-18T12:13:56Z</time>
      </trkpt>
      <trkpt lat="46.77146" lon="5.5495">
        <ele>252</ele>
        <time>2020-02-18T12:14:01Z</time>
      </trkpt>
      <trkpt lat="46.7715" lon="5.54955">
        <ele>251.4</ele>
        <time>2020-02-18T12:14:07Z</time>
      </trkpt>
      <trkpt lat="46.77154" lon="5.5496">
        <ele>251</ele>
        <time>2020-02-18T12:14:12Z</time>
      </trkpt>
      <trkpt lat="46.77156" lon="5.54966">
        <ele>250.3</ele>
        <time>2020-02-18T12:14:19Z</time>
      </trkpt>
      <trkpt lat="46.77158" lon="5.54973">
        <ele>249.7</ele>
        <time>2020-02-18T12:14:25Z</time>
      </trkpt>
      <trkpt lat="46.77161" lon="5.54979">
        <ele>249</ele>
        <time>2020-02-18T12:14:31Z</time>
      </trkpt>
      <trkpt lat="46.77183" lon="5.55">
        <ele>248.6</ele>
        <time>2020-02-18T12:14:56Z</time>
      </trkpt>
      <trkpt lat="46.77188" lon="5.55001">
        <ele>249.2</ele>
        <time>2020-02-18T12:14:59Z</time>
      </trkpt>
      <trkpt lat="46.77193" lon="5.55004">
        <ele>250.3</ele>
        <time>2020-02-18T12:15:03Z</time>
      </trkpt>
      <trkpt lat="46.77197" lon="5.55007">
        <ele>251.3</ele>
        <time>2020-02-18T12:15:06Z</time>
      </trkpt>
      <trkpt lat="46.77202" lon="5.55009">
        <ele>252.6</ele>
        <time>2020-02-18T12:15:10Z</time>
      </trkpt>
      <trkpt lat="46.77206" lon="5.55011">
        <ele>253.7</ele>
        <time>2020-02-18T12:15:14Z</time>
      </trkpt>
      <trkpt lat="46.77211" lon="5.55011">
        <ele>254.9</ele>
        <time>2020-02-18T12:15:18Z</time>
      </trkpt>
      <trkpt lat="46.77217" lon="5.55013">
        <ele>255.9</ele>
        <time>2020-02-18T12:15:22Z</time>
      </trkpt>
      <trkpt lat="46.77221" lon="5.55014">
        <ele>257</ele>
        <time>2020-02-18T12:15:26Z</time>
      </trkpt>
      <trkpt lat="46.77226" lon="5.55015">
        <ele>259.3</ele>
        <time>2020-02-18T12:15:33Z</time>
      </trkpt>
      <trkpt lat="46.77231" lon="5.55015">
        <ele>261.5</ele>
        <time>2020-02-18T12:15:39Z</time>
      </trkpt>
      <trkpt lat="46.77236" lon="5.55015">
        <ele>262.8</ele>
        <time>2020-02-18T12:15:43Z</time>
      </trkpt>
      <trkpt lat="46.77241" lon="5.55015">
        <ele>264</ele>
        <time>2020-02-18T12:15:47Z</time>
      </trkpt>
      <trkpt lat="46.77246" lon="5.55016">
        <ele>265.4</ele>
        <time>2020-02-18T12:15:52Z</time>
      </trkpt>
      <trkpt lat="46.77252" lon="5.55017">
        <ele>266.9</ele>
        <time>2020-02-18T12:15:57Z</time>
      </trkpt>
      <trkpt lat="46.77256" lon="5.55018">
        <ele>268.6</ele>
        <time>2020-02-18T12:16:03Z</time>
      </trkpt>
      <trkpt lat="46.77262" lon="5.5502">
        <ele>270.1</ele>
        <time>2020-02-18T12:16:08Z</time>
      </trkpt>
      <trkpt lat="46.77266" lon="5.5502">
        <ele>270.9</ele>
        <time>2020-02-18T12:16:11Z</time>
      </trkpt>
      <trkpt lat="46.77271" lon="5.55021">
        <ele>272.4</ele>
        <time>2020-02-18T12:16:16Z</time>
      </trkpt>
      <trkpt lat="46.77276" lon="5.55021">
        <ele>274.1</ele>
        <time>2020-02-18T12:16:22Z</time>
      </trkpt>
      <trkpt lat="46.77281" lon="5.55022">
        <ele>275.5</ele>
        <time>2020-02-18T12:16:28Z</time>
      </trkpt>
      <trkpt lat="46.77286" lon="5.55024">
        <ele>276.6</ele>
        <time>2020-02-18T12:16:34Z</time>
      </trkpt>
      <trkpt lat="46.77291" lon="5.55024">
        <ele>277.3</ele>
        <time>2020-02-18T12:16:40Z</time>
      </trkpt>
      <trkpt lat="46.77295" lon="5.55024">
        <ele>277.7</ele>
        <time>2020-02-18T12:16:44Z</time>
      </trkpt>
      <trkpt lat="46.773" lon="5.55024">
        <ele>278.3</ele>
        <time>2020-02-18T12:16:50Z</time>
      </trkpt>
      <trkpt lat="46.77305" lon="5.55022">
        <ele>279.3</ele>
        <time>2020-02-18T12:17:01Z</time>
      </trkpt>
      <trkpt lat="46.77307" lon="5.55016">
        <ele>279.4</ele>
        <time>2020-02-18T12:17:09Z</time>
      </trkpt>
      <trkpt lat="46.77311" lon="5.55016">
        <ele>277</ele>
        <time>2020-02-18T12:17:21Z</time>
      </trkpt>
      <trkpt lat="46.77317" lon="5.55015">
        <ele>276</ele>
        <time>2020-02-18T12:17:27Z</time>
      </trkpt>
      <trkpt lat="46.77322" lon="5.55015">
        <ele>275.1</ele>
        <time>2020-02-18T12:17:31Z</time>
      </trkpt>
      <trkpt lat="46.77327" lon="5.55014">
        <ele>272.9</ele>
        <time>2020-02-18T12:17:39Z</time>
      </trkpt>
      <trkpt lat="46.77331" lon="5.55017">
        <ele>271.6</ele>
        <time>2020-02-18T12:17:44Z</time>
      </trkpt>
      <trkpt lat="46.77336" lon="5.55019">
        <ele>270.3</ele>
        <time>2020-02-18T12:17:49Z</time>
      </trkpt>
      <trkpt lat="46.77342" lon="5.55022">
        <ele>269.4</ele>
        <time>2020-02-18T12:17:54Z</time>
      </trkpt>
      <trkpt lat="46.77346" lon="5.55026">
        <ele>269</ele>
        <time>2020-02-18T12:17:57Z</time>
      </trkpt>
      <trkpt lat="46.77352" lon="5.5503">
        <ele>268.5</ele>
        <time>2020-02-18T12:18:00Z</time>
      </trkpt>
      <trkpt lat="46.77356" lon="5.55032">
        <ele>268.2</ele>
        <time>2020-02-18T12:18:02Z</time>
      </trkpt>
      <trkpt lat="46.77362" lon="5.55034">
        <ele>267.6</ele>
        <time>2020-02-18T12:18:05Z</time>
      </trkpt>
      <trkpt lat="46.77367" lon="5.55036">
        <ele>266.9</ele>
        <time>2020-02-18T12:18:09Z</time>
      </trkpt>
      <trkpt lat="46.77372" lon="5.55038">
        <ele>266.3</ele>
        <time>2020-02-18T12:18:14Z</time>
      </trkpt>
      <trkpt lat="46.77378" lon="5.5504">
        <ele>265.8</ele>
        <time>2020-02-18T12:18:19Z</time>
      </trkpt>
      <trkpt lat="46.77383" lon="5.5504">
        <ele>265.6</ele>
        <time>2020-02-18T12:18:24Z</time>
      </trkpt>
      <trkpt lat="46.77389" lon="5.55043">
        <ele>265.9</ele>
        <time>2020-02-18T12:18:29Z</time>
      </trkpt>
      <trkpt lat="46.77393" lon="5.55044">
        <ele>266.1</ele>
        <time>2020-02-18T12:18:32Z</time>
      </trkpt>
      <trkpt lat="46.77398" lon="5.55046">
        <ele>266.4</ele>
        <time>2020-02-18T12:18:35Z</time>
      </trkpt>
      <trkpt lat="46.77404" lon="5.5505">
        <ele>266.6</ele>
        <time>2020-02-18T12:18:38Z</time>
      </trkpt>
      <trkpt lat="46.77409" lon="5.55052">
        <ele>267</ele>
        <time>2020-02-18T12:18:42Z</time>
      </trkpt>
      <trkpt lat="46.77414" lon="5.55054">
        <ele>267.4</ele>
        <time>2020-02-18T12:18:46Z</time>
      </trkpt>
      <trkpt lat="46.77419" lon="5.55057">
        <ele>267.8</ele>
        <time>2020-02-18T12:18:50Z</time>
      </trkpt>
      <trkpt lat="46.77424" lon="5.55059">
        <ele>268.4</ele>
        <time>2020-02-18T12:18:57Z</time>
      </trkpt>
      <trkpt lat="46.77429" lon="5.5506">
        <ele>268.7</ele>
        <time>2020-02-18T12:19:01Z</time>
      </trkpt>
      <trkpt lat="46.77434" lon="5.55061">
        <ele>269.1</ele>
        <time>2020-02-18T12:19:06Z</time>
      </trkpt>
      <trkpt lat="46.77439" lon="5.55064">
        <ele>269.2</ele>
        <time>2020-02-18T12:19:11Z</time>
      </trkpt>
      <trkpt lat="46.77443" lon="5.55066">
        <ele>269.1</ele>
        <time>2020-02-18T12:19:17Z</time>
      </trkpt>
      <trkpt lat="46.77448" lon="5.55068">
        <ele>268.4</ele>
        <time>2020-02-18T12:19:24Z</time>
      </trkpt>
      <trkpt lat="46.77452" lon="5.55071">
        <ele>267.6</ele>
        <time>2020-02-18T12:19:29Z</time>
      </trkpt>
      <trkpt lat="46.77456" lon="5.55074">
        <ele>267</ele>
        <time>2020-02-18T12:19:35Z</time>
      </trkpt>
      <trkpt lat="46.77461" lon="5.55076">
        <ele>267.1</ele>
        <time>2020-02-18T12:19:41Z</time>
      </trkpt>
      <trkpt lat="46.77465" lon="5.55079">
        <ele>267</ele>
        <time>2020-02-18T12:19:47Z</time>
      </trkpt>
      <trkpt lat="46.77469" lon="5.5508">
        <ele>266.5</ele>
        <time>2020-02-18T12:19:54Z</time>
      </trkpt>
      <trkpt lat="46.77474" lon="5.55083">
        <ele>265.9</ele>
        <time>2020-02-18T12:20:00Z</time>
      </trkpt>
      <trkpt lat="46.77479" lon="5.55085">
        <ele>265.6</ele>
        <time>2020-02-18T12:20:04Z</time>
      </trkpt>
      <trkpt lat="46.77483" lon="5.55087">
        <ele>265.5</ele>
        <time>2020-02-18T12:20:09Z</time>
      </trkpt>
      <trkpt lat="46.77488" lon="5.5509">
        <ele>265.1</ele>
        <time>2020-02-18T12:20:14Z</time>
      </trkpt>
      <trkpt lat="46.77493" lon="5.55093">
        <ele>264.8</ele>
        <time>2020-02-18T12:20:18Z</time>
      </trkpt>
      <trkpt lat="46.77497" lon="5.55095">
        <ele>264.3</ele>
        <time>2020-02-18T12:20:22Z</time>
      </trkpt>
      <trkpt lat="46.77502" lon="5.55097">
        <ele>263.5</ele>
        <time>2020-02-18T12:20:27Z</time>
      </trkpt>
      <trkpt lat="46.77506" lon="5.55098">
        <ele>262.1</ele>
        <time>2020-02-18T12:20:34Z</time>
      </trkpt>
      <trkpt lat="46.77511" lon="5.55098">
        <ele>261.1</ele>
        <time>2020-02-18T12:20:39Z</time>
      </trkpt>
      <trkpt lat="46.77517" lon="5.55099">
        <ele>260.1</ele>
        <time>2020-02-18T12:20:45Z</time>
      </trkpt>
      <trkpt lat="46.77522" lon="5.551">
        <ele>259.5</ele>
        <time>2020-02-18T12:20:49Z</time>
      </trkpt>
      <trkpt lat="46.77528" lon="5.55101">
        <ele>259</ele>
        <time>2020-02-18T12:20:54Z</time>
      </trkpt>
      <trkpt lat="46.77532" lon="5.55102">
        <ele>258.2</ele>
        <time>2020-02-18T12:21:00Z</time>
      </trkpt>
      <trkpt lat="46.77538" lon="5.55105">
        <ele>256.9</ele>
        <time>2020-02-18T12:21:07Z</time>
      </trkpt>
      <trkpt lat="46.77543" lon="5.55106">
        <ele>255.5</ele>
        <time>2020-02-18T12:21:13Z</time>
      </trkpt>
      <trkpt lat="46.77547" lon="5.55108">
        <ele>255.2</ele>
        <time>2020-02-18T12:21:18Z</time>
      </trkpt>
      <trkpt lat="46.77552" lon="5.5511">
        <ele>255.6</ele>
        <time>2020-02-18T12:21:22Z</time>
      </trkpt>
      <trkpt lat="46.77556" lon="5.55112">
        <ele>256.6</ele>
        <time>2020-02-18T12:21:28Z</time>
      </trkpt>
      <trkpt lat="46.7756" lon="5.55115">
        <ele>257.3</ele>
        <time>2020-02-18T12:21:32Z</time>
      </trkpt>
      <trkpt lat="46.77564" lon="5.55119">
        <ele>258</ele>
        <time>2020-02-18T12:21:36Z</time>
      </trkpt>
      <trkpt lat="46.77568" lon="5.55123">
        <ele>259.1</ele>
        <time>2020-02-18T12:21:41Z</time>
      </trkpt>
      <trkpt lat="46.77573" lon="5.55126">
        <ele>259.7</ele>
        <time>2020-02-18T12:21:45Z</time>
      </trkpt>
      <trkpt lat="46.77577" lon="5.55127">
        <ele>260.1</ele>
        <time>2020-02-18T12:21:50Z</time>
      </trkpt>
      <trkpt lat="46.77582" lon="5.55125">
        <ele>260.8</ele>
        <time>2020-02-18T12:21:59Z</time>
      </trkpt>
      <trkpt lat="46.77586" lon="5.5512">
        <ele>261.2</ele>
        <time>2020-02-18T12:22:05Z</time>
      </trkpt>
      <trkpt lat="46.77589" lon="5.55115">
        <ele>261.3</ele>
        <time>2020-02-18T12:22:10Z</time>
      </trkpt>
      <trkpt lat="46.77593" lon="5.5511">
        <ele>261.8</ele>
        <time>2020-02-18T12:22:16Z</time>
      </trkpt>
      <trkpt lat="46.77598" lon="5.55109">
        <ele>262.1</ele>
        <time>2020-02-18T12:22:20Z</time>
      </trkpt>
      <trkpt lat="46.77602" lon="5.55108">
        <ele>262.1</ele>
        <time>2020-02-18T12:22:23Z</time>
      </trkpt>
      <trkpt lat="46.77608" lon="5.55109">
        <ele>262</ele>
        <time>2020-02-18T12:22:27Z</time>
      </trkpt>
      <trkpt lat="46.77613" lon="5.55109">
        <ele>261.9</ele>
        <time>2020-02-18T12:22:32Z</time>
      </trkpt>
      <trkpt lat="46.77618" lon="5.55109">
        <ele>262.1</ele>
        <time>2020-02-18T12:22:36Z</time>
      </trkpt>
      <trkpt lat="46.77623" lon="5.55108">
        <ele>262.8</ele>
        <time>2020-02-18T12:22:43Z</time>
      </trkpt>
      <trkpt lat="46.77628" lon="5.55109">
        <ele>263.7</ele>
        <time>2020-02-18T12:22:49Z</time>
      </trkpt>
      <trkpt lat="46.77633" lon="5.5511">
        <ele>264.6</ele>
        <time>2020-02-18T12:22:55Z</time>
      </trkpt>
      <trkpt lat="46.77638" lon="5.55109">
        <ele>265.2</ele>
        <time>2020-02-18T12:23:00Z</time>
      </trkpt>
      <trkpt lat="46.77642" lon="5.5511">
        <ele>266.2</ele>
        <time>2020-02-18T12:23:07Z</time>
      </trkpt>
      <trkpt lat="46.77648" lon="5.55109">
        <ele>266.4</ele>
        <time>2020-02-18T12:23:13Z</time>
      </trkpt>
      <trkpt lat="46.77653" lon="5.55107">
        <ele>266.2</ele>
        <time>2020-02-18T12:23:18Z</time>
      </trkpt>
      <trkpt lat="46.77658" lon="5.55105">
        <ele>265.7</ele>
        <time>2020-02-18T12:23:23Z</time>
      </trkpt>
      <trkpt lat="46.77662" lon="5.55104">
        <ele>265.3</ele>
        <time>2020-02-18T12:23:27Z</time>
      </trkpt>
      <trkpt lat="46.77667" lon="5.55104">
        <ele>265.1</ele>
        <time>2020-02-18T12:23:30Z</time>
      </trkpt>
      <trkpt lat="46.77672" lon="5.55103">
        <ele>265</ele>
        <time>2020-02-18T12:23:35Z</time>
      </trkpt>
      <trkpt lat="46.77677" lon="5.55103">
        <ele>264.6</ele>
        <time>2020-02-18T12:23:42Z</time>
      </trkpt>
      <trkpt lat="46.77682" lon="5.55105">
        <ele>264.4</ele>
        <time>2020-02-18T12:23:48Z</time>
      </trkpt>
      <trkpt lat="46.77688" lon="5.55106">
        <ele>264.3</ele>
        <time>2020-02-18T12:23:53Z</time>
      </trkpt>
      <trkpt lat="46.77693" lon="5.55106">
        <ele>264.2</ele>
        <time>2020-02-18T12:23:56Z</time>
      </trkpt>
      <trkpt lat="46.77697" lon="5.55104">
        <ele>264.4</ele>
        <time>2020-02-18T12:23:59Z</time>
      </trkpt>
      <trkpt lat="46.77702" lon="5.55102">
        <ele>264.7</ele>
        <time>2020-02-18T12:24:04Z</time>
      </trkpt>
      <trkpt lat="46.77707" lon="5.55102">
        <ele>264.7</ele>
        <time>2020-02-18T12:24:09Z</time>
      </trkpt>
      <trkpt lat="46.77712" lon="5.551">
        <ele>264.3</ele>
        <time>2020-02-18T12:24:14Z</time>
      </trkpt>
      <trkpt lat="46.77717" lon="5.55099">
        <ele>264</ele>
        <time>2020-02-18T12:24:20Z</time>
      </trkpt>
      <trkpt lat="46.77722" lon="5.55099">
        <ele>263.1</ele>
        <time>2020-02-18T12:24:26Z</time>
      </trkpt>
      <trkpt lat="46.77726" lon="5.55099">
        <ele>261.8</ele>
        <time>2020-02-18T12:24:32Z</time>
      </trkpt>
      <trkpt lat="46.77732" lon="5.55098">
        <ele>260.9</ele>
        <time>2020-02-18T12:24:37Z</time>
      </trkpt>
      <trkpt lat="46.77736" lon="5.55098">
        <ele>260.3</ele>
        <time>2020-02-18T12:24:42Z</time>
      </trkpt>
      <trkpt lat="46.77741" lon="5.55097">
        <ele>259.7</ele>
        <time>2020-02-18T12:24:47Z</time>
      </trkpt>
      <trkpt lat="46.77746" lon="5.55097">
        <ele>259.1</ele>
        <time>2020-02-18T12:24:54Z</time>
      </trkpt>
      <trkpt lat="46.77753" lon="5.55098">
        <ele>258.8</ele>
        <time>2020-02-18T12:25:00Z</time>
      </trkpt>
      <trkpt lat="46.77759" lon="5.55099">
        <ele>258.7</ele>
        <time>2020-02-18T12:25:03Z</time>
      </trkpt>
      <trkpt lat="46.77771" lon="5.55099">
        <ele>257.9</ele>
        <time>2020-02-18T12:25:11Z</time>
      </trkpt>
      <trkpt lat="46.77775" lon="5.551">
        <ele>258</ele>
        <time>2020-02-18T12:25:15Z</time>
      </trkpt>
      <trkpt lat="46.7778" lon="5.551">
        <ele>258.2</ele>
        <time>2020-02-18T12:25:20Z</time>
      </trkpt>
      <trkpt lat="46.77775" lon="5.55101">
        <ele>257.7</ele>
        <time>2020-02-18T12:25:44Z</time>
      </trkpt>
      <trkpt lat="46.77774" lon="5.55108">
        <ele>259.3</ele>
        <time>2020-02-18T12:25:58Z</time>
      </trkpt>
      <trkpt lat="46.77779" lon="5.55111">
        <ele>260.2</ele>
        <time>2020-02-18T12:26:05Z</time>
      </trkpt>
      <trkpt lat="46.77783" lon="5.55113">
        <ele>260.7</ele>
        <time>2020-02-18T12:26:10Z</time>
      </trkpt>
      <trkpt lat="46.77788" lon="5.55116">
        <ele>261.1</ele>
        <time>2020-02-18T12:26:17Z</time>
      </trkpt>
      <trkpt lat="46.77793" lon="5.55117">
        <ele>261</ele>
        <time>2020-02-18T12:26:23Z</time>
      </trkpt>
      <trkpt lat="46.77803" lon="5.55122">
        <ele>260.4</ele>
        <time>2020-02-18T12:26:36Z</time>
      </trkpt>
      <trkpt lat="46.77808" lon="5.55124">
        <ele>260.1</ele>
        <time>2020-02-18T12:26:40Z</time>
      </trkpt>
      <trkpt lat="46.77812" lon="5.55128">
        <ele>259.9</ele>
        <time>2020-02-18T12:26:44Z</time>
      </trkpt>
      <trkpt lat="46.77817" lon="5.55129">
        <ele>259.5</ele>
        <time>2020-02-18T12:26:48Z</time>
      </trkpt>
      <trkpt lat="46.77822" lon="5.55131">
        <ele>259.1</ele>
        <time>2020-02-18T12:26:52Z</time>
      </trkpt>
      <trkpt lat="46.77827" lon="5.55131">
        <ele>258.9</ele>
        <time>2020-02-18T12:26:54Z</time>
      </trkpt>
      <trkpt lat="46.77832" lon="5.55132">
        <ele>258.6</ele>
        <time>2020-02-18T12:26:57Z</time>
      </trkpt>
      <trkpt lat="46.77837" lon="5.55132">
        <ele>258.4</ele>
        <time>2020-02-18T12:27:02Z</time>
      </trkpt>
      <trkpt lat="46.77842" lon="5.55132">
        <ele>258</ele>
        <time>2020-02-18T12:27:06Z</time>
      </trkpt>
      <trkpt lat="46.77847" lon="5.55132">
        <ele>257.7</ele>
        <time>2020-02-18T12:27:10Z</time>
      </trkpt>
      <trkpt lat="46.77852" lon="5.55132">
        <ele>257.6</ele>
        <time>2020-02-18T12:27:13Z</time>
      </trkpt>
      <trkpt lat="46.77857" lon="5.5513">
        <ele>257.5</ele>
        <time>2020-02-18T12:27:17Z</time>
      </trkpt>
      <trkpt lat="46.77862" lon="5.55128">
        <ele>257.4</ele>
        <time>2020-02-18T12:27:22Z</time>
      </trkpt>
      <trkpt lat="46.77867" lon="5.55127">
        <ele>257.2</ele>
        <time>2020-02-18T12:27:26Z</time>
      </trkpt>
      <trkpt lat="46.77871" lon="5.55125">
        <ele>256.5</ele>
        <time>2020-02-18T12:27:32Z</time>
      </trkpt>
      <trkpt lat="46.77876" lon="5.55123">
        <ele>256</ele>
        <time>2020-02-18T12:27:37Z</time>
      </trkpt>
      <trkpt lat="46.77881" lon="5.5512">
        <ele>255.6</ele>
        <time>2020-02-18T12:27:42Z</time>
      </trkpt>
      <trkpt lat="46.77886" lon="5.55119">
        <ele>255.1</ele>
        <time>2020-02-18T12:27:47Z</time>
      </trkpt>
      <trkpt lat="46.77891" lon="5.55117">
        <ele>254.5</ele>
        <time>2020-02-18T12:27:53Z</time>
      </trkpt>
      <trkpt lat="46.77896" lon="5.55115">
        <ele>253.8</ele>
        <time>2020-02-18T12:27:59Z</time>
      </trkpt>
      <trkpt lat="46.77901" lon="5.55113">
        <ele>252.7</ele>
        <time>2020-02-18T12:28:08Z</time>
      </trkpt>
      <trkpt lat="46.77906" lon="5.5511">
        <ele>252</ele>
        <time>2020-02-18T12:28:14Z</time>
      </trkpt>
      <trkpt lat="46.7791" lon="5.55109">
        <ele>251.4</ele>
        <time>2020-02-18T12:28:19Z</time>
      </trkpt>
      <trkpt lat="46.77915" lon="5.55106">
        <ele>250.7</ele>
        <time>2020-02-18T12:28:24Z</time>
      </trkpt>
      <trkpt lat="46.7792" lon="5.55105">
        <ele>249.9</ele>
        <time>2020-02-18T12:28:28Z</time>
      </trkpt>
      <trkpt lat="46.77925" lon="5.55104">
        <ele>249.2</ele>
        <time>2020-02-18T12:28:32Z</time>
      </trkpt>
      <trkpt lat="46.7793" lon="5.55102">
        <ele>248.4</ele>
        <time>2020-02-18T12:28:37Z</time>
      </trkpt>
      <trkpt lat="46.77935" lon="5.55103">
        <ele>247.8</ele>
        <time>2020-02-18T12:28:41Z</time>
      </trkpt>
      <trkpt lat="46.7794" lon="5.55104">
        <ele>247.1</ele>
        <time>2020-02-18T12:28:50Z</time>
      </trkpt>
      <trkpt lat="46.77946" lon="5.55103">
        <ele>247.3</ele>
        <time>2020-02-18T12:28:56Z</time>
      </trkpt>
      <trkpt lat="46.77953" lon="5.551">
        <ele>247.5</ele>
        <time>2020-02-18T12:28:59Z</time>
      </trkpt>
      <trkpt lat="46.77958" lon="5.55099">
        <ele>247.6</ele>
        <time>2020-02-18T12:29:01Z</time>
      </trkpt>
      <trkpt lat="46.77963" lon="5.55097">
        <ele>247.9</ele>
        <time>2020-02-18T12:29:04Z</time>
      </trkpt>
      <trkpt lat="46.77967" lon="5.55094">
        <ele>248.2</ele>
        <time>2020-02-18T12:29:08Z</time>
      </trkpt>
      <trkpt lat="46.7797" lon="5.55088">
        <ele>248.6</ele>
        <time>2020-02-18T12:29:13Z</time>
      </trkpt>
      <trkpt lat="46.77974" lon="5.55084">
        <ele>249</ele>
        <time>2020-02-18T12:29:15Z</time>
      </trkpt>
      <trkpt lat="46.77977" lon="5.55079">
        <ele>249.6</ele>
        <time>2020-02-18T12:29:18Z</time>
      </trkpt>
      <trkpt lat="46.7798" lon="5.55074">
        <ele>250.2</ele>
        <time>2020-02-18T12:29:21Z</time>
      </trkpt>
      <trkpt lat="46.77983" lon="5.55068">
        <ele>250.8</ele>
        <time>2020-02-18T12:29:24Z</time>
      </trkpt>
      <trkpt lat="46.77986" lon="5.55063">
        <ele>251.5</ele>
        <time>2020-02-18T12:29:28Z</time>
      </trkpt>
      <trkpt lat="46.77989" lon="5.55057">
        <ele>252</ele>
        <time>2020-02-18T12:29:33Z</time>
      </trkpt>
      <trkpt lat="46.77993" lon="5.55053">
        <ele>252.6</ele>
        <time>2020-02-18T12:29:41Z</time>
      </trkpt>
      <trkpt lat="46.77998" lon="5.55049">
        <ele>252.7</ele>
        <time>2020-02-18T12:29:46Z</time>
      </trkpt>
      <trkpt lat="46.78002" lon="5.55044">
        <ele>252.3</ele>
        <time>2020-02-18T12:29:51Z</time>
      </trkpt>
      <trkpt lat="46.78005" lon="5.55039">
        <ele>251.8</ele>
        <time>2020-02-18T12:29:56Z</time>
      </trkpt>
      <trkpt lat="46.78008" lon="5.55034">
        <ele>251.4</ele>
        <time>2020-02-18T12:30:01Z</time>
      </trkpt>
      <trkpt lat="46.78012" lon="5.5503">
        <ele>251.1</ele>
        <time>2020-02-18T12:30:05Z</time>
      </trkpt>
      <trkpt lat="46.78016" lon="5.55025">
        <ele>250.7</ele>
        <time>2020-02-18T12:30:10Z</time>
      </trkpt>
      <trkpt lat="46.7802" lon="5.5502">
        <ele>250.2</ele>
        <time>2020-02-18T12:30:14Z</time>
      </trkpt>
      <trkpt lat="46.78022" lon="5.55014">
        <ele>249.4</ele>
        <time>2020-02-18T12:30:19Z</time>
      </trkpt>
      <trkpt lat="46.78024" lon="5.55006">
        <ele>248.6</ele>
        <time>2020-02-18T12:30:24Z</time>
      </trkpt>
      <trkpt lat="46.78025" lon="5.54999">
        <ele>248.1</ele>
        <time>2020-02-18T12:30:28Z</time>
      </trkpt>
      <trkpt lat="46.78026" lon="5.54992">
        <ele>247.8</ele>
        <time>2020-02-18T12:30:31Z</time>
      </trkpt>
      <trkpt lat="46.78028" lon="5.54986">
        <ele>247.5</ele>
        <time>2020-02-18T12:30:34Z</time>
      </trkpt>
      <trkpt lat="46.78029" lon="5.54979">
        <ele>247</ele>
        <time>2020-02-18T12:30:38Z</time>
      </trkpt>
      <trkpt lat="46.78029" lon="5.54972">
        <ele>246.5</ele>
        <time>2020-02-18T12:30:42Z</time>
      </trkpt>
      <trkpt lat="46.78031" lon="5.54965">
        <ele>246.2</ele>
        <time>2020-02-18T12:30:46Z</time>
      </trkpt>
      <trkpt lat="46.78033" lon="5.54958">
        <ele>245.5</ele>
        <time>2020-02-18T12:30:51Z</time>
      </trkpt>
      <trkpt lat="46.7804" lon="5.54943">
        <ele>241.9</ele>
        <time>2020-02-18T12:31:05Z</time>
      </trkpt>
      <trkpt lat="46.78041" lon="5.54936">
        <ele>241.7</ele>
        <time>2020-02-18T12:31:10Z</time>
      </trkpt>
      <trkpt lat="46.78043" lon="5.54929">
        <ele>241.4</ele>
        <time>2020-02-18T12:31:14Z</time>
      </trkpt>
      <trkpt lat="46.78044" lon="5.54921">
        <ele>240.9</ele>
        <time>2020-02-18T12:31:19Z</time>
      </trkpt>
      <trkpt lat="46.78046" lon="5.54914">
        <ele>240.7</ele>
        <time>2020-02-18T12:31:22Z</time>
      </trkpt>
      <trkpt lat="46.78047" lon="5.54907">
        <ele>240.5</ele>
        <time>2020-02-18T12:31:25Z</time>
      </trkpt>
      <trkpt lat="46.78047" lon="5.549">
        <ele>240.5</ele>
        <time>2020-02-18T12:31:28Z</time>
      </trkpt>
      <trkpt lat="46.78046" lon="5.54892">
        <ele>240.6</ele>
        <time>2020-02-18T12:31:31Z</time>
      </trkpt>
      <trkpt lat="46.78045" lon="5.54886">
        <ele>240.8</ele>
        <time>2020-02-18T12:31:34Z</time>
      </trkpt>
      <trkpt lat="46.78044" lon="5.54878">
        <ele>241.3</ele>
        <time>2020-02-18T12:31:39Z</time>
      </trkpt>
      <trkpt lat="46.78045" lon="5.5487">
        <ele>242</ele>
        <time>2020-02-18T12:31:44Z</time>
      </trkpt>
      <trkpt lat="46.78046" lon="5.54862">
        <ele>242.9</ele>
        <time>2020-02-18T12:31:48Z</time>
      </trkpt>
      <trkpt lat="46.78046" lon="5.54852">
        <ele>243.9</ele>
        <time>2020-02-18T12:31:51Z</time>
      </trkpt>
      <trkpt lat="46.78047" lon="5.54846">
        <ele>244.5</ele>
        <time>2020-02-18T12:31:53Z</time>
      </trkpt>
      <trkpt lat="46.78048" lon="5.54837">
        <ele>245.6</ele>
        <time>2020-02-18T12:31:56Z</time>
      </trkpt>
      <trkpt lat="46.78048" lon="5.5483">
        <ele>246.6</ele>
        <time>2020-02-18T12:31:59Z</time>
      </trkpt>
      <trkpt lat="46.78053" lon="5.54816">
        <ele>254.9</ele>
        <time>2020-02-18T12:32:17Z</time>
      </trkpt>
      <trkpt lat="46.78055" lon="5.54809">
        <ele>257.1</ele>
        <time>2020-02-18T12:32:22Z</time>
      </trkpt>
      <trkpt lat="46.78056" lon="5.54802">
        <ele>258.7</ele>
        <time>2020-02-18T12:32:25Z</time>
      </trkpt>
      <trkpt lat="46.78057" lon="5.54794">
        <ele>260.6</ele>
        <time>2020-02-18T12:32:29Z</time>
      </trkpt>
      <trkpt lat="46.78058" lon="5.54787">
        <ele>262.3</ele>
        <time>2020-02-18T12:32:33Z</time>
      </trkpt>
      <trkpt lat="46.78066" lon="5.54761">
        <ele>269.6</ele>
        <time>2020-02-18T12:32:49Z</time>
      </trkpt>
      <trkpt lat="46.78069" lon="5.54756">
        <ele>270.2</ele>
        <time>2020-02-18T12:32:53Z</time>
      </trkpt>
      <trkpt lat="46.78071" lon="5.5475">
        <ele>270.7</ele>
        <time>2020-02-18T12:32:58Z</time>
      </trkpt>
      <trkpt lat="46.78074" lon="5.54743">
        <ele>270</ele>
        <time>2020-02-18T12:33:03Z</time>
      </trkpt>
      <trkpt lat="46.78075" lon="5.54736">
        <ele>268.9</ele>
        <time>2020-02-18T12:33:07Z</time>
      </trkpt>
      <trkpt lat="46.78077" lon="5.5473">
        <ele>267.7</ele>
        <time>2020-02-18T12:33:11Z</time>
      </trkpt>
      <trkpt lat="46.78079" lon="5.54723">
        <ele>266.4</ele>
        <time>2020-02-18T12:33:15Z</time>
      </trkpt>
      <trkpt lat="46.78081" lon="5.54715">
        <ele>265</ele>
        <time>2020-02-18T12:33:19Z</time>
      </trkpt>
      <trkpt lat="46.78082" lon="5.54708">
        <ele>264</ele>
        <time>2020-02-18T12:33:22Z</time>
      </trkpt>
      <trkpt lat="46.78083" lon="5.54702">
        <ele>262.8</ele>
        <time>2020-02-18T12:33:26Z</time>
      </trkpt>
      <trkpt lat="46.78084" lon="5.54695">
        <ele>261.8</ele>
        <time>2020-02-18T12:33:30Z</time>
      </trkpt>
      <trkpt lat="46.78088" lon="5.54689">
        <ele>260.6</ele>
        <time>2020-02-18T12:33:35Z</time>
      </trkpt>
      <trkpt lat="46.78092" lon="5.54684">
        <ele>259.8</ele>
        <time>2020-02-18T12:33:39Z</time>
      </trkpt>
      <trkpt lat="46.78097" lon="5.5468">
        <ele>259.1</ele>
        <time>2020-02-18T12:33:42Z</time>
      </trkpt>
      <trkpt lat="46.78101" lon="5.54677">
        <ele>258.7</ele>
        <time>2020-02-18T12:33:44Z</time>
      </trkpt>
      <trkpt lat="46.78105" lon="5.54673">
        <ele>257.9</ele>
        <time>2020-02-18T12:33:47Z</time>
      </trkpt>
      <trkpt lat="46.78109" lon="5.54668">
        <ele>256.8</ele>
        <time>2020-02-18T12:33:51Z</time>
      </trkpt>
      <trkpt lat="46.78113" lon="5.54664">
        <ele>255.5</ele>
        <time>2020-02-18T12:33:56Z</time>
      </trkpt>
      <trkpt lat="46.78117" lon="5.54659">
        <ele>254.1</ele>
        <time>2020-02-18T12:34:01Z</time>
      </trkpt>
      <trkpt lat="46.78119" lon="5.54653">
        <ele>252.3</ele>
        <time>2020-02-18T12:34:07Z</time>
      </trkpt>
      <trkpt lat="46.78121" lon="5.54647">
        <ele>251.3</ele>
        <time>2020-02-18T12:34:11Z</time>
      </trkpt>
      <trkpt lat="46.78124" lon="5.54641">
        <ele>249.9</ele>
        <time>2020-02-18T12:34:17Z</time>
      </trkpt>
      <trkpt lat="46.78127" lon="5.54635">
        <ele>249.3</ele>
        <time>2020-02-18T12:34:21Z</time>
      </trkpt>
      <trkpt lat="46.78129" lon="5.54629">
        <ele>248.8</ele>
        <time>2020-02-18T12:34:25Z</time>
      </trkpt>
      <trkpt lat="46.78132" lon="5.54622">
        <ele>248.3</ele>
        <time>2020-02-18T12:34:29Z</time>
      </trkpt>
      <trkpt lat="46.78135" lon="5.54617">
        <ele>247.8</ele>
        <time>2020-02-18T12:34:33Z</time>
      </trkpt>
      <trkpt lat="46.7814" lon="5.54612">
        <ele>247.4</ele>
        <time>2020-02-18T12:34:37Z</time>
      </trkpt>
      <trkpt lat="46.78142" lon="5.54605">
        <ele>247</ele>
        <time>2020-02-18T12:34:41Z</time>
      </trkpt>
      <trkpt lat="46.78145" lon="5.546">
        <ele>245.9</ele>
        <time>2020-02-18T12:34:48Z</time>
      </trkpt>
      <trkpt lat="46.78147" lon="5.54594">
        <ele>244.9</ele>
        <time>2020-02-18T12:34:52Z</time>
      </trkpt>
      <trkpt lat="46.78148" lon="5.54587">
        <ele>243.6</ele>
        <time>2020-02-18T12:34:57Z</time>
      </trkpt>
      <trkpt lat="46.7815" lon="5.54581">
        <ele>241.4</ele>
        <time>2020-02-18T12:35:07Z</time>
      </trkpt>
      <trkpt lat="46.78153" lon="5.54576">
        <ele>240.4</ele>
        <time>2020-02-18T12:35:12Z</time>
      </trkpt>
      <trkpt lat="46.78156" lon="5.5457">
        <ele>239.3</ele>
        <time>2020-02-18T12:35:17Z</time>
      </trkpt>
      <trkpt lat="46.78159" lon="5.54564">
        <ele>237.8</ele>
        <time>2020-02-18T12:35:23Z</time>
      </trkpt>
      <trkpt lat="46.78161" lon="5.54557">
        <ele>237.3</ele>
        <time>2020-02-18T12:35:26Z</time>
      </trkpt>
      <trkpt lat="46.78164" lon="5.5455">
        <ele>236.7</ele>
        <time>2020-02-18T12:35:29Z</time>
      </trkpt>
      <trkpt lat="46.78167" lon="5.54543">
        <ele>235.9</ele>
        <time>2020-02-18T12:35:33Z</time>
      </trkpt>
      <trkpt lat="46.78169" lon="5.54537">
        <ele>234.9</ele>
        <time>2020-02-18T12:35:37Z</time>
      </trkpt>
      <trkpt lat="46.78172" lon="5.5453">
        <ele>233.7</ele>
        <time>2020-02-18T12:35:42Z</time>
      </trkpt>
      <trkpt lat="46.78173" lon="5.54524">
        <ele>232.9</ele>
        <time>2020-02-18T12:35:47Z</time>
      </trkpt>
      <trkpt lat="46.78174" lon="5.54517">
        <ele>233.1</ele>
        <time>2020-02-18T12:35:52Z</time>
      </trkpt>
      <trkpt lat="46.78174" lon="5.54509">
        <ele>233.4</ele>
        <time>2020-02-18T12:35:55Z</time>
      </trkpt>
      <trkpt lat="46.78175" lon="5.54501">
        <ele>234</ele>
        <time>2020-02-18T12:35:58Z</time>
      </trkpt>
      <trkpt lat="46.78176" lon="5.54492">
        <ele>234.7</ele>
        <time>2020-02-18T12:36:01Z</time>
      </trkpt>
      <trkpt lat="46.78177" lon="5.54485">
        <ele>235.5</ele>
        <time>2020-02-18T12:36:04Z</time>
      </trkpt>
      <trkpt lat="46.78178" lon="5.54478">
        <ele>236.3</ele>
        <time>2020-02-18T12:36:07Z</time>
      </trkpt>
      <trkpt lat="46.7818" lon="5.54471">
        <ele>237.3</ele>
        <time>2020-02-18T12:36:10Z</time>
      </trkpt>
      <trkpt lat="46.78181" lon="5.54464">
        <ele>238.3</ele>
        <time>2020-02-18T12:36:13Z</time>
      </trkpt>
      <trkpt lat="46.78182" lon="5.54458">
        <ele>239.2</ele>
        <time>2020-02-18T12:36:16Z</time>
      </trkpt>
      <trkpt lat="46.78184" lon="5.54451">
        <ele>240.1</ele>
        <time>2020-02-18T12:36:19Z</time>
      </trkpt>
      <trkpt lat="46.78187" lon="5.54445">
        <ele>240.9</ele>
        <time>2020-02-18T12:36:22Z</time>
      </trkpt>
      <trkpt lat="46.7819" lon="5.54439">
        <ele>242</ele>
        <time>2020-02-18T12:36:26Z</time>
      </trkpt>
      <trkpt lat="46.78193" lon="5.54433">
        <ele>243</ele>
        <time>2020-02-18T12:36:30Z</time>
      </trkpt>
      <trkpt lat="46.78196" lon="5.54426">
        <ele>244.2</ele>
        <time>2020-02-18T12:36:34Z</time>
      </trkpt>
      <trkpt lat="46.78199" lon="5.5442">
        <ele>245.5</ele>
        <time>2020-02-18T12:36:38Z</time>
      </trkpt>
      <trkpt lat="46.78202" lon="5.54414">
        <ele>247.1</ele>
        <time>2020-02-18T12:36:43Z</time>
      </trkpt>
      <trkpt lat="46.78205" lon="5.54409">
        <ele>248.1</ele>
        <time>2020-02-18T12:36:47Z</time>
      </trkpt>
      <trkpt lat="46.78208" lon="5.54404">
        <ele>249.4</ele>
        <time>2020-02-18T12:36:54Z</time>
      </trkpt>
      <trkpt lat="46.78212" lon="5.54399">
        <ele>249.8</ele>
        <time>2020-02-18T12:36:58Z</time>
      </trkpt>
      <trkpt lat="46.78216" lon="5.54394">
        <ele>250.1</ele>
        <time>2020-02-18T12:37:02Z</time>
      </trkpt>
      <trkpt lat="46.78219" lon="5.54389">
        <ele>250.4</ele>
        <time>2020-02-18T12:37:07Z</time>
      </trkpt>
      <trkpt lat="46.78222" lon="5.54384">
        <ele>250.8</ele>
        <time>2020-02-18T12:37:12Z</time>
      </trkpt>
      <trkpt lat="46.78224" lon="5.54377">
        <ele>251.2</ele>
        <time>2020-02-18T12:37:19Z</time>
      </trkpt>
      <trkpt lat="46.78226" lon="5.54365">
        <ele>251.2</ele>
        <time>2020-02-18T12:37:30Z</time>
      </trkpt>
      <trkpt lat="46.78227" lon="5.54357">
        <ele>251.3</ele>
        <time>2020-02-18T12:37:36Z</time>
      </trkpt>
      <trkpt lat="46.7823" lon="5.54351">
        <ele>251.6</ele>
        <time>2020-02-18T12:37:42Z</time>
      </trkpt>
      <trkpt lat="46.78231" lon="5.54343">
        <ele>252.4</ele>
        <time>2020-02-18T12:37:47Z</time>
      </trkpt>
      <trkpt lat="46.78227" lon="5.54311">
        <ele>258.6</ele>
        <time>2020-02-18T12:38:21Z</time>
      </trkpt>
      <trkpt lat="46.78226" lon="5.54302">
        <ele>259</ele>
        <time>2020-02-18T12:38:24Z</time>
      </trkpt>
      <trkpt lat="46.78228" lon="5.54295">
        <ele>259.5</ele>
        <time>2020-02-18T12:38:28Z</time>
      </trkpt>
      <trkpt lat="46.78229" lon="5.54288">
        <ele>260.3</ele>
        <time>2020-02-18T12:38:34Z</time>
      </trkpt>
      <trkpt lat="46.7823" lon="5.54282">
        <ele>260.7</ele>
        <time>2020-02-18T12:38:38Z</time>
      </trkpt>
      <trkpt lat="46.78233" lon="5.54276">
        <ele>261.5</ele>
        <time>2020-02-18T12:38:43Z</time>
      </trkpt>
      <trkpt lat="46.78234" lon="5.54269">
        <ele>263</ele>
        <time>2020-02-18T12:38:51Z</time>
      </trkpt>
      <trkpt lat="46.78237" lon="5.54264">
        <ele>263.8</ele>
        <time>2020-02-18T12:38:55Z</time>
      </trkpt>
      <trkpt lat="46.78246" lon="5.54255">
        <ele>266.2</ele>
        <time>2020-02-18T12:39:05Z</time>
      </trkpt>
      <trkpt lat="46.7825" lon="5.54251">
        <ele>266.6</ele>
        <time>2020-02-18T12:39:08Z</time>
      </trkpt>
      <trkpt lat="46.78254" lon="5.54245">
        <ele>266.9</ele>
        <time>2020-02-18T12:39:12Z</time>
      </trkpt>
      <trkpt lat="46.78256" lon="5.54238">
        <ele>266.7</ele>
        <time>2020-02-18T12:39:16Z</time>
      </trkpt>
      <trkpt lat="46.78256" lon="5.54231">
        <ele>266.1</ele>
        <time>2020-02-18T12:39:21Z</time>
      </trkpt>
      <trkpt lat="46.78259" lon="5.54226">
        <ele>265</ele>
        <time>2020-02-18T12:39:29Z</time>
      </trkpt>
      <trkpt lat="46.78262" lon="5.5422">
        <ele>263.8</ele>
        <time>2020-02-18T12:39:37Z</time>
      </trkpt>
      <trkpt lat="46.78265" lon="5.54214">
        <ele>262.6</ele>
        <time>2020-02-18T12:39:46Z</time>
      </trkpt>
      <trkpt lat="46.78266" lon="5.54207">
        <ele>261.3</ele>
        <time>2020-02-18T12:39:54Z</time>
      </trkpt>
      <trkpt lat="46.78267" lon="5.542">
        <ele>260.1</ele>
        <time>2020-02-18T12:40:05Z</time>
      </trkpt>
      <trkpt lat="46.78269" lon="5.54194">
        <ele>259.7</ele>
        <time>2020-02-18T12:40:09Z</time>
      </trkpt>
      <trkpt lat="46.7827" lon="5.54186">
        <ele>258</ele>
        <time>2020-02-18T12:40:20Z</time>
      </trkpt>
      <trkpt lat="46.78272" lon="5.5418">
        <ele>257.9</ele>
        <time>2020-02-18T12:40:22Z</time>
      </trkpt>
      <trkpt lat="46.78275" lon="5.54171">
        <ele>257.8</ele>
        <time>2020-02-18T12:40:24Z</time>
      </trkpt>
      <trkpt lat="46.78277" lon="5.54164">
        <ele>257.8</ele>
        <time>2020-02-18T12:40:26Z</time>
      </trkpt>
      <trkpt lat="46.78279" lon="5.54157">
        <ele>257.9</ele>
        <time>2020-02-18T12:40:31Z</time>
      </trkpt>
      <trkpt lat="46.78279" lon="5.54149">
        <ele>258.1</ele>
        <time>2020-02-18T12:40:34Z</time>
      </trkpt>
      <trkpt lat="46.78279" lon="5.54141">
        <ele>258.9</ele>
        <time>2020-02-18T12:40:41Z</time>
      </trkpt>
      <trkpt lat="46.78282" lon="5.54134">
        <ele>259.9</ele>
        <time>2020-02-18T12:40:49Z</time>
      </trkpt>
      <trkpt lat="46.78284" lon="5.54125">
        <ele>260.2</ele>
        <time>2020-02-18T12:40:52Z</time>
      </trkpt>
      <trkpt lat="46.78285" lon="5.54118">
        <ele>260.5</ele>
        <time>2020-02-18T12:40:54Z</time>
      </trkpt>
      <trkpt lat="46.78284" lon="5.5411">
        <ele>261.3</ele>
        <time>2020-02-18T12:40:58Z</time>
      </trkpt>
      <trkpt lat="46.78282" lon="5.54104">
        <ele>262.6</ele>
        <time>2020-02-18T12:41:05Z</time>
      </trkpt>
      <trkpt lat="46.78279" lon="5.54097">
        <ele>263.9</ele>
        <time>2020-02-18T12:41:10Z</time>
      </trkpt>
      <trkpt lat="46.78247" lon="5.54081">
        <ele>271.5</ele>
        <time>2020-02-18T12:41:33Z</time>
      </trkpt>
      <trkpt lat="46.78243" lon="5.54076">
        <ele>272.3</ele>
        <time>2020-02-18T12:41:35Z</time>
      </trkpt>
      <trkpt lat="46.78239" lon="5.54071">
        <ele>273.4</ele>
        <time>2020-02-18T12:41:39Z</time>
      </trkpt>
      <trkpt lat="46.78234" lon="5.54065">
        <ele>274.2</ele>
        <time>2020-02-18T12:41:42Z</time>
      </trkpt>
      <trkpt lat="46.7823" lon="5.54062">
        <ele>275</ele>
        <time>2020-02-18T12:41:46Z</time>
      </trkpt>
      <trkpt lat="46.78223" lon="5.54054">
        <ele>278.7</ele>
        <time>2020-02-18T12:42:02Z</time>
      </trkpt>
      <trkpt lat="46.78214" lon="5.54047">
        <ele>279.2</ele>
        <time>2020-02-18T12:42:11Z</time>
      </trkpt>
      <trkpt lat="46.78209" lon="5.54046">
        <ele>279.3</ele>
        <time>2020-02-18T12:42:15Z</time>
      </trkpt>
      <trkpt lat="46.78204" lon="5.54044">
        <ele>279.4</ele>
        <time>2020-02-18T12:42:21Z</time>
      </trkpt>
      <trkpt lat="46.782" lon="5.54043">
        <ele>279.3</ele>
        <time>2020-02-18T12:42:27Z</time>
      </trkpt>
      <trkpt lat="46.78195" lon="5.54041">
        <ele>278</ele>
        <time>2020-02-18T12:42:42Z</time>
      </trkpt>
      <trkpt lat="46.7819" lon="5.54038">
        <ele>277.4</ele>
        <time>2020-02-18T12:42:49Z</time>
      </trkpt>
      <trkpt lat="46.78186" lon="5.54034">
        <ele>276.6</ele>
        <time>2020-02-18T12:42:58Z</time>
      </trkpt>
      <trkpt lat="46.78182" lon="5.54032">
        <ele>276.3</ele>
        <time>2020-02-18T12:43:04Z</time>
      </trkpt>
      <trkpt lat="46.78177" lon="5.54028">
        <ele>275.3</ele>
        <time>2020-02-18T12:43:12Z</time>
      </trkpt>
      <trkpt lat="46.78172" lon="5.54027">
        <ele>274.9</ele>
        <time>2020-02-18T12:43:16Z</time>
      </trkpt>
      <trkpt lat="46.78166" lon="5.54025">
        <ele>274.7</ele>
        <time>2020-02-18T12:43:19Z</time>
      </trkpt>
      <trkpt lat="46.7816" lon="5.54024">
        <ele>274.7</ele>
        <time>2020-02-18T12:43:21Z</time>
      </trkpt>
      <trkpt lat="46.78156" lon="5.54022">
        <ele>274.5</ele>
        <time>2020-02-18T12:43:26Z</time>
      </trkpt>
      <trkpt lat="46.78151" lon="5.5402">
        <ele>274.6</ele>
        <time>2020-02-18T12:43:29Z</time>
      </trkpt>
      <trkpt lat="46.78146" lon="5.54019">
        <ele>274.7</ele>
        <time>2020-02-18T12:43:31Z</time>
      </trkpt>
      <trkpt lat="46.78123" lon="5.54019">
        <ele>275.5</ele>
        <time>2020-02-18T12:43:40Z</time>
      </trkpt>
      <trkpt lat="46.78116" lon="5.54018">
        <ele>275.5</ele>
        <time>2020-02-18T12:43:44Z</time>
      </trkpt>
      <trkpt lat="46.78111" lon="5.54017">
        <ele>275.7</ele>
        <time>2020-02-18T12:43:48Z</time>
      </trkpt>
      <trkpt lat="46.78106" lon="5.54018">
        <ele>276.2</ele>
        <time>2020-02-18T12:43:54Z</time>
      </trkpt>
      <trkpt lat="46.78101" lon="5.54018">
        <ele>276.2</ele>
        <time>2020-02-18T12:44:00Z</time>
      </trkpt>
      <trkpt lat="46.78096" lon="5.54017">
        <ele>276.1</ele>
        <time>2020-02-18T12:44:05Z</time>
      </trkpt>
      <trkpt lat="46.78091" lon="5.54015">
        <ele>275.9</ele>
        <time>2020-02-18T12:44:09Z</time>
      </trkpt>
      <trkpt lat="46.78087" lon="5.54013">
        <ele>275</ele>
        <time>2020-02-18T12:44:16Z</time>
      </trkpt>
      <trkpt lat="46.78082" lon="5.54011">
        <ele>273.7</ele>
        <time>2020-02-18T12:44:22Z</time>
      </trkpt>
      <trkpt lat="46.78077" lon="5.54011">
        <ele>272.9</ele>
        <time>2020-02-18T12:44:28Z</time>
      </trkpt>
      <trkpt lat="46.78072" lon="5.5401">
        <ele>272.3</ele>
        <time>2020-02-18T12:44:35Z</time>
      </trkpt>
      <trkpt lat="46.78067" lon="5.54008">
        <ele>271.7</ele>
        <time>2020-02-18T12:44:39Z</time>
      </trkpt>
      <trkpt lat="46.78062" lon="5.54007">
        <ele>270.9</ele>
        <time>2020-02-18T12:44:45Z</time>
      </trkpt>
      <trkpt lat="46.78057" lon="5.54005">
        <ele>270.2</ele>
        <time>2020-02-18T12:44:50Z</time>
      </trkpt>
      <trkpt lat="46.78052" lon="5.54005">
        <ele>269.6</ele>
        <time>2020-02-18T12:44:56Z</time>
      </trkpt>
      <trkpt lat="46.78047" lon="5.54006">
        <ele>269.3</ele>
        <time>2020-02-18T12:45:04Z</time>
      </trkpt>
      <trkpt lat="46.78042" lon="5.54002">
        <ele>269.2</ele>
        <time>2020-02-18T12:45:07Z</time>
      </trkpt>
      <trkpt lat="46.7805" lon="5.53985">
        <ele>267.2</ele>
        <time>2020-02-18T12:45:34Z</time>
      </trkpt>
      <trkpt lat="46.78052" lon="5.53978">
        <ele>267</ele>
        <time>2020-02-18T12:45:37Z</time>
      </trkpt>
      <trkpt lat="46.78056" lon="5.53973">
        <ele>266.8</ele>
        <time>2020-02-18T12:45:40Z</time>
      </trkpt>
      <trkpt lat="46.7806" lon="5.53967">
        <ele>266.7</ele>
        <time>2020-02-18T12:45:46Z</time>
      </trkpt>
      <trkpt lat="46.78063" lon="5.53961">
        <ele>266.7</ele>
        <time>2020-02-18T12:45:48Z</time>
      </trkpt>
      <trkpt lat="46.78067" lon="5.53956">
        <ele>266.7</ele>
        <time>2020-02-18T12:45:50Z</time>
      </trkpt>
      <trkpt lat="46.78071" lon="5.53948">
        <ele>266.7</ele>
        <time>2020-02-18T12:45:53Z</time>
      </trkpt>
      <trkpt lat="46.78072" lon="5.53938">
        <ele>266.5</ele>
        <time>2020-02-18T12:45:56Z</time>
      </trkpt>
      <trkpt lat="46.78071" lon="5.53931">
        <ele>266.1</ele>
        <time>2020-02-18T12:45:59Z</time>
      </trkpt>
      <trkpt lat="46.78069" lon="5.53925">
        <ele>265.9</ele>
        <time>2020-02-18T12:46:03Z</time>
      </trkpt>
      <trkpt lat="46.78065" lon="5.5392">
        <ele>265.4</ele>
        <time>2020-02-18T12:46:09Z</time>
      </trkpt>
      <trkpt lat="46.78061" lon="5.53917">
        <ele>265.3</ele>
        <time>2020-02-18T12:46:14Z</time>
      </trkpt>
      <trkpt lat="46.78058" lon="5.5391">
        <ele>266.3</ele>
        <time>2020-02-18T12:46:22Z</time>
      </trkpt>
      <trkpt lat="46.78055" lon="5.53905">
        <ele>267.3</ele>
        <time>2020-02-18T12:46:27Z</time>
      </trkpt>
      <trkpt lat="46.78053" lon="5.53899">
        <ele>269</ele>
        <time>2020-02-18T12:46:37Z</time>
      </trkpt>
      <trkpt lat="46.7804" lon="5.53889">
        <ele>269.9</ele>
        <time>2020-02-18T12:46:47Z</time>
      </trkpt>
      <trkpt lat="46.78034" lon="5.53888">
        <ele>270.3</ele>
        <time>2020-02-18T12:46:51Z</time>
      </trkpt>
      <trkpt lat="46.78028" lon="5.53884">
        <ele>270.8</ele>
        <time>2020-02-18T12:46:54Z</time>
      </trkpt>
      <trkpt lat="46.78024" lon="5.53881">
        <ele>271.3</ele>
        <time>2020-02-18T12:46:56Z</time>
      </trkpt>
      <trkpt lat="46.78019" lon="5.53878">
        <ele>272</ele>
        <time>2020-02-18T12:46:59Z</time>
      </trkpt>
      <trkpt lat="46.78014" lon="5.53874">
        <ele>273</ele>
        <time>2020-02-18T12:47:03Z</time>
      </trkpt>
      <trkpt lat="46.78011" lon="5.53869">
        <ele>273.5</ele>
        <time>2020-02-18T12:47:09Z</time>
      </trkpt>
      <trkpt lat="46.78009" lon="5.53861">
        <ele>272.7</ele>
        <time>2020-02-18T12:47:18Z</time>
      </trkpt>
      <trkpt lat="46.78011" lon="5.53841">
        <ele>272</ele>
        <time>2020-02-18T12:47:37Z</time>
      </trkpt>
      <trkpt lat="46.78013" lon="5.53834">
        <ele>271.9</ele>
        <time>2020-02-18T12:47:42Z</time>
      </trkpt>
      <trkpt lat="46.78014" lon="5.53827">
        <ele>271.9</ele>
        <time>2020-02-18T12:47:49Z</time>
      </trkpt>
      <trkpt lat="46.78013" lon="5.53819">
        <ele>272.2</ele>
        <time>2020-02-18T12:47:57Z</time>
      </trkpt>
      <trkpt lat="46.78014" lon="5.53811">
        <ele>272.3</ele>
        <time>2020-02-18T12:47:59Z</time>
      </trkpt>
      <trkpt lat="46.78016" lon="5.53802">
        <ele>272.4</ele>
        <time>2020-02-18T12:48:03Z</time>
      </trkpt>
      <trkpt lat="46.78019" lon="5.53794">
        <ele>272.4</ele>
        <time>2020-02-18T12:48:10Z</time>
      </trkpt>
      <trkpt lat="46.78021" lon="5.53788">
        <ele>272.7</ele>
        <time>2020-02-18T12:48:21Z</time>
      </trkpt>
      <trkpt lat="46.78024" lon="5.5378">
        <ele>272.7</ele>
        <time>2020-02-18T12:48:27Z</time>
      </trkpt>
      <trkpt lat="46.78025" lon="5.53773">
        <ele>272.6</ele>
        <time>2020-02-18T12:48:30Z</time>
      </trkpt>
      <trkpt lat="46.78027" lon="5.53765">
        <ele>272.4</ele>
        <time>2020-02-18T12:48:34Z</time>
      </trkpt>
      <trkpt lat="46.78029" lon="5.53757">
        <ele>272.4</ele>
        <time>2020-02-18T12:48:37Z</time>
      </trkpt>
      <trkpt lat="46.78029" lon="5.53748">
        <ele>272.5</ele>
        <time>2020-02-18T12:48:42Z</time>
      </trkpt>
      <trkpt lat="46.7803" lon="5.53741">
        <ele>272.5</ele>
        <time>2020-02-18T12:48:44Z</time>
      </trkpt>
      <trkpt lat="46.78032" lon="5.53735">
        <ele>272.5</ele>
        <time>2020-02-18T12:48:49Z</time>
      </trkpt>
      <trkpt lat="46.78034" lon="5.53727">
        <ele>272.5</ele>
        <time>2020-02-18T12:48:53Z</time>
      </trkpt>
      <trkpt lat="46.78035" lon="5.53718">
        <ele>272.6</ele>
        <time>2020-02-18T12:48:56Z</time>
      </trkpt>
      <trkpt lat="46.78035" lon="5.53711">
        <ele>272.6</ele>
        <time>2020-02-18T12:48:58Z</time>
      </trkpt>
      <trkpt lat="46.78042" lon="5.53695">
        <ele>272.3</ele>
        <time>2020-02-18T12:49:06Z</time>
      </trkpt>
      <trkpt lat="46.78043" lon="5.53681">
        <ele>271.3</ele>
        <time>2020-02-18T12:49:16Z</time>
      </trkpt>
      <trkpt lat="46.78043" lon="5.53674">
        <ele>270.1</ele>
        <time>2020-02-18T12:49:24Z</time>
      </trkpt>
      <trkpt lat="46.78045" lon="5.53666">
        <ele>269.1</ele>
        <time>2020-02-18T12:49:29Z</time>
      </trkpt>
      <trkpt lat="46.78046" lon="5.53659">
        <ele>268.5</ele>
        <time>2020-02-18T12:49:32Z</time>
      </trkpt>
      <trkpt lat="46.78048" lon="5.53652">
        <ele>267.5</ele>
        <time>2020-02-18T12:49:36Z</time>
      </trkpt>
      <trkpt lat="46.78049" lon="5.53622">
        <ele>263.5</ele>
        <time>2020-02-18T12:49:52Z</time>
      </trkpt>
      <trkpt lat="46.78048" lon="5.53615">
        <ele>262.9</ele>
        <time>2020-02-18T12:49:58Z</time>
      </trkpt>
      <trkpt lat="46.78047" lon="5.53607">
        <ele>262.9</ele>
        <time>2020-02-18T12:50:18Z</time>
      </trkpt>
      <trkpt lat="46.78046" lon="5.53598">
        <ele>263.2</ele>
        <time>2020-02-18T12:50:22Z</time>
      </trkpt>
      <trkpt lat="46.78051" lon="5.5356">
        <ele>266.9</ele>
        <time>2020-02-18T12:50:45Z</time>
      </trkpt>
      <trkpt lat="46.78054" lon="5.53545">
        <ele>270.4</ele>
        <time>2020-02-18T12:50:56Z</time>
      </trkpt>
      <trkpt lat="46.78057" lon="5.53536">
        <ele>270.9</ele>
        <time>2020-02-18T12:50:58Z</time>
      </trkpt>
      <trkpt lat="46.78059" lon="5.53529">
        <ele>271.4</ele>
        <time>2020-02-18T12:51:00Z</time>
      </trkpt>
      <trkpt lat="46.78063" lon="5.53517">
        <ele>272.7</ele>
        <time>2020-02-18T12:51:14Z</time>
      </trkpt>
      <trkpt lat="46.78065" lon="5.5351">
        <ele>272.1</ele>
        <time>2020-02-18T12:51:17Z</time>
      </trkpt>
      <trkpt lat="46.78069" lon="5.53494">
        <ele>270.1</ele>
        <time>2020-02-18T12:51:23Z</time>
      </trkpt>
      <trkpt lat="46.78072" lon="5.53487">
        <ele>270</ele>
        <time>2020-02-18T12:51:25Z</time>
      </trkpt>
      <trkpt lat="46.78074" lon="5.53481">
        <ele>269.8</ele>
        <time>2020-02-18T12:51:27Z</time>
      </trkpt>
      <trkpt lat="46.78076" lon="5.53474">
        <ele>269.6</ele>
        <time>2020-02-18T12:51:29Z</time>
      </trkpt>
      <trkpt lat="46.78077" lon="5.53463">
        <ele>269.5</ele>
        <time>2020-02-18T12:51:32Z</time>
      </trkpt>
      <trkpt lat="46.78078" lon="5.53454">
        <ele>269.5</ele>
        <time>2020-02-18T12:51:34Z</time>
      </trkpt>
      <trkpt lat="46.78079" lon="5.53447">
        <ele>269.7</ele>
        <time>2020-02-18T12:51:37Z</time>
      </trkpt>
      <trkpt lat="46.78079" lon="5.53439">
        <ele>269.9</ele>
        <time>2020-02-18T12:51:40Z</time>
      </trkpt>
      <trkpt lat="46.78078" lon="5.53431">
        <ele>270.2</ele>
        <time>2020-02-18T12:51:44Z</time>
      </trkpt>
      <trkpt lat="46.78076" lon="5.53425">
        <ele>270.6</ele>
        <time>2020-02-18T12:51:49Z</time>
      </trkpt>
      <trkpt lat="46.78074" lon="5.53418">
        <ele>271</ele>
        <time>2020-02-18T12:51:56Z</time>
      </trkpt>
      <trkpt lat="46.78074" lon="5.53411">
        <ele>271</ele>
        <time>2020-02-18T12:52:03Z</time>
      </trkpt>
      <trkpt lat="46.78075" lon="5.53404">
        <ele>271</ele>
        <time>2020-02-18T12:52:09Z</time>
      </trkpt>
      <trkpt lat="46.78076" lon="5.53397">
        <ele>271.4</ele>
        <time>2020-02-18T12:52:14Z</time>
      </trkpt>
      <trkpt lat="46.78077" lon="5.5339">
        <ele>271.9</ele>
        <time>2020-02-18T12:52:19Z</time>
      </trkpt>
      <trkpt lat="46.7808" lon="5.5338">
        <ele>272.4</ele>
        <time>2020-02-18T12:52:23Z</time>
      </trkpt>
      <trkpt lat="46.78082" lon="5.53373">
        <ele>272.6</ele>
        <time>2020-02-18T12:52:25Z</time>
      </trkpt>
      <trkpt lat="46.78084" lon="5.53366">
        <ele>273</ele>
        <time>2020-02-18T12:52:29Z</time>
      </trkpt>
      <trkpt lat="46.78084" lon="5.53359">
        <ele>273.1</ele>
        <time>2020-02-18T12:52:35Z</time>
      </trkpt>
      <trkpt lat="46.78085" lon="5.53352">
        <ele>271.9</ele>
        <time>2020-02-18T12:52:43Z</time>
      </trkpt>
      <trkpt lat="46.78087" lon="5.53346">
        <ele>270.4</ele>
        <time>2020-02-18T12:52:51Z</time>
      </trkpt>
      <trkpt lat="46.78089" lon="5.53339">
        <ele>269.3</ele>
        <time>2020-02-18T12:52:56Z</time>
      </trkpt>
      <trkpt lat="46.78092" lon="5.53333">
        <ele>267.9</ele>
        <time>2020-02-18T12:53:01Z</time>
      </trkpt>
      <trkpt lat="46.78092" lon="5.53325">
        <ele>265.4</ele>
        <time>2020-02-18T12:53:08Z</time>
      </trkpt>
      <trkpt lat="46.78096" lon="5.5332">
        <ele>262.6</ele>
        <time>2020-02-18T12:53:14Z</time>
      </trkpt>
      <trkpt lat="46.78097" lon="5.53313">
        <ele>259.9</ele>
        <time>2020-02-18T12:53:20Z</time>
      </trkpt>
      <trkpt lat="46.78097" lon="5.53306">
        <ele>256.6</ele>
        <time>2020-02-18T12:53:30Z</time>
      </trkpt>
      <trkpt lat="46.78097" lon="5.53299">
        <ele>252.6</ele>
        <time>2020-02-18T12:53:44Z</time>
      </trkpt>
      <trkpt lat="46.78099" lon="5.53292">
        <ele>251</ele>
        <time>2020-02-18T12:53:50Z</time>
      </trkpt>
      <trkpt lat="46.781" lon="5.53285">
        <ele>249.2</ele>
        <time>2020-02-18T12:54:01Z</time>
      </trkpt>
      <trkpt lat="46.781" lon="5.53276">
        <ele>249</ele>
        <time>2020-02-18T12:54:05Z</time>
      </trkpt>
      <trkpt lat="46.781" lon="5.5327">
        <ele>249.4</ele>
        <time>2020-02-18T12:54:10Z</time>
      </trkpt>
      <trkpt lat="46.78101" lon="5.53247">
        <ele>252.1</ele>
        <time>2020-02-18T12:54:23Z</time>
      </trkpt>
      <trkpt lat="46.78101" lon="5.53239">
        <ele>253</ele>
        <time>2020-02-18T12:54:27Z</time>
      </trkpt>
      <trkpt lat="46.78101" lon="5.5323">
        <ele>253.7</ele>
        <time>2020-02-18T12:54:30Z</time>
      </trkpt>
      <trkpt lat="46.78101" lon="5.53222">
        <ele>254.7</ele>
        <time>2020-02-18T12:54:34Z</time>
      </trkpt>
      <trkpt lat="46.78102" lon="5.53215">
        <ele>255.4</ele>
        <time>2020-02-18T12:54:36Z</time>
      </trkpt>
      <trkpt lat="46.78103" lon="5.53208">
        <ele>256.4</ele>
        <time>2020-02-18T12:54:40Z</time>
      </trkpt>
      <trkpt lat="46.78102" lon="5.53197">
        <ele>257.1</ele>
        <time>2020-02-18T12:54:43Z</time>
      </trkpt>
      <trkpt lat="46.78102" lon="5.5319">
        <ele>257.7</ele>
        <time>2020-02-18T12:54:45Z</time>
      </trkpt>
      <trkpt lat="46.78103" lon="5.53184">
        <ele>259</ele>
        <time>2020-02-18T12:54:50Z</time>
      </trkpt>
      <trkpt lat="46.78104" lon="5.53177">
        <ele>259.8</ele>
        <time>2020-02-18T12:54:53Z</time>
      </trkpt>
      <trkpt lat="46.78103" lon="5.5317">
        <ele>260.7</ele>
        <time>2020-02-18T12:54:57Z</time>
      </trkpt>
      <trkpt lat="46.78103" lon="5.53163">
        <ele>262</ele>
        <time>2020-02-18T12:55:02Z</time>
      </trkpt>
      <trkpt lat="46.78104" lon="5.53156">
        <ele>262.7</ele>
        <time>2020-02-18T12:55:05Z</time>
      </trkpt>
      <trkpt lat="46.78104" lon="5.53149">
        <ele>263</ele>
        <time>2020-02-18T12:55:07Z</time>
      </trkpt>
      <trkpt lat="46.78105" lon="5.53142">
        <ele>263.4</ele>
        <time>2020-02-18T12:55:09Z</time>
      </trkpt>
      <trkpt lat="46.78106" lon="5.53134">
        <ele>263.8</ele>
        <time>2020-02-18T12:55:12Z</time>
      </trkpt>
      <trkpt lat="46.7811" lon="5.53128">
        <ele>263.9</ele>
        <time>2020-02-18T12:55:16Z</time>
      </trkpt>
      <trkpt lat="46.78113" lon="5.53122">
        <ele>262.9</ele>
        <time>2020-02-18T12:55:22Z</time>
      </trkpt>
      <trkpt lat="46.78114" lon="5.53116">
        <ele>260.6</ele>
        <time>2020-02-18T12:55:29Z</time>
      </trkpt>
      <trkpt lat="46.78114" lon="5.53109">
        <ele>257.7</ele>
        <time>2020-02-18T12:55:37Z</time>
      </trkpt>
      <trkpt lat="46.78114" lon="5.531">
        <ele>253.4</ele>
        <time>2020-02-18T12:55:48Z</time>
      </trkpt>
      <trkpt lat="46.78115" lon="5.53093">
        <ele>251.7</ele>
        <time>2020-02-18T12:55:53Z</time>
      </trkpt>
      <trkpt lat="46.78116" lon="5.53086">
        <ele>249.8</ele>
        <time>2020-02-18T12:56:01Z</time>
      </trkpt>
      <trkpt lat="46.78118" lon="5.53079">
        <ele>248.3</ele>
        <time>2020-02-18T12:56:08Z</time>
      </trkpt>
      <trkpt lat="46.78118" lon="5.53072">
        <ele>247.4</ele>
        <time>2020-02-18T12:56:12Z</time>
      </trkpt>
      <trkpt lat="46.78118" lon="5.53063">
        <ele>246.4</ele>
        <time>2020-02-18T12:56:16Z</time>
      </trkpt>
      <trkpt lat="46.78117" lon="5.53055">
        <ele>245.6</ele>
        <time>2020-02-18T12:56:20Z</time>
      </trkpt>
      <trkpt lat="46.78117" lon="5.53047">
        <ele>245</ele>
        <time>2020-02-18T12:56:24Z</time>
      </trkpt>
      <trkpt lat="46.78117" lon="5.53039">
        <ele>244.6</ele>
        <time>2020-02-18T12:56:28Z</time>
      </trkpt>
      <trkpt lat="46.78115" lon="5.53033">
        <ele>244</ele>
        <time>2020-02-18T12:56:32Z</time>
      </trkpt>
      <trkpt lat="46.7811" lon="5.53024">
        <ele>245.2</ele>
        <time>2020-02-18T12:57:06Z</time>
      </trkpt>
      <trkpt lat="46.78106" lon="5.53021">
        <ele>246.2</ele>
        <time>2020-02-18T12:57:12Z</time>
      </trkpt>
      <trkpt lat="46.78102" lon="5.53018">
        <ele>247.9</ele>
        <time>2020-02-18T12:57:21Z</time>
      </trkpt>
      <trkpt lat="46.78095" lon="5.53016">
        <ele>248.6</ele>
        <time>2020-02-18T12:57:24Z</time>
      </trkpt>
      <trkpt lat="46.78091" lon="5.53016">
        <ele>249.4</ele>
        <time>2020-02-18T12:57:28Z</time>
      </trkpt>
      <trkpt lat="46.78086" lon="5.53015">
        <ele>250.6</ele>
        <time>2020-02-18T12:57:34Z</time>
      </trkpt>
      <trkpt lat="46.78081" lon="5.53013">
        <ele>252</ele>
        <time>2020-02-18T12:57:40Z</time>
      </trkpt>
      <trkpt lat="46.78074" lon="5.53014">
        <ele>253</ele>
        <time>2020-02-18T12:57:44Z</time>
      </trkpt>
      <trkpt lat="46.7807" lon="5.53015">
        <ele>254.2</ele>
        <time>2020-02-18T12:57:48Z</time>
      </trkpt>
      <trkpt lat="46.78064" lon="5.53014">
        <ele>254.9</ele>
        <time>2020-02-18T12:57:51Z</time>
      </trkpt>
      <trkpt lat="46.78059" lon="5.53015">
        <ele>255.7</ele>
        <time>2020-02-18T12:57:55Z</time>
      </trkpt>
      <trkpt lat="46.78053" lon="5.53015">
        <ele>256.1</ele>
        <time>2020-02-18T12:57:58Z</time>
      </trkpt>
      <trkpt lat="46.78048" lon="5.53014">
        <ele>256.6</ele>
        <time>2020-02-18T12:58:06Z</time>
      </trkpt>
      <trkpt lat="46.78029" lon="5.53019">
        <ele>257.8</ele>
        <time>2020-02-18T12:58:13Z</time>
      </trkpt>
      <trkpt lat="46.78024" lon="5.53021">
        <ele>258.3</ele>
        <time>2020-02-18T12:58:17Z</time>
      </trkpt>
      <trkpt lat="46.78019" lon="5.53023">
        <ele>258.7</ele>
        <time>2020-02-18T12:58:20Z</time>
      </trkpt>
      <trkpt lat="46.78015" lon="5.53025">
        <ele>259.5</ele>
        <time>2020-02-18T12:58:25Z</time>
      </trkpt>
      <trkpt lat="46.78008" lon="5.53025">
        <ele>260.9</ele>
        <time>2020-02-18T12:58:31Z</time>
      </trkpt>
      <trkpt lat="46.78003" lon="5.53027">
        <ele>261.4</ele>
        <time>2020-02-18T12:58:33Z</time>
      </trkpt>
      <trkpt lat="46.77998" lon="5.53028">
        <ele>262.4</ele>
        <time>2020-02-18T12:58:37Z</time>
      </trkpt>
      <trkpt lat="46.77993" lon="5.53028">
        <ele>263.5</ele>
        <time>2020-02-18T12:58:42Z</time>
      </trkpt>
      <trkpt lat="46.77988" lon="5.53029">
        <ele>264.2</ele>
        <time>2020-02-18T12:58:45Z</time>
      </trkpt>
      <trkpt lat="46.77974" lon="5.53029">
        <ele>268.2</ele>
        <time>2020-02-18T12:59:06Z</time>
      </trkpt>
      <trkpt lat="46.7797" lon="5.5303">
        <ele>267.7</ele>
        <time>2020-02-18T12:59:12Z</time>
      </trkpt>
      <trkpt lat="46.77965" lon="5.53032">
        <ele>267</ele>
        <time>2020-02-18T12:59:17Z</time>
      </trkpt>
      <trkpt lat="46.7796" lon="5.53033">
        <ele>266.1</ele>
        <time>2020-02-18T12:59:23Z</time>
      </trkpt>
      <trkpt lat="46.77955" lon="5.53033">
        <ele>265.5</ele>
        <time>2020-02-18T12:59:29Z</time>
      </trkpt>
      <trkpt lat="46.7795" lon="5.53034">
        <ele>265.2</ele>
        <time>2020-02-18T12:59:33Z</time>
      </trkpt>
      <trkpt lat="46.77945" lon="5.53034">
        <ele>264.9</ele>
        <time>2020-02-18T12:59:36Z</time>
      </trkpt>
      <trkpt lat="46.7794" lon="5.53034">
        <ele>264.7</ele>
        <time>2020-02-18T12:59:40Z</time>
      </trkpt>
      <trkpt lat="46.77935" lon="5.53036">
        <ele>264.4</ele>
        <time>2020-02-18T12:59:45Z</time>
      </trkpt>
      <trkpt lat="46.77929" lon="5.53036">
        <ele>264.1</ele>
        <time>2020-02-18T12:59:47Z</time>
      </trkpt>
      <trkpt lat="46.77924" lon="5.53038">
        <ele>263.7</ele>
        <time>2020-02-18T12:59:50Z</time>
      </trkpt>
      <trkpt lat="46.77918" lon="5.53041">
        <ele>263.3</ele>
        <time>2020-02-18T12:59:53Z</time>
      </trkpt>
      <trkpt lat="46.77913" lon="5.53044">
        <ele>262.9</ele>
        <time>2020-02-18T12:59:55Z</time>
      </trkpt>
      <trkpt lat="46.77909" lon="5.53045">
        <ele>262.1</ele>
        <time>2020-02-18T12:59:59Z</time>
      </trkpt>
      <trkpt lat="46.77904" lon="5.53046">
        <ele>261.4</ele>
        <time>2020-02-18T13:00:05Z</time>
      </trkpt>
      <trkpt lat="46.77899" lon="5.53047">
        <ele>261.2</ele>
        <time>2020-02-18T13:00:08Z</time>
      </trkpt>
      <trkpt lat="46.77893" lon="5.53051">
        <ele>260.9</ele>
        <time>2020-02-18T13:00:11Z</time>
      </trkpt>
      <trkpt lat="46.77888" lon="5.53053">
        <ele>260.3</ele>
        <time>2020-02-18T13:00:16Z</time>
      </trkpt>
      <trkpt lat="46.77883" lon="5.53055">
        <ele>259.7</ele>
        <time>2020-02-18T13:00:22Z</time>
      </trkpt>
      <trkpt lat="46.77865" lon="5.53058">
        <ele>261.9</ele>
        <time>2020-02-18T13:00:33Z</time>
      </trkpt>
      <trkpt lat="46.7786" lon="5.5306">
        <ele>262.7</ele>
        <time>2020-02-18T13:00:37Z</time>
      </trkpt>
      <trkpt lat="46.77855" lon="5.53061">
        <ele>264.6</ele>
        <time>2020-02-18T13:00:45Z</time>
      </trkpt>
      <trkpt lat="46.77847" lon="5.53062">
        <ele>268.3</ele>
        <time>2020-02-18T13:00:56Z</time>
      </trkpt>
      <trkpt lat="46.77841" lon="5.53063">
        <ele>268.6</ele>
        <time>2020-02-18T13:00:58Z</time>
      </trkpt>
      <trkpt lat="46.77836" lon="5.53064">
        <ele>269</ele>
        <time>2020-02-18T13:01:00Z</time>
      </trkpt>
      <trkpt lat="46.77829" lon="5.53066">
        <ele>269.5</ele>
        <time>2020-02-18T13:01:02Z</time>
      </trkpt>
      <trkpt lat="46.77819" lon="5.53073">
        <ele>272.7</ele>
        <time>2020-02-18T13:01:14Z</time>
      </trkpt>
      <trkpt lat="46.77808" lon="5.53074">
        <ele>271.3</ele>
        <time>2020-02-18T13:01:34Z</time>
      </trkpt>
      <trkpt lat="46.77804" lon="5.53075">
        <ele>271.5</ele>
        <time>2020-02-18T13:01:36Z</time>
      </trkpt>
      <trkpt lat="46.77799" lon="5.53077">
        <ele>271.6</ele>
        <time>2020-02-18T13:01:38Z</time>
      </trkpt>
      <trkpt lat="46.77795" lon="5.5308">
        <ele>271.8</ele>
        <time>2020-02-18T13:01:41Z</time>
      </trkpt>
      <trkpt lat="46.77789" lon="5.53084">
        <ele>271.9</ele>
        <time>2020-02-18T13:01:44Z</time>
      </trkpt>
      <trkpt lat="46.77785" lon="5.53086">
        <ele>271.9</ele>
        <time>2020-02-18T13:01:49Z</time>
      </trkpt>
      <trkpt lat="46.7778" lon="5.53087">
        <ele>271</ele>
        <time>2020-02-18T13:01:55Z</time>
      </trkpt>
      <trkpt lat="46.77775" lon="5.53087">
        <ele>269.8</ele>
        <time>2020-02-18T13:01:59Z</time>
      </trkpt>
      <trkpt lat="46.7777" lon="5.53086">
        <ele>268.4</ele>
        <time>2020-02-18T13:02:04Z</time>
      </trkpt>
      <trkpt lat="46.77765" lon="5.53086">
        <ele>267.6</ele>
        <time>2020-02-18T13:02:08Z</time>
      </trkpt>
      <trkpt lat="46.77761" lon="5.53087">
        <ele>267.2</ele>
        <time>2020-02-18T13:02:12Z</time>
      </trkpt>
      <trkpt lat="46.77755" lon="5.53086">
        <ele>267</ele>
        <time>2020-02-18T13:02:16Z</time>
      </trkpt>
      <trkpt lat="46.7775" lon="5.53086">
        <ele>267.1</ele>
        <time>2020-02-18T13:02:20Z</time>
      </trkpt>
      <trkpt lat="46.77744" lon="5.53086">
        <ele>267.6</ele>
        <time>2020-02-18T13:02:28Z</time>
      </trkpt>
      <trkpt lat="46.77739" lon="5.53087">
        <ele>267.9</ele>
        <time>2020-02-18T13:02:31Z</time>
      </trkpt>
      <trkpt lat="46.77735" lon="5.53089">
        <ele>268.1</ele>
        <time>2020-02-18T13:02:33Z</time>
      </trkpt>
      <trkpt lat="46.7773" lon="5.53091">
        <ele>268.2</ele>
        <time>2020-02-18T13:02:35Z</time>
      </trkpt>
      <trkpt lat="46.77725" lon="5.53093">
        <ele>268.3</ele>
        <time>2020-02-18T13:02:37Z</time>
      </trkpt>
      <trkpt lat="46.7772" lon="5.53095">
        <ele>268.3</ele>
        <time>2020-02-18T13:02:39Z</time>
      </trkpt>
      <trkpt lat="46.77716" lon="5.53097">
        <ele>268.3</ele>
        <time>2020-02-18T13:02:43Z</time>
      </trkpt>
      <trkpt lat="46.77711" lon="5.53099">
        <ele>267.7</ele>
        <time>2020-02-18T13:02:48Z</time>
      </trkpt>
      <trkpt lat="46.77698" lon="5.53103">
        <ele>266.6</ele>
        <time>2020-02-18T13:03:02Z</time>
      </trkpt>
      <trkpt lat="46.77692" lon="5.53102">
        <ele>266.8</ele>
        <time>2020-02-18T13:03:07Z</time>
      </trkpt>
      <trkpt lat="46.77688" lon="5.531">
        <ele>267.4</ele>
        <time>2020-02-18T13:03:12Z</time>
      </trkpt>
      <trkpt lat="46.7768" lon="5.53104">
        <ele>267.7</ele>
        <time>2020-02-18T13:03:15Z</time>
      </trkpt>
      <trkpt lat="46.77676" lon="5.53107">
        <ele>268.1</ele>
        <time>2020-02-18T13:03:18Z</time>
      </trkpt>
      <trkpt lat="46.7767" lon="5.53108">
        <ele>268.5</ele>
        <time>2020-02-18T13:03:22Z</time>
      </trkpt>
      <trkpt lat="46.77663" lon="5.53111">
        <ele>268.8</ele>
        <time>2020-02-18T13:03:25Z</time>
      </trkpt>
      <trkpt lat="46.77658" lon="5.53113">
        <ele>269</ele>
        <time>2020-02-18T13:03:31Z</time>
      </trkpt>
      <trkpt lat="46.77643" lon="5.53111">
        <ele>267.8</ele>
        <time>2020-02-18T13:03:49Z</time>
      </trkpt>
      <trkpt lat="46.77638" lon="5.5311">
        <ele>267.3</ele>
        <time>2020-02-18T13:03:52Z</time>
      </trkpt>
      <trkpt lat="46.77631" lon="5.53111">
        <ele>265.6</ele>
        <time>2020-02-18T13:03:59Z</time>
      </trkpt>
      <trkpt lat="46.77624" lon="5.53113">
        <ele>265</ele>
        <time>2020-02-18T13:04:01Z</time>
      </trkpt>
      <trkpt lat="46.77617" lon="5.53116">
        <ele>264.5</ele>
        <time>2020-02-18T13:04:03Z</time>
      </trkpt>
      <trkpt lat="46.77611" lon="5.53116">
        <ele>264.1</ele>
        <time>2020-02-18T13:04:05Z</time>
      </trkpt>
      <trkpt lat="46.77606" lon="5.53117">
        <ele>263.8</ele>
        <time>2020-02-18T13:04:07Z</time>
      </trkpt>
      <trkpt lat="46.77601" lon="5.53119">
        <ele>263.4</ele>
        <time>2020-02-18T13:04:11Z</time>
      </trkpt>
      <trkpt lat="46.77597" lon="5.53119">
        <ele>261.8</ele>
        <time>2020-02-18T13:04:20Z</time>
      </trkpt>
      <trkpt lat="46.77591" lon="5.53119">
        <ele>259.4</ele>
        <time>2020-02-18T13:04:27Z</time>
      </trkpt>
      <trkpt lat="46.77586" lon="5.53118">
        <ele>256.3</ele>
        <time>2020-02-18T13:04:36Z</time>
      </trkpt>
      <trkpt lat="46.77582" lon="5.53119">
        <ele>254.9</ele>
        <time>2020-02-18T13:04:41Z</time>
      </trkpt>
      <trkpt lat="46.77572" lon="5.5312">
        <ele>251.6</ele>
        <time>2020-02-18T13:04:49Z</time>
      </trkpt>
      <trkpt lat="46.77566" lon="5.53119">
        <ele>250</ele>
        <time>2020-02-18T13:04:55Z</time>
      </trkpt>
      <trkpt lat="46.77561" lon="5.53116">
        <ele>248.7</ele>
        <time>2020-02-18T13:04:59Z</time>
      </trkpt>
      <trkpt lat="46.77555" lon="5.53115">
        <ele>247</ele>
        <time>2020-02-18T13:05:05Z</time>
      </trkpt>
      <trkpt lat="46.7755" lon="5.53116">
        <ele>245.9</ele>
        <time>2020-02-18T13:05:11Z</time>
      </trkpt>
      <trkpt lat="46.77546" lon="5.53117">
        <ele>245.4</ele>
        <time>2020-02-18T13:05:18Z</time>
      </trkpt>
      <trkpt lat="46.77538" lon="5.53117">
        <ele>246.6</ele>
        <time>2020-02-18T13:05:30Z</time>
      </trkpt>
      <trkpt lat="46.77533" lon="5.53117">
        <ele>247</ele>
        <time>2020-02-18T13:05:33Z</time>
      </trkpt>
      <trkpt lat="46.77524" lon="5.53111">
        <ele>248.8</ele>
        <time>2020-02-18T13:05:44Z</time>
      </trkpt>
      <trkpt lat="46.77523" lon="5.53112">
        <ele>247.4</ele>
        <time>2020-02-18T13:06:39Z</time>
      </trkpt>
      <trkpt lat="46.7751" lon="5.53114">
        <ele>241.7</ele>
        <time>2020-02-18T13:06:48Z</time>
      </trkpt>
      <trkpt lat="46.77504" lon="5.53114">
        <ele>241.1</ele>
        <time>2020-02-18T13:06:50Z</time>
      </trkpt>
      <trkpt lat="46.77499" lon="5.53115">
        <ele>240.1</ele>
        <time>2020-02-18T13:06:53Z</time>
      </trkpt>
      <trkpt lat="46.77494" lon="5.53116">
        <ele>238.8</ele>
        <time>2020-02-18T13:06:57Z</time>
      </trkpt>
      <trkpt lat="46.77489" lon="5.53117">
        <ele>237.9</ele>
        <time>2020-02-18T13:07:00Z</time>
      </trkpt>
      <trkpt lat="46.77483" lon="5.53119">
        <ele>237.1</ele>
        <time>2020-02-18T13:07:04Z</time>
      </trkpt>
      <trkpt lat="46.77478" lon="5.53121">
        <ele>236.7</ele>
        <time>2020-02-18T13:07:07Z</time>
      </trkpt>
      <trkpt lat="46.77474" lon="5.53122">
        <ele>236.5</ele>
        <time>2020-02-18T13:07:09Z</time>
      </trkpt>
      <trkpt lat="46.77469" lon="5.53124">
        <ele>236</ele>
        <time>2020-02-18T13:07:13Z</time>
      </trkpt>
      <trkpt lat="46.77464" lon="5.53126">
        <ele>235.8</ele>
        <time>2020-02-18T13:07:16Z</time>
      </trkpt>
      <trkpt lat="46.77459" lon="5.53129">
        <ele>235.9</ele>
        <time>2020-02-18T13:07:18Z</time>
      </trkpt>
      <trkpt lat="46.77453" lon="5.53131">
        <ele>236.2</ele>
        <time>2020-02-18T13:07:21Z</time>
      </trkpt>
      <trkpt lat="46.77446" lon="5.53132">
        <ele>236.4</ele>
        <time>2020-02-18T13:07:23Z</time>
      </trkpt>
      <trkpt lat="46.77441" lon="5.53133">
        <ele>236.9</ele>
        <time>2020-02-18T13:07:26Z</time>
      </trkpt>
      <trkpt lat="46.77421" lon="5.53138">
        <ele>240.3</ele>
        <time>2020-02-18T13:07:38Z</time>
      </trkpt>
      <trkpt lat="46.77416" lon="5.53138">
        <ele>240.4</ele>
        <time>2020-02-18T13:07:42Z</time>
      </trkpt>
      <trkpt lat="46.7741" lon="5.53139">
        <ele>240</ele>
        <time>2020-02-18T13:07:51Z</time>
      </trkpt>
      <trkpt lat="46.77399" lon="5.53139">
        <ele>236.3</ele>
        <time>2020-02-18T13:08:00Z</time>
      </trkpt>
      <trkpt lat="46.77393" lon="5.5314">
        <ele>236.1</ele>
        <time>2020-02-18T13:08:03Z</time>
      </trkpt>
      <trkpt lat="46.77389" lon="5.5314">
        <ele>235.9</ele>
        <time>2020-02-18T13:08:07Z</time>
      </trkpt>
      <trkpt lat="46.77382" lon="5.53139">
        <ele>235.8</ele>
        <time>2020-02-18T13:08:10Z</time>
      </trkpt>
      <trkpt lat="46.77376" lon="5.53141">
        <ele>235.8</ele>
        <time>2020-02-18T13:08:12Z</time>
      </trkpt>
      <trkpt lat="46.77372" lon="5.53144">
        <ele>235.7</ele>
        <time>2020-02-18T13:08:15Z</time>
      </trkpt>
      <trkpt lat="46.77366" lon="5.53146">
        <ele>235.8</ele>
        <time>2020-02-18T13:08:18Z</time>
      </trkpt>
      <trkpt lat="46.7736" lon="5.53147">
        <ele>236</ele>
        <time>2020-02-18T13:08:20Z</time>
      </trkpt>
      <trkpt lat="46.77354" lon="5.53148">
        <ele>236.4</ele>
        <time>2020-02-18T13:08:24Z</time>
      </trkpt>
      <trkpt lat="46.77348" lon="5.5315">
        <ele>236.7</ele>
        <time>2020-02-18T13:08:27Z</time>
      </trkpt>
      <trkpt lat="46.77344" lon="5.53151">
        <ele>237.5</ele>
        <time>2020-02-18T13:08:33Z</time>
      </trkpt>
      <trkpt lat="46.77338" lon="5.53151">
        <ele>238.2</ele>
        <time>2020-02-18T13:08:37Z</time>
      </trkpt>
      <trkpt lat="46.77332" lon="5.53151">
        <ele>238.9</ele>
        <time>2020-02-18T13:08:42Z</time>
      </trkpt>
      <trkpt lat="46.77327" lon="5.53151">
        <ele>239.4</ele>
        <time>2020-02-18T13:08:45Z</time>
      </trkpt>
      <trkpt lat="46.77322" lon="5.53153">
        <ele>240.2</ele>
        <time>2020-02-18T13:08:49Z</time>
      </trkpt>
      <trkpt lat="46.77318" lon="5.53154">
        <ele>240.6</ele>
        <time>2020-02-18T13:08:51Z</time>
      </trkpt>
      <trkpt lat="46.77312" lon="5.53154">
        <ele>240.9</ele>
        <time>2020-02-18T13:08:53Z</time>
      </trkpt>
      <trkpt lat="46.77306" lon="5.53155">
        <ele>241.4</ele>
        <time>2020-02-18T13:08:56Z</time>
      </trkpt>
      <trkpt lat="46.773" lon="5.53158">
        <ele>241.8</ele>
        <time>2020-02-18T13:08:58Z</time>
      </trkpt>
      <trkpt lat="46.77284" lon="5.53163">
        <ele>243.7</ele>
        <time>2020-02-18T13:09:09Z</time>
      </trkpt>
      <trkpt lat="46.77279" lon="5.53163">
        <ele>243.9</ele>
        <time>2020-02-18T13:09:13Z</time>
      </trkpt>
      <trkpt lat="46.77272" lon="5.53163">
        <ele>244.2</ele>
        <time>2020-02-18T13:09:16Z</time>
      </trkpt>
      <trkpt lat="46.77267" lon="5.53161">
        <ele>244.9</ele>
        <time>2020-02-18T13:09:19Z</time>
      </trkpt>
      <trkpt lat="46.77255" lon="5.53162">
        <ele>248</ele>
        <time>2020-02-18T13:09:28Z</time>
      </trkpt>
      <trkpt lat="46.77249" lon="5.53163">
        <ele>248.5</ele>
        <time>2020-02-18T13:09:33Z</time>
      </trkpt>
      <trkpt lat="46.77244" lon="5.53164">
        <ele>249.3</ele>
        <time>2020-02-18T13:09:38Z</time>
      </trkpt>
      <trkpt lat="46.77238" lon="5.53164">
        <ele>250.3</ele>
        <time>2020-02-18T13:09:42Z</time>
      </trkpt>
      <trkpt lat="46.77233" lon="5.53164">
        <ele>251.2</ele>
        <time>2020-02-18T13:09:45Z</time>
      </trkpt>
      <trkpt lat="46.77229" lon="5.53165">
        <ele>252</ele>
        <time>2020-02-18T13:09:49Z</time>
      </trkpt>
      <trkpt lat="46.77223" lon="5.53165">
        <ele>252.8</ele>
        <time>2020-02-18T13:09:53Z</time>
      </trkpt>
      <trkpt lat="46.77218" lon="5.53165">
        <ele>253.3</ele>
        <time>2020-02-18T13:09:56Z</time>
      </trkpt>
      <trkpt lat="46.77202" lon="5.53166">
        <ele>257</ele>
        <time>2020-02-18T13:10:08Z</time>
      </trkpt>
      <trkpt lat="46.77198" lon="5.53166">
        <ele>258.7</ele>
        <time>2020-02-18T13:10:14Z</time>
      </trkpt>
      <trkpt lat="46.77193" lon="5.53165">
        <ele>260.1</ele>
        <time>2020-02-18T13:10:18Z</time>
      </trkpt>
      <trkpt lat="46.77188" lon="5.53166">
        <ele>261.1</ele>
        <time>2020-02-18T13:10:21Z</time>
      </trkpt>
      <trkpt lat="46.77183" lon="5.53166">
        <ele>262.2</ele>
        <time>2020-02-18T13:10:24Z</time>
      </trkpt>
      <trkpt lat="46.77178" lon="5.53166">
        <ele>263.8</ele>
        <time>2020-02-18T13:10:28Z</time>
      </trkpt>
      <trkpt lat="46.77173" lon="5.53169">
        <ele>265.5</ele>
        <time>2020-02-18T13:10:33Z</time>
      </trkpt>
      <trkpt lat="46.77169" lon="5.53172">
        <ele>266.5</ele>
        <time>2020-02-18T13:10:38Z</time>
      </trkpt>
      <trkpt lat="46.77165" lon="5.53176">
        <ele>266.5</ele>
        <time>2020-02-18T13:10:43Z</time>
      </trkpt>
      <trkpt lat="46.7716" lon="5.5318">
        <ele>265.7</ele>
        <time>2020-02-18T13:10:48Z</time>
      </trkpt>
      <trkpt lat="46.77156" lon="5.53183">
        <ele>264.6</ele>
        <time>2020-02-18T13:10:54Z</time>
      </trkpt>
      <trkpt lat="46.77151" lon="5.53185">
        <ele>263.8</ele>
        <time>2020-02-18T13:10:59Z</time>
      </trkpt>
      <trkpt lat="46.77146" lon="5.53187">
        <ele>262.9</ele>
        <time>2020-02-18T13:11:03Z</time>
      </trkpt>
      <trkpt lat="46.77141" lon="5.53187">
        <ele>261.1</ele>
        <time>2020-02-18T13:11:09Z</time>
      </trkpt>
      <trkpt lat="46.77136" lon="5.53187">
        <ele>259.7</ele>
        <time>2020-02-18T13:11:14Z</time>
      </trkpt>
      <trkpt lat="46.77131" lon="5.53189">
        <ele>257.7</ele>
        <time>2020-02-18T13:11:20Z</time>
      </trkpt>
      <trkpt lat="46.77126" lon="5.5319">
        <ele>256.1</ele>
        <time>2020-02-18T13:11:24Z</time>
      </trkpt>
      <trkpt lat="46.77121" lon="5.5319">
        <ele>252.2</ele>
        <time>2020-02-18T13:11:32Z</time>
      </trkpt>
      <trkpt lat="46.77116" lon="5.53192">
        <ele>250</ele>
        <time>2020-02-18T13:11:36Z</time>
      </trkpt>
      <trkpt lat="46.77111" lon="5.53194">
        <ele>247.8</ele>
        <time>2020-02-18T13:11:40Z</time>
      </trkpt>
      <trkpt lat="46.77105" lon="5.53197">
        <ele>246</ele>
        <time>2020-02-18T13:11:44Z</time>
      </trkpt>
      <trkpt lat="46.77101" lon="5.532">
        <ele>244.5</ele>
        <time>2020-02-18T13:11:48Z</time>
      </trkpt>
      <trkpt lat="46.77097" lon="5.53203">
        <ele>242.7</ele>
        <time>2020-02-18T13:11:53Z</time>
      </trkpt>
      <trkpt lat="46.77093" lon="5.53204">
        <ele>239.8</ele>
        <time>2020-02-18T13:12:04Z</time>
      </trkpt>
      <trkpt lat="46.77087" lon="5.53205">
        <ele>238.6</ele>
        <time>2020-02-18T13:12:09Z</time>
      </trkpt>
      <trkpt lat="46.77082" lon="5.53206">
        <ele>237.4</ele>
        <time>2020-02-18T13:12:13Z</time>
      </trkpt>
      <trkpt lat="46.77077" lon="5.53208">
        <ele>236.5</ele>
        <time>2020-02-18T13:12:16Z</time>
      </trkpt>
      <trkpt lat="46.77072" lon="5.53211">
        <ele>235.5</ele>
        <time>2020-02-18T13:12:19Z</time>
      </trkpt>
      <trkpt lat="46.77068" lon="5.53212">
        <ele>234.2</ele>
        <time>2020-02-18T13:12:23Z</time>
      </trkpt>
      <trkpt lat="46.77062" lon="5.53214">
        <ele>232.8</ele>
        <time>2020-02-18T13:12:28Z</time>
      </trkpt>
      <trkpt lat="46.77057" lon="5.53215">
        <ele>232</ele>
        <time>2020-02-18T13:12:31Z</time>
      </trkpt>
      <trkpt lat="46.77052" lon="5.53217">
        <ele>231.4</ele>
        <time>2020-02-18T13:12:34Z</time>
      </trkpt>
      <trkpt lat="46.77047" lon="5.53216">
        <ele>230.8</ele>
        <time>2020-02-18T13:12:37Z</time>
      </trkpt>
      <trkpt lat="46.77043" lon="5.53216">
        <ele>230.3</ele>
        <time>2020-02-18T13:12:41Z</time>
      </trkpt>
      <trkpt lat="46.77037" lon="5.53214">
        <ele>229.8</ele>
        <time>2020-02-18T13:12:45Z</time>
      </trkpt>
      <trkpt lat="46.77032" lon="5.53213">
        <ele>229.6</ele>
        <time>2020-02-18T13:12:48Z</time>
      </trkpt>
      <trkpt lat="46.77027" lon="5.53212">
        <ele>229.5</ele>
        <time>2020-02-18T13:12:51Z</time>
      </trkpt>
      <trkpt lat="46.77023" lon="5.5321">
        <ele>229.2</ele>
        <time>2020-02-18T13:12:55Z</time>
      </trkpt>
      <trkpt lat="46.77017" lon="5.53207">
        <ele>228.8</ele>
        <time>2020-02-18T13:12:59Z</time>
      </trkpt>
      <trkpt lat="46.77013" lon="5.53205">
        <ele>228.5</ele>
        <time>2020-02-18T13:13:02Z</time>
      </trkpt>
      <trkpt lat="46.77009" lon="5.53204">
        <ele>228.2</ele>
        <time>2020-02-18T13:13:06Z</time>
      </trkpt>
      <trkpt lat="46.77004" lon="5.53202">
        <ele>228.2</ele>
        <time>2020-02-18T13:13:10Z</time>
      </trkpt>
      <trkpt lat="46.76999" lon="5.53201">
        <ele>228.3</ele>
        <time>2020-02-18T13:13:14Z</time>
      </trkpt>
      <trkpt lat="46.76994" lon="5.53199">
        <ele>228.6</ele>
        <time>2020-02-18T13:13:19Z</time>
      </trkpt>
      <trkpt lat="46.76989" lon="5.53198">
        <ele>228.8</ele>
        <time>2020-02-18T13:13:23Z</time>
      </trkpt>
      <trkpt lat="46.76985" lon="5.53195">
        <ele>228.8</ele>
        <time>2020-02-18T13:13:27Z</time>
      </trkpt>
      <trkpt lat="46.7698" lon="5.53192">
        <ele>228.5</ele>
        <time>2020-02-18T13:13:32Z</time>
      </trkpt>
      <trkpt lat="46.76975" lon="5.53189">
        <ele>228.1</ele>
        <time>2020-02-18T13:13:36Z</time>
      </trkpt>
      <trkpt lat="46.7697" lon="5.53185">
        <ele>227.7</ele>
        <time>2020-02-18T13:13:40Z</time>
      </trkpt>
      <trkpt lat="46.76966" lon="5.53183">
        <ele>227.2</ele>
        <time>2020-02-18T13:13:44Z</time>
      </trkpt>
      <trkpt lat="46.7696" lon="5.53182">
        <ele>226.6</ele>
        <time>2020-02-18T13:13:48Z</time>
      </trkpt>
      <trkpt lat="46.76955" lon="5.53182">
        <ele>225.9</ele>
        <time>2020-02-18T13:13:53Z</time>
      </trkpt>
      <trkpt lat="46.7695" lon="5.53181">
        <ele>225.3</ele>
        <time>2020-02-18T13:13:57Z</time>
      </trkpt>
      <trkpt lat="46.76945" lon="5.5318">
        <ele>224.4</ele>
        <time>2020-02-18T13:14:02Z</time>
      </trkpt>
      <trkpt lat="46.7694" lon="5.53179">
        <ele>224</ele>
        <time>2020-02-18T13:14:06Z</time>
      </trkpt>
      <trkpt lat="46.76934" lon="5.53176">
        <ele>223.7</ele>
        <time>2020-02-18T13:14:10Z</time>
      </trkpt>
      <trkpt lat="46.7693" lon="5.53174">
        <ele>223.6</ele>
        <time>2020-02-18T13:14:14Z</time>
      </trkpt>
      <trkpt lat="46.76925" lon="5.53173">
        <ele>223.5</ele>
        <time>2020-02-18T13:14:19Z</time>
      </trkpt>
      <trkpt lat="46.7692" lon="5.53172">
        <ele>223.5</ele>
        <time>2020-02-18T13:14:24Z</time>
      </trkpt>
      <trkpt lat="46.76915" lon="5.53169">
        <ele>223.4</ele>
        <time>2020-02-18T13:14:29Z</time>
      </trkpt>
      <trkpt lat="46.7691" lon="5.53167">
        <ele>223.1</ele>
        <time>2020-02-18T13:14:33Z</time>
      </trkpt>
      <trkpt lat="46.76905" lon="5.53165">
        <ele>222.8</ele>
        <time>2020-02-18T13:14:37Z</time>
      </trkpt>
      <trkpt lat="46.76901" lon="5.53163">
        <ele>222.4</ele>
        <time>2020-02-18T13:14:41Z</time>
      </trkpt>
      <trkpt lat="46.76896" lon="5.53162">
        <ele>221.7</ele>
        <time>2020-02-18T13:14:46Z</time>
      </trkpt>
      <trkpt lat="46.76891" lon="5.53161">
        <ele>221.1</ele>
        <time>2020-02-18T13:14:51Z</time>
      </trkpt>
      <trkpt lat="46.76887" lon="5.5316">
        <ele>220.7</ele>
        <time>2020-02-18T13:14:54Z</time>
      </trkpt>
      <trkpt lat="46.76881" lon="5.53158">
        <ele>220.3</ele>
        <time>2020-02-18T13:14:58Z</time>
      </trkpt>
      <trkpt lat="46.76875" lon="5.53158">
        <ele>219.5</ele>
        <time>2020-02-18T13:15:03Z</time>
      </trkpt>
      <trkpt lat="46.7687" lon="5.53157">
        <ele>218.7</ele>
        <time>2020-02-18T13:15:07Z</time>
      </trkpt>
      <trkpt lat="46.76866" lon="5.53155">
        <ele>217.7</ele>
        <time>2020-02-18T13:15:12Z</time>
      </trkpt>
      <trkpt lat="46.76861" lon="5.53153">
        <ele>217.1</ele>
        <time>2020-02-18T13:15:16Z</time>
      </trkpt>
      <trkpt lat="46.76856" lon="5.5315">
        <ele>216.7</ele>
        <time>2020-02-18T13:15:19Z</time>
      </trkpt>
      <trkpt lat="46.76852" lon="5.53149">
        <ele>216.1</ele>
        <time>2020-02-18T13:15:23Z</time>
      </trkpt>
      <trkpt lat="46.76847" lon="5.53148">
        <ele>215.8</ele>
        <time>2020-02-18T13:15:26Z</time>
      </trkpt>
      <trkpt lat="46.76842" lon="5.53146">
        <ele>215.5</ele>
        <time>2020-02-18T13:15:30Z</time>
      </trkpt>
      <trkpt lat="46.76837" lon="5.53143">
        <ele>215.3</ele>
        <time>2020-02-18T13:15:35Z</time>
      </trkpt>
      <trkpt lat="46.76832" lon="5.5314">
        <ele>215.1</ele>
        <time>2020-02-18T13:15:40Z</time>
      </trkpt>
      <trkpt lat="46.76827" lon="5.53138">
        <ele>215.1</ele>
        <time>2020-02-18T13:15:44Z</time>
      </trkpt>
      <trkpt lat="46.76822" lon="5.53138">
        <ele>215</ele>
        <time>2020-02-18T13:15:48Z</time>
      </trkpt>
      <trkpt lat="46.76817" lon="5.53136">
        <ele>215.1</ele>
        <time>2020-02-18T13:15:53Z</time>
      </trkpt>
      <trkpt lat="46.76813" lon="5.53136">
        <ele>215</ele>
        <time>2020-02-18T13:15:59Z</time>
      </trkpt>
      <trkpt lat="46.76808" lon="5.53136">
        <ele>214.8</ele>
        <time>2020-02-18T13:16:04Z</time>
      </trkpt>
      <trkpt lat="46.76803" lon="5.53135">
        <ele>214.6</ele>
        <time>2020-02-18T13:16:08Z</time>
      </trkpt>
      <trkpt lat="46.76798" lon="5.53134">
        <ele>214.5</ele>
        <time>2020-02-18T13:16:10Z</time>
      </trkpt>
      <trkpt lat="46.76793" lon="5.53133">
        <ele>214.3</ele>
        <time>2020-02-18T13:16:13Z</time>
      </trkpt>
      <trkpt lat="46.76788" lon="5.53132">
        <ele>214.3</ele>
        <time>2020-02-18T13:16:18Z</time>
      </trkpt>
      <trkpt lat="46.76783" lon="5.53133">
        <ele>214.4</ele>
        <time>2020-02-18T13:16:23Z</time>
      </trkpt>
      <trkpt lat="46.76779" lon="5.53134">
        <ele>214.9</ele>
        <time>2020-02-18T13:16:30Z</time>
      </trkpt>
      <trkpt lat="46.76774" lon="5.53135">
        <ele>215.4</ele>
        <time>2020-02-18T13:16:34Z</time>
      </trkpt>
      <trkpt lat="46.76765" lon="5.53134">
        <ele>215.8</ele>
        <time>2020-02-18T13:16:37Z</time>
      </trkpt>
      <trkpt lat="46.76759" lon="5.53135">
        <ele>216</ele>
        <time>2020-02-18T13:16:39Z</time>
      </trkpt>
      <trkpt lat="46.76753" lon="5.53134">
        <ele>216.5</ele>
        <time>2020-02-18T13:16:42Z</time>
      </trkpt>
      <trkpt lat="46.76748" lon="5.53132">
        <ele>216.9</ele>
        <time>2020-02-18T13:16:48Z</time>
      </trkpt>
      <trkpt lat="46.76743" lon="5.53131">
        <ele>216.9</ele>
        <time>2020-02-18T13:16:53Z</time>
      </trkpt>
      <trkpt lat="46.76738" lon="5.53129">
        <ele>216.7</ele>
        <time>2020-02-18T13:16:59Z</time>
      </trkpt>
      <trkpt lat="46.76733" lon="5.53126">
        <ele>216.3</ele>
        <time>2020-02-18T13:17:04Z</time>
      </trkpt>
      <trkpt lat="46.76729" lon="5.53125">
        <ele>215.9</ele>
        <time>2020-02-18T13:17:08Z</time>
      </trkpt>
      <trkpt lat="46.76724" lon="5.53123">
        <ele>215.8</ele>
        <time>2020-02-18T13:17:11Z</time>
      </trkpt>
      <trkpt lat="46.76718" lon="5.53121">
        <ele>215.4</ele>
        <time>2020-02-18T13:17:15Z</time>
      </trkpt>
      <trkpt lat="46.76713" lon="5.53119">
        <ele>214.9</ele>
        <time>2020-02-18T13:17:19Z</time>
      </trkpt>
      <trkpt lat="46.76708" lon="5.53117">
        <ele>214.7</ele>
        <time>2020-02-18T13:17:25Z</time>
      </trkpt>
      <trkpt lat="46.76703" lon="5.53113">
        <ele>214.9</ele>
        <time>2020-02-18T13:17:29Z</time>
      </trkpt>
      <trkpt lat="46.76699" lon="5.53112">
        <ele>215.4</ele>
        <time>2020-02-18T13:17:32Z</time>
      </trkpt>
      <trkpt lat="46.76694" lon="5.5311">
        <ele>216.3</ele>
        <time>2020-02-18T13:17:36Z</time>
      </trkpt>
      <trkpt lat="46.76689" lon="5.53109">
        <ele>218.2</ele>
        <time>2020-02-18T13:17:42Z</time>
      </trkpt>
      <trkpt lat="46.76684" lon="5.53109">
        <ele>219.5</ele>
        <time>2020-02-18T13:17:46Z</time>
      </trkpt>
      <trkpt lat="46.76679" lon="5.53108">
        <ele>220.7</ele>
        <time>2020-02-18T13:17:51Z</time>
      </trkpt>
      <trkpt lat="46.76674" lon="5.53107">
        <ele>221.5</ele>
        <time>2020-02-18T13:17:55Z</time>
      </trkpt>
      <trkpt lat="46.76669" lon="5.5311">
        <ele>222.2</ele>
        <time>2020-02-18T13:17:59Z</time>
      </trkpt>
      <trkpt lat="46.76663" lon="5.53111">
        <ele>222.5</ele>
        <time>2020-02-18T13:18:04Z</time>
      </trkpt>
      <trkpt lat="46.76658" lon="5.53112">
        <ele>222.6</ele>
        <time>2020-02-18T13:18:08Z</time>
      </trkpt>
      <trkpt lat="46.76654" lon="5.53112">
        <ele>222.5</ele>
        <time>2020-02-18T13:18:13Z</time>
      </trkpt>
      <trkpt lat="46.76649" lon="5.5311">
        <ele>222</ele>
        <time>2020-02-18T13:18:17Z</time>
      </trkpt>
      <trkpt lat="46.76644" lon="5.53109">
        <ele>221.5</ele>
        <time>2020-02-18T13:18:20Z</time>
      </trkpt>
      <trkpt lat="46.76639" lon="5.53109">
        <ele>220.5</ele>
        <time>2020-02-18T13:18:24Z</time>
      </trkpt>
      <trkpt lat="46.76634" lon="5.53109">
        <ele>219.6</ele>
        <time>2020-02-18T13:18:29Z</time>
      </trkpt>
      <trkpt lat="46.76628" lon="5.53107">
        <ele>219</ele>
        <time>2020-02-18T13:18:34Z</time>
      </trkpt>
      <trkpt lat="46.76623" lon="5.53105">
        <ele>218.8</ele>
        <time>2020-02-18T13:18:37Z</time>
      </trkpt>
      <trkpt lat="46.76619" lon="5.53107">
        <ele>218.9</ele>
        <time>2020-02-18T13:18:41Z</time>
      </trkpt>
      <trkpt lat="46.76616" lon="5.53113">
        <ele>219.4</ele>
        <time>2020-02-18T13:18:46Z</time>
      </trkpt>
      <trkpt lat="46.76611" lon="5.53116">
        <ele>220.2</ele>
        <time>2020-02-18T13:18:52Z</time>
      </trkpt>
      <trkpt lat="46.76605" lon="5.53118">
        <ele>220.7</ele>
        <time>2020-02-18T13:18:56Z</time>
      </trkpt>
      <trkpt lat="46.766" lon="5.53119">
        <ele>220.9</ele>
        <time>2020-02-18T13:18:59Z</time>
      </trkpt>
      <trkpt lat="46.76595" lon="5.53119">
        <ele>221</ele>
        <time>2020-02-18T13:19:04Z</time>
      </trkpt>
      <trkpt lat="46.7659" lon="5.5312">
        <ele>220.9</ele>
        <time>2020-02-18T13:19:09Z</time>
      </trkpt>
      <trkpt lat="46.76585" lon="5.53118">
        <ele>220.7</ele>
        <time>2020-02-18T13:19:13Z</time>
      </trkpt>
      <trkpt lat="46.76582" lon="5.53124">
        <ele>218.2</ele>
        <time>2020-02-18T13:19:30Z</time>
      </trkpt>
      <trkpt lat="46.76589" lon="5.53143">
        <ele>211.5</ele>
        <time>2020-02-18T13:19:49Z</time>
      </trkpt>
      <trkpt lat="46.76591" lon="5.53149">
        <ele>209.5</ele>
        <time>2020-02-18T13:19:55Z</time>
      </trkpt>
      <trkpt lat="46.76594" lon="5.53157">
        <ele>207.4</ele>
        <time>2020-02-18T13:20:01Z</time>
      </trkpt>
      <trkpt lat="46.76595" lon="5.53163">
        <ele>206.5</ele>
        <time>2020-02-18T13:20:05Z</time>
      </trkpt>
      <trkpt lat="46.76596" lon="5.5317">
        <ele>205.8</ele>
        <time>2020-02-18T13:20:10Z</time>
      </trkpt>
      <trkpt lat="46.76596" lon="5.53177">
        <ele>205.2</ele>
        <time>2020-02-18T13:20:15Z</time>
      </trkpt>
      <trkpt lat="46.76598" lon="5.53184">
        <ele>204.7</ele>
        <time>2020-02-18T13:20:20Z</time>
      </trkpt>
      <trkpt lat="46.76599" lon="5.53191">
        <ele>203.3</ele>
        <time>2020-02-18T13:20:27Z</time>
      </trkpt>
      <trkpt lat="46.766" lon="5.53198">
        <ele>202.2</ele>
        <time>2020-02-18T13:20:33Z</time>
      </trkpt>
      <trkpt lat="46.76601" lon="5.53206">
        <ele>201.8</ele>
        <time>2020-02-18T13:20:37Z</time>
      </trkpt>
      <trkpt lat="46.766" lon="5.53214">
        <ele>201.9</ele>
        <time>2020-02-18T13:20:40Z</time>
      </trkpt>
      <trkpt lat="46.76599" lon="5.5322">
        <ele>202.2</ele>
        <time>2020-02-18T13:20:43Z</time>
      </trkpt>
      <trkpt lat="46.76596" lon="5.53228">
        <ele>202.6</ele>
        <time>2020-02-18T13:20:46Z</time>
      </trkpt>
      <trkpt lat="46.76594" lon="5.53237">
        <ele>203.1</ele>
        <time>2020-02-18T13:20:49Z</time>
      </trkpt>
      <trkpt lat="46.76593" lon="5.53244">
        <ele>205.5</ele>
        <time>2020-02-18T13:21:28Z</time>
      </trkpt>
      <trkpt lat="46.76592" lon="5.53251">
        <ele>205.9</ele>
        <time>2020-02-18T13:21:31Z</time>
      </trkpt>
      <trkpt lat="46.7659" lon="5.53257">
        <ele>206.5</ele>
        <time>2020-02-18T13:21:34Z</time>
      </trkpt>
      <trkpt lat="46.76587" lon="5.53264">
        <ele>207.2</ele>
        <time>2020-02-18T13:21:38Z</time>
      </trkpt>
      <trkpt lat="46.76585" lon="5.53271">
        <ele>208.2</ele>
        <time>2020-02-18T13:21:43Z</time>
      </trkpt>
      <trkpt lat="46.76581" lon="5.53275">
        <ele>209.5</ele>
        <time>2020-02-18T13:21:50Z</time>
      </trkpt>
      <trkpt lat="46.76578" lon="5.53281">
        <ele>210.1</ele>
        <time>2020-02-18T13:21:55Z</time>
      </trkpt>
      <trkpt lat="46.76577" lon="5.53287">
        <ele>210.4</ele>
        <time>2020-02-18T13:22:00Z</time>
      </trkpt>
      <trkpt lat="46.76575" lon="5.53295">
        <ele>211.2</ele>
        <time>2020-02-18T13:22:07Z</time>
      </trkpt>
      <trkpt lat="46.76568" lon="5.53317">
        <ele>211.9</ele>
        <time>2020-02-18T13:22:17Z</time>
      </trkpt>
      <trkpt lat="46.76568" lon="5.53325">
        <ele>211.2</ele>
        <time>2020-02-18T13:22:23Z</time>
      </trkpt>
      <trkpt lat="46.76569" lon="5.53332">
        <ele>210.2</ele>
        <time>2020-02-18T13:22:28Z</time>
      </trkpt>
      <trkpt lat="46.76572" lon="5.53338">
        <ele>209.6</ele>
        <time>2020-02-18T13:22:32Z</time>
      </trkpt>
      <trkpt lat="46.76573" lon="5.53346">
        <ele>208.9</ele>
        <time>2020-02-18T13:22:37Z</time>
      </trkpt>
      <trkpt lat="46.76573" lon="5.53353">
        <ele>208.6</ele>
        <time>2020-02-18T13:22:41Z</time>
      </trkpt>
      <trkpt lat="46.76573" lon="5.53361">
        <ele>208.2</ele>
        <time>2020-02-18T13:22:45Z</time>
      </trkpt>
      <trkpt lat="46.76573" lon="5.53368">
        <ele>208</ele>
        <time>2020-02-18T13:22:49Z</time>
      </trkpt>
      <trkpt lat="46.76574" lon="5.53375">
        <ele>207.8</ele>
        <time>2020-02-18T13:22:55Z</time>
      </trkpt>
      <trkpt lat="46.76573" lon="5.53382">
        <ele>207.7</ele>
        <time>2020-02-18T13:23:01Z</time>
      </trkpt>
      <trkpt lat="46.76574" lon="5.5339">
        <ele>208.1</ele>
        <time>2020-02-18T13:23:08Z</time>
      </trkpt>
      <trkpt lat="46.76575" lon="5.53397">
        <ele>208.4</ele>
        <time>2020-02-18T13:23:17Z</time>
      </trkpt>
      <trkpt lat="46.76575" lon="5.53406">
        <ele>208.3</ele>
        <time>2020-02-18T13:23:20Z</time>
      </trkpt>
      <trkpt lat="46.76574" lon="5.53412">
        <ele>208.3</ele>
        <time>2020-02-18T13:23:22Z</time>
      </trkpt>
      <trkpt lat="46.76571" lon="5.5342">
        <ele>208.2</ele>
        <time>2020-02-18T13:23:25Z</time>
      </trkpt>
      <trkpt lat="46.76571" lon="5.53428">
        <ele>208.1</ele>
        <time>2020-02-18T13:23:28Z</time>
      </trkpt>
      <trkpt lat="46.76571" lon="5.53435">
        <ele>208.1</ele>
        <time>2020-02-18T13:23:33Z</time>
      </trkpt>
      <trkpt lat="46.76571" lon="5.53442">
        <ele>208.2</ele>
        <time>2020-02-18T13:23:36Z</time>
      </trkpt>
      <trkpt lat="46.7657" lon="5.53449">
        <ele>208.1</ele>
        <time>2020-02-18T13:23:40Z</time>
      </trkpt>
      <trkpt lat="46.76573" lon="5.53456">
        <ele>207.7</ele>
        <time>2020-02-18T13:23:47Z</time>
      </trkpt>
      <trkpt lat="46.76573" lon="5.53462">
        <ele>207.4</ele>
        <time>2020-02-18T13:23:53Z</time>
      </trkpt>
      <trkpt lat="46.76572" lon="5.5347">
        <ele>205.9</ele>
        <time>2020-02-18T13:24:01Z</time>
      </trkpt>
      <trkpt lat="46.76569" lon="5.53476">
        <ele>204.7</ele>
        <time>2020-02-18T13:24:06Z</time>
      </trkpt>
      <trkpt lat="46.76566" lon="5.5348">
        <ele>203.4</ele>
        <time>2020-02-18T13:24:14Z</time>
      </trkpt>
      <trkpt lat="46.76561" lon="5.53487">
        <ele>203.4</ele>
        <time>2020-02-18T13:24:16Z</time>
      </trkpt>
      <trkpt lat="46.76558" lon="5.53492">
        <ele>203.5</ele>
        <time>2020-02-18T13:24:18Z</time>
      </trkpt>
      <trkpt lat="46.76554" lon="5.53497">
        <ele>203.7</ele>
        <time>2020-02-18T13:24:20Z</time>
      </trkpt>
      <trkpt lat="46.7655" lon="5.53502">
        <ele>204.1</ele>
        <time>2020-02-18T13:24:23Z</time>
      </trkpt>
      <trkpt lat="46.76545" lon="5.53504">
        <ele>204.8</ele>
        <time>2020-02-18T13:24:27Z</time>
      </trkpt>
      <trkpt lat="46.76541" lon="5.53507">
        <ele>205.3</ele>
        <time>2020-02-18T13:24:30Z</time>
      </trkpt>
      <trkpt lat="46.76536" lon="5.53509">
        <ele>205.7</ele>
        <time>2020-02-18T13:24:33Z</time>
      </trkpt>
      <trkpt lat="46.76531" lon="5.53507">
        <ele>206.3</ele>
        <time>2020-02-18T13:24:37Z</time>
      </trkpt>
      <trkpt lat="46.76525" lon="5.53505">
        <ele>206.8</ele>
        <time>2020-02-18T13:24:40Z</time>
      </trkpt>
      <trkpt lat="46.7652" lon="5.53503">
        <ele>207.5</ele>
        <time>2020-02-18T13:24:43Z</time>
      </trkpt>
      <trkpt lat="46.76515" lon="5.53502">
        <ele>208.2</ele>
        <time>2020-02-18T13:24:46Z</time>
      </trkpt>
      <trkpt lat="46.7651" lon="5.53502">
        <ele>208.9</ele>
        <time>2020-02-18T13:24:50Z</time>
      </trkpt>
      <trkpt lat="46.76505" lon="5.53501">
        <ele>209.9</ele>
        <time>2020-02-18T13:24:56Z</time>
      </trkpt>
      <trkpt lat="46.76499" lon="5.53501">
        <ele>210.6</ele>
        <time>2020-02-18T13:25:02Z</time>
      </trkpt>
      <trkpt lat="46.76495" lon="5.53502">
        <ele>210.7</ele>
        <time>2020-02-18T13:25:06Z</time>
      </trkpt>
      <trkpt lat="46.76489" lon="5.53502">
        <ele>210.6</ele>
        <time>2020-02-18T13:25:10Z</time>
      </trkpt>
      <trkpt lat="46.76485" lon="5.53503">
        <ele>210.4</ele>
        <time>2020-02-18T13:25:14Z</time>
      </trkpt>
      <trkpt lat="46.76479" lon="5.53504">
        <ele>210.2</ele>
        <time>2020-02-18T13:25:19Z</time>
      </trkpt>
      <trkpt lat="46.76474" lon="5.53504">
        <ele>209.8</ele>
        <time>2020-02-18T13:25:24Z</time>
      </trkpt>
      <trkpt lat="46.76469" lon="5.53505">
        <ele>209.4</ele>
        <time>2020-02-18T13:25:28Z</time>
      </trkpt>
      <trkpt lat="46.76464" lon="5.53506">
        <ele>208.8</ele>
        <time>2020-02-18T13:25:32Z</time>
      </trkpt>
      <trkpt lat="46.76459" lon="5.53508">
        <ele>208.5</ele>
        <time>2020-02-18T13:25:36Z</time>
      </trkpt>
      <trkpt lat="46.76454" lon="5.53509">
        <ele>208.1</ele>
        <time>2020-02-18T13:25:40Z</time>
      </trkpt>
      <trkpt lat="46.76449" lon="5.53509">
        <ele>207.6</ele>
        <time>2020-02-18T13:25:45Z</time>
      </trkpt>
      <trkpt lat="46.76443" lon="5.5351">
        <ele>207.2</ele>
        <time>2020-02-18T13:25:50Z</time>
      </trkpt>
      <trkpt lat="46.76438" lon="5.5351">
        <ele>206.9</ele>
        <time>2020-02-18T13:25:55Z</time>
      </trkpt>
      <trkpt lat="46.76433" lon="5.53511">
        <ele>206.7</ele>
        <time>2020-02-18T13:25:59Z</time>
      </trkpt>
      <trkpt lat="46.76428" lon="5.5351">
        <ele>206.1</ele>
        <time>2020-02-18T13:26:04Z</time>
      </trkpt>
      <trkpt lat="46.76423" lon="5.53509">
        <ele>205.5</ele>
        <time>2020-02-18T13:26:09Z</time>
      </trkpt>
      <trkpt lat="46.76418" lon="5.5351">
        <ele>205.2</ele>
        <time>2020-02-18T13:26:13Z</time>
      </trkpt>
      <trkpt lat="46.76413" lon="5.5351">
        <ele>204.9</ele>
        <time>2020-02-18T13:26:17Z</time>
      </trkpt>
      <trkpt lat="46.76408" lon="5.53511">
        <ele>204.7</ele>
        <time>2020-02-18T13:26:21Z</time>
      </trkpt>
      <trkpt lat="46.76403" lon="5.5351">
        <ele>204.3</ele>
        <time>2020-02-18T13:26:25Z</time>
      </trkpt>
      <trkpt lat="46.76398" lon="5.53509">
        <ele>203.8</ele>
        <time>2020-02-18T13:26:29Z</time>
      </trkpt>
      <trkpt lat="46.76393" lon="5.53508">
        <ele>203.3</ele>
        <time>2020-02-18T13:26:33Z</time>
      </trkpt>
      <trkpt lat="46.76389" lon="5.53508">
        <ele>202.8</ele>
        <time>2020-02-18T13:26:37Z</time>
      </trkpt>
      <trkpt lat="46.76383" lon="5.53512">
        <ele>202.4</ele>
        <time>2020-02-18T13:26:41Z</time>
      </trkpt>
      <trkpt lat="46.76379" lon="5.53514">
        <ele>202</ele>
        <time>2020-02-18T13:26:45Z</time>
      </trkpt>
      <trkpt lat="46.76374" lon="5.53517">
        <ele>201.8</ele>
        <time>2020-02-18T13:26:50Z</time>
      </trkpt>
      <trkpt lat="46.76369" lon="5.53518">
        <ele>201.8</ele>
        <time>2020-02-18T13:26:54Z</time>
      </trkpt>
      <trkpt lat="46.76364" lon="5.5352">
        <ele>202.1</ele>
        <time>2020-02-18T13:26:58Z</time>
      </trkpt>
      <trkpt lat="46.76359" lon="5.53522">
        <ele>202.6</ele>
        <time>2020-02-18T13:27:02Z</time>
      </trkpt>
      <trkpt lat="46.76354" lon="5.53523">
        <ele>203.2</ele>
        <time>2020-02-18T13:27:06Z</time>
      </trkpt>
      <trkpt lat="46.7635" lon="5.53525">
        <ele>204</ele>
        <time>2020-02-18T13:27:11Z</time>
      </trkpt>
      <trkpt lat="46.76345" lon="5.53526">
        <ele>204.7</ele>
        <time>2020-02-18T13:27:16Z</time>
      </trkpt>
      <trkpt lat="46.7634" lon="5.53527">
        <ele>205.3</ele>
        <time>2020-02-18T13:27:20Z</time>
      </trkpt>
      <trkpt lat="46.76334" lon="5.53528">
        <ele>205.8</ele>
        <time>2020-02-18T13:27:24Z</time>
      </trkpt>
      <trkpt lat="46.7633" lon="5.53529">
        <ele>206.5</ele>
        <time>2020-02-18T13:27:28Z</time>
      </trkpt>
      <trkpt lat="46.76324" lon="5.53531">
        <ele>207.2</ele>
        <time>2020-02-18T13:27:33Z</time>
      </trkpt>
      <trkpt lat="46.7632" lon="5.53532">
        <ele>207.6</ele>
        <time>2020-02-18T13:27:37Z</time>
      </trkpt>
      <trkpt lat="46.76315" lon="5.53533">
        <ele>207.7</ele>
        <time>2020-02-18T13:27:43Z</time>
      </trkpt>
      <trkpt lat="46.7631" lon="5.53534">
        <ele>207.6</ele>
        <time>2020-02-18T13:27:48Z</time>
      </trkpt>
      <trkpt lat="46.76304" lon="5.53533">
        <ele>207.3</ele>
        <time>2020-02-18T13:27:53Z</time>
      </trkpt>
      <trkpt lat="46.76298" lon="5.53535">
        <ele>207</ele>
        <time>2020-02-18T13:27:58Z</time>
      </trkpt>
      <trkpt lat="46.76292" lon="5.53536">
        <ele>206.9</ele>
        <time>2020-02-18T13:28:02Z</time>
      </trkpt>
      <trkpt lat="46.76288" lon="5.53537">
        <ele>206.5</ele>
        <time>2020-02-18T13:28:06Z</time>
      </trkpt>
      <trkpt lat="46.76283" lon="5.53537">
        <ele>205.8</ele>
        <time>2020-02-18T13:28:11Z</time>
      </trkpt>
      <trkpt lat="46.76278" lon="5.5354">
        <ele>204.8</ele>
        <time>2020-02-18T13:28:16Z</time>
      </trkpt>
      <trkpt lat="46.76273" lon="5.53542">
        <ele>203.9</ele>
        <time>2020-02-18T13:28:20Z</time>
      </trkpt>
      <trkpt lat="46.76267" lon="5.53543">
        <ele>203.1</ele>
        <time>2020-02-18T13:28:24Z</time>
      </trkpt>
      <trkpt lat="46.76262" lon="5.53544">
        <ele>202.5</ele>
        <time>2020-02-18T13:28:28Z</time>
      </trkpt>
      <trkpt lat="46.76257" lon="5.53545">
        <ele>201.6</ele>
        <time>2020-02-18T13:28:34Z</time>
      </trkpt>
      <trkpt lat="46.76251" lon="5.53545">
        <ele>201.5</ele>
        <time>2020-02-18T13:28:38Z</time>
      </trkpt>
      <trkpt lat="46.76246" lon="5.53544">
        <ele>201.8</ele>
        <time>2020-02-18T13:28:43Z</time>
      </trkpt>
      <trkpt lat="46.76242" lon="5.53545">
        <ele>202.2</ele>
        <time>2020-02-18T13:28:51Z</time>
      </trkpt>
      <trkpt lat="46.76237" lon="5.53548">
        <ele>203.2</ele>
        <time>2020-02-18T13:28:59Z</time>
      </trkpt>
      <trkpt lat="46.76232" lon="5.53548">
        <ele>205</ele>
        <time>2020-02-18T13:29:22Z</time>
      </trkpt>
      <trkpt lat="46.76228" lon="5.53546">
        <ele>205.5</ele>
        <time>2020-02-18T13:29:28Z</time>
      </trkpt>
      <trkpt lat="46.76223" lon="5.53547">
        <ele>205.8</ele>
        <time>2020-02-18T13:29:35Z</time>
      </trkpt>
      <trkpt lat="46.76218" lon="5.53547">
        <ele>205.7</ele>
        <time>2020-02-18T13:29:41Z</time>
      </trkpt>
      <trkpt lat="46.76214" lon="5.53549">
        <ele>205.6</ele>
        <time>2020-02-18T13:29:50Z</time>
      </trkpt>
      <trkpt lat="46.76209" lon="5.53546">
        <ele>205</ele>
        <time>2020-02-18T13:30:32Z</time>
      </trkpt>
      <trkpt lat="46.76216" lon="5.53549">
        <ele>206.5</ele>
        <time>2020-02-18T13:31:31Z</time>
      </trkpt>
      <trkpt lat="46.76219" lon="5.53549">
        <ele>209</ele>
        <time>2020-02-18T13:33:00Z</time>
      </trkpt>
      <trkpt lat="46.76223" lon="5.53545">
        <ele>209.3</ele>
        <time>2020-02-18T13:33:04Z</time>
      </trkpt>
      <trkpt lat="46.76227" lon="5.53542">
        <ele>209.8</ele>
        <time>2020-02-18T13:33:08Z</time>
      </trkpt>
      <trkpt lat="46.76232" lon="5.53541">
        <ele>210.5</ele>
        <time>2020-02-18T13:33:14Z</time>
      </trkpt>
      <trkpt lat="46.76237" lon="5.53539">
        <ele>211</ele>
        <time>2020-02-18T13:33:19Z</time>
      </trkpt>
      <trkpt lat="46.76241" lon="5.53536">
        <ele>211.5</ele>
        <time>2020-02-18T13:33:23Z</time>
      </trkpt>
      <trkpt lat="46.76246" lon="5.53534">
        <ele>212.1</ele>
        <time>2020-02-18T13:33:27Z</time>
      </trkpt>
      <trkpt lat="46.76251" lon="5.53531">
        <ele>212.6</ele>
        <time>2020-02-18T13:33:32Z</time>
      </trkpt>
      <trkpt lat="46.76249" lon="5.53525">
        <ele>212.7</ele>
        <time>2020-02-18T13:33:39Z</time>
      </trkpt>
      <trkpt lat="46.76246" lon="5.5352">
        <ele>212.6</ele>
        <time>2020-02-18T13:33:43Z</time>
      </trkpt>
      <trkpt lat="46.76243" lon="5.53515">
        <ele>212.3</ele>
        <time>2020-02-18T13:33:46Z</time>
      </trkpt>
      <trkpt lat="46.76241" lon="5.53507">
        <ele>211.6</ele>
        <time>2020-02-18T13:33:51Z</time>
      </trkpt>
      <trkpt lat="46.76239" lon="5.53501">
        <ele>211.1</ele>
        <time>2020-02-18T13:33:55Z</time>
      </trkpt>
      <trkpt lat="46.76238" lon="5.53494">
        <ele>210.2</ele>
        <time>2020-02-18T13:34:01Z</time>
      </trkpt>
      <trkpt lat="46.76237" lon="5.53487">
        <ele>209.3</ele>
        <time>2020-02-18T13:34:06Z</time>
      </trkpt>
      <trkpt lat="46.76237" lon="5.5348">
        <ele>208.8</ele>
        <time>2020-02-18T13:34:12Z</time>
      </trkpt>
      <trkpt lat="46.76238" lon="5.53461">
        <ele>207</ele>
        <time>2020-02-18T13:34:26Z</time>
      </trkpt>
      <trkpt lat="46.76237" lon="5.53453">
        <ele>206.3</ele>
        <time>2020-02-18T13:34:30Z</time>
      </trkpt>
      <trkpt lat="46.76236" lon="5.53446">
        <ele>205.5</ele>
        <time>2020-02-18T13:34:37Z</time>
      </trkpt>
      <trkpt lat="46.76235" lon="5.53439">
        <ele>205</ele>
        <time>2020-02-18T13:34:42Z</time>
      </trkpt>
      <trkpt lat="46.76233" lon="5.53432">
        <ele>204.5</ele>
        <time>2020-02-18T13:34:46Z</time>
      </trkpt>
      <trkpt lat="46.76231" lon="5.53426">
        <ele>204</ele>
        <time>2020-02-18T13:34:50Z</time>
      </trkpt>
      <trkpt lat="46.7623" lon="5.53419">
        <ele>203.2</ele>
        <time>2020-02-18T13:34:54Z</time>
      </trkpt>
      <trkpt lat="46.76228" lon="5.53411">
        <ele>202.5</ele>
        <time>2020-02-18T13:34:58Z</time>
      </trkpt>
      <trkpt lat="46.76227" lon="5.53404">
        <ele>201.9</ele>
        <time>2020-02-18T13:35:03Z</time>
      </trkpt>
      <trkpt lat="46.76226" lon="5.53398">
        <ele>202</ele>
        <time>2020-02-18T13:35:07Z</time>
      </trkpt>
      <trkpt lat="46.76224" lon="5.5339">
        <ele>202.2</ele>
        <time>2020-02-18T13:35:12Z</time>
      </trkpt>
      <trkpt lat="46.76223" lon="5.53383">
        <ele>202.1</ele>
        <time>2020-02-18T13:35:17Z</time>
      </trkpt>
      <trkpt lat="46.76222" lon="5.53375">
        <ele>202</ele>
        <time>2020-02-18T13:35:22Z</time>
      </trkpt>
      <trkpt lat="46.76222" lon="5.53368">
        <ele>202</ele>
        <time>2020-02-18T13:35:27Z</time>
      </trkpt>
      <trkpt lat="46.76222" lon="5.53361">
        <ele>201.7</ele>
        <time>2020-02-18T13:35:33Z</time>
      </trkpt>
      <trkpt lat="46.76222" lon="5.53354">
        <ele>201.5</ele>
        <time>2020-02-18T13:35:38Z</time>
      </trkpt>
      <trkpt lat="46.76219" lon="5.53333">
        <ele>199.8</ele>
        <time>2020-02-18T13:35:50Z</time>
      </trkpt>
      <trkpt lat="46.76218" lon="5.53325">
        <ele>199.7</ele>
        <time>2020-02-18T13:35:53Z</time>
      </trkpt>
      <trkpt lat="46.76215" lon="5.53318">
        <ele>199.5</ele>
        <time>2020-02-18T13:35:57Z</time>
      </trkpt>
      <trkpt lat="46.76214" lon="5.53311">
        <ele>199.3</ele>
        <time>2020-02-18T13:36:03Z</time>
      </trkpt>
      <trkpt lat="46.76213" lon="5.53303">
        <ele>199.4</ele>
        <time>2020-02-18T13:36:08Z</time>
      </trkpt>
      <trkpt lat="46.76212" lon="5.53296">
        <ele>199.8</ele>
        <time>2020-02-18T13:36:13Z</time>
      </trkpt>
      <trkpt lat="46.7621" lon="5.53288">
        <ele>200</ele>
        <time>2020-02-18T13:36:18Z</time>
      </trkpt>
      <trkpt lat="46.76209" lon="5.53281">
        <ele>200.2</ele>
        <time>2020-02-18T13:36:23Z</time>
      </trkpt>
      <trkpt lat="46.76208" lon="5.53275">
        <ele>200.4</ele>
        <time>2020-02-18T13:36:27Z</time>
      </trkpt>
      <trkpt lat="46.76207" lon="5.53267">
        <ele>201</ele>
        <time>2020-02-18T13:36:34Z</time>
      </trkpt>
      <trkpt lat="46.76207" lon="5.53259">
        <ele>201.7</ele>
        <time>2020-02-18T13:36:39Z</time>
      </trkpt>
      <trkpt lat="46.76207" lon="5.53251">
        <ele>201.9</ele>
        <time>2020-02-18T13:36:44Z</time>
      </trkpt>
      <trkpt lat="46.76207" lon="5.53245">
        <ele>201.9</ele>
        <time>2020-02-18T13:36:47Z</time>
      </trkpt>
      <trkpt lat="46.76207" lon="5.53238">
        <ele>202</ele>
        <time>2020-02-18T13:36:50Z</time>
      </trkpt>
      <trkpt lat="46.76207" lon="5.53231">
        <ele>202.1</ele>
        <time>2020-02-18T13:36:54Z</time>
      </trkpt>
      <trkpt lat="46.76207" lon="5.53223">
        <ele>202.2</ele>
        <time>2020-02-18T13:36:58Z</time>
      </trkpt>
      <trkpt lat="46.76206" lon="5.53216">
        <ele>202.4</ele>
        <time>2020-02-18T13:37:02Z</time>
      </trkpt>
      <trkpt lat="46.76205" lon="5.53207">
        <ele>202.7</ele>
        <time>2020-02-18T13:37:08Z</time>
      </trkpt>
      <trkpt lat="46.76205" lon="5.53199">
        <ele>203.1</ele>
        <time>2020-02-18T13:37:12Z</time>
      </trkpt>
      <trkpt lat="46.76204" lon="5.53191">
        <ele>203.3</ele>
        <time>2020-02-18T13:37:15Z</time>
      </trkpt>
      <trkpt lat="46.76204" lon="5.53183">
        <ele>203.6</ele>
        <time>2020-02-18T13:37:18Z</time>
      </trkpt>
      <trkpt lat="46.76203" lon="5.53176">
        <ele>203.8</ele>
        <time>2020-02-18T13:37:22Z</time>
      </trkpt>
      <trkpt lat="46.76202" lon="5.53168">
        <ele>204.1</ele>
        <time>2020-02-18T13:37:33Z</time>
      </trkpt>
      <trkpt lat="46.76201" lon="5.53159">
        <ele>204.5</ele>
        <time>2020-02-18T13:37:36Z</time>
      </trkpt>
      <trkpt lat="46.762" lon="5.53151">
        <ele>205.1</ele>
        <time>2020-02-18T13:37:39Z</time>
      </trkpt>
      <trkpt lat="46.762" lon="5.53144">
        <ele>206</ele>
        <time>2020-02-18T13:37:46Z</time>
      </trkpt>
      <trkpt lat="46.762" lon="5.53135">
        <ele>206.7</ele>
        <time>2020-02-18T13:37:51Z</time>
      </trkpt>
      <trkpt lat="46.76201" lon="5.53127">
        <ele>207.4</ele>
        <time>2020-02-18T13:37:55Z</time>
      </trkpt>
      <trkpt lat="46.76203" lon="5.53119">
        <ele>208.4</ele>
        <time>2020-02-18T13:38:00Z</time>
      </trkpt>
      <trkpt lat="46.76204" lon="5.53111">
        <ele>209.3</ele>
        <time>2020-02-18T13:38:05Z</time>
      </trkpt>
      <trkpt lat="46.76204" lon="5.53103">
        <ele>209.6</ele>
        <time>2020-02-18T13:38:08Z</time>
      </trkpt>
      <trkpt lat="46.76206" lon="5.53096">
        <ele>209.7</ele>
        <time>2020-02-18T13:38:11Z</time>
      </trkpt>
      <trkpt lat="46.76208" lon="5.53089">
        <ele>209.6</ele>
        <time>2020-02-18T13:38:17Z</time>
      </trkpt>
      <trkpt lat="46.76209" lon="5.53082">
        <ele>209.2</ele>
        <time>2020-02-18T13:38:26Z</time>
      </trkpt>
      <trkpt lat="46.76209" lon="5.53075">
        <ele>209</ele>
        <time>2020-02-18T13:38:30Z</time>
      </trkpt>
      <trkpt lat="46.7621" lon="5.53067">
        <ele>208.7</ele>
        <time>2020-02-18T13:38:37Z</time>
      </trkpt>
      <trkpt lat="46.7621" lon="5.5306">
        <ele>208.4</ele>
        <time>2020-02-18T13:38:41Z</time>
      </trkpt>
      <trkpt lat="46.7621" lon="5.53051">
        <ele>208.2</ele>
        <time>2020-02-18T13:38:45Z</time>
      </trkpt>
      <trkpt lat="46.76209" lon="5.53045">
        <ele>208.1</ele>
        <time>2020-02-18T13:38:48Z</time>
      </trkpt>
      <trkpt lat="46.76209" lon="5.53038">
        <ele>207.9</ele>
        <time>2020-02-18T13:38:51Z</time>
      </trkpt>
      <trkpt lat="46.76207" lon="5.53031">
        <ele>207.9</ele>
        <time>2020-02-18T13:38:54Z</time>
      </trkpt>
      <trkpt lat="46.76206" lon="5.53024">
        <ele>208</ele>
        <time>2020-02-18T13:38:59Z</time>
      </trkpt>
      <trkpt lat="46.76207" lon="5.53017">
        <ele>208.5</ele>
        <time>2020-02-18T13:39:04Z</time>
      </trkpt>
      <trkpt lat="46.76208" lon="5.53009">
        <ele>209</ele>
        <time>2020-02-18T13:39:08Z</time>
      </trkpt>
      <trkpt lat="46.76208" lon="5.53002">
        <ele>209.3</ele>
        <time>2020-02-18T13:39:11Z</time>
      </trkpt>
      <trkpt lat="46.76208" lon="5.52994">
        <ele>209.6</ele>
        <time>2020-02-18T13:39:15Z</time>
      </trkpt>
      <trkpt lat="46.76208" lon="5.52987">
        <ele>209.8</ele>
        <time>2020-02-18T13:39:18Z</time>
      </trkpt>
      <trkpt lat="46.76208" lon="5.5298">
        <ele>209.9</ele>
        <time>2020-02-18T13:39:22Z</time>
      </trkpt>
      <trkpt lat="46.76207" lon="5.52972">
        <ele>210</ele>
        <time>2020-02-18T13:39:27Z</time>
      </trkpt>
      <trkpt lat="46.76207" lon="5.52965">
        <ele>210</ele>
        <time>2020-02-18T13:39:30Z</time>
      </trkpt>
      <trkpt lat="46.76206" lon="5.52957">
        <ele>209.8</ele>
        <time>2020-02-18T13:39:34Z</time>
      </trkpt>
      <trkpt lat="46.76207" lon="5.5295">
        <ele>209.1</ele>
        <time>2020-02-18T13:39:40Z</time>
      </trkpt>
      <trkpt lat="46.76204" lon="5.52944">
        <ele>208.2</ele>
        <time>2020-02-18T13:39:45Z</time>
      </trkpt>
      <trkpt lat="46.762" lon="5.5294">
        <ele>207.3</ele>
        <time>2020-02-18T13:39:50Z</time>
      </trkpt>
      <trkpt lat="46.76195" lon="5.52935">
        <ele>206.4</ele>
        <time>2020-02-18T13:39:55Z</time>
      </trkpt>
      <trkpt lat="46.7619" lon="5.52931">
        <ele>205.7</ele>
        <time>2020-02-18T13:39:58Z</time>
      </trkpt>
      <trkpt lat="46.76186" lon="5.52929">
        <ele>205</ele>
        <time>2020-02-18T13:40:02Z</time>
      </trkpt>
      <trkpt lat="46.7618" lon="5.52929">
        <ele>204.6</ele>
        <time>2020-02-18T13:40:06Z</time>
      </trkpt>
      <trkpt lat="46.76175" lon="5.52928">
        <ele>204.4</ele>
        <time>2020-02-18T13:40:10Z</time>
      </trkpt>
      <trkpt lat="46.7617" lon="5.52927">
        <ele>204.4</ele>
        <time>2020-02-18T13:40:14Z</time>
      </trkpt>
      <trkpt lat="46.76164" lon="5.52927">
        <ele>204.8</ele>
        <time>2020-02-18T13:40:18Z</time>
      </trkpt>
      <trkpt lat="46.76159" lon="5.52927">
        <ele>205.1</ele>
        <time>2020-02-18T13:40:21Z</time>
      </trkpt>
      <trkpt lat="46.76154" lon="5.52926">
        <ele>205.5</ele>
        <time>2020-02-18T13:40:24Z</time>
      </trkpt>
      <trkpt lat="46.7615" lon="5.52927">
        <ele>205.9</ele>
        <time>2020-02-18T13:40:28Z</time>
      </trkpt>
      <trkpt lat="46.76144" lon="5.52928">
        <ele>206.5</ele>
        <time>2020-02-18T13:40:33Z</time>
      </trkpt>
      <trkpt lat="46.76139" lon="5.52928">
        <ele>207.1</ele>
        <time>2020-02-18T13:40:37Z</time>
      </trkpt>
      <trkpt lat="46.76135" lon="5.52928">
        <ele>207.5</ele>
        <time>2020-02-18T13:40:42Z</time>
      </trkpt>
      <trkpt lat="46.76129" lon="5.52928">
        <ele>207.9</ele>
        <time>2020-02-18T13:40:47Z</time>
      </trkpt>
      <trkpt lat="46.76124" lon="5.52928">
        <ele>208.3</ele>
        <time>2020-02-18T13:40:52Z</time>
      </trkpt>
      <trkpt lat="46.76119" lon="5.52929">
        <ele>208.7</ele>
        <time>2020-02-18T13:40:57Z</time>
      </trkpt>
      <trkpt lat="46.76115" lon="5.5293">
        <ele>209</ele>
        <time>2020-02-18T13:41:02Z</time>
      </trkpt>
      <trkpt lat="46.7611" lon="5.52929">
        <ele>209</ele>
        <time>2020-02-18T13:41:08Z</time>
      </trkpt>
      <trkpt lat="46.76105" lon="5.52929">
        <ele>209</ele>
        <time>2020-02-18T13:41:14Z</time>
      </trkpt>
      <trkpt lat="46.761" lon="5.5293">
        <ele>209.1</ele>
        <time>2020-02-18T13:41:18Z</time>
      </trkpt>
      <trkpt lat="46.76096" lon="5.52934">
        <ele>209</ele>
        <time>2020-02-18T13:41:26Z</time>
      </trkpt>
      <trkpt lat="46.76094" lon="5.52941">
        <ele>209.2</ele>
        <time>2020-02-18T13:41:33Z</time>
      </trkpt>
      <trkpt lat="46.76092" lon="5.52947">
        <ele>209.8</ele>
        <time>2020-02-18T13:41:41Z</time>
      </trkpt>
      <trkpt lat="46.76092" lon="5.52955">
        <ele>210.2</ele>
        <time>2020-02-18T13:41:47Z</time>
      </trkpt>
      <trkpt lat="46.76092" lon="5.52963">
        <ele>210.5</ele>
        <time>2020-02-18T13:41:52Z</time>
      </trkpt>
      <trkpt lat="46.7609" lon="5.5297">
        <ele>210.9</ele>
        <time>2020-02-18T13:41:59Z</time>
      </trkpt>
      <trkpt lat="46.76086" lon="5.52974">
        <ele>211</ele>
        <time>2020-02-18T13:42:04Z</time>
      </trkpt>
      <trkpt lat="46.76082" lon="5.52978">
        <ele>210.7</ele>
        <time>2020-02-18T13:42:09Z</time>
      </trkpt>
      <trkpt lat="46.76079" lon="5.52982">
        <ele>210</ele>
        <time>2020-02-18T13:42:15Z</time>
      </trkpt>
      <trkpt lat="46.76076" lon="5.52987">
        <ele>208.5</ele>
        <time>2020-02-18T13:42:24Z</time>
      </trkpt>
      <trkpt lat="46.76071" lon="5.5299">
        <ele>207.8</ele>
        <time>2020-02-18T13:42:36Z</time>
      </trkpt>
      <trkpt lat="46.7607" lon="5.52984">
        <ele>213.1</ele>
        <time>2020-02-18T13:43:35Z</time>
      </trkpt>
    </trkseg>
  </trk>
</gpx>